<?xml version="1.0" encoding="UTF-8" standalone="no" ?>
<gpx xmlns="http://www.topografix.com/GPX/1/1" xmlns:xsi="http://www.w3.org/2001/XMLSchema-instance" xsi:schemaLocation="http://www.topografix.com/GPX/1/1 http://www.topografix.com/GPX/1/1/gpx.xsd" version="1.1" creator="VisuGPX - https://www.visugpx.com">
  <metadata>
    <name>Tête de Bossetan 2025</name>
    <desc><![CDATA[AlpineQuest Track 2/2/25 11:48:05]]></desc>
  </metadata>
  <trk>
    <name><![CDATA[Tête de Bossetan 2025]]></name>
    <extensions>
      <line xmlns="http://www.topografix.com/GPX/gpx_style/0/2">
        <color>0000FF</color>
        <width>4</width>
      </line>
    </extensions>
    <trkseg>
      <trkpt lat="46.12306" lon="6.77489">
        <ele>1736.925</ele>
        <time>2025-02-02T10:48:05Z</time>
      </trkpt>
      <trkpt lat="46.12306" lon="6.7749">
        <ele>1729.035</ele>
        <time>2025-02-02T10:48:10Z</time>
      </trkpt>
      <trkpt lat="46.12307" lon="6.77491">
        <ele>1725.981</ele>
        <time>2025-02-02T10:48:15Z</time>
      </trkpt>
      <trkpt lat="46.12307" lon="6.77491">
        <ele>1725.938</ele>
        <time>2025-02-02T10:48:20Z</time>
      </trkpt>
      <trkpt lat="46.12307" lon="6.77491">
        <ele>1725.916</ele>
        <time>2025-02-02T10:48:25Z</time>
      </trkpt>
      <trkpt lat="46.12307" lon="6.77491">
        <ele>1725.904</ele>
        <time>2025-02-02T10:48:30Z</time>
      </trkpt>
      <trkpt lat="46.12307" lon="6.77491">
        <ele>1725.864</ele>
        <time>2025-02-02T10:48:35Z</time>
      </trkpt>
      <trkpt lat="46.12307" lon="6.77491">
        <ele>1725.842</ele>
        <time>2025-02-02T10:48:40Z</time>
      </trkpt>
      <trkpt lat="46.12307" lon="6.77491">
        <ele>1725.819</ele>
        <time>2025-02-02T10:48:45Z</time>
      </trkpt>
      <trkpt lat="46.12307" lon="6.77491">
        <ele>1725.786</ele>
        <time>2025-02-02T10:48:50Z</time>
      </trkpt>
      <trkpt lat="46.12307" lon="6.77491">
        <ele>1725.773</ele>
        <time>2025-02-02T10:48:55Z</time>
      </trkpt>
      <trkpt lat="46.12307" lon="6.77491">
        <ele>1725.772</ele>
        <time>2025-02-02T10:49:00Z</time>
      </trkpt>
      <trkpt lat="46.12307" lon="6.77491">
        <ele>1725.725</ele>
        <time>2025-02-02T10:49:05Z</time>
      </trkpt>
      <trkpt lat="46.12307" lon="6.77491">
        <ele>1725.613</ele>
        <time>2025-02-02T10:49:10Z</time>
      </trkpt>
      <trkpt lat="46.12307" lon="6.77491">
        <ele>1725.533</ele>
        <time>2025-02-02T10:49:15Z</time>
      </trkpt>
      <trkpt lat="46.12307" lon="6.77491">
        <ele>1725.472</ele>
        <time>2025-02-02T10:49:20Z</time>
      </trkpt>
      <trkpt lat="46.12307" lon="6.77491">
        <ele>1725.332</ele>
        <time>2025-02-02T10:49:25Z</time>
      </trkpt>
      <trkpt lat="46.12307" lon="6.77491">
        <ele>1725.176</ele>
        <time>2025-02-02T10:49:30Z</time>
      </trkpt>
      <trkpt lat="46.12307" lon="6.77491">
        <ele>1725.071</ele>
        <time>2025-02-02T10:49:35Z</time>
      </trkpt>
      <trkpt lat="46.12307" lon="6.77491">
        <ele>1724.926</ele>
        <time>2025-02-02T10:49:40Z</time>
      </trkpt>
      <trkpt lat="46.12307" lon="6.77491">
        <ele>1724.836</ele>
        <time>2025-02-02T10:49:45Z</time>
      </trkpt>
      <trkpt lat="46.12307" lon="6.77491">
        <ele>1724.626</ele>
        <time>2025-02-02T10:49:50Z</time>
      </trkpt>
      <trkpt lat="46.12307" lon="6.77491">
        <ele>1724.041</ele>
        <time>2025-02-02T10:49:55Z</time>
      </trkpt>
      <trkpt lat="46.12307" lon="6.77491">
        <ele>1722.414</ele>
        <time>2025-02-02T10:50:00Z</time>
      </trkpt>
      <trkpt lat="46.12307" lon="6.77491">
        <ele>1721.967</ele>
        <time>2025-02-02T10:50:05Z</time>
      </trkpt>
      <trkpt lat="46.12307" lon="6.77491">
        <ele>1721.943</ele>
        <time>2025-02-02T10:50:10Z</time>
      </trkpt>
      <trkpt lat="46.12307" lon="6.77491">
        <ele>1721.932</ele>
        <time>2025-02-02T10:50:15Z</time>
      </trkpt>
      <trkpt lat="46.12307" lon="6.77491">
        <ele>1721.934</ele>
        <time>2025-02-02T10:50:20Z</time>
      </trkpt>
      <trkpt lat="46.12307" lon="6.77491">
        <ele>1721.932</ele>
        <time>2025-02-02T10:50:25Z</time>
      </trkpt>
      <trkpt lat="46.12307" lon="6.77491">
        <ele>1721.928</ele>
        <time>2025-02-02T10:50:30Z</time>
      </trkpt>
      <trkpt lat="46.12307" lon="6.77491">
        <ele>1721.923</ele>
        <time>2025-02-02T10:50:35Z</time>
      </trkpt>
      <trkpt lat="46.12307" lon="6.77491">
        <ele>1721.919</ele>
        <time>2025-02-02T10:50:40Z</time>
      </trkpt>
      <trkpt lat="46.12307" lon="6.77491">
        <ele>1721.912</ele>
        <time>2025-02-02T10:50:45Z</time>
      </trkpt>
      <trkpt lat="46.12307" lon="6.77491">
        <ele>1721.91</ele>
        <time>2025-02-02T10:50:50Z</time>
      </trkpt>
      <trkpt lat="46.12307" lon="6.77491">
        <ele>1721.908</ele>
        <time>2025-02-02T10:50:55Z</time>
      </trkpt>
      <trkpt lat="46.12306" lon="6.77492">
        <ele>1721.908</ele>
        <time>2025-02-02T10:51:00Z</time>
      </trkpt>
      <trkpt lat="46.12306" lon="6.77492">
        <ele>1721.902</ele>
        <time>2025-02-02T10:51:05Z</time>
      </trkpt>
      <trkpt lat="46.12306" lon="6.77492">
        <ele>1721.898</ele>
        <time>2025-02-02T10:51:10Z</time>
      </trkpt>
      <trkpt lat="46.12306" lon="6.77492">
        <ele>1721.896</ele>
        <time>2025-02-02T10:51:15Z</time>
      </trkpt>
      <trkpt lat="46.12306" lon="6.77492">
        <ele>1721.894</ele>
        <time>2025-02-02T10:51:20Z</time>
      </trkpt>
      <trkpt lat="46.12309" lon="6.77495">
        <ele>1721.842</ele>
        <time>2025-02-02T10:51:25Z</time>
      </trkpt>
      <trkpt lat="46.12308" lon="6.77503">
        <ele>1725.177</ele>
        <time>2025-02-02T10:51:30Z</time>
      </trkpt>
      <trkpt lat="46.1231" lon="6.77507">
        <ele>1721.675</ele>
        <time>2025-02-02T10:51:35Z</time>
      </trkpt>
      <trkpt lat="46.1231" lon="6.77509">
        <ele>1722.034</ele>
        <time>2025-02-02T10:51:40Z</time>
      </trkpt>
      <trkpt lat="46.12311" lon="6.77509">
        <ele>1722.434</ele>
        <time>2025-02-02T10:51:45Z</time>
      </trkpt>
      <trkpt lat="46.12311" lon="6.7751">
        <ele>1722.281</ele>
        <time>2025-02-02T10:51:50Z</time>
      </trkpt>
      <trkpt lat="46.1231" lon="6.7751">
        <ele>1722.337</ele>
        <time>2025-02-02T10:51:55Z</time>
      </trkpt>
      <trkpt lat="46.1231" lon="6.77511">
        <ele>1723.439</ele>
        <time>2025-02-02T10:52:00Z</time>
      </trkpt>
      <trkpt lat="46.12311" lon="6.77521">
        <ele>1724.322</ele>
        <time>2025-02-02T10:52:05Z</time>
      </trkpt>
      <trkpt lat="46.12314" lon="6.77523">
        <ele>1723.93</ele>
        <time>2025-02-02T10:52:10Z</time>
      </trkpt>
      <trkpt lat="46.12315" lon="6.77526">
        <ele>1724.949</ele>
        <time>2025-02-02T10:52:15Z</time>
      </trkpt>
      <trkpt lat="46.12315" lon="6.7753">
        <ele>1727.215</ele>
        <time>2025-02-02T10:52:20Z</time>
      </trkpt>
      <trkpt lat="46.12317" lon="6.77531">
        <ele>1726.221</ele>
        <time>2025-02-02T10:52:25Z</time>
      </trkpt>
      <trkpt lat="46.12319" lon="6.77531">
        <ele>1726.29</ele>
        <time>2025-02-02T10:52:30Z</time>
      </trkpt>
      <trkpt lat="46.12322" lon="6.77536">
        <ele>1725.548</ele>
        <time>2025-02-02T10:52:35Z</time>
      </trkpt>
      <trkpt lat="46.12323" lon="6.77541">
        <ele>1726.731</ele>
        <time>2025-02-02T10:52:40Z</time>
      </trkpt>
      <trkpt lat="46.12324" lon="6.77545">
        <ele>1728.399</ele>
        <time>2025-02-02T10:52:45Z</time>
      </trkpt>
      <trkpt lat="46.12324" lon="6.7755">
        <ele>1729.691</ele>
        <time>2025-02-02T10:52:50Z</time>
      </trkpt>
      <trkpt lat="46.12326" lon="6.77553">
        <ele>1729.754</ele>
        <time>2025-02-02T10:52:55Z</time>
      </trkpt>
      <trkpt lat="46.12328" lon="6.77556">
        <ele>1729.489</ele>
        <time>2025-02-02T10:53:00Z</time>
      </trkpt>
      <trkpt lat="46.12329" lon="6.77558">
        <ele>1729.489</ele>
        <time>2025-02-02T10:53:05Z</time>
      </trkpt>
      <trkpt lat="46.1233" lon="6.77561">
        <ele>1729.899</ele>
        <time>2025-02-02T10:53:10Z</time>
      </trkpt>
      <trkpt lat="46.12331" lon="6.77564">
        <ele>1730.54</ele>
        <time>2025-02-02T10:53:15Z</time>
      </trkpt>
      <trkpt lat="46.12332" lon="6.77567">
        <ele>1729.99</ele>
        <time>2025-02-02T10:53:20Z</time>
      </trkpt>
      <trkpt lat="46.12333" lon="6.7757">
        <ele>1731.611</ele>
        <time>2025-02-02T10:53:25Z</time>
      </trkpt>
      <trkpt lat="46.12334" lon="6.77573">
        <ele>1730.346</ele>
        <time>2025-02-02T10:53:30Z</time>
      </trkpt>
      <trkpt lat="46.12335" lon="6.77575">
        <ele>1731.25</ele>
        <time>2025-02-02T10:53:35Z</time>
      </trkpt>
      <trkpt lat="46.12335" lon="6.77575">
        <ele>1731.134</ele>
        <time>2025-02-02T10:53:40Z</time>
      </trkpt>
      <trkpt lat="46.12335" lon="6.77578">
        <ele>1731.607</ele>
        <time>2025-02-02T10:53:45Z</time>
      </trkpt>
      <trkpt lat="46.12337" lon="6.77582">
        <ele>1731.185</ele>
        <time>2025-02-02T10:53:50Z</time>
      </trkpt>
      <trkpt lat="46.12337" lon="6.77586">
        <ele>1731.758</ele>
        <time>2025-02-02T10:53:55Z</time>
      </trkpt>
      <trkpt lat="46.12338" lon="6.7759">
        <ele>1731.793</ele>
        <time>2025-02-02T10:54:00Z</time>
      </trkpt>
      <trkpt lat="46.1234" lon="6.77595">
        <ele>1733.54</ele>
        <time>2025-02-02T10:54:05Z</time>
      </trkpt>
      <trkpt lat="46.12341" lon="6.776">
        <ele>1735.873</ele>
        <time>2025-02-02T10:54:10Z</time>
      </trkpt>
      <trkpt lat="46.12342" lon="6.77605">
        <ele>1734.597</ele>
        <time>2025-02-02T10:54:15Z</time>
      </trkpt>
      <trkpt lat="46.12342" lon="6.77608">
        <ele>1735.916</ele>
        <time>2025-02-02T10:54:20Z</time>
      </trkpt>
      <trkpt lat="46.12344" lon="6.77612">
        <ele>1737.213</ele>
        <time>2025-02-02T10:54:25Z</time>
      </trkpt>
      <trkpt lat="46.12344" lon="6.77615">
        <ele>1735.418</ele>
        <time>2025-02-02T10:54:30Z</time>
      </trkpt>
      <trkpt lat="46.12344" lon="6.77619">
        <ele>1735.75</ele>
        <time>2025-02-02T10:54:35Z</time>
      </trkpt>
      <trkpt lat="46.12345" lon="6.77622">
        <ele>1736.506</ele>
        <time>2025-02-02T10:54:40Z</time>
      </trkpt>
      <trkpt lat="46.12345" lon="6.77625">
        <ele>1735.677</ele>
        <time>2025-02-02T10:54:45Z</time>
      </trkpt>
      <trkpt lat="46.12345" lon="6.77625">
        <ele>1735.204</ele>
        <time>2025-02-02T10:54:50Z</time>
      </trkpt>
      <trkpt lat="46.12345" lon="6.77625">
        <ele>1734.978</ele>
        <time>2025-02-02T10:54:55Z</time>
      </trkpt>
      <trkpt lat="46.12345" lon="6.77625">
        <ele>1735.578</ele>
        <time>2025-02-02T10:55:00Z</time>
      </trkpt>
      <trkpt lat="46.12345" lon="6.77625">
        <ele>1735.845</ele>
        <time>2025-02-02T10:55:05Z</time>
      </trkpt>
      <trkpt lat="46.12345" lon="6.77625">
        <ele>1736.795</ele>
        <time>2025-02-02T10:55:10Z</time>
      </trkpt>
      <trkpt lat="46.12345" lon="6.77625">
        <ele>1737.487</ele>
        <time>2025-02-02T10:55:15Z</time>
      </trkpt>
      <trkpt lat="46.12345" lon="6.77625">
        <ele>1737.48</ele>
        <time>2025-02-02T10:55:20Z</time>
      </trkpt>
      <trkpt lat="46.12345" lon="6.77633">
        <ele>1737.486</ele>
        <time>2025-02-02T10:55:25Z</time>
      </trkpt>
      <trkpt lat="46.12345" lon="6.77633">
        <ele>1737.493</ele>
        <time>2025-02-02T10:55:30Z</time>
      </trkpt>
      <trkpt lat="46.12345" lon="6.77635">
        <ele>1738.768</ele>
        <time>2025-02-02T10:55:35Z</time>
      </trkpt>
      <trkpt lat="46.12346" lon="6.7764">
        <ele>1736.242</ele>
        <time>2025-02-02T10:55:40Z</time>
      </trkpt>
      <trkpt lat="46.12346" lon="6.77646">
        <ele>1737.794</ele>
        <time>2025-02-02T10:55:45Z</time>
      </trkpt>
      <trkpt lat="46.12348" lon="6.77652">
        <ele>1738.825</ele>
        <time>2025-02-02T10:55:50Z</time>
      </trkpt>
      <trkpt lat="46.12347" lon="6.7766">
        <ele>1740.724</ele>
        <time>2025-02-02T10:55:55Z</time>
      </trkpt>
      <trkpt lat="46.12347" lon="6.77666">
        <ele>1742.425</ele>
        <time>2025-02-02T10:56:00Z</time>
      </trkpt>
      <trkpt lat="46.12347" lon="6.77672">
        <ele>1742.067</ele>
        <time>2025-02-02T10:56:05Z</time>
      </trkpt>
      <trkpt lat="46.12348" lon="6.77677">
        <ele>1741.279</ele>
        <time>2025-02-02T10:56:10Z</time>
      </trkpt>
      <trkpt lat="46.12348" lon="6.77682">
        <ele>1742.092</ele>
        <time>2025-02-02T10:56:15Z</time>
      </trkpt>
      <trkpt lat="46.12349" lon="6.77687">
        <ele>1743.013</ele>
        <time>2025-02-02T10:56:20Z</time>
      </trkpt>
      <trkpt lat="46.12351" lon="6.77691">
        <ele>1742.278</ele>
        <time>2025-02-02T10:56:25Z</time>
      </trkpt>
      <trkpt lat="46.12352" lon="6.77696">
        <ele>1741.755</ele>
        <time>2025-02-02T10:56:30Z</time>
      </trkpt>
      <trkpt lat="46.12354" lon="6.77701">
        <ele>1742.668</ele>
        <time>2025-02-02T10:56:35Z</time>
      </trkpt>
      <trkpt lat="46.12356" lon="6.77704">
        <ele>1743.384</ele>
        <time>2025-02-02T10:56:40Z</time>
      </trkpt>
      <trkpt lat="46.12359" lon="6.77707">
        <ele>1742.727</ele>
        <time>2025-02-02T10:56:45Z</time>
      </trkpt>
      <trkpt lat="46.12362" lon="6.77706">
        <ele>1744.428</ele>
        <time>2025-02-02T10:56:50Z</time>
      </trkpt>
      <trkpt lat="46.12363" lon="6.77703">
        <ele>1747.107</ele>
        <time>2025-02-02T10:56:55Z</time>
      </trkpt>
      <trkpt lat="46.12365" lon="6.77698">
        <ele>1748.105</ele>
        <time>2025-02-02T10:57:00Z</time>
      </trkpt>
      <trkpt lat="46.12367" lon="6.77693">
        <ele>1749.439</ele>
        <time>2025-02-02T10:57:05Z</time>
      </trkpt>
      <trkpt lat="46.1237" lon="6.77689">
        <ele>1750.768</ele>
        <time>2025-02-02T10:57:10Z</time>
      </trkpt>
      <trkpt lat="46.12372" lon="6.77686">
        <ele>1751.564</ele>
        <time>2025-02-02T10:57:15Z</time>
      </trkpt>
      <trkpt lat="46.12372" lon="6.77686">
        <ele>1751.853</ele>
        <time>2025-02-02T10:57:20Z</time>
      </trkpt>
      <trkpt lat="46.12373" lon="6.77681">
        <ele>1751.355</ele>
        <time>2025-02-02T10:57:25Z</time>
      </trkpt>
      <trkpt lat="46.12373" lon="6.77676">
        <ele>1751.577</ele>
        <time>2025-02-02T10:57:30Z</time>
      </trkpt>
      <trkpt lat="46.12372" lon="6.77675">
        <ele>1752.58</ele>
        <time>2025-02-02T10:57:35Z</time>
      </trkpt>
      <trkpt lat="46.12373" lon="6.77671">
        <ele>1753.351</ele>
        <time>2025-02-02T10:57:40Z</time>
      </trkpt>
      <trkpt lat="46.12373" lon="6.7767">
        <ele>1753.35</ele>
        <time>2025-02-02T10:57:45Z</time>
      </trkpt>
      <trkpt lat="46.12374" lon="6.77666">
        <ele>1755.063</ele>
        <time>2025-02-02T10:57:50Z</time>
      </trkpt>
      <trkpt lat="46.12373" lon="6.77662">
        <ele>1756.076</ele>
        <time>2025-02-02T10:57:55Z</time>
      </trkpt>
      <trkpt lat="46.12375" lon="6.77656">
        <ele>1758.731</ele>
        <time>2025-02-02T10:58:00Z</time>
      </trkpt>
      <trkpt lat="46.12376" lon="6.77652">
        <ele>1756.842</ele>
        <time>2025-02-02T10:58:05Z</time>
      </trkpt>
      <trkpt lat="46.12377" lon="6.77652">
        <ele>1756.405</ele>
        <time>2025-02-02T10:58:10Z</time>
      </trkpt>
      <trkpt lat="46.12377" lon="6.77652">
        <ele>1756.428</ele>
        <time>2025-02-02T10:58:15Z</time>
      </trkpt>
      <trkpt lat="46.12377" lon="6.77652">
        <ele>1756.634</ele>
        <time>2025-02-02T10:58:20Z</time>
      </trkpt>
      <trkpt lat="46.12377" lon="6.77652">
        <ele>1756.984</ele>
        <time>2025-02-02T10:58:25Z</time>
      </trkpt>
      <trkpt lat="46.12377" lon="6.77652">
        <ele>1756.424</ele>
        <time>2025-02-02T10:58:30Z</time>
      </trkpt>
      <trkpt lat="46.12377" lon="6.77652">
        <ele>1757.189</ele>
        <time>2025-02-02T10:58:35Z</time>
      </trkpt>
      <trkpt lat="46.12377" lon="6.77652">
        <ele>1755.783</ele>
        <time>2025-02-02T10:58:40Z</time>
      </trkpt>
      <trkpt lat="46.12377" lon="6.77652">
        <ele>1756.433</ele>
        <time>2025-02-02T10:58:45Z</time>
      </trkpt>
      <trkpt lat="46.12377" lon="6.77652">
        <ele>1756.317</ele>
        <time>2025-02-02T10:58:50Z</time>
      </trkpt>
      <trkpt lat="46.12378" lon="6.7764">
        <ele>1756.448</ele>
        <time>2025-02-02T10:58:55Z</time>
      </trkpt>
      <trkpt lat="46.12378" lon="6.7764">
        <ele>1756.452</ele>
        <time>2025-02-02T10:59:00Z</time>
      </trkpt>
      <trkpt lat="46.12379" lon="6.77638">
        <ele>1754.708</ele>
        <time>2025-02-02T10:59:05Z</time>
      </trkpt>
      <trkpt lat="46.1238" lon="6.77638">
        <ele>1754.312</ele>
        <time>2025-02-02T10:59:10Z</time>
      </trkpt>
      <trkpt lat="46.12382" lon="6.77631">
        <ele>1753.658</ele>
        <time>2025-02-02T10:59:15Z</time>
      </trkpt>
      <trkpt lat="46.12382" lon="6.77627">
        <ele>1755.7</ele>
        <time>2025-02-02T10:59:20Z</time>
      </trkpt>
      <trkpt lat="46.12382" lon="6.7762">
        <ele>1755.885</ele>
        <time>2025-02-02T10:59:25Z</time>
      </trkpt>
      <trkpt lat="46.12383" lon="6.77614">
        <ele>1757.769</ele>
        <time>2025-02-02T10:59:30Z</time>
      </trkpt>
      <trkpt lat="46.12383" lon="6.77608">
        <ele>1756.541</ele>
        <time>2025-02-02T10:59:35Z</time>
      </trkpt>
      <trkpt lat="46.12384" lon="6.77602">
        <ele>1757.257</ele>
        <time>2025-02-02T10:59:40Z</time>
      </trkpt>
      <trkpt lat="46.12385" lon="6.77597">
        <ele>1757.548</ele>
        <time>2025-02-02T10:59:45Z</time>
      </trkpt>
      <trkpt lat="46.12386" lon="6.77593">
        <ele>1758.514</ele>
        <time>2025-02-02T10:59:50Z</time>
      </trkpt>
      <trkpt lat="46.12387" lon="6.77588">
        <ele>1758.855</ele>
        <time>2025-02-02T10:59:55Z</time>
      </trkpt>
      <trkpt lat="46.12387" lon="6.77584">
        <ele>1759.832</ele>
        <time>2025-02-02T11:00:00Z</time>
      </trkpt>
      <trkpt lat="46.12388" lon="6.7758">
        <ele>1759.511</ele>
        <time>2025-02-02T11:00:05Z</time>
      </trkpt>
      <trkpt lat="46.12389" lon="6.77575">
        <ele>1760.303</ele>
        <time>2025-02-02T11:00:10Z</time>
      </trkpt>
      <trkpt lat="46.12389" lon="6.77571">
        <ele>1761.574</ele>
        <time>2025-02-02T11:00:15Z</time>
      </trkpt>
      <trkpt lat="46.12388" lon="6.77567">
        <ele>1762.655</ele>
        <time>2025-02-02T11:00:20Z</time>
      </trkpt>
      <trkpt lat="46.12388" lon="6.77564">
        <ele>1763.736</ele>
        <time>2025-02-02T11:00:25Z</time>
      </trkpt>
      <trkpt lat="46.12389" lon="6.7756">
        <ele>1764.815</ele>
        <time>2025-02-02T11:00:30Z</time>
      </trkpt>
      <trkpt lat="46.12389" lon="6.77556">
        <ele>1765.29</ele>
        <time>2025-02-02T11:00:35Z</time>
      </trkpt>
      <trkpt lat="46.12389" lon="6.77551">
        <ele>1765.27</ele>
        <time>2025-02-02T11:00:40Z</time>
      </trkpt>
      <trkpt lat="46.12389" lon="6.77547">
        <ele>1766.338</ele>
        <time>2025-02-02T11:00:45Z</time>
      </trkpt>
      <trkpt lat="46.12389" lon="6.77543">
        <ele>1767.693</ele>
        <time>2025-02-02T11:00:50Z</time>
      </trkpt>
      <trkpt lat="46.12389" lon="6.77539">
        <ele>1769.157</ele>
        <time>2025-02-02T11:00:55Z</time>
      </trkpt>
      <trkpt lat="46.12389" lon="6.77536">
        <ele>1769.887</ele>
        <time>2025-02-02T11:01:00Z</time>
      </trkpt>
      <trkpt lat="46.12389" lon="6.77531">
        <ele>1770.274</ele>
        <time>2025-02-02T11:01:05Z</time>
      </trkpt>
      <trkpt lat="46.12388" lon="6.77526">
        <ele>1771.233</ele>
        <time>2025-02-02T11:01:10Z</time>
      </trkpt>
      <trkpt lat="46.12388" lon="6.77522">
        <ele>1771.627</ele>
        <time>2025-02-02T11:01:15Z</time>
      </trkpt>
      <trkpt lat="46.12388" lon="6.77517">
        <ele>1771.447</ele>
        <time>2025-02-02T11:01:20Z</time>
      </trkpt>
      <trkpt lat="46.12388" lon="6.77512">
        <ele>1771.747</ele>
        <time>2025-02-02T11:01:25Z</time>
      </trkpt>
      <trkpt lat="46.12388" lon="6.77507">
        <ele>1771.923</ele>
        <time>2025-02-02T11:01:30Z</time>
      </trkpt>
      <trkpt lat="46.12388" lon="6.77503">
        <ele>1771.281</ele>
        <time>2025-02-02T11:01:35Z</time>
      </trkpt>
      <trkpt lat="46.12388" lon="6.77499">
        <ele>1772.397</ele>
        <time>2025-02-02T11:01:40Z</time>
      </trkpt>
      <trkpt lat="46.12388" lon="6.77496">
        <ele>1772.75</ele>
        <time>2025-02-02T11:01:45Z</time>
      </trkpt>
      <trkpt lat="46.1239" lon="6.77493">
        <ele>1773.014</ele>
        <time>2025-02-02T11:01:50Z</time>
      </trkpt>
      <trkpt lat="46.12392" lon="6.77491">
        <ele>1772.863</ele>
        <time>2025-02-02T11:01:55Z</time>
      </trkpt>
      <trkpt lat="46.12392" lon="6.77491">
        <ele>1772.86</ele>
        <time>2025-02-02T11:02:00Z</time>
      </trkpt>
      <trkpt lat="46.12392" lon="6.77491">
        <ele>1772.85</ele>
        <time>2025-02-02T11:02:05Z</time>
      </trkpt>
      <trkpt lat="46.12392" lon="6.77491">
        <ele>1772.845</ele>
        <time>2025-02-02T11:02:10Z</time>
      </trkpt>
      <trkpt lat="46.12392" lon="6.77491">
        <ele>1772.839</ele>
        <time>2025-02-02T11:02:15Z</time>
      </trkpt>
      <trkpt lat="46.12392" lon="6.77491">
        <ele>1772.833</ele>
        <time>2025-02-02T11:02:20Z</time>
      </trkpt>
      <trkpt lat="46.12393" lon="6.77491">
        <ele>1772.227</ele>
        <time>2025-02-02T11:02:25Z</time>
      </trkpt>
      <trkpt lat="46.12395" lon="6.77492">
        <ele>1773.134</ele>
        <time>2025-02-02T11:02:30Z</time>
      </trkpt>
      <trkpt lat="46.12396" lon="6.77494">
        <ele>1773.153</ele>
        <time>2025-02-02T11:02:35Z</time>
      </trkpt>
      <trkpt lat="46.12399" lon="6.77496">
        <ele>1772.34</ele>
        <time>2025-02-02T11:02:40Z</time>
      </trkpt>
      <trkpt lat="46.12403" lon="6.775">
        <ele>1771.81</ele>
        <time>2025-02-02T11:02:45Z</time>
      </trkpt>
      <trkpt lat="46.12407" lon="6.77503">
        <ele>1770.801</ele>
        <time>2025-02-02T11:02:50Z</time>
      </trkpt>
      <trkpt lat="46.12411" lon="6.77504">
        <ele>1770.611</ele>
        <time>2025-02-02T11:02:55Z</time>
      </trkpt>
      <trkpt lat="46.12414" lon="6.77503">
        <ele>1770.693</ele>
        <time>2025-02-02T11:03:00Z</time>
      </trkpt>
      <trkpt lat="46.12417" lon="6.77502">
        <ele>1769.991</ele>
        <time>2025-02-02T11:03:05Z</time>
      </trkpt>
      <trkpt lat="46.1242" lon="6.775">
        <ele>1770.255</ele>
        <time>2025-02-02T11:03:10Z</time>
      </trkpt>
      <trkpt lat="46.12423" lon="6.77497">
        <ele>1770.725</ele>
        <time>2025-02-02T11:03:15Z</time>
      </trkpt>
      <trkpt lat="46.12425" lon="6.77492">
        <ele>1770.886</ele>
        <time>2025-02-02T11:03:20Z</time>
      </trkpt>
      <trkpt lat="46.12427" lon="6.77484">
        <ele>1769.875</ele>
        <time>2025-02-02T11:03:25Z</time>
      </trkpt>
      <trkpt lat="46.12429" lon="6.77481">
        <ele>1770.142</ele>
        <time>2025-02-02T11:03:30Z</time>
      </trkpt>
      <trkpt lat="46.12431" lon="6.77478">
        <ele>1770.013</ele>
        <time>2025-02-02T11:03:35Z</time>
      </trkpt>
      <trkpt lat="46.12434" lon="6.77473">
        <ele>1769.937</ele>
        <time>2025-02-02T11:03:40Z</time>
      </trkpt>
      <trkpt lat="46.12437" lon="6.77469">
        <ele>1770.681</ele>
        <time>2025-02-02T11:03:45Z</time>
      </trkpt>
      <trkpt lat="46.1244" lon="6.77463">
        <ele>1770.763</ele>
        <time>2025-02-02T11:03:50Z</time>
      </trkpt>
      <trkpt lat="46.12441" lon="6.77458">
        <ele>1770.439</ele>
        <time>2025-02-02T11:03:55Z</time>
      </trkpt>
      <trkpt lat="46.12442" lon="6.77453">
        <ele>1771.674</ele>
        <time>2025-02-02T11:04:00Z</time>
      </trkpt>
      <trkpt lat="46.12443" lon="6.77449">
        <ele>1771.552</ele>
        <time>2025-02-02T11:04:05Z</time>
      </trkpt>
      <trkpt lat="46.12444" lon="6.77445">
        <ele>1771.807</ele>
        <time>2025-02-02T11:04:10Z</time>
      </trkpt>
      <trkpt lat="46.12444" lon="6.77442">
        <ele>1772.407</ele>
        <time>2025-02-02T11:04:15Z</time>
      </trkpt>
      <trkpt lat="46.12445" lon="6.77437">
        <ele>1772.278</ele>
        <time>2025-02-02T11:04:20Z</time>
      </trkpt>
      <trkpt lat="46.12447" lon="6.77434">
        <ele>1772.189</ele>
        <time>2025-02-02T11:04:25Z</time>
      </trkpt>
      <trkpt lat="46.12449" lon="6.7743">
        <ele>1773.284</ele>
        <time>2025-02-02T11:04:30Z</time>
      </trkpt>
      <trkpt lat="46.1245" lon="6.77427">
        <ele>1774.594</ele>
        <time>2025-02-02T11:04:35Z</time>
      </trkpt>
      <trkpt lat="46.12451" lon="6.77424">
        <ele>1774.807</ele>
        <time>2025-02-02T11:04:40Z</time>
      </trkpt>
      <trkpt lat="46.12451" lon="6.77419">
        <ele>1775.12</ele>
        <time>2025-02-02T11:04:45Z</time>
      </trkpt>
      <trkpt lat="46.12451" lon="6.77414">
        <ele>1774.821</ele>
        <time>2025-02-02T11:04:50Z</time>
      </trkpt>
      <trkpt lat="46.12452" lon="6.77411">
        <ele>1774.789</ele>
        <time>2025-02-02T11:04:55Z</time>
      </trkpt>
      <trkpt lat="46.12453" lon="6.77407">
        <ele>1775.866</ele>
        <time>2025-02-02T11:05:00Z</time>
      </trkpt>
      <trkpt lat="46.12455" lon="6.77401">
        <ele>1776.417</ele>
        <time>2025-02-02T11:05:05Z</time>
      </trkpt>
      <trkpt lat="46.12456" lon="6.77397">
        <ele>1775.955</ele>
        <time>2025-02-02T11:05:10Z</time>
      </trkpt>
      <trkpt lat="46.12457" lon="6.77393">
        <ele>1776.113</ele>
        <time>2025-02-02T11:05:15Z</time>
      </trkpt>
      <trkpt lat="46.12458" lon="6.77388">
        <ele>1776.935</ele>
        <time>2025-02-02T11:05:20Z</time>
      </trkpt>
      <trkpt lat="46.12459" lon="6.77383">
        <ele>1777.535</ele>
        <time>2025-02-02T11:05:25Z</time>
      </trkpt>
      <trkpt lat="46.1246" lon="6.77378">
        <ele>1778.228</ele>
        <time>2025-02-02T11:05:30Z</time>
      </trkpt>
      <trkpt lat="46.12464" lon="6.77374">
        <ele>1777.567</ele>
        <time>2025-02-02T11:05:35Z</time>
      </trkpt>
      <trkpt lat="46.12474" lon="6.77368">
        <ele>1776.5</ele>
        <time>2025-02-02T11:05:40Z</time>
      </trkpt>
      <trkpt lat="46.1248" lon="6.77365">
        <ele>1778.111</ele>
        <time>2025-02-02T11:05:45Z</time>
      </trkpt>
      <trkpt lat="46.12481" lon="6.77364">
        <ele>1777.072</ele>
        <time>2025-02-02T11:05:50Z</time>
      </trkpt>
      <trkpt lat="46.12483" lon="6.77362">
        <ele>1777.259</ele>
        <time>2025-02-02T11:05:55Z</time>
      </trkpt>
      <trkpt lat="46.12486" lon="6.7736">
        <ele>1776.566</ele>
        <time>2025-02-02T11:06:00Z</time>
      </trkpt>
      <trkpt lat="46.12487" lon="6.77358">
        <ele>1777.811</ele>
        <time>2025-02-02T11:06:05Z</time>
      </trkpt>
      <trkpt lat="46.12488" lon="6.77355">
        <ele>1779.212</ele>
        <time>2025-02-02T11:06:10Z</time>
      </trkpt>
      <trkpt lat="46.1249" lon="6.77353">
        <ele>1780.81</ele>
        <time>2025-02-02T11:06:15Z</time>
      </trkpt>
      <trkpt lat="46.12492" lon="6.77352">
        <ele>1781.28</ele>
        <time>2025-02-02T11:06:20Z</time>
      </trkpt>
      <trkpt lat="46.12497" lon="6.77349">
        <ele>1781.255</ele>
        <time>2025-02-02T11:06:25Z</time>
      </trkpt>
      <trkpt lat="46.12501" lon="6.77348">
        <ele>1781.131</ele>
        <time>2025-02-02T11:06:30Z</time>
      </trkpt>
      <trkpt lat="46.12503" lon="6.77346">
        <ele>1782.321</ele>
        <time>2025-02-02T11:06:35Z</time>
      </trkpt>
      <trkpt lat="46.12503" lon="6.77346">
        <ele>1782.315</ele>
        <time>2025-02-02T11:06:40Z</time>
      </trkpt>
      <trkpt lat="46.12503" lon="6.77346">
        <ele>1783.627</ele>
        <time>2025-02-02T11:06:45Z</time>
      </trkpt>
      <trkpt lat="46.12503" lon="6.77346">
        <ele>1782.923</ele>
        <time>2025-02-02T11:06:50Z</time>
      </trkpt>
      <trkpt lat="46.12503" lon="6.77346">
        <ele>1780.879</ele>
        <time>2025-02-02T11:06:55Z</time>
      </trkpt>
      <trkpt lat="46.12503" lon="6.77346">
        <ele>1780.371</ele>
        <time>2025-02-02T11:07:00Z</time>
      </trkpt>
      <trkpt lat="46.12503" lon="6.7734">
        <ele>1780.591</ele>
        <time>2025-02-02T11:07:05Z</time>
      </trkpt>
      <trkpt lat="46.12503" lon="6.77339">
        <ele>1780.507</ele>
        <time>2025-02-02T11:07:10Z</time>
      </trkpt>
      <trkpt lat="46.12503" lon="6.77337">
        <ele>1781.11</ele>
        <time>2025-02-02T11:07:15Z</time>
      </trkpt>
      <trkpt lat="46.12502" lon="6.77331">
        <ele>1782.964</ele>
        <time>2025-02-02T11:07:20Z</time>
      </trkpt>
      <trkpt lat="46.12502" lon="6.77331">
        <ele>1783.976</ele>
        <time>2025-02-02T11:07:25Z</time>
      </trkpt>
      <trkpt lat="46.12503" lon="6.77326">
        <ele>1783.223</ele>
        <time>2025-02-02T11:07:30Z</time>
      </trkpt>
      <trkpt lat="46.12505" lon="6.77324">
        <ele>1786.314</ele>
        <time>2025-02-02T11:07:35Z</time>
      </trkpt>
      <trkpt lat="46.12507" lon="6.77326">
        <ele>1786.863</ele>
        <time>2025-02-02T11:07:40Z</time>
      </trkpt>
      <trkpt lat="46.12509" lon="6.77327">
        <ele>1787.356</ele>
        <time>2025-02-02T11:07:45Z</time>
      </trkpt>
      <trkpt lat="46.12511" lon="6.77327">
        <ele>1787.827</ele>
        <time>2025-02-02T11:07:50Z</time>
      </trkpt>
      <trkpt lat="46.12511" lon="6.77326">
        <ele>1787.659</ele>
        <time>2025-02-02T11:07:55Z</time>
      </trkpt>
      <trkpt lat="46.12511" lon="6.77326">
        <ele>1787.298</ele>
        <time>2025-02-02T11:08:00Z</time>
      </trkpt>
      <trkpt lat="46.12512" lon="6.77324">
        <ele>1787.771</ele>
        <time>2025-02-02T11:08:05Z</time>
      </trkpt>
      <trkpt lat="46.12513" lon="6.77323">
        <ele>1787.113</ele>
        <time>2025-02-02T11:08:10Z</time>
      </trkpt>
      <trkpt lat="46.12513" lon="6.77323">
        <ele>1787.185</ele>
        <time>2025-02-02T11:08:15Z</time>
      </trkpt>
      <trkpt lat="46.12513" lon="6.77323">
        <ele>1787.135</ele>
        <time>2025-02-02T11:08:20Z</time>
      </trkpt>
      <trkpt lat="46.12514" lon="6.77321">
        <ele>1787.579</ele>
        <time>2025-02-02T11:08:25Z</time>
      </trkpt>
      <trkpt lat="46.12515" lon="6.77315">
        <ele>1789.046</ele>
        <time>2025-02-02T11:08:30Z</time>
      </trkpt>
      <trkpt lat="46.12519" lon="6.77312">
        <ele>1791.402</ele>
        <time>2025-02-02T11:08:35Z</time>
      </trkpt>
      <trkpt lat="46.12525" lon="6.77311">
        <ele>1791.23</ele>
        <time>2025-02-02T11:08:40Z</time>
      </trkpt>
      <trkpt lat="46.12527" lon="6.77313">
        <ele>1793.195</ele>
        <time>2025-02-02T11:08:45Z</time>
      </trkpt>
      <trkpt lat="46.12529" lon="6.77316">
        <ele>1794.153</ele>
        <time>2025-02-02T11:08:50Z</time>
      </trkpt>
      <trkpt lat="46.12532" lon="6.77315">
        <ele>1794.992</ele>
        <time>2025-02-02T11:08:55Z</time>
      </trkpt>
      <trkpt lat="46.12534" lon="6.77312">
        <ele>1794.675</ele>
        <time>2025-02-02T11:09:00Z</time>
      </trkpt>
      <trkpt lat="46.12536" lon="6.77308">
        <ele>1794.664</ele>
        <time>2025-02-02T11:09:05Z</time>
      </trkpt>
      <trkpt lat="46.12537" lon="6.77307">
        <ele>1795.178</ele>
        <time>2025-02-02T11:09:10Z</time>
      </trkpt>
      <trkpt lat="46.1254" lon="6.77305">
        <ele>1794.847</ele>
        <time>2025-02-02T11:09:15Z</time>
      </trkpt>
      <trkpt lat="46.12542" lon="6.77304">
        <ele>1795.455</ele>
        <time>2025-02-02T11:09:20Z</time>
      </trkpt>
      <trkpt lat="46.12545" lon="6.77302">
        <ele>1796.58</ele>
        <time>2025-02-02T11:09:25Z</time>
      </trkpt>
      <trkpt lat="46.12548" lon="6.77301">
        <ele>1798.129</ele>
        <time>2025-02-02T11:09:30Z</time>
      </trkpt>
      <trkpt lat="46.1255" lon="6.77303">
        <ele>1798.992</ele>
        <time>2025-02-02T11:09:35Z</time>
      </trkpt>
      <trkpt lat="46.12553" lon="6.77305">
        <ele>1798.663</ele>
        <time>2025-02-02T11:09:40Z</time>
      </trkpt>
      <trkpt lat="46.12557" lon="6.77305">
        <ele>1797.577</ele>
        <time>2025-02-02T11:09:45Z</time>
      </trkpt>
      <trkpt lat="46.1256" lon="6.77302">
        <ele>1799.568</ele>
        <time>2025-02-02T11:09:50Z</time>
      </trkpt>
      <trkpt lat="46.12562" lon="6.773">
        <ele>1800.659</ele>
        <time>2025-02-02T11:09:55Z</time>
      </trkpt>
      <trkpt lat="46.12564" lon="6.77298">
        <ele>1801.492</ele>
        <time>2025-02-02T11:10:00Z</time>
      </trkpt>
      <trkpt lat="46.12565" lon="6.77296">
        <ele>1801.699</ele>
        <time>2025-02-02T11:10:05Z</time>
      </trkpt>
      <trkpt lat="46.12566" lon="6.77294">
        <ele>1802.592</ele>
        <time>2025-02-02T11:10:10Z</time>
      </trkpt>
      <trkpt lat="46.12567" lon="6.77292">
        <ele>1803.012</ele>
        <time>2025-02-02T11:10:15Z</time>
      </trkpt>
      <trkpt lat="46.12569" lon="6.7729">
        <ele>1803.834</ele>
        <time>2025-02-02T11:10:20Z</time>
      </trkpt>
      <trkpt lat="46.1257" lon="6.77289">
        <ele>1804.371</ele>
        <time>2025-02-02T11:10:25Z</time>
      </trkpt>
      <trkpt lat="46.12572" lon="6.7729">
        <ele>1804.303</ele>
        <time>2025-02-02T11:10:30Z</time>
      </trkpt>
      <trkpt lat="46.12573" lon="6.77289">
        <ele>1804.902</ele>
        <time>2025-02-02T11:10:35Z</time>
      </trkpt>
      <trkpt lat="46.12575" lon="6.77288">
        <ele>1806.595</ele>
        <time>2025-02-02T11:10:40Z</time>
      </trkpt>
      <trkpt lat="46.12578" lon="6.77286">
        <ele>1807.221</ele>
        <time>2025-02-02T11:10:45Z</time>
      </trkpt>
      <trkpt lat="46.12579" lon="6.77285">
        <ele>1808.14</ele>
        <time>2025-02-02T11:10:50Z</time>
      </trkpt>
      <trkpt lat="46.12581" lon="6.77284">
        <ele>1808.33</ele>
        <time>2025-02-02T11:10:55Z</time>
      </trkpt>
      <trkpt lat="46.12582" lon="6.77282">
        <ele>1809.565</ele>
        <time>2025-02-02T11:11:00Z</time>
      </trkpt>
      <trkpt lat="46.12583" lon="6.7728">
        <ele>1809.788</ele>
        <time>2025-02-02T11:11:05Z</time>
      </trkpt>
      <trkpt lat="46.12584" lon="6.77278">
        <ele>1810.769</ele>
        <time>2025-02-02T11:11:10Z</time>
      </trkpt>
      <trkpt lat="46.12586" lon="6.77278">
        <ele>1811.881</ele>
        <time>2025-02-02T11:11:15Z</time>
      </trkpt>
      <trkpt lat="46.12587" lon="6.77277">
        <ele>1812.479</ele>
        <time>2025-02-02T11:11:20Z</time>
      </trkpt>
      <trkpt lat="46.12589" lon="6.77276">
        <ele>1812.71</ele>
        <time>2025-02-02T11:11:25Z</time>
      </trkpt>
      <trkpt lat="46.12591" lon="6.77275">
        <ele>1812.748</ele>
        <time>2025-02-02T11:11:30Z</time>
      </trkpt>
      <trkpt lat="46.12592" lon="6.77273">
        <ele>1813.261</ele>
        <time>2025-02-02T11:11:35Z</time>
      </trkpt>
      <trkpt lat="46.12593" lon="6.7727">
        <ele>1814.707</ele>
        <time>2025-02-02T11:11:40Z</time>
      </trkpt>
      <trkpt lat="46.12594" lon="6.77269">
        <ele>1815.561</ele>
        <time>2025-02-02T11:11:45Z</time>
      </trkpt>
      <trkpt lat="46.12596" lon="6.77269">
        <ele>1816.401</ele>
        <time>2025-02-02T11:11:50Z</time>
      </trkpt>
      <trkpt lat="46.12598" lon="6.77267">
        <ele>1818.343</ele>
        <time>2025-02-02T11:11:55Z</time>
      </trkpt>
      <trkpt lat="46.126" lon="6.77266">
        <ele>1819.746</ele>
        <time>2025-02-02T11:12:00Z</time>
      </trkpt>
      <trkpt lat="46.12602" lon="6.77264">
        <ele>1819.834</ele>
        <time>2025-02-02T11:12:05Z</time>
      </trkpt>
      <trkpt lat="46.12604" lon="6.77262">
        <ele>1819.798</ele>
        <time>2025-02-02T11:12:10Z</time>
      </trkpt>
      <trkpt lat="46.12606" lon="6.77261">
        <ele>1819.414</ele>
        <time>2025-02-02T11:12:15Z</time>
      </trkpt>
      <trkpt lat="46.12607" lon="6.7726">
        <ele>1819.434</ele>
        <time>2025-02-02T11:12:20Z</time>
      </trkpt>
      <trkpt lat="46.1261" lon="6.77259">
        <ele>1820.317</ele>
        <time>2025-02-02T11:12:25Z</time>
      </trkpt>
      <trkpt lat="46.12612" lon="6.77257">
        <ele>1820.576</ele>
        <time>2025-02-02T11:12:30Z</time>
      </trkpt>
      <trkpt lat="46.12614" lon="6.77256">
        <ele>1820.734</ele>
        <time>2025-02-02T11:12:35Z</time>
      </trkpt>
      <trkpt lat="46.12616" lon="6.77255">
        <ele>1821.758</ele>
        <time>2025-02-02T11:12:40Z</time>
      </trkpt>
      <trkpt lat="46.12618" lon="6.77255">
        <ele>1821.604</ele>
        <time>2025-02-02T11:12:45Z</time>
      </trkpt>
      <trkpt lat="46.1262" lon="6.77255">
        <ele>1821.954</ele>
        <time>2025-02-02T11:12:50Z</time>
      </trkpt>
      <trkpt lat="46.12623" lon="6.77254">
        <ele>1821.019</ele>
        <time>2025-02-02T11:12:55Z</time>
      </trkpt>
      <trkpt lat="46.12625" lon="6.77255">
        <ele>1821.357</ele>
        <time>2025-02-02T11:13:00Z</time>
      </trkpt>
      <trkpt lat="46.12627" lon="6.77254">
        <ele>1821.634</ele>
        <time>2025-02-02T11:13:05Z</time>
      </trkpt>
      <trkpt lat="46.12629" lon="6.77253">
        <ele>1822.205</ele>
        <time>2025-02-02T11:13:10Z</time>
      </trkpt>
      <trkpt lat="46.12631" lon="6.77252">
        <ele>1822.744</ele>
        <time>2025-02-02T11:13:15Z</time>
      </trkpt>
      <trkpt lat="46.12634" lon="6.77251">
        <ele>1823.24</ele>
        <time>2025-02-02T11:13:20Z</time>
      </trkpt>
      <trkpt lat="46.12635" lon="6.77249">
        <ele>1824.025</ele>
        <time>2025-02-02T11:13:25Z</time>
      </trkpt>
      <trkpt lat="46.12638" lon="6.77247">
        <ele>1823.943</ele>
        <time>2025-02-02T11:13:30Z</time>
      </trkpt>
      <trkpt lat="46.1264" lon="6.77245">
        <ele>1824.337</ele>
        <time>2025-02-02T11:13:35Z</time>
      </trkpt>
      <trkpt lat="46.12642" lon="6.77244">
        <ele>1824.802</ele>
        <time>2025-02-02T11:13:40Z</time>
      </trkpt>
      <trkpt lat="46.12643" lon="6.77243">
        <ele>1824.302</ele>
        <time>2025-02-02T11:13:45Z</time>
      </trkpt>
      <trkpt lat="46.12645" lon="6.77242">
        <ele>1824.74</ele>
        <time>2025-02-02T11:13:50Z</time>
      </trkpt>
      <trkpt lat="46.12646" lon="6.7724">
        <ele>1825.04</ele>
        <time>2025-02-02T11:13:55Z</time>
      </trkpt>
      <trkpt lat="46.12647" lon="6.77238">
        <ele>1824.386</ele>
        <time>2025-02-02T11:14:00Z</time>
      </trkpt>
      <trkpt lat="46.12649" lon="6.77237">
        <ele>1825.322</ele>
        <time>2025-02-02T11:14:05Z</time>
      </trkpt>
      <trkpt lat="46.12651" lon="6.77235">
        <ele>1825.61</ele>
        <time>2025-02-02T11:14:10Z</time>
      </trkpt>
      <trkpt lat="46.12653" lon="6.77234">
        <ele>1826.186</ele>
        <time>2025-02-02T11:14:15Z</time>
      </trkpt>
      <trkpt lat="46.12655" lon="6.77232">
        <ele>1826.015</ele>
        <time>2025-02-02T11:14:20Z</time>
      </trkpt>
      <trkpt lat="46.12657" lon="6.77231">
        <ele>1826.837</ele>
        <time>2025-02-02T11:14:25Z</time>
      </trkpt>
      <trkpt lat="46.12659" lon="6.7723">
        <ele>1827.718</ele>
        <time>2025-02-02T11:14:30Z</time>
      </trkpt>
      <trkpt lat="46.12662" lon="6.77228">
        <ele>1827.751</ele>
        <time>2025-02-02T11:14:35Z</time>
      </trkpt>
      <trkpt lat="46.12663" lon="6.77228">
        <ele>1827.729</ele>
        <time>2025-02-02T11:14:40Z</time>
      </trkpt>
      <trkpt lat="46.12666" lon="6.77226">
        <ele>1828.427</ele>
        <time>2025-02-02T11:14:45Z</time>
      </trkpt>
      <trkpt lat="46.12668" lon="6.77224">
        <ele>1828.86</ele>
        <time>2025-02-02T11:14:50Z</time>
      </trkpt>
      <trkpt lat="46.1267" lon="6.77223">
        <ele>1829.669</ele>
        <time>2025-02-02T11:14:55Z</time>
      </trkpt>
      <trkpt lat="46.12674" lon="6.77221">
        <ele>1829.912</ele>
        <time>2025-02-02T11:15:00Z</time>
      </trkpt>
      <trkpt lat="46.12677" lon="6.7722">
        <ele>1830.643</ele>
        <time>2025-02-02T11:15:05Z</time>
      </trkpt>
      <trkpt lat="46.12679" lon="6.77218">
        <ele>1831.087</ele>
        <time>2025-02-02T11:15:10Z</time>
      </trkpt>
      <trkpt lat="46.12682" lon="6.77217">
        <ele>1831.589</ele>
        <time>2025-02-02T11:15:15Z</time>
      </trkpt>
      <trkpt lat="46.12684" lon="6.77215">
        <ele>1831.867</ele>
        <time>2025-02-02T11:15:20Z</time>
      </trkpt>
      <trkpt lat="46.12686" lon="6.77214">
        <ele>1832.129</ele>
        <time>2025-02-02T11:15:25Z</time>
      </trkpt>
      <trkpt lat="46.12689" lon="6.77213">
        <ele>1832.693</ele>
        <time>2025-02-02T11:15:30Z</time>
      </trkpt>
      <trkpt lat="46.12692" lon="6.77212">
        <ele>1833.393</ele>
        <time>2025-02-02T11:15:35Z</time>
      </trkpt>
      <trkpt lat="46.12694" lon="6.77211">
        <ele>1833.476</ele>
        <time>2025-02-02T11:15:40Z</time>
      </trkpt>
      <trkpt lat="46.12696" lon="6.7721">
        <ele>1833.831</ele>
        <time>2025-02-02T11:15:45Z</time>
      </trkpt>
      <trkpt lat="46.12698" lon="6.77209">
        <ele>1834.37</ele>
        <time>2025-02-02T11:15:50Z</time>
      </trkpt>
      <trkpt lat="46.127" lon="6.77207">
        <ele>1834.296</ele>
        <time>2025-02-02T11:15:55Z</time>
      </trkpt>
      <trkpt lat="46.12702" lon="6.77206">
        <ele>1835.457</ele>
        <time>2025-02-02T11:16:00Z</time>
      </trkpt>
      <trkpt lat="46.12704" lon="6.77205">
        <ele>1836.644</ele>
        <time>2025-02-02T11:16:05Z</time>
      </trkpt>
      <trkpt lat="46.12706" lon="6.77204">
        <ele>1837.25</ele>
        <time>2025-02-02T11:16:10Z</time>
      </trkpt>
      <trkpt lat="46.12708" lon="6.77202">
        <ele>1838.225</ele>
        <time>2025-02-02T11:16:15Z</time>
      </trkpt>
      <trkpt lat="46.1271" lon="6.772">
        <ele>1839.004</ele>
        <time>2025-02-02T11:16:20Z</time>
      </trkpt>
      <trkpt lat="46.12712" lon="6.77199">
        <ele>1838.715</ele>
        <time>2025-02-02T11:16:25Z</time>
      </trkpt>
      <trkpt lat="46.12715" lon="6.772">
        <ele>1839.751</ele>
        <time>2025-02-02T11:16:30Z</time>
      </trkpt>
      <trkpt lat="46.12717" lon="6.77202">
        <ele>1840.033</ele>
        <time>2025-02-02T11:16:35Z</time>
      </trkpt>
      <trkpt lat="46.12719" lon="6.77203">
        <ele>1840.402</ele>
        <time>2025-02-02T11:16:40Z</time>
      </trkpt>
      <trkpt lat="46.12722" lon="6.77203">
        <ele>1840.838</ele>
        <time>2025-02-02T11:16:45Z</time>
      </trkpt>
      <trkpt lat="46.12725" lon="6.77202">
        <ele>1842.849</ele>
        <time>2025-02-02T11:16:50Z</time>
      </trkpt>
      <trkpt lat="46.12726" lon="6.77199">
        <ele>1844.282</ele>
        <time>2025-02-02T11:16:55Z</time>
      </trkpt>
      <trkpt lat="46.12726" lon="6.77196">
        <ele>1845.831</ele>
        <time>2025-02-02T11:17:00Z</time>
      </trkpt>
      <trkpt lat="46.12726" lon="6.77193">
        <ele>1846.582</ele>
        <time>2025-02-02T11:17:05Z</time>
      </trkpt>
      <trkpt lat="46.12727" lon="6.7719">
        <ele>1847.147</ele>
        <time>2025-02-02T11:17:10Z</time>
      </trkpt>
      <trkpt lat="46.12728" lon="6.77188">
        <ele>1847.565</ele>
        <time>2025-02-02T11:17:15Z</time>
      </trkpt>
      <trkpt lat="46.12731" lon="6.77187">
        <ele>1847.839</ele>
        <time>2025-02-02T11:17:20Z</time>
      </trkpt>
      <trkpt lat="46.12732" lon="6.77186">
        <ele>1848.486</ele>
        <time>2025-02-02T11:17:25Z</time>
      </trkpt>
      <trkpt lat="46.12733" lon="6.77186">
        <ele>1848.406</ele>
        <time>2025-02-02T11:17:30Z</time>
      </trkpt>
      <trkpt lat="46.12733" lon="6.77185">
        <ele>1848.759</ele>
        <time>2025-02-02T11:17:35Z</time>
      </trkpt>
      <trkpt lat="46.12733" lon="6.77186">
        <ele>1849.208</ele>
        <time>2025-02-02T11:17:40Z</time>
      </trkpt>
      <trkpt lat="46.12733" lon="6.77186">
        <ele>1849.213</ele>
        <time>2025-02-02T11:17:45Z</time>
      </trkpt>
      <trkpt lat="46.12733" lon="6.77186">
        <ele>1849.246</ele>
        <time>2025-02-02T11:17:50Z</time>
      </trkpt>
      <trkpt lat="46.12733" lon="6.77186">
        <ele>1849.257</ele>
        <time>2025-02-02T11:17:55Z</time>
      </trkpt>
      <trkpt lat="46.12733" lon="6.77186">
        <ele>1849.205</ele>
        <time>2025-02-02T11:18:00Z</time>
      </trkpt>
      <trkpt lat="46.12733" lon="6.77186">
        <ele>1849.214</ele>
        <time>2025-02-02T11:18:05Z</time>
      </trkpt>
      <trkpt lat="46.12733" lon="6.77186">
        <ele>1849.222</ele>
        <time>2025-02-02T11:18:10Z</time>
      </trkpt>
      <trkpt lat="46.12733" lon="6.77186">
        <ele>1849.229</ele>
        <time>2025-02-02T11:18:15Z</time>
      </trkpt>
      <trkpt lat="46.12733" lon="6.77186">
        <ele>1849.237</ele>
        <time>2025-02-02T11:18:20Z</time>
      </trkpt>
      <trkpt lat="46.12733" lon="6.77186">
        <ele>1849.242</ele>
        <time>2025-02-02T11:18:25Z</time>
      </trkpt>
      <trkpt lat="46.12733" lon="6.77186">
        <ele>1849.245</ele>
        <time>2025-02-02T11:18:30Z</time>
      </trkpt>
      <trkpt lat="46.12733" lon="6.77186">
        <ele>1849.255</ele>
        <time>2025-02-02T11:18:35Z</time>
      </trkpt>
      <trkpt lat="46.12733" lon="6.77186">
        <ele>1849.257</ele>
        <time>2025-02-02T11:18:40Z</time>
      </trkpt>
      <trkpt lat="46.12733" lon="6.77186">
        <ele>1849.261</ele>
        <time>2025-02-02T11:18:45Z</time>
      </trkpt>
      <trkpt lat="46.12733" lon="6.77186">
        <ele>1849.255</ele>
        <time>2025-02-02T11:18:50Z</time>
      </trkpt>
      <trkpt lat="46.12733" lon="6.77186">
        <ele>1849.257</ele>
        <time>2025-02-02T11:18:55Z</time>
      </trkpt>
      <trkpt lat="46.12733" lon="6.77186">
        <ele>1849.258</ele>
        <time>2025-02-02T11:19:00Z</time>
      </trkpt>
      <trkpt lat="46.12733" lon="6.77186">
        <ele>1849.256</ele>
        <time>2025-02-02T11:19:05Z</time>
      </trkpt>
      <trkpt lat="46.12733" lon="6.77186">
        <ele>1849.144</ele>
        <time>2025-02-02T11:19:10Z</time>
      </trkpt>
      <trkpt lat="46.12733" lon="6.77186">
        <ele>1849.155</ele>
        <time>2025-02-02T11:19:15Z</time>
      </trkpt>
      <trkpt lat="46.12733" lon="6.77186">
        <ele>1849.163</ele>
        <time>2025-02-02T11:19:20Z</time>
      </trkpt>
      <trkpt lat="46.12733" lon="6.77186">
        <ele>1849.116</ele>
        <time>2025-02-02T11:19:25Z</time>
      </trkpt>
      <trkpt lat="46.12733" lon="6.77186">
        <ele>1849.123</ele>
        <time>2025-02-02T11:19:30Z</time>
      </trkpt>
      <trkpt lat="46.12733" lon="6.77186">
        <ele>1849.122</ele>
        <time>2025-02-02T11:19:35Z</time>
      </trkpt>
      <trkpt lat="46.12733" lon="6.77186">
        <ele>1849.117</ele>
        <time>2025-02-02T11:19:40Z</time>
      </trkpt>
      <trkpt lat="46.12733" lon="6.77186">
        <ele>1849.116</ele>
        <time>2025-02-02T11:19:45Z</time>
      </trkpt>
      <trkpt lat="46.12733" lon="6.77186">
        <ele>1849.117</ele>
        <time>2025-02-02T11:19:50Z</time>
      </trkpt>
      <trkpt lat="46.12733" lon="6.77186">
        <ele>1849.124</ele>
        <time>2025-02-02T11:19:55Z</time>
      </trkpt>
      <trkpt lat="46.12733" lon="6.77186">
        <ele>1849.127</ele>
        <time>2025-02-02T11:20:00Z</time>
      </trkpt>
      <trkpt lat="46.12733" lon="6.77186">
        <ele>1849.126</ele>
        <time>2025-02-02T11:20:05Z</time>
      </trkpt>
      <trkpt lat="46.12733" lon="6.77186">
        <ele>1849.126</ele>
        <time>2025-02-02T11:20:10Z</time>
      </trkpt>
      <trkpt lat="46.12733" lon="6.77186">
        <ele>1849.13</ele>
        <time>2025-02-02T11:20:15Z</time>
      </trkpt>
      <trkpt lat="46.12733" lon="6.77186">
        <ele>1849.137</ele>
        <time>2025-02-02T11:20:20Z</time>
      </trkpt>
      <trkpt lat="46.12733" lon="6.77186">
        <ele>1849.146</ele>
        <time>2025-02-02T11:20:25Z</time>
      </trkpt>
      <trkpt lat="46.12733" lon="6.77186">
        <ele>1849.155</ele>
        <time>2025-02-02T11:20:30Z</time>
      </trkpt>
      <trkpt lat="46.12733" lon="6.77186">
        <ele>1849.162</ele>
        <time>2025-02-02T11:20:35Z</time>
      </trkpt>
      <trkpt lat="46.12733" lon="6.77186">
        <ele>1849.167</ele>
        <time>2025-02-02T11:20:40Z</time>
      </trkpt>
      <trkpt lat="46.12733" lon="6.77186">
        <ele>1849.17</ele>
        <time>2025-02-02T11:20:45Z</time>
      </trkpt>
      <trkpt lat="46.12733" lon="6.77186">
        <ele>1849.173</ele>
        <time>2025-02-02T11:20:50Z</time>
      </trkpt>
      <trkpt lat="46.12733" lon="6.77186">
        <ele>1849.182</ele>
        <time>2025-02-02T11:20:55Z</time>
      </trkpt>
      <trkpt lat="46.12733" lon="6.77186">
        <ele>1849.189</ele>
        <time>2025-02-02T11:21:00Z</time>
      </trkpt>
      <trkpt lat="46.12733" lon="6.77186">
        <ele>1849.198</ele>
        <time>2025-02-02T11:21:05Z</time>
      </trkpt>
      <trkpt lat="46.12733" lon="6.77186">
        <ele>1849.204</ele>
        <time>2025-02-02T11:21:10Z</time>
      </trkpt>
      <trkpt lat="46.12733" lon="6.77186">
        <ele>1849.211</ele>
        <time>2025-02-02T11:21:15Z</time>
      </trkpt>
      <trkpt lat="46.12733" lon="6.77186">
        <ele>1849.217</ele>
        <time>2025-02-02T11:21:20Z</time>
      </trkpt>
      <trkpt lat="46.12733" lon="6.77186">
        <ele>1849.222</ele>
        <time>2025-02-02T11:21:25Z</time>
      </trkpt>
      <trkpt lat="46.12733" lon="6.77186">
        <ele>1849.222</ele>
        <time>2025-02-02T11:21:30Z</time>
      </trkpt>
      <trkpt lat="46.12733" lon="6.77186">
        <ele>1849.224</ele>
        <time>2025-02-02T11:21:35Z</time>
      </trkpt>
      <trkpt lat="46.12733" lon="6.77186">
        <ele>1849.224</ele>
        <time>2025-02-02T11:21:40Z</time>
      </trkpt>
      <trkpt lat="46.12733" lon="6.77186">
        <ele>1849.227</ele>
        <time>2025-02-02T11:21:45Z</time>
      </trkpt>
      <trkpt lat="46.12733" lon="6.77186">
        <ele>1849.227</ele>
        <time>2025-02-02T11:21:50Z</time>
      </trkpt>
      <trkpt lat="46.12733" lon="6.77186">
        <ele>1849.225</ele>
        <time>2025-02-02T11:21:55Z</time>
      </trkpt>
      <trkpt lat="46.12733" lon="6.77186">
        <ele>1849.226</ele>
        <time>2025-02-02T11:22:00Z</time>
      </trkpt>
      <trkpt lat="46.12733" lon="6.77186">
        <ele>1849.232</ele>
        <time>2025-02-02T11:22:05Z</time>
      </trkpt>
      <trkpt lat="46.12733" lon="6.77186">
        <ele>1849.228</ele>
        <time>2025-02-02T11:22:10Z</time>
      </trkpt>
      <trkpt lat="46.12733" lon="6.77186">
        <ele>1849.227</ele>
        <time>2025-02-02T11:22:15Z</time>
      </trkpt>
      <trkpt lat="46.12733" lon="6.77186">
        <ele>1849.227</ele>
        <time>2025-02-02T11:22:20Z</time>
      </trkpt>
      <trkpt lat="46.12733" lon="6.77186">
        <ele>1849.229</ele>
        <time>2025-02-02T11:22:25Z</time>
      </trkpt>
      <trkpt lat="46.12733" lon="6.77186">
        <ele>1849.231</ele>
        <time>2025-02-02T11:22:30Z</time>
      </trkpt>
      <trkpt lat="46.12733" lon="6.77186">
        <ele>1849.231</ele>
        <time>2025-02-02T11:22:35Z</time>
      </trkpt>
      <trkpt lat="46.12733" lon="6.77186">
        <ele>1849.228</ele>
        <time>2025-02-02T11:22:40Z</time>
      </trkpt>
      <trkpt lat="46.12734" lon="6.77186">
        <ele>1849.226</ele>
        <time>2025-02-02T11:22:45Z</time>
      </trkpt>
      <trkpt lat="46.12734" lon="6.77186">
        <ele>1849.228</ele>
        <time>2025-02-02T11:22:50Z</time>
      </trkpt>
      <trkpt lat="46.12734" lon="6.77186">
        <ele>1849.226</ele>
        <time>2025-02-02T11:22:55Z</time>
      </trkpt>
      <trkpt lat="46.12734" lon="6.77186">
        <ele>1849.227</ele>
        <time>2025-02-02T11:23:00Z</time>
      </trkpt>
      <trkpt lat="46.12734" lon="6.77186">
        <ele>1849.232</ele>
        <time>2025-02-02T11:23:05Z</time>
      </trkpt>
      <trkpt lat="46.12734" lon="6.77186">
        <ele>1849.237</ele>
        <time>2025-02-02T11:23:10Z</time>
      </trkpt>
      <trkpt lat="46.12734" lon="6.77186">
        <ele>1849.236</ele>
        <time>2025-02-02T11:23:15Z</time>
      </trkpt>
      <trkpt lat="46.12734" lon="6.77186">
        <ele>1849.238</ele>
        <time>2025-02-02T11:23:20Z</time>
      </trkpt>
      <trkpt lat="46.12734" lon="6.77186">
        <ele>1849.241</ele>
        <time>2025-02-02T11:23:25Z</time>
      </trkpt>
      <trkpt lat="46.12734" lon="6.77186">
        <ele>1849.241</ele>
        <time>2025-02-02T11:23:30Z</time>
      </trkpt>
      <trkpt lat="46.12734" lon="6.77186">
        <ele>1849.243</ele>
        <time>2025-02-02T11:23:35Z</time>
      </trkpt>
      <trkpt lat="46.12734" lon="6.77186">
        <ele>1849.244</ele>
        <time>2025-02-02T11:23:40Z</time>
      </trkpt>
      <trkpt lat="46.12734" lon="6.77186">
        <ele>1849.247</ele>
        <time>2025-02-02T11:23:45Z</time>
      </trkpt>
      <trkpt lat="46.12734" lon="6.77186">
        <ele>1849.255</ele>
        <time>2025-02-02T11:23:50Z</time>
      </trkpt>
      <trkpt lat="46.12734" lon="6.77186">
        <ele>1849.253</ele>
        <time>2025-02-02T11:23:55Z</time>
      </trkpt>
      <trkpt lat="46.12734" lon="6.77186">
        <ele>1849.253</ele>
        <time>2025-02-02T11:24:00Z</time>
      </trkpt>
      <trkpt lat="46.12734" lon="6.77186">
        <ele>1849.257</ele>
        <time>2025-02-02T11:24:05Z</time>
      </trkpt>
      <trkpt lat="46.12734" lon="6.77186">
        <ele>1849.26</ele>
        <time>2025-02-02T11:24:10Z</time>
      </trkpt>
      <trkpt lat="46.12734" lon="6.77186">
        <ele>1849.262</ele>
        <time>2025-02-02T11:24:15Z</time>
      </trkpt>
      <trkpt lat="46.12734" lon="6.77186">
        <ele>1849.263</ele>
        <time>2025-02-02T11:24:20Z</time>
      </trkpt>
      <trkpt lat="46.12734" lon="6.77186">
        <ele>1849.263</ele>
        <time>2025-02-02T11:24:25Z</time>
      </trkpt>
      <trkpt lat="46.12736" lon="6.77185">
        <ele>1849.037</ele>
        <time>2025-02-02T11:24:30Z</time>
      </trkpt>
      <trkpt lat="46.12739" lon="6.77183">
        <ele>1848.852</ele>
        <time>2025-02-02T11:24:35Z</time>
      </trkpt>
      <trkpt lat="46.12743" lon="6.77182">
        <ele>1849.276</ele>
        <time>2025-02-02T11:24:40Z</time>
      </trkpt>
      <trkpt lat="46.12746" lon="6.77181">
        <ele>1849.309</ele>
        <time>2025-02-02T11:24:45Z</time>
      </trkpt>
      <trkpt lat="46.12749" lon="6.77179">
        <ele>1849.249</ele>
        <time>2025-02-02T11:24:50Z</time>
      </trkpt>
      <trkpt lat="46.1275" lon="6.77179">
        <ele>1849.339</ele>
        <time>2025-02-02T11:24:55Z</time>
      </trkpt>
      <trkpt lat="46.12753" lon="6.77177">
        <ele>1849.937</ele>
        <time>2025-02-02T11:25:00Z</time>
      </trkpt>
      <trkpt lat="46.12756" lon="6.77174">
        <ele>1850.822</ele>
        <time>2025-02-02T11:25:05Z</time>
      </trkpt>
      <trkpt lat="46.12758" lon="6.77172">
        <ele>1851.383</ele>
        <time>2025-02-02T11:25:10Z</time>
      </trkpt>
      <trkpt lat="46.1276" lon="6.7717">
        <ele>1851.931</ele>
        <time>2025-02-02T11:25:15Z</time>
      </trkpt>
      <trkpt lat="46.12763" lon="6.77168">
        <ele>1853.044</ele>
        <time>2025-02-02T11:25:20Z</time>
      </trkpt>
      <trkpt lat="46.12765" lon="6.77167">
        <ele>1853.816</ele>
        <time>2025-02-02T11:25:25Z</time>
      </trkpt>
      <trkpt lat="46.12768" lon="6.77166">
        <ele>1854.558</ele>
        <time>2025-02-02T11:25:30Z</time>
      </trkpt>
      <trkpt lat="46.12771" lon="6.77165">
        <ele>1854.879</ele>
        <time>2025-02-02T11:25:35Z</time>
      </trkpt>
      <trkpt lat="46.12774" lon="6.77165">
        <ele>1855.617</ele>
        <time>2025-02-02T11:25:40Z</time>
      </trkpt>
      <trkpt lat="46.12776" lon="6.77165">
        <ele>1856.003</ele>
        <time>2025-02-02T11:25:45Z</time>
      </trkpt>
      <trkpt lat="46.12778" lon="6.77166">
        <ele>1856.847</ele>
        <time>2025-02-02T11:25:50Z</time>
      </trkpt>
      <trkpt lat="46.1278" lon="6.77167">
        <ele>1857.572</ele>
        <time>2025-02-02T11:25:55Z</time>
      </trkpt>
      <trkpt lat="46.12783" lon="6.77168">
        <ele>1857.922</ele>
        <time>2025-02-02T11:26:00Z</time>
      </trkpt>
      <trkpt lat="46.12785" lon="6.77168">
        <ele>1858.216</ele>
        <time>2025-02-02T11:26:05Z</time>
      </trkpt>
      <trkpt lat="46.12788" lon="6.77168">
        <ele>1858.551</ele>
        <time>2025-02-02T11:26:10Z</time>
      </trkpt>
      <trkpt lat="46.12791" lon="6.77169">
        <ele>1859.175</ele>
        <time>2025-02-02T11:26:15Z</time>
      </trkpt>
      <trkpt lat="46.12793" lon="6.7717">
        <ele>1859.349</ele>
        <time>2025-02-02T11:26:20Z</time>
      </trkpt>
      <trkpt lat="46.12796" lon="6.77171">
        <ele>1859.814</ele>
        <time>2025-02-02T11:26:25Z</time>
      </trkpt>
      <trkpt lat="46.12798" lon="6.77171">
        <ele>1860.498</ele>
        <time>2025-02-02T11:26:30Z</time>
      </trkpt>
      <trkpt lat="46.12801" lon="6.77172">
        <ele>1860.836</ele>
        <time>2025-02-02T11:26:35Z</time>
      </trkpt>
      <trkpt lat="46.12804" lon="6.77173">
        <ele>1861.316</ele>
        <time>2025-02-02T11:26:40Z</time>
      </trkpt>
      <trkpt lat="46.12807" lon="6.77174">
        <ele>1862.441</ele>
        <time>2025-02-02T11:26:45Z</time>
      </trkpt>
      <trkpt lat="46.1281" lon="6.77175">
        <ele>1863.331</ele>
        <time>2025-02-02T11:26:50Z</time>
      </trkpt>
      <trkpt lat="46.12813" lon="6.77175">
        <ele>1864.161</ele>
        <time>2025-02-02T11:26:55Z</time>
      </trkpt>
      <trkpt lat="46.12816" lon="6.77176">
        <ele>1865.398</ele>
        <time>2025-02-02T11:27:00Z</time>
      </trkpt>
      <trkpt lat="46.12818" lon="6.77177">
        <ele>1866.304</ele>
        <time>2025-02-02T11:27:05Z</time>
      </trkpt>
      <trkpt lat="46.12818" lon="6.7718">
        <ele>1867.029</ele>
        <time>2025-02-02T11:27:10Z</time>
      </trkpt>
      <trkpt lat="46.12818" lon="6.77182">
        <ele>1867.26</ele>
        <time>2025-02-02T11:27:15Z</time>
      </trkpt>
      <trkpt lat="46.12819" lon="6.77185">
        <ele>1868.341</ele>
        <time>2025-02-02T11:27:20Z</time>
      </trkpt>
      <trkpt lat="46.1282" lon="6.77188">
        <ele>1869.849</ele>
        <time>2025-02-02T11:27:25Z</time>
      </trkpt>
      <trkpt lat="46.1282" lon="6.77191">
        <ele>1869.922</ele>
        <time>2025-02-02T11:27:30Z</time>
      </trkpt>
      <trkpt lat="46.12821" lon="6.77194">
        <ele>1870.308</ele>
        <time>2025-02-02T11:27:35Z</time>
      </trkpt>
      <trkpt lat="46.12821" lon="6.77197">
        <ele>1870.813</ele>
        <time>2025-02-02T11:27:40Z</time>
      </trkpt>
      <trkpt lat="46.12822" lon="6.772">
        <ele>1871.205</ele>
        <time>2025-02-02T11:27:45Z</time>
      </trkpt>
      <trkpt lat="46.12823" lon="6.77203">
        <ele>1870.87</ele>
        <time>2025-02-02T11:27:50Z</time>
      </trkpt>
      <trkpt lat="46.12825" lon="6.77205">
        <ele>1871.122</ele>
        <time>2025-02-02T11:27:55Z</time>
      </trkpt>
      <trkpt lat="46.12827" lon="6.77205">
        <ele>1871.811</ele>
        <time>2025-02-02T11:28:00Z</time>
      </trkpt>
      <trkpt lat="46.12829" lon="6.77205">
        <ele>1872.843</ele>
        <time>2025-02-02T11:28:05Z</time>
      </trkpt>
      <trkpt lat="46.12832" lon="6.77205">
        <ele>1874.279</ele>
        <time>2025-02-02T11:28:10Z</time>
      </trkpt>
      <trkpt lat="46.12834" lon="6.77205">
        <ele>1875.407</ele>
        <time>2025-02-02T11:28:15Z</time>
      </trkpt>
      <trkpt lat="46.12837" lon="6.77205">
        <ele>1876.686</ele>
        <time>2025-02-02T11:28:20Z</time>
      </trkpt>
      <trkpt lat="46.12839" lon="6.77205">
        <ele>1878.262</ele>
        <time>2025-02-02T11:28:25Z</time>
      </trkpt>
      <trkpt lat="46.12842" lon="6.77205">
        <ele>1878.86</ele>
        <time>2025-02-02T11:28:30Z</time>
      </trkpt>
      <trkpt lat="46.12845" lon="6.77206">
        <ele>1879.858</ele>
        <time>2025-02-02T11:28:35Z</time>
      </trkpt>
      <trkpt lat="46.12848" lon="6.77206">
        <ele>1879.827</ele>
        <time>2025-02-02T11:28:40Z</time>
      </trkpt>
      <trkpt lat="46.12851" lon="6.77208">
        <ele>1880.103</ele>
        <time>2025-02-02T11:28:45Z</time>
      </trkpt>
      <trkpt lat="46.12854" lon="6.7721">
        <ele>1880.864</ele>
        <time>2025-02-02T11:28:50Z</time>
      </trkpt>
      <trkpt lat="46.12858" lon="6.77211">
        <ele>1881.566</ele>
        <time>2025-02-02T11:28:55Z</time>
      </trkpt>
      <trkpt lat="46.12861" lon="6.77211">
        <ele>1882.168</ele>
        <time>2025-02-02T11:29:00Z</time>
      </trkpt>
      <trkpt lat="46.12864" lon="6.77211">
        <ele>1882.617</ele>
        <time>2025-02-02T11:29:05Z</time>
      </trkpt>
      <trkpt lat="46.12868" lon="6.77211">
        <ele>1882.851</ele>
        <time>2025-02-02T11:29:10Z</time>
      </trkpt>
      <trkpt lat="46.1287" lon="6.77212">
        <ele>1883.473</ele>
        <time>2025-02-02T11:29:15Z</time>
      </trkpt>
      <trkpt lat="46.12874" lon="6.77213">
        <ele>1884.199</ele>
        <time>2025-02-02T11:29:20Z</time>
      </trkpt>
      <trkpt lat="46.12877" lon="6.77213">
        <ele>1884.636</ele>
        <time>2025-02-02T11:29:25Z</time>
      </trkpt>
      <trkpt lat="46.12879" lon="6.77214">
        <ele>1884.591</ele>
        <time>2025-02-02T11:29:30Z</time>
      </trkpt>
      <trkpt lat="46.12882" lon="6.77216">
        <ele>1885.899</ele>
        <time>2025-02-02T11:29:35Z</time>
      </trkpt>
      <trkpt lat="46.12885" lon="6.77217">
        <ele>1886.512</ele>
        <time>2025-02-02T11:29:40Z</time>
      </trkpt>
      <trkpt lat="46.12888" lon="6.77218">
        <ele>1887.089</ele>
        <time>2025-02-02T11:29:45Z</time>
      </trkpt>
      <trkpt lat="46.12891" lon="6.7722">
        <ele>1887.296</ele>
        <time>2025-02-02T11:29:50Z</time>
      </trkpt>
      <trkpt lat="46.12894" lon="6.77221">
        <ele>1887.575</ele>
        <time>2025-02-02T11:29:55Z</time>
      </trkpt>
      <trkpt lat="46.12896" lon="6.77222">
        <ele>1888.048</ele>
        <time>2025-02-02T11:30:00Z</time>
      </trkpt>
      <trkpt lat="46.12897" lon="6.77225">
        <ele>1888.061</ele>
        <time>2025-02-02T11:30:05Z</time>
      </trkpt>
      <trkpt lat="46.12895" lon="6.77228">
        <ele>1889.225</ele>
        <time>2025-02-02T11:30:10Z</time>
      </trkpt>
      <trkpt lat="46.12892" lon="6.7723">
        <ele>1889.792</ele>
        <time>2025-02-02T11:30:15Z</time>
      </trkpt>
      <trkpt lat="46.1289" lon="6.77232">
        <ele>1890.759</ele>
        <time>2025-02-02T11:30:20Z</time>
      </trkpt>
      <trkpt lat="46.12889" lon="6.77235">
        <ele>1892.026</ele>
        <time>2025-02-02T11:30:25Z</time>
      </trkpt>
      <trkpt lat="46.12887" lon="6.77238">
        <ele>1892.368</ele>
        <time>2025-02-02T11:30:30Z</time>
      </trkpt>
      <trkpt lat="46.12885" lon="6.77242">
        <ele>1892.898</ele>
        <time>2025-02-02T11:30:35Z</time>
      </trkpt>
      <trkpt lat="46.12884" lon="6.77247">
        <ele>1893.479</ele>
        <time>2025-02-02T11:30:40Z</time>
      </trkpt>
      <trkpt lat="46.12884" lon="6.7725">
        <ele>1893.952</ele>
        <time>2025-02-02T11:30:45Z</time>
      </trkpt>
      <trkpt lat="46.12887" lon="6.77252">
        <ele>1894.519</ele>
        <time>2025-02-02T11:30:50Z</time>
      </trkpt>
      <trkpt lat="46.1289" lon="6.77253">
        <ele>1894.996</ele>
        <time>2025-02-02T11:30:55Z</time>
      </trkpt>
      <trkpt lat="46.12892" lon="6.77255">
        <ele>1894.568</ele>
        <time>2025-02-02T11:31:00Z</time>
      </trkpt>
      <trkpt lat="46.12895" lon="6.77257">
        <ele>1895.45</ele>
        <time>2025-02-02T11:31:05Z</time>
      </trkpt>
      <trkpt lat="46.12897" lon="6.77258">
        <ele>1896.866</ele>
        <time>2025-02-02T11:31:10Z</time>
      </trkpt>
      <trkpt lat="46.12899" lon="6.7726">
        <ele>1897.826</ele>
        <time>2025-02-02T11:31:15Z</time>
      </trkpt>
      <trkpt lat="46.12901" lon="6.77261">
        <ele>1897.999</ele>
        <time>2025-02-02T11:31:20Z</time>
      </trkpt>
      <trkpt lat="46.12903" lon="6.77263">
        <ele>1899.496</ele>
        <time>2025-02-02T11:31:25Z</time>
      </trkpt>
      <trkpt lat="46.12905" lon="6.77265">
        <ele>1900.088</ele>
        <time>2025-02-02T11:31:30Z</time>
      </trkpt>
      <trkpt lat="46.12907" lon="6.77268">
        <ele>1900.514</ele>
        <time>2025-02-02T11:31:35Z</time>
      </trkpt>
      <trkpt lat="46.12909" lon="6.7727">
        <ele>1902.081</ele>
        <time>2025-02-02T11:31:40Z</time>
      </trkpt>
      <trkpt lat="46.12912" lon="6.77271">
        <ele>1902.796</ele>
        <time>2025-02-02T11:31:45Z</time>
      </trkpt>
      <trkpt lat="46.12914" lon="6.77274">
        <ele>1903.601</ele>
        <time>2025-02-02T11:31:50Z</time>
      </trkpt>
      <trkpt lat="46.12916" lon="6.77276">
        <ele>1904.491</ele>
        <time>2025-02-02T11:31:55Z</time>
      </trkpt>
      <trkpt lat="46.12918" lon="6.77278">
        <ele>1905.494</ele>
        <time>2025-02-02T11:32:00Z</time>
      </trkpt>
      <trkpt lat="46.1292" lon="6.7728">
        <ele>1906.235</ele>
        <time>2025-02-02T11:32:05Z</time>
      </trkpt>
      <trkpt lat="46.12922" lon="6.77282">
        <ele>1907.024</ele>
        <time>2025-02-02T11:32:10Z</time>
      </trkpt>
      <trkpt lat="46.12923" lon="6.77285">
        <ele>1908.37</ele>
        <time>2025-02-02T11:32:15Z</time>
      </trkpt>
      <trkpt lat="46.12925" lon="6.77287">
        <ele>1908.424</ele>
        <time>2025-02-02T11:32:20Z</time>
      </trkpt>
      <trkpt lat="46.12927" lon="6.77289">
        <ele>1909.081</ele>
        <time>2025-02-02T11:32:25Z</time>
      </trkpt>
      <trkpt lat="46.12929" lon="6.77292">
        <ele>1909.371</ele>
        <time>2025-02-02T11:32:30Z</time>
      </trkpt>
      <trkpt lat="46.12931" lon="6.77294">
        <ele>1909.998</ele>
        <time>2025-02-02T11:32:35Z</time>
      </trkpt>
      <trkpt lat="46.12933" lon="6.77296">
        <ele>1910.172</ele>
        <time>2025-02-02T11:32:40Z</time>
      </trkpt>
      <trkpt lat="46.12932" lon="6.77299">
        <ele>1910.918</ele>
        <time>2025-02-02T11:32:45Z</time>
      </trkpt>
      <trkpt lat="46.12931" lon="6.77303">
        <ele>1912.218</ele>
        <time>2025-02-02T11:32:50Z</time>
      </trkpt>
      <trkpt lat="46.12929" lon="6.77307">
        <ele>1913.137</ele>
        <time>2025-02-02T11:32:55Z</time>
      </trkpt>
      <trkpt lat="46.12928" lon="6.77311">
        <ele>1913.634</ele>
        <time>2025-02-02T11:33:00Z</time>
      </trkpt>
      <trkpt lat="46.12929" lon="6.77314">
        <ele>1914.28</ele>
        <time>2025-02-02T11:33:05Z</time>
      </trkpt>
      <trkpt lat="46.12929" lon="6.77319">
        <ele>1915.329</ele>
        <time>2025-02-02T11:33:10Z</time>
      </trkpt>
      <trkpt lat="46.12931" lon="6.77323">
        <ele>1915.676</ele>
        <time>2025-02-02T11:33:15Z</time>
      </trkpt>
      <trkpt lat="46.12933" lon="6.77327">
        <ele>1915.568</ele>
        <time>2025-02-02T11:33:20Z</time>
      </trkpt>
      <trkpt lat="46.12935" lon="6.7733">
        <ele>1916.523</ele>
        <time>2025-02-02T11:33:25Z</time>
      </trkpt>
      <trkpt lat="46.12936" lon="6.77333">
        <ele>1917.304</ele>
        <time>2025-02-02T11:33:30Z</time>
      </trkpt>
      <trkpt lat="46.12937" lon="6.77337">
        <ele>1918.445</ele>
        <time>2025-02-02T11:33:35Z</time>
      </trkpt>
      <trkpt lat="46.12939" lon="6.77341">
        <ele>1918.639</ele>
        <time>2025-02-02T11:33:40Z</time>
      </trkpt>
      <trkpt lat="46.12941" lon="6.77345">
        <ele>1919.666</ele>
        <time>2025-02-02T11:33:45Z</time>
      </trkpt>
      <trkpt lat="46.12941" lon="6.77348">
        <ele>1919.95</ele>
        <time>2025-02-02T11:33:50Z</time>
      </trkpt>
      <trkpt lat="46.12943" lon="6.77351">
        <ele>1921.42</ele>
        <time>2025-02-02T11:33:55Z</time>
      </trkpt>
      <trkpt lat="46.12944" lon="6.77354">
        <ele>1922.393</ele>
        <time>2025-02-02T11:34:00Z</time>
      </trkpt>
      <trkpt lat="46.12945" lon="6.77357">
        <ele>1922.788</ele>
        <time>2025-02-02T11:34:05Z</time>
      </trkpt>
      <trkpt lat="46.12946" lon="6.7736">
        <ele>1923.469</ele>
        <time>2025-02-02T11:34:10Z</time>
      </trkpt>
      <trkpt lat="46.12948" lon="6.77362">
        <ele>1924.084</ele>
        <time>2025-02-02T11:34:15Z</time>
      </trkpt>
      <trkpt lat="46.1295" lon="6.77364">
        <ele>1924.591</ele>
        <time>2025-02-02T11:34:20Z</time>
      </trkpt>
      <trkpt lat="46.12951" lon="6.77366">
        <ele>1925</ele>
        <time>2025-02-02T11:34:25Z</time>
      </trkpt>
      <trkpt lat="46.12953" lon="6.77369">
        <ele>1925.581</ele>
        <time>2025-02-02T11:34:30Z</time>
      </trkpt>
      <trkpt lat="46.12955" lon="6.77372">
        <ele>1926.241</ele>
        <time>2025-02-02T11:34:35Z</time>
      </trkpt>
      <trkpt lat="46.12956" lon="6.77375">
        <ele>1927.281</ele>
        <time>2025-02-02T11:34:40Z</time>
      </trkpt>
      <trkpt lat="46.12957" lon="6.77378">
        <ele>1928.606</ele>
        <time>2025-02-02T11:34:45Z</time>
      </trkpt>
      <trkpt lat="46.12959" lon="6.7738">
        <ele>1929.647</ele>
        <time>2025-02-02T11:34:50Z</time>
      </trkpt>
      <trkpt lat="46.1296" lon="6.77383">
        <ele>1930.569</ele>
        <time>2025-02-02T11:34:55Z</time>
      </trkpt>
      <trkpt lat="46.12962" lon="6.77385">
        <ele>1931.638</ele>
        <time>2025-02-02T11:35:00Z</time>
      </trkpt>
      <trkpt lat="46.12965" lon="6.77387">
        <ele>1932.504</ele>
        <time>2025-02-02T11:35:05Z</time>
      </trkpt>
      <trkpt lat="46.12966" lon="6.77389">
        <ele>1933.184</ele>
        <time>2025-02-02T11:35:10Z</time>
      </trkpt>
      <trkpt lat="46.12968" lon="6.77391">
        <ele>1934.289</ele>
        <time>2025-02-02T11:35:15Z</time>
      </trkpt>
      <trkpt lat="46.12969" lon="6.77393">
        <ele>1935.038</ele>
        <time>2025-02-02T11:35:20Z</time>
      </trkpt>
      <trkpt lat="46.1297" lon="6.77395">
        <ele>1935.43</ele>
        <time>2025-02-02T11:35:25Z</time>
      </trkpt>
      <trkpt lat="46.12969" lon="6.77397">
        <ele>1936.326</ele>
        <time>2025-02-02T11:35:30Z</time>
      </trkpt>
      <trkpt lat="46.12969" lon="6.774">
        <ele>1936.899</ele>
        <time>2025-02-02T11:35:35Z</time>
      </trkpt>
      <trkpt lat="46.12968" lon="6.77403">
        <ele>1938.441</ele>
        <time>2025-02-02T11:35:40Z</time>
      </trkpt>
      <trkpt lat="46.12966" lon="6.77405">
        <ele>1938.805</ele>
        <time>2025-02-02T11:35:45Z</time>
      </trkpt>
      <trkpt lat="46.12965" lon="6.77407">
        <ele>1938.438</ele>
        <time>2025-02-02T11:35:50Z</time>
      </trkpt>
      <trkpt lat="46.12964" lon="6.77409">
        <ele>1939.189</ele>
        <time>2025-02-02T11:35:55Z</time>
      </trkpt>
      <trkpt lat="46.12963" lon="6.77412">
        <ele>1940.102</ele>
        <time>2025-02-02T11:36:00Z</time>
      </trkpt>
      <trkpt lat="46.12963" lon="6.77415">
        <ele>1940.7</ele>
        <time>2025-02-02T11:36:05Z</time>
      </trkpt>
      <trkpt lat="46.12963" lon="6.77417">
        <ele>1941.381</ele>
        <time>2025-02-02T11:36:10Z</time>
      </trkpt>
      <trkpt lat="46.12962" lon="6.77419">
        <ele>1941.663</ele>
        <time>2025-02-02T11:36:15Z</time>
      </trkpt>
      <trkpt lat="46.12962" lon="6.77422">
        <ele>1942.153</ele>
        <time>2025-02-02T11:36:20Z</time>
      </trkpt>
      <trkpt lat="46.12961" lon="6.77425">
        <ele>1942.803</ele>
        <time>2025-02-02T11:36:25Z</time>
      </trkpt>
      <trkpt lat="46.12961" lon="6.77428">
        <ele>1944.119</ele>
        <time>2025-02-02T11:36:30Z</time>
      </trkpt>
      <trkpt lat="46.12961" lon="6.77431">
        <ele>1945.235</ele>
        <time>2025-02-02T11:36:35Z</time>
      </trkpt>
      <trkpt lat="46.12961" lon="6.77432">
        <ele>1945.279</ele>
        <time>2025-02-02T11:36:40Z</time>
      </trkpt>
      <trkpt lat="46.12961" lon="6.77432">
        <ele>1945.287</ele>
        <time>2025-02-02T11:36:45Z</time>
      </trkpt>
      <trkpt lat="46.12961" lon="6.77432">
        <ele>1945.293</ele>
        <time>2025-02-02T11:36:50Z</time>
      </trkpt>
      <trkpt lat="46.12961" lon="6.77432">
        <ele>1945.728</ele>
        <time>2025-02-02T11:36:55Z</time>
      </trkpt>
      <trkpt lat="46.12961" lon="6.77432">
        <ele>1945.738</ele>
        <time>2025-02-02T11:37:00Z</time>
      </trkpt>
      <trkpt lat="46.12961" lon="6.77432">
        <ele>1945.746</ele>
        <time>2025-02-02T11:37:05Z</time>
      </trkpt>
      <trkpt lat="46.12961" lon="6.77432">
        <ele>1945.754</ele>
        <time>2025-02-02T11:37:10Z</time>
      </trkpt>
      <trkpt lat="46.12961" lon="6.77432">
        <ele>1945.759</ele>
        <time>2025-02-02T11:37:15Z</time>
      </trkpt>
      <trkpt lat="46.12961" lon="6.77432">
        <ele>1946.346</ele>
        <time>2025-02-02T11:37:20Z</time>
      </trkpt>
      <trkpt lat="46.12961" lon="6.77432">
        <ele>1947.575</ele>
        <time>2025-02-02T11:37:25Z</time>
      </trkpt>
      <trkpt lat="46.12961" lon="6.77432">
        <ele>1948.21</ele>
        <time>2025-02-02T11:37:30Z</time>
      </trkpt>
      <trkpt lat="46.1296" lon="6.77437">
        <ele>1948.208</ele>
        <time>2025-02-02T11:37:35Z</time>
      </trkpt>
      <trkpt lat="46.1296" lon="6.77437">
        <ele>1948.208</ele>
        <time>2025-02-02T11:37:40Z</time>
      </trkpt>
      <trkpt lat="46.1296" lon="6.77438">
        <ele>1948.33</ele>
        <time>2025-02-02T11:37:45Z</time>
      </trkpt>
      <trkpt lat="46.1296" lon="6.77441">
        <ele>1949.701</ele>
        <time>2025-02-02T11:37:50Z</time>
      </trkpt>
      <trkpt lat="46.12962" lon="6.77445">
        <ele>1951.66</ele>
        <time>2025-02-02T11:37:55Z</time>
      </trkpt>
      <trkpt lat="46.12964" lon="6.77449">
        <ele>1952.96</ele>
        <time>2025-02-02T11:38:00Z</time>
      </trkpt>
      <trkpt lat="46.12965" lon="6.77452">
        <ele>1953.705</ele>
        <time>2025-02-02T11:38:05Z</time>
      </trkpt>
      <trkpt lat="46.12966" lon="6.77455">
        <ele>1954.834</ele>
        <time>2025-02-02T11:38:10Z</time>
      </trkpt>
      <trkpt lat="46.12968" lon="6.77458">
        <ele>1955.968</ele>
        <time>2025-02-02T11:38:15Z</time>
      </trkpt>
      <trkpt lat="46.1297" lon="6.77461">
        <ele>1957.642</ele>
        <time>2025-02-02T11:38:20Z</time>
      </trkpt>
      <trkpt lat="46.12971" lon="6.77465">
        <ele>1958.081</ele>
        <time>2025-02-02T11:38:25Z</time>
      </trkpt>
      <trkpt lat="46.12972" lon="6.77468">
        <ele>1959.005</ele>
        <time>2025-02-02T11:38:30Z</time>
      </trkpt>
      <trkpt lat="46.12972" lon="6.77472">
        <ele>1959.503</ele>
        <time>2025-02-02T11:38:35Z</time>
      </trkpt>
      <trkpt lat="46.12973" lon="6.77476">
        <ele>1959.666</ele>
        <time>2025-02-02T11:38:40Z</time>
      </trkpt>
      <trkpt lat="46.12974" lon="6.7748">
        <ele>1960.567</ele>
        <time>2025-02-02T11:38:45Z</time>
      </trkpt>
      <trkpt lat="46.12976" lon="6.77483">
        <ele>1961.047</ele>
        <time>2025-02-02T11:38:50Z</time>
      </trkpt>
      <trkpt lat="46.12977" lon="6.77487">
        <ele>1962.186</ele>
        <time>2025-02-02T11:38:55Z</time>
      </trkpt>
      <trkpt lat="46.12978" lon="6.77491">
        <ele>1962.989</ele>
        <time>2025-02-02T11:39:00Z</time>
      </trkpt>
      <trkpt lat="46.12978" lon="6.77495">
        <ele>1963.413</ele>
        <time>2025-02-02T11:39:05Z</time>
      </trkpt>
      <trkpt lat="46.12979" lon="6.77499">
        <ele>1964.425</ele>
        <time>2025-02-02T11:39:10Z</time>
      </trkpt>
      <trkpt lat="46.12979" lon="6.77502">
        <ele>1965.3</ele>
        <time>2025-02-02T11:39:15Z</time>
      </trkpt>
      <trkpt lat="46.1298" lon="6.77506">
        <ele>1965.942</ele>
        <time>2025-02-02T11:39:20Z</time>
      </trkpt>
      <trkpt lat="46.12981" lon="6.7751">
        <ele>1966.445</ele>
        <time>2025-02-02T11:39:25Z</time>
      </trkpt>
      <trkpt lat="46.12982" lon="6.77514">
        <ele>1967.726</ele>
        <time>2025-02-02T11:39:30Z</time>
      </trkpt>
      <trkpt lat="46.12982" lon="6.77518">
        <ele>1968.455</ele>
        <time>2025-02-02T11:39:35Z</time>
      </trkpt>
      <trkpt lat="46.12983" lon="6.77522">
        <ele>1968.308</ele>
        <time>2025-02-02T11:39:40Z</time>
      </trkpt>
      <trkpt lat="46.12984" lon="6.77526">
        <ele>1969.237</ele>
        <time>2025-02-02T11:39:45Z</time>
      </trkpt>
      <trkpt lat="46.12985" lon="6.7753">
        <ele>1969.353</ele>
        <time>2025-02-02T11:39:50Z</time>
      </trkpt>
      <trkpt lat="46.12985" lon="6.77533">
        <ele>1969.914</ele>
        <time>2025-02-02T11:39:55Z</time>
      </trkpt>
      <trkpt lat="46.12986" lon="6.77535">
        <ele>1970.237</ele>
        <time>2025-02-02T11:40:00Z</time>
      </trkpt>
      <trkpt lat="46.12986" lon="6.77535">
        <ele>1970.254</ele>
        <time>2025-02-02T11:40:05Z</time>
      </trkpt>
      <trkpt lat="46.12986" lon="6.77535">
        <ele>1970.266</ele>
        <time>2025-02-02T11:40:10Z</time>
      </trkpt>
      <trkpt lat="46.12987" lon="6.77536">
        <ele>1970.256</ele>
        <time>2025-02-02T11:40:15Z</time>
      </trkpt>
      <trkpt lat="46.12988" lon="6.77539">
        <ele>1970.393</ele>
        <time>2025-02-02T11:40:20Z</time>
      </trkpt>
      <trkpt lat="46.12989" lon="6.77543">
        <ele>1970.574</ele>
        <time>2025-02-02T11:40:25Z</time>
      </trkpt>
      <trkpt lat="46.12991" lon="6.77545">
        <ele>1971.696</ele>
        <time>2025-02-02T11:40:30Z</time>
      </trkpt>
      <trkpt lat="46.12993" lon="6.77549">
        <ele>1972.706</ele>
        <time>2025-02-02T11:40:35Z</time>
      </trkpt>
      <trkpt lat="46.12995" lon="6.77551">
        <ele>1973.232</ele>
        <time>2025-02-02T11:40:40Z</time>
      </trkpt>
      <trkpt lat="46.12995" lon="6.77554">
        <ele>1973.606</ele>
        <time>2025-02-02T11:40:45Z</time>
      </trkpt>
      <trkpt lat="46.12993" lon="6.77557">
        <ele>1974.853</ele>
        <time>2025-02-02T11:40:50Z</time>
      </trkpt>
      <trkpt lat="46.12992" lon="6.7756">
        <ele>1975.528</ele>
        <time>2025-02-02T11:40:55Z</time>
      </trkpt>
      <trkpt lat="46.12991" lon="6.77563">
        <ele>1975.767</ele>
        <time>2025-02-02T11:41:00Z</time>
      </trkpt>
      <trkpt lat="46.1299" lon="6.77566">
        <ele>1976.028</ele>
        <time>2025-02-02T11:41:05Z</time>
      </trkpt>
      <trkpt lat="46.1299" lon="6.77569">
        <ele>1976.932</ele>
        <time>2025-02-02T11:41:10Z</time>
      </trkpt>
      <trkpt lat="46.12989" lon="6.77572">
        <ele>1977.929</ele>
        <time>2025-02-02T11:41:15Z</time>
      </trkpt>
      <trkpt lat="46.12988" lon="6.77575">
        <ele>1978.336</ele>
        <time>2025-02-02T11:41:20Z</time>
      </trkpt>
      <trkpt lat="46.12988" lon="6.77578">
        <ele>1979.235</ele>
        <time>2025-02-02T11:41:25Z</time>
      </trkpt>
      <trkpt lat="46.12986" lon="6.77581">
        <ele>1980.415</ele>
        <time>2025-02-02T11:41:30Z</time>
      </trkpt>
      <trkpt lat="46.12985" lon="6.77584">
        <ele>1981.313</ele>
        <time>2025-02-02T11:41:35Z</time>
      </trkpt>
      <trkpt lat="46.12984" lon="6.77587">
        <ele>1981.399</ele>
        <time>2025-02-02T11:41:40Z</time>
      </trkpt>
      <trkpt lat="46.12983" lon="6.77589">
        <ele>1981.597</ele>
        <time>2025-02-02T11:41:45Z</time>
      </trkpt>
      <trkpt lat="46.12983" lon="6.77591">
        <ele>1982.389</ele>
        <time>2025-02-02T11:41:50Z</time>
      </trkpt>
      <trkpt lat="46.12982" lon="6.77594">
        <ele>1982.856</ele>
        <time>2025-02-02T11:41:55Z</time>
      </trkpt>
      <trkpt lat="46.12982" lon="6.77596">
        <ele>1983.483</ele>
        <time>2025-02-02T11:42:00Z</time>
      </trkpt>
      <trkpt lat="46.12981" lon="6.77598">
        <ele>1983.632</ele>
        <time>2025-02-02T11:42:05Z</time>
      </trkpt>
      <trkpt lat="46.1298" lon="6.77601">
        <ele>1984.852</ele>
        <time>2025-02-02T11:42:10Z</time>
      </trkpt>
      <trkpt lat="46.12979" lon="6.77604">
        <ele>1985.436</ele>
        <time>2025-02-02T11:42:15Z</time>
      </trkpt>
      <trkpt lat="46.12978" lon="6.77607">
        <ele>1985.898</ele>
        <time>2025-02-02T11:42:20Z</time>
      </trkpt>
      <trkpt lat="46.12977" lon="6.7761">
        <ele>1986.827</ele>
        <time>2025-02-02T11:42:25Z</time>
      </trkpt>
      <trkpt lat="46.12977" lon="6.77612">
        <ele>1987.298</ele>
        <time>2025-02-02T11:42:30Z</time>
      </trkpt>
      <trkpt lat="46.12976" lon="6.77614">
        <ele>1988.153</ele>
        <time>2025-02-02T11:42:35Z</time>
      </trkpt>
      <trkpt lat="46.12975" lon="6.77616">
        <ele>1988.872</ele>
        <time>2025-02-02T11:42:40Z</time>
      </trkpt>
      <trkpt lat="46.12974" lon="6.77618">
        <ele>1989.505</ele>
        <time>2025-02-02T11:42:45Z</time>
      </trkpt>
      <trkpt lat="46.12974" lon="6.77621">
        <ele>1990.365</ele>
        <time>2025-02-02T11:42:50Z</time>
      </trkpt>
      <trkpt lat="46.12973" lon="6.77624">
        <ele>1991.767</ele>
        <time>2025-02-02T11:42:55Z</time>
      </trkpt>
      <trkpt lat="46.12973" lon="6.77627">
        <ele>1992.292</ele>
        <time>2025-02-02T11:43:00Z</time>
      </trkpt>
      <trkpt lat="46.12972" lon="6.77631">
        <ele>1993.412</ele>
        <time>2025-02-02T11:43:05Z</time>
      </trkpt>
      <trkpt lat="46.12971" lon="6.77635">
        <ele>1994.398</ele>
        <time>2025-02-02T11:43:10Z</time>
      </trkpt>
      <trkpt lat="46.12971" lon="6.77638">
        <ele>1995.071</ele>
        <time>2025-02-02T11:43:15Z</time>
      </trkpt>
      <trkpt lat="46.1297" lon="6.77641">
        <ele>1995.955</ele>
        <time>2025-02-02T11:43:20Z</time>
      </trkpt>
      <trkpt lat="46.1297" lon="6.77645">
        <ele>1996.975</ele>
        <time>2025-02-02T11:43:25Z</time>
      </trkpt>
      <trkpt lat="46.12969" lon="6.77649">
        <ele>1998.431</ele>
        <time>2025-02-02T11:43:30Z</time>
      </trkpt>
      <trkpt lat="46.12968" lon="6.77652">
        <ele>1999.022</ele>
        <time>2025-02-02T11:43:35Z</time>
      </trkpt>
      <trkpt lat="46.12968" lon="6.77654">
        <ele>1999.446</ele>
        <time>2025-02-02T11:43:40Z</time>
      </trkpt>
      <trkpt lat="46.12967" lon="6.77657">
        <ele>1999.917</ele>
        <time>2025-02-02T11:43:45Z</time>
      </trkpt>
      <trkpt lat="46.12967" lon="6.7766">
        <ele>2000.495</ele>
        <time>2025-02-02T11:43:50Z</time>
      </trkpt>
      <trkpt lat="46.12966" lon="6.77663">
        <ele>2001.071</ele>
        <time>2025-02-02T11:43:55Z</time>
      </trkpt>
      <trkpt lat="46.12965" lon="6.77666">
        <ele>2001.555</ele>
        <time>2025-02-02T11:44:00Z</time>
      </trkpt>
      <trkpt lat="46.12965" lon="6.77668">
        <ele>2002.198</ele>
        <time>2025-02-02T11:44:05Z</time>
      </trkpt>
      <trkpt lat="46.12965" lon="6.77671">
        <ele>2002.393</ele>
        <time>2025-02-02T11:44:10Z</time>
      </trkpt>
      <trkpt lat="46.12965" lon="6.77674">
        <ele>2002.688</ele>
        <time>2025-02-02T11:44:15Z</time>
      </trkpt>
      <trkpt lat="46.12964" lon="6.77677">
        <ele>2003.46</ele>
        <time>2025-02-02T11:44:20Z</time>
      </trkpt>
      <trkpt lat="46.12964" lon="6.77681">
        <ele>2003.795</ele>
        <time>2025-02-02T11:44:25Z</time>
      </trkpt>
      <trkpt lat="46.12963" lon="6.77684">
        <ele>2004.203</ele>
        <time>2025-02-02T11:44:30Z</time>
      </trkpt>
      <trkpt lat="46.12963" lon="6.77687">
        <ele>2005.191</ele>
        <time>2025-02-02T11:44:35Z</time>
      </trkpt>
      <trkpt lat="46.12962" lon="6.7769">
        <ele>2005.355</ele>
        <time>2025-02-02T11:44:40Z</time>
      </trkpt>
      <trkpt lat="46.12962" lon="6.77693">
        <ele>2006.354</ele>
        <time>2025-02-02T11:44:45Z</time>
      </trkpt>
      <trkpt lat="46.12962" lon="6.77695">
        <ele>2006.98</ele>
        <time>2025-02-02T11:44:50Z</time>
      </trkpt>
      <trkpt lat="46.12962" lon="6.77698">
        <ele>2007.667</ele>
        <time>2025-02-02T11:44:55Z</time>
      </trkpt>
      <trkpt lat="46.12961" lon="6.77701">
        <ele>2008.719</ele>
        <time>2025-02-02T11:45:00Z</time>
      </trkpt>
      <trkpt lat="46.12961" lon="6.77704">
        <ele>2008.681</ele>
        <time>2025-02-02T11:45:05Z</time>
      </trkpt>
      <trkpt lat="46.12961" lon="6.77707">
        <ele>2009.462</ele>
        <time>2025-02-02T11:45:10Z</time>
      </trkpt>
      <trkpt lat="46.1296" lon="6.7771">
        <ele>2010.218</ele>
        <time>2025-02-02T11:45:15Z</time>
      </trkpt>
      <trkpt lat="46.1296" lon="6.77713">
        <ele>2011.137</ele>
        <time>2025-02-02T11:45:20Z</time>
      </trkpt>
      <trkpt lat="46.1296" lon="6.77716">
        <ele>2012.198</ele>
        <time>2025-02-02T11:45:25Z</time>
      </trkpt>
      <trkpt lat="46.1296" lon="6.77718">
        <ele>2012.464</ele>
        <time>2025-02-02T11:45:30Z</time>
      </trkpt>
      <trkpt lat="46.1296" lon="6.7772">
        <ele>2013.025</ele>
        <time>2025-02-02T11:45:35Z</time>
      </trkpt>
      <trkpt lat="46.12961" lon="6.77723">
        <ele>2014.203</ele>
        <time>2025-02-02T11:45:40Z</time>
      </trkpt>
      <trkpt lat="46.12962" lon="6.77726">
        <ele>2014.024</ele>
        <time>2025-02-02T11:45:45Z</time>
      </trkpt>
      <trkpt lat="46.12962" lon="6.77729">
        <ele>2014.862</ele>
        <time>2025-02-02T11:45:50Z</time>
      </trkpt>
      <trkpt lat="46.12962" lon="6.77732">
        <ele>2015.725</ele>
        <time>2025-02-02T11:45:55Z</time>
      </trkpt>
      <trkpt lat="46.12962" lon="6.77735">
        <ele>2016.111</ele>
        <time>2025-02-02T11:46:00Z</time>
      </trkpt>
      <trkpt lat="46.12962" lon="6.77738">
        <ele>2017.562</ele>
        <time>2025-02-02T11:46:05Z</time>
      </trkpt>
      <trkpt lat="46.12962" lon="6.7774">
        <ele>2018.392</ele>
        <time>2025-02-02T11:46:10Z</time>
      </trkpt>
      <trkpt lat="46.12962" lon="6.77742">
        <ele>2018.752</ele>
        <time>2025-02-02T11:46:15Z</time>
      </trkpt>
      <trkpt lat="46.12962" lon="6.77745">
        <ele>2019.485</ele>
        <time>2025-02-02T11:46:20Z</time>
      </trkpt>
      <trkpt lat="46.12963" lon="6.77748">
        <ele>2019.112</ele>
        <time>2025-02-02T11:46:25Z</time>
      </trkpt>
      <trkpt lat="46.12964" lon="6.77751">
        <ele>2019.792</ele>
        <time>2025-02-02T11:46:30Z</time>
      </trkpt>
      <trkpt lat="46.12964" lon="6.77753">
        <ele>2021.181</ele>
        <time>2025-02-02T11:46:35Z</time>
      </trkpt>
      <trkpt lat="46.12965" lon="6.77756">
        <ele>2021.432</ele>
        <time>2025-02-02T11:46:40Z</time>
      </trkpt>
      <trkpt lat="46.12966" lon="6.77759">
        <ele>2022.045</ele>
        <time>2025-02-02T11:46:45Z</time>
      </trkpt>
      <trkpt lat="46.12966" lon="6.77762">
        <ele>2022.976</ele>
        <time>2025-02-02T11:46:50Z</time>
      </trkpt>
      <trkpt lat="46.12967" lon="6.77765">
        <ele>2022.914</ele>
        <time>2025-02-02T11:46:55Z</time>
      </trkpt>
      <trkpt lat="46.12967" lon="6.77768">
        <ele>2023.71</ele>
        <time>2025-02-02T11:47:00Z</time>
      </trkpt>
      <trkpt lat="46.12968" lon="6.7777">
        <ele>2024.769</ele>
        <time>2025-02-02T11:47:05Z</time>
      </trkpt>
      <trkpt lat="46.12969" lon="6.77772">
        <ele>2025.781</ele>
        <time>2025-02-02T11:47:10Z</time>
      </trkpt>
      <trkpt lat="46.1297" lon="6.77775">
        <ele>2026.682</ele>
        <time>2025-02-02T11:47:15Z</time>
      </trkpt>
      <trkpt lat="46.1297" lon="6.77777">
        <ele>2027.693</ele>
        <time>2025-02-02T11:47:20Z</time>
      </trkpt>
      <trkpt lat="46.12972" lon="6.7778">
        <ele>2028.647</ele>
        <time>2025-02-02T11:47:25Z</time>
      </trkpt>
      <trkpt lat="46.12973" lon="6.77782">
        <ele>2029.7</ele>
        <time>2025-02-02T11:47:30Z</time>
      </trkpt>
      <trkpt lat="46.12974" lon="6.77785">
        <ele>2030.091</ele>
        <time>2025-02-02T11:47:35Z</time>
      </trkpt>
      <trkpt lat="46.12974" lon="6.77788">
        <ele>2030.541</ele>
        <time>2025-02-02T11:47:40Z</time>
      </trkpt>
      <trkpt lat="46.12975" lon="6.7779">
        <ele>2031.008</ele>
        <time>2025-02-02T11:47:45Z</time>
      </trkpt>
      <trkpt lat="46.12977" lon="6.77792">
        <ele>2032.006</ele>
        <time>2025-02-02T11:47:50Z</time>
      </trkpt>
      <trkpt lat="46.12978" lon="6.77793">
        <ele>2032.54</ele>
        <time>2025-02-02T11:47:55Z</time>
      </trkpt>
      <trkpt lat="46.1298" lon="6.77795">
        <ele>2032.809</ele>
        <time>2025-02-02T11:48:00Z</time>
      </trkpt>
      <trkpt lat="46.12981" lon="6.77797">
        <ele>2033.462</ele>
        <time>2025-02-02T11:48:05Z</time>
      </trkpt>
      <trkpt lat="46.12983" lon="6.778">
        <ele>2034.559</ele>
        <time>2025-02-02T11:48:10Z</time>
      </trkpt>
      <trkpt lat="46.12984" lon="6.77802">
        <ele>2035.459</ele>
        <time>2025-02-02T11:48:15Z</time>
      </trkpt>
      <trkpt lat="46.12985" lon="6.77804">
        <ele>2036.04</ele>
        <time>2025-02-02T11:48:20Z</time>
      </trkpt>
      <trkpt lat="46.12987" lon="6.77805">
        <ele>2036.579</ele>
        <time>2025-02-02T11:48:25Z</time>
      </trkpt>
      <trkpt lat="46.12989" lon="6.77806">
        <ele>2037.458</ele>
        <time>2025-02-02T11:48:30Z</time>
      </trkpt>
      <trkpt lat="46.12991" lon="6.77808">
        <ele>2037.972</ele>
        <time>2025-02-02T11:48:35Z</time>
      </trkpt>
      <trkpt lat="46.12993" lon="6.7781">
        <ele>2038.365</ele>
        <time>2025-02-02T11:48:40Z</time>
      </trkpt>
      <trkpt lat="46.12995" lon="6.77812">
        <ele>2039.122</ele>
        <time>2025-02-02T11:48:45Z</time>
      </trkpt>
      <trkpt lat="46.12997" lon="6.77814">
        <ele>2039.336</ele>
        <time>2025-02-02T11:48:50Z</time>
      </trkpt>
      <trkpt lat="46.12999" lon="6.77816">
        <ele>2040.445</ele>
        <time>2025-02-02T11:48:55Z</time>
      </trkpt>
      <trkpt lat="46.13" lon="6.77818">
        <ele>2040.608</ele>
        <time>2025-02-02T11:49:00Z</time>
      </trkpt>
      <trkpt lat="46.13002" lon="6.77819">
        <ele>2040.409</ele>
        <time>2025-02-02T11:49:05Z</time>
      </trkpt>
      <trkpt lat="46.13004" lon="6.77821">
        <ele>2040.858</ele>
        <time>2025-02-02T11:49:10Z</time>
      </trkpt>
      <trkpt lat="46.13005" lon="6.77823">
        <ele>2041.676</ele>
        <time>2025-02-02T11:49:15Z</time>
      </trkpt>
      <trkpt lat="46.13006" lon="6.77825">
        <ele>2042.815</ele>
        <time>2025-02-02T11:49:20Z</time>
      </trkpt>
      <trkpt lat="46.13007" lon="6.77827">
        <ele>2043.831</ele>
        <time>2025-02-02T11:49:25Z</time>
      </trkpt>
      <trkpt lat="46.13009" lon="6.7783">
        <ele>2044.921</ele>
        <time>2025-02-02T11:49:30Z</time>
      </trkpt>
      <trkpt lat="46.1301" lon="6.77832">
        <ele>2045.498</ele>
        <time>2025-02-02T11:49:35Z</time>
      </trkpt>
      <trkpt lat="46.13012" lon="6.77834">
        <ele>2045.891</ele>
        <time>2025-02-02T11:49:40Z</time>
      </trkpt>
      <trkpt lat="46.13013" lon="6.77835">
        <ele>2046.643</ele>
        <time>2025-02-02T11:49:45Z</time>
      </trkpt>
      <trkpt lat="46.13013" lon="6.77837">
        <ele>2047.077</ele>
        <time>2025-02-02T11:49:50Z</time>
      </trkpt>
      <trkpt lat="46.13014" lon="6.77839">
        <ele>2047.385</ele>
        <time>2025-02-02T11:49:55Z</time>
      </trkpt>
      <trkpt lat="46.13016" lon="6.77841">
        <ele>2047.689</ele>
        <time>2025-02-02T11:50:00Z</time>
      </trkpt>
      <trkpt lat="46.13017" lon="6.77843">
        <ele>2048.197</ele>
        <time>2025-02-02T11:50:05Z</time>
      </trkpt>
      <trkpt lat="46.13018" lon="6.77845">
        <ele>2048.694</ele>
        <time>2025-02-02T11:50:10Z</time>
      </trkpt>
      <trkpt lat="46.1302" lon="6.77847">
        <ele>2049.498</ele>
        <time>2025-02-02T11:50:15Z</time>
      </trkpt>
      <trkpt lat="46.13022" lon="6.77849">
        <ele>2049.807</ele>
        <time>2025-02-02T11:50:20Z</time>
      </trkpt>
      <trkpt lat="46.13023" lon="6.77852">
        <ele>2051.118</ele>
        <time>2025-02-02T11:50:25Z</time>
      </trkpt>
      <trkpt lat="46.13024" lon="6.77854">
        <ele>2051.477</ele>
        <time>2025-02-02T11:50:30Z</time>
      </trkpt>
      <trkpt lat="46.13025" lon="6.77856">
        <ele>2051.972</ele>
        <time>2025-02-02T11:50:35Z</time>
      </trkpt>
      <trkpt lat="46.13027" lon="6.77859">
        <ele>2052.815</ele>
        <time>2025-02-02T11:50:40Z</time>
      </trkpt>
      <trkpt lat="46.13029" lon="6.77862">
        <ele>2053.415</ele>
        <time>2025-02-02T11:50:45Z</time>
      </trkpt>
      <trkpt lat="46.13031" lon="6.77864">
        <ele>2054.206</ele>
        <time>2025-02-02T11:50:50Z</time>
      </trkpt>
      <trkpt lat="46.13033" lon="6.77866">
        <ele>2054.424</ele>
        <time>2025-02-02T11:50:55Z</time>
      </trkpt>
      <trkpt lat="46.13034" lon="6.77868">
        <ele>2055.232</ele>
        <time>2025-02-02T11:51:00Z</time>
      </trkpt>
      <trkpt lat="46.13036" lon="6.7787">
        <ele>2055.833</ele>
        <time>2025-02-02T11:51:05Z</time>
      </trkpt>
      <trkpt lat="46.13037" lon="6.77872">
        <ele>2056.107</ele>
        <time>2025-02-02T11:51:10Z</time>
      </trkpt>
      <trkpt lat="46.13038" lon="6.77874">
        <ele>2056.753</ele>
        <time>2025-02-02T11:51:15Z</time>
      </trkpt>
      <trkpt lat="46.1304" lon="6.77875">
        <ele>2057.819</ele>
        <time>2025-02-02T11:51:20Z</time>
      </trkpt>
      <trkpt lat="46.13041" lon="6.77876">
        <ele>2058.063</ele>
        <time>2025-02-02T11:51:25Z</time>
      </trkpt>
      <trkpt lat="46.13043" lon="6.77878">
        <ele>2058.476</ele>
        <time>2025-02-02T11:51:30Z</time>
      </trkpt>
      <trkpt lat="46.13044" lon="6.7788">
        <ele>2058.983</ele>
        <time>2025-02-02T11:51:35Z</time>
      </trkpt>
      <trkpt lat="46.13045" lon="6.77882">
        <ele>2059.865</ele>
        <time>2025-02-02T11:51:40Z</time>
      </trkpt>
      <trkpt lat="46.13047" lon="6.77885">
        <ele>2060.637</ele>
        <time>2025-02-02T11:51:45Z</time>
      </trkpt>
      <trkpt lat="46.13048" lon="6.77887">
        <ele>2061.199</ele>
        <time>2025-02-02T11:51:50Z</time>
      </trkpt>
      <trkpt lat="46.1305" lon="6.77888">
        <ele>2062.061</ele>
        <time>2025-02-02T11:51:55Z</time>
      </trkpt>
      <trkpt lat="46.13052" lon="6.7789">
        <ele>2062.655</ele>
        <time>2025-02-02T11:52:00Z</time>
      </trkpt>
      <trkpt lat="46.13054" lon="6.77891">
        <ele>2063.112</ele>
        <time>2025-02-02T11:52:05Z</time>
      </trkpt>
      <trkpt lat="46.13055" lon="6.77893">
        <ele>2063.526</ele>
        <time>2025-02-02T11:52:10Z</time>
      </trkpt>
      <trkpt lat="46.13057" lon="6.77894">
        <ele>2063.671</ele>
        <time>2025-02-02T11:52:15Z</time>
      </trkpt>
      <trkpt lat="46.13058" lon="6.77896">
        <ele>2064.423</ele>
        <time>2025-02-02T11:52:20Z</time>
      </trkpt>
      <trkpt lat="46.1306" lon="6.77898">
        <ele>2065.615</ele>
        <time>2025-02-02T11:52:25Z</time>
      </trkpt>
      <trkpt lat="46.13061" lon="6.779">
        <ele>2066.146</ele>
        <time>2025-02-02T11:52:30Z</time>
      </trkpt>
      <trkpt lat="46.13064" lon="6.77902">
        <ele>2066.978</ele>
        <time>2025-02-02T11:52:35Z</time>
      </trkpt>
      <trkpt lat="46.13065" lon="6.77903">
        <ele>2068.53</ele>
        <time>2025-02-02T11:52:40Z</time>
      </trkpt>
      <trkpt lat="46.13066" lon="6.77906">
        <ele>2069.785</ele>
        <time>2025-02-02T11:52:45Z</time>
      </trkpt>
      <trkpt lat="46.13068" lon="6.77908">
        <ele>2071.321</ele>
        <time>2025-02-02T11:52:50Z</time>
      </trkpt>
      <trkpt lat="46.1307" lon="6.7791">
        <ele>2072.017</ele>
        <time>2025-02-02T11:52:55Z</time>
      </trkpt>
      <trkpt lat="46.13072" lon="6.77911">
        <ele>2072.789</ele>
        <time>2025-02-02T11:53:00Z</time>
      </trkpt>
      <trkpt lat="46.13074" lon="6.77913">
        <ele>2072.938</ele>
        <time>2025-02-02T11:53:05Z</time>
      </trkpt>
      <trkpt lat="46.13076" lon="6.77915">
        <ele>2073.694</ele>
        <time>2025-02-02T11:53:10Z</time>
      </trkpt>
      <trkpt lat="46.13077" lon="6.77918">
        <ele>2074.742</ele>
        <time>2025-02-02T11:53:15Z</time>
      </trkpt>
      <trkpt lat="46.13078" lon="6.77921">
        <ele>2075.536</ele>
        <time>2025-02-02T11:53:20Z</time>
      </trkpt>
      <trkpt lat="46.1308" lon="6.77923">
        <ele>2076.713</ele>
        <time>2025-02-02T11:53:25Z</time>
      </trkpt>
      <trkpt lat="46.13082" lon="6.77926">
        <ele>2077.588</ele>
        <time>2025-02-02T11:53:30Z</time>
      </trkpt>
      <trkpt lat="46.13084" lon="6.77928">
        <ele>2077.741</ele>
        <time>2025-02-02T11:53:35Z</time>
      </trkpt>
      <trkpt lat="46.13085" lon="6.7793">
        <ele>2077.673</ele>
        <time>2025-02-02T11:53:40Z</time>
      </trkpt>
      <trkpt lat="46.13086" lon="6.77933">
        <ele>2077.885</ele>
        <time>2025-02-02T11:53:45Z</time>
      </trkpt>
      <trkpt lat="46.13087" lon="6.77936">
        <ele>2078.503</ele>
        <time>2025-02-02T11:53:50Z</time>
      </trkpt>
      <trkpt lat="46.13088" lon="6.77938">
        <ele>2079.326</ele>
        <time>2025-02-02T11:53:55Z</time>
      </trkpt>
      <trkpt lat="46.13089" lon="6.77941">
        <ele>2079.78</ele>
        <time>2025-02-02T11:54:00Z</time>
      </trkpt>
      <trkpt lat="46.13091" lon="6.77943">
        <ele>2080.558</ele>
        <time>2025-02-02T11:54:05Z</time>
      </trkpt>
      <trkpt lat="46.13092" lon="6.77947">
        <ele>2081.762</ele>
        <time>2025-02-02T11:54:10Z</time>
      </trkpt>
      <trkpt lat="46.13093" lon="6.77949">
        <ele>2082.476</ele>
        <time>2025-02-02T11:54:15Z</time>
      </trkpt>
      <trkpt lat="46.13094" lon="6.77952">
        <ele>2083.265</ele>
        <time>2025-02-02T11:54:20Z</time>
      </trkpt>
      <trkpt lat="46.13095" lon="6.77955">
        <ele>2083.452</ele>
        <time>2025-02-02T11:54:25Z</time>
      </trkpt>
      <trkpt lat="46.13096" lon="6.77958">
        <ele>2084.377</ele>
        <time>2025-02-02T11:54:30Z</time>
      </trkpt>
      <trkpt lat="46.13097" lon="6.77961">
        <ele>2084.825</ele>
        <time>2025-02-02T11:54:35Z</time>
      </trkpt>
      <trkpt lat="46.13098" lon="6.77964">
        <ele>2085.428</ele>
        <time>2025-02-02T11:54:40Z</time>
      </trkpt>
      <trkpt lat="46.13099" lon="6.77966">
        <ele>2085.477</ele>
        <time>2025-02-02T11:54:45Z</time>
      </trkpt>
      <trkpt lat="46.131" lon="6.77969">
        <ele>2086.028</ele>
        <time>2025-02-02T11:54:50Z</time>
      </trkpt>
      <trkpt lat="46.13101" lon="6.77972">
        <ele>2086.896</ele>
        <time>2025-02-02T11:54:55Z</time>
      </trkpt>
      <trkpt lat="46.13101" lon="6.77976">
        <ele>2088.143</ele>
        <time>2025-02-02T11:55:00Z</time>
      </trkpt>
      <trkpt lat="46.13102" lon="6.77978">
        <ele>2088.086</ele>
        <time>2025-02-02T11:55:05Z</time>
      </trkpt>
      <trkpt lat="46.13103" lon="6.77981">
        <ele>2087.87</ele>
        <time>2025-02-02T11:55:10Z</time>
      </trkpt>
      <trkpt lat="46.13104" lon="6.77984">
        <ele>2088.067</ele>
        <time>2025-02-02T11:55:15Z</time>
      </trkpt>
      <trkpt lat="46.13104" lon="6.77987">
        <ele>2088.727</ele>
        <time>2025-02-02T11:55:20Z</time>
      </trkpt>
      <trkpt lat="46.13105" lon="6.7799">
        <ele>2089.058</ele>
        <time>2025-02-02T11:55:25Z</time>
      </trkpt>
      <trkpt lat="46.13105" lon="6.77995">
        <ele>2090.343</ele>
        <time>2025-02-02T11:55:30Z</time>
      </trkpt>
      <trkpt lat="46.13106" lon="6.77998">
        <ele>2090.879</ele>
        <time>2025-02-02T11:55:35Z</time>
      </trkpt>
      <trkpt lat="46.13107" lon="6.78002">
        <ele>2091.846</ele>
        <time>2025-02-02T11:55:40Z</time>
      </trkpt>
      <trkpt lat="46.13107" lon="6.78005">
        <ele>2092.668</ele>
        <time>2025-02-02T11:55:45Z</time>
      </trkpt>
      <trkpt lat="46.13108" lon="6.7801">
        <ele>2093.851</ele>
        <time>2025-02-02T11:55:50Z</time>
      </trkpt>
      <trkpt lat="46.13109" lon="6.78014">
        <ele>2094.223</ele>
        <time>2025-02-02T11:55:55Z</time>
      </trkpt>
      <trkpt lat="46.1311" lon="6.78017">
        <ele>2095.132</ele>
        <time>2025-02-02T11:56:00Z</time>
      </trkpt>
      <trkpt lat="46.1311" lon="6.7802">
        <ele>2095.804</ele>
        <time>2025-02-02T11:56:05Z</time>
      </trkpt>
      <trkpt lat="46.1311" lon="6.78023">
        <ele>2096.263</ele>
        <time>2025-02-02T11:56:10Z</time>
      </trkpt>
      <trkpt lat="46.13111" lon="6.78027">
        <ele>2097.083</ele>
        <time>2025-02-02T11:56:15Z</time>
      </trkpt>
      <trkpt lat="46.13111" lon="6.78031">
        <ele>2097.947</ele>
        <time>2025-02-02T11:56:20Z</time>
      </trkpt>
      <trkpt lat="46.13112" lon="6.78034">
        <ele>2098.794</ele>
        <time>2025-02-02T11:56:25Z</time>
      </trkpt>
      <trkpt lat="46.13113" lon="6.78037">
        <ele>2099.243</ele>
        <time>2025-02-02T11:56:30Z</time>
      </trkpt>
      <trkpt lat="46.13114" lon="6.7804">
        <ele>2099.748</ele>
        <time>2025-02-02T11:56:35Z</time>
      </trkpt>
      <trkpt lat="46.13115" lon="6.78043">
        <ele>2099.4</ele>
        <time>2025-02-02T11:56:40Z</time>
      </trkpt>
      <trkpt lat="46.13115" lon="6.78046">
        <ele>2099.984</ele>
        <time>2025-02-02T11:56:45Z</time>
      </trkpt>
      <trkpt lat="46.13117" lon="6.7805">
        <ele>2101.202</ele>
        <time>2025-02-02T11:56:50Z</time>
      </trkpt>
      <trkpt lat="46.13118" lon="6.78053">
        <ele>2101.551</ele>
        <time>2025-02-02T11:56:55Z</time>
      </trkpt>
      <trkpt lat="46.13119" lon="6.78055">
        <ele>2102.371</ele>
        <time>2025-02-02T11:57:00Z</time>
      </trkpt>
      <trkpt lat="46.1312" lon="6.78058">
        <ele>2103.573</ele>
        <time>2025-02-02T11:57:05Z</time>
      </trkpt>
      <trkpt lat="46.13122" lon="6.78061">
        <ele>2104.01</ele>
        <time>2025-02-02T11:57:10Z</time>
      </trkpt>
      <trkpt lat="46.13123" lon="6.78064">
        <ele>2105.225</ele>
        <time>2025-02-02T11:57:15Z</time>
      </trkpt>
      <trkpt lat="46.13125" lon="6.78067">
        <ele>2105.964</ele>
        <time>2025-02-02T11:57:20Z</time>
      </trkpt>
      <trkpt lat="46.13126" lon="6.7807">
        <ele>2106.641</ele>
        <time>2025-02-02T11:57:25Z</time>
      </trkpt>
      <trkpt lat="46.13126" lon="6.78072">
        <ele>2106.624</ele>
        <time>2025-02-02T11:57:30Z</time>
      </trkpt>
      <trkpt lat="46.13127" lon="6.78075">
        <ele>2106.913</ele>
        <time>2025-02-02T11:57:35Z</time>
      </trkpt>
      <trkpt lat="46.13128" lon="6.78077">
        <ele>2107.762</ele>
        <time>2025-02-02T11:57:40Z</time>
      </trkpt>
      <trkpt lat="46.13129" lon="6.7808">
        <ele>2108.896</ele>
        <time>2025-02-02T11:57:45Z</time>
      </trkpt>
      <trkpt lat="46.1313" lon="6.78083">
        <ele>2109.626</ele>
        <time>2025-02-02T11:57:50Z</time>
      </trkpt>
      <trkpt lat="46.13131" lon="6.78085">
        <ele>2110.549</ele>
        <time>2025-02-02T11:57:55Z</time>
      </trkpt>
      <trkpt lat="46.13132" lon="6.78088">
        <ele>2111.474</ele>
        <time>2025-02-02T11:58:00Z</time>
      </trkpt>
      <trkpt lat="46.13133" lon="6.7809">
        <ele>2112.538</ele>
        <time>2025-02-02T11:58:05Z</time>
      </trkpt>
      <trkpt lat="46.13133" lon="6.78093">
        <ele>2113.071</ele>
        <time>2025-02-02T11:58:10Z</time>
      </trkpt>
      <trkpt lat="46.13134" lon="6.78095">
        <ele>2113.199</ele>
        <time>2025-02-02T11:58:15Z</time>
      </trkpt>
      <trkpt lat="46.13135" lon="6.78098">
        <ele>2113.807</ele>
        <time>2025-02-02T11:58:20Z</time>
      </trkpt>
      <trkpt lat="46.13136" lon="6.781">
        <ele>2114.648</ele>
        <time>2025-02-02T11:58:25Z</time>
      </trkpt>
      <trkpt lat="46.13136" lon="6.78104">
        <ele>2115.06</ele>
        <time>2025-02-02T11:58:30Z</time>
      </trkpt>
      <trkpt lat="46.13138" lon="6.78107">
        <ele>2115.436</ele>
        <time>2025-02-02T11:58:35Z</time>
      </trkpt>
      <trkpt lat="46.13139" lon="6.78111">
        <ele>2116.005</ele>
        <time>2025-02-02T11:58:40Z</time>
      </trkpt>
      <trkpt lat="46.1314" lon="6.78114">
        <ele>2116.156</ele>
        <time>2025-02-02T11:58:45Z</time>
      </trkpt>
      <trkpt lat="46.1314" lon="6.78118">
        <ele>2117.551</ele>
        <time>2025-02-02T11:58:50Z</time>
      </trkpt>
      <trkpt lat="46.13142" lon="6.78121">
        <ele>2118.394</ele>
        <time>2025-02-02T11:58:55Z</time>
      </trkpt>
      <trkpt lat="46.13143" lon="6.78124">
        <ele>2119.316</ele>
        <time>2025-02-02T11:59:00Z</time>
      </trkpt>
      <trkpt lat="46.13144" lon="6.78128">
        <ele>2120.502</ele>
        <time>2025-02-02T11:59:05Z</time>
      </trkpt>
      <trkpt lat="46.13145" lon="6.78132">
        <ele>2120.952</ele>
        <time>2025-02-02T11:59:10Z</time>
      </trkpt>
      <trkpt lat="46.13146" lon="6.78135">
        <ele>2120.742</ele>
        <time>2025-02-02T11:59:15Z</time>
      </trkpt>
      <trkpt lat="46.13147" lon="6.78138">
        <ele>2121.5</ele>
        <time>2025-02-02T11:59:20Z</time>
      </trkpt>
      <trkpt lat="46.13147" lon="6.78141">
        <ele>2122.068</ele>
        <time>2025-02-02T11:59:25Z</time>
      </trkpt>
      <trkpt lat="46.13148" lon="6.78145">
        <ele>2122.445</ele>
        <time>2025-02-02T11:59:30Z</time>
      </trkpt>
      <trkpt lat="46.13148" lon="6.78148">
        <ele>2123.348</ele>
        <time>2025-02-02T11:59:35Z</time>
      </trkpt>
      <trkpt lat="46.13149" lon="6.78151">
        <ele>2124.032</ele>
        <time>2025-02-02T11:59:40Z</time>
      </trkpt>
      <trkpt lat="46.1315" lon="6.78155">
        <ele>2124.813</ele>
        <time>2025-02-02T11:59:45Z</time>
      </trkpt>
      <trkpt lat="46.13151" lon="6.78158">
        <ele>2125.216</ele>
        <time>2025-02-02T11:59:50Z</time>
      </trkpt>
      <trkpt lat="46.13152" lon="6.78161">
        <ele>2125.668</ele>
        <time>2025-02-02T11:59:55Z</time>
      </trkpt>
      <trkpt lat="46.13152" lon="6.78163">
        <ele>2125.946</ele>
        <time>2025-02-02T12:00:00Z</time>
      </trkpt>
      <trkpt lat="46.13152" lon="6.78163">
        <ele>2125.971</ele>
        <time>2025-02-02T12:00:05Z</time>
      </trkpt>
      <trkpt lat="46.13152" lon="6.78163">
        <ele>2125.975</ele>
        <time>2025-02-02T12:00:10Z</time>
      </trkpt>
      <trkpt lat="46.13152" lon="6.78163">
        <ele>2125.975</ele>
        <time>2025-02-02T12:00:15Z</time>
      </trkpt>
      <trkpt lat="46.13152" lon="6.78165">
        <ele>2126.678</ele>
        <time>2025-02-02T12:00:20Z</time>
      </trkpt>
      <trkpt lat="46.13152" lon="6.7817">
        <ele>2127.364</ele>
        <time>2025-02-02T12:00:25Z</time>
      </trkpt>
      <trkpt lat="46.13152" lon="6.78174">
        <ele>2128.299</ele>
        <time>2025-02-02T12:00:30Z</time>
      </trkpt>
      <trkpt lat="46.13153" lon="6.78178">
        <ele>2128.883</ele>
        <time>2025-02-02T12:00:35Z</time>
      </trkpt>
      <trkpt lat="46.13153" lon="6.78182">
        <ele>2129.607</ele>
        <time>2025-02-02T12:00:40Z</time>
      </trkpt>
      <trkpt lat="46.13153" lon="6.78187">
        <ele>2130.81</ele>
        <time>2025-02-02T12:00:45Z</time>
      </trkpt>
      <trkpt lat="46.13154" lon="6.78191">
        <ele>2131.964</ele>
        <time>2025-02-02T12:00:50Z</time>
      </trkpt>
      <trkpt lat="46.13155" lon="6.78194">
        <ele>2132.435</ele>
        <time>2025-02-02T12:00:55Z</time>
      </trkpt>
      <trkpt lat="46.13156" lon="6.78197">
        <ele>2132.641</ele>
        <time>2025-02-02T12:01:00Z</time>
      </trkpt>
      <trkpt lat="46.13158" lon="6.782">
        <ele>2133.361</ele>
        <time>2025-02-02T12:01:05Z</time>
      </trkpt>
      <trkpt lat="46.1316" lon="6.78203">
        <ele>2133.93</ele>
        <time>2025-02-02T12:01:10Z</time>
      </trkpt>
      <trkpt lat="46.13162" lon="6.78205">
        <ele>2134.743</ele>
        <time>2025-02-02T12:01:15Z</time>
      </trkpt>
      <trkpt lat="46.13164" lon="6.78207">
        <ele>2135.512</ele>
        <time>2025-02-02T12:01:20Z</time>
      </trkpt>
      <trkpt lat="46.13165" lon="6.7821">
        <ele>2136.61</ele>
        <time>2025-02-02T12:01:25Z</time>
      </trkpt>
      <trkpt lat="46.13166" lon="6.78213">
        <ele>2136.806</ele>
        <time>2025-02-02T12:01:30Z</time>
      </trkpt>
      <trkpt lat="46.13166" lon="6.78213">
        <ele>2136.722</ele>
        <time>2025-02-02T12:01:35Z</time>
      </trkpt>
      <trkpt lat="46.13166" lon="6.78213">
        <ele>2136.723</ele>
        <time>2025-02-02T12:01:40Z</time>
      </trkpt>
      <trkpt lat="46.13166" lon="6.78213">
        <ele>2136.725</ele>
        <time>2025-02-02T12:01:45Z</time>
      </trkpt>
      <trkpt lat="46.13166" lon="6.78213">
        <ele>2136.913</ele>
        <time>2025-02-02T12:01:50Z</time>
      </trkpt>
      <trkpt lat="46.13166" lon="6.78213">
        <ele>2136.713</ele>
        <time>2025-02-02T12:01:55Z</time>
      </trkpt>
      <trkpt lat="46.13166" lon="6.78213">
        <ele>2136.711</ele>
        <time>2025-02-02T12:02:00Z</time>
      </trkpt>
      <trkpt lat="46.13166" lon="6.78213">
        <ele>2136.713</ele>
        <time>2025-02-02T12:02:05Z</time>
      </trkpt>
      <trkpt lat="46.13166" lon="6.78213">
        <ele>2136.712</ele>
        <time>2025-02-02T12:02:10Z</time>
      </trkpt>
      <trkpt lat="46.13166" lon="6.78213">
        <ele>2136.711</ele>
        <time>2025-02-02T12:02:15Z</time>
      </trkpt>
      <trkpt lat="46.13166" lon="6.78213">
        <ele>2136.562</ele>
        <time>2025-02-02T12:02:20Z</time>
      </trkpt>
      <trkpt lat="46.13166" lon="6.78213">
        <ele>2136.71</ele>
        <time>2025-02-02T12:02:25Z</time>
      </trkpt>
      <trkpt lat="46.13166" lon="6.78213">
        <ele>2136.711</ele>
        <time>2025-02-02T12:02:30Z</time>
      </trkpt>
      <trkpt lat="46.13166" lon="6.78213">
        <ele>2136.712</ele>
        <time>2025-02-02T12:02:35Z</time>
      </trkpt>
      <trkpt lat="46.13166" lon="6.78213">
        <ele>2136.713</ele>
        <time>2025-02-02T12:02:40Z</time>
      </trkpt>
      <trkpt lat="46.13166" lon="6.78213">
        <ele>2136.713</ele>
        <time>2025-02-02T12:02:45Z</time>
      </trkpt>
      <trkpt lat="46.13166" lon="6.78213">
        <ele>2136.71</ele>
        <time>2025-02-02T12:02:50Z</time>
      </trkpt>
      <trkpt lat="46.13166" lon="6.78213">
        <ele>2136.702</ele>
        <time>2025-02-02T12:02:55Z</time>
      </trkpt>
      <trkpt lat="46.13166" lon="6.78213">
        <ele>2136.695</ele>
        <time>2025-02-02T12:03:00Z</time>
      </trkpt>
      <trkpt lat="46.13166" lon="6.78213">
        <ele>2136.695</ele>
        <time>2025-02-02T12:03:05Z</time>
      </trkpt>
      <trkpt lat="46.13166" lon="6.78213">
        <ele>2136.691</ele>
        <time>2025-02-02T12:03:10Z</time>
      </trkpt>
      <trkpt lat="46.13166" lon="6.78213">
        <ele>2136.683</ele>
        <time>2025-02-02T12:03:15Z</time>
      </trkpt>
      <trkpt lat="46.13166" lon="6.78213">
        <ele>2136.679</ele>
        <time>2025-02-02T12:03:20Z</time>
      </trkpt>
      <trkpt lat="46.13166" lon="6.78213">
        <ele>2136.67</ele>
        <time>2025-02-02T12:03:25Z</time>
      </trkpt>
      <trkpt lat="46.13166" lon="6.78213">
        <ele>2136.665</ele>
        <time>2025-02-02T12:03:30Z</time>
      </trkpt>
      <trkpt lat="46.13166" lon="6.78213">
        <ele>2136.661</ele>
        <time>2025-02-02T12:03:35Z</time>
      </trkpt>
      <trkpt lat="46.13166" lon="6.78213">
        <ele>2136.654</ele>
        <time>2025-02-02T12:03:40Z</time>
      </trkpt>
      <trkpt lat="46.13166" lon="6.78213">
        <ele>2136.642</ele>
        <time>2025-02-02T12:03:45Z</time>
      </trkpt>
      <trkpt lat="46.13166" lon="6.78213">
        <ele>2136.638</ele>
        <time>2025-02-02T12:03:50Z</time>
      </trkpt>
      <trkpt lat="46.13166" lon="6.78213">
        <ele>2136.628</ele>
        <time>2025-02-02T12:03:55Z</time>
      </trkpt>
      <trkpt lat="46.13166" lon="6.78213">
        <ele>2136.611</ele>
        <time>2025-02-02T12:04:00Z</time>
      </trkpt>
      <trkpt lat="46.13166" lon="6.78213">
        <ele>2136.601</ele>
        <time>2025-02-02T12:04:05Z</time>
      </trkpt>
      <trkpt lat="46.13166" lon="6.78213">
        <ele>2136.592</ele>
        <time>2025-02-02T12:04:10Z</time>
      </trkpt>
      <trkpt lat="46.13166" lon="6.78213">
        <ele>2136.582</ele>
        <time>2025-02-02T12:04:15Z</time>
      </trkpt>
      <trkpt lat="46.13166" lon="6.78213">
        <ele>2136.574</ele>
        <time>2025-02-02T12:04:20Z</time>
      </trkpt>
      <trkpt lat="46.13166" lon="6.78213">
        <ele>2136.565</ele>
        <time>2025-02-02T12:04:25Z</time>
      </trkpt>
      <trkpt lat="46.13165" lon="6.78214">
        <ele>2136.559</ele>
        <time>2025-02-02T12:04:30Z</time>
      </trkpt>
      <trkpt lat="46.13165" lon="6.78214">
        <ele>2136.553</ele>
        <time>2025-02-02T12:04:35Z</time>
      </trkpt>
      <trkpt lat="46.13165" lon="6.78214">
        <ele>2136.543</ele>
        <time>2025-02-02T12:04:40Z</time>
      </trkpt>
      <trkpt lat="46.13165" lon="6.78214">
        <ele>2136.392</ele>
        <time>2025-02-02T12:04:45Z</time>
      </trkpt>
      <trkpt lat="46.13165" lon="6.78214">
        <ele>2136.397</ele>
        <time>2025-02-02T12:04:50Z</time>
      </trkpt>
      <trkpt lat="46.13165" lon="6.78214">
        <ele>2136.39</ele>
        <time>2025-02-02T12:04:55Z</time>
      </trkpt>
      <trkpt lat="46.13165" lon="6.78214">
        <ele>2136.386</ele>
        <time>2025-02-02T12:05:00Z</time>
      </trkpt>
      <trkpt lat="46.13165" lon="6.78214">
        <ele>2136.387</ele>
        <time>2025-02-02T12:05:05Z</time>
      </trkpt>
      <trkpt lat="46.13165" lon="6.78214">
        <ele>2136.383</ele>
        <time>2025-02-02T12:05:10Z</time>
      </trkpt>
      <trkpt lat="46.13165" lon="6.78214">
        <ele>2136.38</ele>
        <time>2025-02-02T12:05:15Z</time>
      </trkpt>
      <trkpt lat="46.13165" lon="6.78214">
        <ele>2136.375</ele>
        <time>2025-02-02T12:05:20Z</time>
      </trkpt>
      <trkpt lat="46.13165" lon="6.78214">
        <ele>2136.372</ele>
        <time>2025-02-02T12:05:25Z</time>
      </trkpt>
      <trkpt lat="46.13165" lon="6.78214">
        <ele>2136.367</ele>
        <time>2025-02-02T12:05:30Z</time>
      </trkpt>
      <trkpt lat="46.13165" lon="6.78214">
        <ele>2136.363</ele>
        <time>2025-02-02T12:05:35Z</time>
      </trkpt>
      <trkpt lat="46.13165" lon="6.78214">
        <ele>2136.355</ele>
        <time>2025-02-02T12:05:40Z</time>
      </trkpt>
      <trkpt lat="46.13165" lon="6.78214">
        <ele>2136.354</ele>
        <time>2025-02-02T12:05:45Z</time>
      </trkpt>
      <trkpt lat="46.13165" lon="6.78214">
        <ele>2136.35</ele>
        <time>2025-02-02T12:05:50Z</time>
      </trkpt>
      <trkpt lat="46.13165" lon="6.78214">
        <ele>2136.348</ele>
        <time>2025-02-02T12:05:55Z</time>
      </trkpt>
      <trkpt lat="46.13165" lon="6.78214">
        <ele>2136.344</ele>
        <time>2025-02-02T12:06:00Z</time>
      </trkpt>
      <trkpt lat="46.13165" lon="6.78214">
        <ele>2136.342</ele>
        <time>2025-02-02T12:06:05Z</time>
      </trkpt>
      <trkpt lat="46.13164" lon="6.78215">
        <ele>2136.231</ele>
        <time>2025-02-02T12:06:10Z</time>
      </trkpt>
      <trkpt lat="46.13165" lon="6.78218">
        <ele>2137.128</ele>
        <time>2025-02-02T12:06:15Z</time>
      </trkpt>
      <trkpt lat="46.13165" lon="6.78224">
        <ele>2137.677</ele>
        <time>2025-02-02T12:06:20Z</time>
      </trkpt>
      <trkpt lat="46.13164" lon="6.78229">
        <ele>2137.59</ele>
        <time>2025-02-02T12:06:25Z</time>
      </trkpt>
      <trkpt lat="46.13164" lon="6.78233">
        <ele>2138.62</ele>
        <time>2025-02-02T12:06:30Z</time>
      </trkpt>
      <trkpt lat="46.13165" lon="6.78237">
        <ele>2139.47</ele>
        <time>2025-02-02T12:06:35Z</time>
      </trkpt>
      <trkpt lat="46.13166" lon="6.78242">
        <ele>2139.741</ele>
        <time>2025-02-02T12:06:40Z</time>
      </trkpt>
      <trkpt lat="46.13166" lon="6.78246">
        <ele>2140.174</ele>
        <time>2025-02-02T12:06:45Z</time>
      </trkpt>
      <trkpt lat="46.13167" lon="6.7825">
        <ele>2140.351</ele>
        <time>2025-02-02T12:06:50Z</time>
      </trkpt>
      <trkpt lat="46.13167" lon="6.78255">
        <ele>2141.255</ele>
        <time>2025-02-02T12:06:55Z</time>
      </trkpt>
      <trkpt lat="46.13167" lon="6.78258">
        <ele>2141.569</ele>
        <time>2025-02-02T12:07:00Z</time>
      </trkpt>
      <trkpt lat="46.13167" lon="6.78263">
        <ele>2143.043</ele>
        <time>2025-02-02T12:07:05Z</time>
      </trkpt>
      <trkpt lat="46.13167" lon="6.78267">
        <ele>2143.92</ele>
        <time>2025-02-02T12:07:10Z</time>
      </trkpt>
      <trkpt lat="46.13168" lon="6.78271">
        <ele>2144.584</ele>
        <time>2025-02-02T12:07:15Z</time>
      </trkpt>
      <trkpt lat="46.13168" lon="6.78275">
        <ele>2145.792</ele>
        <time>2025-02-02T12:07:20Z</time>
      </trkpt>
      <trkpt lat="46.13169" lon="6.78278">
        <ele>2146.342</ele>
        <time>2025-02-02T12:07:25Z</time>
      </trkpt>
      <trkpt lat="46.13169" lon="6.78282">
        <ele>2147.435</ele>
        <time>2025-02-02T12:07:30Z</time>
      </trkpt>
      <trkpt lat="46.1317" lon="6.78285">
        <ele>2147.276</ele>
        <time>2025-02-02T12:07:35Z</time>
      </trkpt>
      <trkpt lat="46.13171" lon="6.78289">
        <ele>2148.392</ele>
        <time>2025-02-02T12:07:40Z</time>
      </trkpt>
      <trkpt lat="46.13171" lon="6.78293">
        <ele>2149.023</ele>
        <time>2025-02-02T12:07:45Z</time>
      </trkpt>
      <trkpt lat="46.13171" lon="6.78297">
        <ele>2149.325</ele>
        <time>2025-02-02T12:07:50Z</time>
      </trkpt>
      <trkpt lat="46.13172" lon="6.78301">
        <ele>2149.601</ele>
        <time>2025-02-02T12:07:55Z</time>
      </trkpt>
      <trkpt lat="46.13172" lon="6.78306">
        <ele>2150.155</ele>
        <time>2025-02-02T12:08:00Z</time>
      </trkpt>
      <trkpt lat="46.13172" lon="6.7831">
        <ele>2150.554</ele>
        <time>2025-02-02T12:08:05Z</time>
      </trkpt>
      <trkpt lat="46.13172" lon="6.78314">
        <ele>2151.267</ele>
        <time>2025-02-02T12:08:10Z</time>
      </trkpt>
      <trkpt lat="46.13173" lon="6.78318">
        <ele>2152.696</ele>
        <time>2025-02-02T12:08:15Z</time>
      </trkpt>
      <trkpt lat="46.13174" lon="6.78322">
        <ele>2153.187</ele>
        <time>2025-02-02T12:08:20Z</time>
      </trkpt>
      <trkpt lat="46.13174" lon="6.78328">
        <ele>2152.855</ele>
        <time>2025-02-02T12:08:25Z</time>
      </trkpt>
      <trkpt lat="46.13175" lon="6.78331">
        <ele>2154.592</ele>
        <time>2025-02-02T12:08:30Z</time>
      </trkpt>
      <trkpt lat="46.13174" lon="6.78334">
        <ele>2155.268</ele>
        <time>2025-02-02T12:08:35Z</time>
      </trkpt>
      <trkpt lat="46.13174" lon="6.78334">
        <ele>2155.384</ele>
        <time>2025-02-02T12:08:40Z</time>
      </trkpt>
      <trkpt lat="46.13174" lon="6.78334">
        <ele>2155.389</ele>
        <time>2025-02-02T12:08:45Z</time>
      </trkpt>
      <trkpt lat="46.13175" lon="6.78337">
        <ele>2156.015</ele>
        <time>2025-02-02T12:08:50Z</time>
      </trkpt>
      <trkpt lat="46.13176" lon="6.78341">
        <ele>2156.312</ele>
        <time>2025-02-02T12:08:55Z</time>
      </trkpt>
      <trkpt lat="46.13176" lon="6.78344">
        <ele>2157.411</ele>
        <time>2025-02-02T12:09:00Z</time>
      </trkpt>
      <trkpt lat="46.13178" lon="6.78348">
        <ele>2158.121</ele>
        <time>2025-02-02T12:09:05Z</time>
      </trkpt>
      <trkpt lat="46.13179" lon="6.78352">
        <ele>2158.412</ele>
        <time>2025-02-02T12:09:10Z</time>
      </trkpt>
      <trkpt lat="46.1318" lon="6.78357">
        <ele>2159.939</ele>
        <time>2025-02-02T12:09:15Z</time>
      </trkpt>
      <trkpt lat="46.13182" lon="6.78361">
        <ele>2159.772</ele>
        <time>2025-02-02T12:09:20Z</time>
      </trkpt>
      <trkpt lat="46.13184" lon="6.78365">
        <ele>2160.827</ele>
        <time>2025-02-02T12:09:25Z</time>
      </trkpt>
      <trkpt lat="46.13186" lon="6.78368">
        <ele>2161.767</ele>
        <time>2025-02-02T12:09:30Z</time>
      </trkpt>
      <trkpt lat="46.13187" lon="6.78371">
        <ele>2161.429</ele>
        <time>2025-02-02T12:09:35Z</time>
      </trkpt>
      <trkpt lat="46.13188" lon="6.78371">
        <ele>2161.523</ele>
        <time>2025-02-02T12:09:40Z</time>
      </trkpt>
      <trkpt lat="46.13188" lon="6.78371">
        <ele>2161.522</ele>
        <time>2025-02-02T12:09:45Z</time>
      </trkpt>
      <trkpt lat="46.13188" lon="6.78371">
        <ele>2161.521</ele>
        <time>2025-02-02T12:09:50Z</time>
      </trkpt>
      <trkpt lat="46.13188" lon="6.78372">
        <ele>2161.634</ele>
        <time>2025-02-02T12:09:55Z</time>
      </trkpt>
      <trkpt lat="46.13188" lon="6.78373">
        <ele>2161.803</ele>
        <time>2025-02-02T12:10:00Z</time>
      </trkpt>
      <trkpt lat="46.13189" lon="6.78375">
        <ele>2161.761</ele>
        <time>2025-02-02T12:10:05Z</time>
      </trkpt>
      <trkpt lat="46.13192" lon="6.78378">
        <ele>2162.426</ele>
        <time>2025-02-02T12:10:10Z</time>
      </trkpt>
      <trkpt lat="46.13195" lon="6.7838">
        <ele>2163.38</ele>
        <time>2025-02-02T12:10:15Z</time>
      </trkpt>
      <trkpt lat="46.132" lon="6.78384">
        <ele>2163.809</ele>
        <time>2025-02-02T12:10:20Z</time>
      </trkpt>
      <trkpt lat="46.13204" lon="6.78393">
        <ele>2161.14</ele>
        <time>2025-02-02T12:10:25Z</time>
      </trkpt>
      <trkpt lat="46.13205" lon="6.78398">
        <ele>2161.179</ele>
        <time>2025-02-02T12:10:30Z</time>
      </trkpt>
      <trkpt lat="46.13205" lon="6.784">
        <ele>2160.475</ele>
        <time>2025-02-02T12:10:35Z</time>
      </trkpt>
      <trkpt lat="46.13204" lon="6.78402">
        <ele>2159.693</ele>
        <time>2025-02-02T12:10:40Z</time>
      </trkpt>
      <trkpt lat="46.13202" lon="6.78407">
        <ele>2159.261</ele>
        <time>2025-02-02T12:10:45Z</time>
      </trkpt>
      <trkpt lat="46.13201" lon="6.78407">
        <ele>2159.418</ele>
        <time>2025-02-02T12:10:50Z</time>
      </trkpt>
      <trkpt lat="46.13201" lon="6.78407">
        <ele>2159.42</ele>
        <time>2025-02-02T12:10:55Z</time>
      </trkpt>
      <trkpt lat="46.13201" lon="6.78407">
        <ele>2159.418</ele>
        <time>2025-02-02T12:11:00Z</time>
      </trkpt>
      <trkpt lat="46.13201" lon="6.78407">
        <ele>2159.57</ele>
        <time>2025-02-02T12:11:05Z</time>
      </trkpt>
      <trkpt lat="46.13201" lon="6.78407">
        <ele>2159.618</ele>
        <time>2025-02-02T12:11:10Z</time>
      </trkpt>
      <trkpt lat="46.13201" lon="6.78407">
        <ele>2159.622</ele>
        <time>2025-02-02T12:11:15Z</time>
      </trkpt>
      <trkpt lat="46.13201" lon="6.78407">
        <ele>2159.622</ele>
        <time>2025-02-02T12:11:20Z</time>
      </trkpt>
      <trkpt lat="46.13201" lon="6.78407">
        <ele>2159.622</ele>
        <time>2025-02-02T12:11:25Z</time>
      </trkpt>
      <trkpt lat="46.13201" lon="6.78407">
        <ele>2159.65</ele>
        <time>2025-02-02T12:11:30Z</time>
      </trkpt>
      <trkpt lat="46.13201" lon="6.78407">
        <ele>2159.651</ele>
        <time>2025-02-02T12:11:35Z</time>
      </trkpt>
      <trkpt lat="46.13201" lon="6.78407">
        <ele>2159.656</ele>
        <time>2025-02-02T12:11:40Z</time>
      </trkpt>
      <trkpt lat="46.13201" lon="6.78407">
        <ele>2159.66</ele>
        <time>2025-02-02T12:11:45Z</time>
      </trkpt>
      <trkpt lat="46.13201" lon="6.78407">
        <ele>2159.665</ele>
        <time>2025-02-02T12:11:50Z</time>
      </trkpt>
      <trkpt lat="46.13201" lon="6.78407">
        <ele>2159.667</ele>
        <time>2025-02-02T12:11:55Z</time>
      </trkpt>
      <trkpt lat="46.13201" lon="6.78407">
        <ele>2159.674</ele>
        <time>2025-02-02T12:12:00Z</time>
      </trkpt>
      <trkpt lat="46.13201" lon="6.78407">
        <ele>2159.675</ele>
        <time>2025-02-02T12:12:05Z</time>
      </trkpt>
      <trkpt lat="46.13201" lon="6.78407">
        <ele>2159.682</ele>
        <time>2025-02-02T12:12:10Z</time>
      </trkpt>
      <trkpt lat="46.13201" lon="6.78407">
        <ele>2159.683</ele>
        <time>2025-02-02T12:12:15Z</time>
      </trkpt>
      <trkpt lat="46.13201" lon="6.78407">
        <ele>2159.686</ele>
        <time>2025-02-02T12:12:20Z</time>
      </trkpt>
      <trkpt lat="46.13201" lon="6.78407">
        <ele>2159.686</ele>
        <time>2025-02-02T12:12:25Z</time>
      </trkpt>
      <trkpt lat="46.13201" lon="6.78407">
        <ele>2159.69</ele>
        <time>2025-02-02T12:12:30Z</time>
      </trkpt>
      <trkpt lat="46.13201" lon="6.78407">
        <ele>2159.694</ele>
        <time>2025-02-02T12:12:35Z</time>
      </trkpt>
      <trkpt lat="46.13201" lon="6.78407">
        <ele>2159.697</ele>
        <time>2025-02-02T12:12:40Z</time>
      </trkpt>
      <trkpt lat="46.13201" lon="6.78407">
        <ele>2159.701</ele>
        <time>2025-02-02T12:12:45Z</time>
      </trkpt>
      <trkpt lat="46.13201" lon="6.78407">
        <ele>2159.702</ele>
        <time>2025-02-02T12:12:50Z</time>
      </trkpt>
      <trkpt lat="46.13201" lon="6.78407">
        <ele>2159.707</ele>
        <time>2025-02-02T12:12:55Z</time>
      </trkpt>
      <trkpt lat="46.13201" lon="6.78407">
        <ele>2159.707</ele>
        <time>2025-02-02T12:13:00Z</time>
      </trkpt>
      <trkpt lat="46.13201" lon="6.78407">
        <ele>2159.706</ele>
        <time>2025-02-02T12:13:05Z</time>
      </trkpt>
      <trkpt lat="46.13201" lon="6.78407">
        <ele>2159.706</ele>
        <time>2025-02-02T12:13:10Z</time>
      </trkpt>
      <trkpt lat="46.13201" lon="6.78407">
        <ele>2159.71</ele>
        <time>2025-02-02T12:13:15Z</time>
      </trkpt>
      <trkpt lat="46.13201" lon="6.78407">
        <ele>2159.71</ele>
        <time>2025-02-02T12:13:20Z</time>
      </trkpt>
      <trkpt lat="46.13201" lon="6.78407">
        <ele>2159.709</ele>
        <time>2025-02-02T12:13:25Z</time>
      </trkpt>
      <trkpt lat="46.13201" lon="6.78407">
        <ele>2159.71</ele>
        <time>2025-02-02T12:13:30Z</time>
      </trkpt>
      <trkpt lat="46.13201" lon="6.78407">
        <ele>2159.709</ele>
        <time>2025-02-02T12:13:35Z</time>
      </trkpt>
      <trkpt lat="46.13201" lon="6.78407">
        <ele>2159.705</ele>
        <time>2025-02-02T12:13:40Z</time>
      </trkpt>
      <trkpt lat="46.13201" lon="6.78407">
        <ele>2159.709</ele>
        <time>2025-02-02T12:13:45Z</time>
      </trkpt>
      <trkpt lat="46.13201" lon="6.78407">
        <ele>2159.708</ele>
        <time>2025-02-02T12:13:50Z</time>
      </trkpt>
      <trkpt lat="46.13201" lon="6.78407">
        <ele>2159.412</ele>
        <time>2025-02-02T12:13:55Z</time>
      </trkpt>
      <trkpt lat="46.13201" lon="6.78407">
        <ele>2159.41</ele>
        <time>2025-02-02T12:14:00Z</time>
      </trkpt>
      <trkpt lat="46.13201" lon="6.78407">
        <ele>2159.416</ele>
        <time>2025-02-02T12:14:05Z</time>
      </trkpt>
      <trkpt lat="46.13201" lon="6.78407">
        <ele>2159.425</ele>
        <time>2025-02-02T12:14:10Z</time>
      </trkpt>
      <trkpt lat="46.13201" lon="6.78407">
        <ele>2159.434</ele>
        <time>2025-02-02T12:14:15Z</time>
      </trkpt>
      <trkpt lat="46.13201" lon="6.78407">
        <ele>2159.537</ele>
        <time>2025-02-02T12:14:20Z</time>
      </trkpt>
      <trkpt lat="46.13201" lon="6.78407">
        <ele>2159.528</ele>
        <time>2025-02-02T12:14:25Z</time>
      </trkpt>
      <trkpt lat="46.13201" lon="6.78407">
        <ele>2159.114</ele>
        <time>2025-02-02T12:14:30Z</time>
      </trkpt>
      <trkpt lat="46.13201" lon="6.78407">
        <ele>2158.533</ele>
        <time>2025-02-02T12:14:35Z</time>
      </trkpt>
      <trkpt lat="46.13201" lon="6.78407">
        <ele>2157.859</ele>
        <time>2025-02-02T12:14:40Z</time>
      </trkpt>
      <trkpt lat="46.13201" lon="6.78407">
        <ele>2157.871</ele>
        <time>2025-02-02T12:14:45Z</time>
      </trkpt>
      <trkpt lat="46.13201" lon="6.78407">
        <ele>2157.864</ele>
        <time>2025-02-02T12:14:50Z</time>
      </trkpt>
      <trkpt lat="46.13201" lon="6.78407">
        <ele>2157.862</ele>
        <time>2025-02-02T12:14:55Z</time>
      </trkpt>
      <trkpt lat="46.13201" lon="6.78407">
        <ele>2157.857</ele>
        <time>2025-02-02T12:15:00Z</time>
      </trkpt>
      <trkpt lat="46.13201" lon="6.78407">
        <ele>2157.858</ele>
        <time>2025-02-02T12:15:05Z</time>
      </trkpt>
      <trkpt lat="46.13201" lon="6.78407">
        <ele>2157.854</ele>
        <time>2025-02-02T12:15:10Z</time>
      </trkpt>
      <trkpt lat="46.13201" lon="6.78407">
        <ele>2157.85</ele>
        <time>2025-02-02T12:15:15Z</time>
      </trkpt>
      <trkpt lat="46.13201" lon="6.78407">
        <ele>2157.846</ele>
        <time>2025-02-02T12:15:20Z</time>
      </trkpt>
      <trkpt lat="46.13201" lon="6.78407">
        <ele>2157.841</ele>
        <time>2025-02-02T12:15:25Z</time>
      </trkpt>
      <trkpt lat="46.13201" lon="6.78407">
        <ele>2157.839</ele>
        <time>2025-02-02T12:15:30Z</time>
      </trkpt>
      <trkpt lat="46.13201" lon="6.78407">
        <ele>2157.841</ele>
        <time>2025-02-02T12:15:35Z</time>
      </trkpt>
      <trkpt lat="46.13201" lon="6.78407">
        <ele>2157.839</ele>
        <time>2025-02-02T12:15:40Z</time>
      </trkpt>
      <trkpt lat="46.13201" lon="6.78407">
        <ele>2157.837</ele>
        <time>2025-02-02T12:15:45Z</time>
      </trkpt>
      <trkpt lat="46.13201" lon="6.78407">
        <ele>2157.833</ele>
        <time>2025-02-02T12:15:50Z</time>
      </trkpt>
      <trkpt lat="46.13201" lon="6.78407">
        <ele>2157.832</ele>
        <time>2025-02-02T12:15:55Z</time>
      </trkpt>
      <trkpt lat="46.13201" lon="6.78407">
        <ele>2157.832</ele>
        <time>2025-02-02T12:16:00Z</time>
      </trkpt>
      <trkpt lat="46.13201" lon="6.78407">
        <ele>2157.826</ele>
        <time>2025-02-02T12:16:05Z</time>
      </trkpt>
      <trkpt lat="46.13201" lon="6.78407">
        <ele>2157.826</ele>
        <time>2025-02-02T12:16:10Z</time>
      </trkpt>
      <trkpt lat="46.13201" lon="6.78407">
        <ele>2157.824</ele>
        <time>2025-02-02T12:16:15Z</time>
      </trkpt>
      <trkpt lat="46.13201" lon="6.78407">
        <ele>2157.821</ele>
        <time>2025-02-02T12:16:20Z</time>
      </trkpt>
      <trkpt lat="46.13201" lon="6.78407">
        <ele>2157.815</ele>
        <time>2025-02-02T12:16:25Z</time>
      </trkpt>
      <trkpt lat="46.13201" lon="6.78407">
        <ele>2157.811</ele>
        <time>2025-02-02T12:16:30Z</time>
      </trkpt>
      <trkpt lat="46.13201" lon="6.78407">
        <ele>2157.803</ele>
        <time>2025-02-02T12:16:35Z</time>
      </trkpt>
      <trkpt lat="46.13201" lon="6.78407">
        <ele>2157.794</ele>
        <time>2025-02-02T12:16:40Z</time>
      </trkpt>
      <trkpt lat="46.13201" lon="6.78407">
        <ele>2157.788</ele>
        <time>2025-02-02T12:16:45Z</time>
      </trkpt>
      <trkpt lat="46.13201" lon="6.78407">
        <ele>2157.782</ele>
        <time>2025-02-02T12:16:50Z</time>
      </trkpt>
      <trkpt lat="46.13201" lon="6.78407">
        <ele>2157.778</ele>
        <time>2025-02-02T12:16:55Z</time>
      </trkpt>
      <trkpt lat="46.13201" lon="6.78407">
        <ele>2157.776</ele>
        <time>2025-02-02T12:17:00Z</time>
      </trkpt>
      <trkpt lat="46.13201" lon="6.78407">
        <ele>2157.776</ele>
        <time>2025-02-02T12:17:05Z</time>
      </trkpt>
      <trkpt lat="46.13201" lon="6.78407">
        <ele>2157.776</ele>
        <time>2025-02-02T12:17:10Z</time>
      </trkpt>
      <trkpt lat="46.13201" lon="6.78407">
        <ele>2157.77</ele>
        <time>2025-02-02T12:17:15Z</time>
      </trkpt>
      <trkpt lat="46.13201" lon="6.78407">
        <ele>2157.764</ele>
        <time>2025-02-02T12:17:20Z</time>
      </trkpt>
      <trkpt lat="46.13201" lon="6.78407">
        <ele>2157.762</ele>
        <time>2025-02-02T12:17:25Z</time>
      </trkpt>
      <trkpt lat="46.13201" lon="6.78407">
        <ele>2157.758</ele>
        <time>2025-02-02T12:17:30Z</time>
      </trkpt>
      <trkpt lat="46.13201" lon="6.78407">
        <ele>2157.757</ele>
        <time>2025-02-02T12:17:35Z</time>
      </trkpt>
      <trkpt lat="46.13201" lon="6.78407">
        <ele>2157.757</ele>
        <time>2025-02-02T12:17:40Z</time>
      </trkpt>
      <trkpt lat="46.13201" lon="6.78407">
        <ele>2157.757</ele>
        <time>2025-02-02T12:17:45Z</time>
      </trkpt>
      <trkpt lat="46.13201" lon="6.78407">
        <ele>2157.756</ele>
        <time>2025-02-02T12:17:50Z</time>
      </trkpt>
      <trkpt lat="46.13201" lon="6.78407">
        <ele>2157.753</ele>
        <time>2025-02-02T12:17:55Z</time>
      </trkpt>
      <trkpt lat="46.13201" lon="6.78407">
        <ele>2157.75</ele>
        <time>2025-02-02T12:18:00Z</time>
      </trkpt>
      <trkpt lat="46.13201" lon="6.78407">
        <ele>2157.747</ele>
        <time>2025-02-02T12:18:05Z</time>
      </trkpt>
      <trkpt lat="46.13201" lon="6.78407">
        <ele>2157.743</ele>
        <time>2025-02-02T12:18:10Z</time>
      </trkpt>
      <trkpt lat="46.13201" lon="6.78407">
        <ele>2157.738</ele>
        <time>2025-02-02T12:18:15Z</time>
      </trkpt>
      <trkpt lat="46.13201" lon="6.78407">
        <ele>2157.738</ele>
        <time>2025-02-02T12:18:20Z</time>
      </trkpt>
      <trkpt lat="46.13201" lon="6.78407">
        <ele>2157.732</ele>
        <time>2025-02-02T12:18:25Z</time>
      </trkpt>
      <trkpt lat="46.13201" lon="6.78407">
        <ele>2157.729</ele>
        <time>2025-02-02T12:18:30Z</time>
      </trkpt>
      <trkpt lat="46.13201" lon="6.78407">
        <ele>2157.728</ele>
        <time>2025-02-02T12:18:35Z</time>
      </trkpt>
      <trkpt lat="46.13201" lon="6.78407">
        <ele>2157.729</ele>
        <time>2025-02-02T12:18:40Z</time>
      </trkpt>
      <trkpt lat="46.13201" lon="6.78407">
        <ele>2157.723</ele>
        <time>2025-02-02T12:18:45Z</time>
      </trkpt>
      <trkpt lat="46.13201" lon="6.78407">
        <ele>2157.72</ele>
        <time>2025-02-02T12:18:50Z</time>
      </trkpt>
      <trkpt lat="46.13201" lon="6.78407">
        <ele>2157.723</ele>
        <time>2025-02-02T12:18:55Z</time>
      </trkpt>
      <trkpt lat="46.13201" lon="6.78407">
        <ele>2157.719</ele>
        <time>2025-02-02T12:19:00Z</time>
      </trkpt>
      <trkpt lat="46.13201" lon="6.78407">
        <ele>2157.722</ele>
        <time>2025-02-02T12:19:05Z</time>
      </trkpt>
      <trkpt lat="46.13201" lon="6.78407">
        <ele>2157.722</ele>
        <time>2025-02-02T12:19:10Z</time>
      </trkpt>
      <trkpt lat="46.13201" lon="6.78407">
        <ele>2157.722</ele>
        <time>2025-02-02T12:19:15Z</time>
      </trkpt>
      <trkpt lat="46.13201" lon="6.78407">
        <ele>2157.726</ele>
        <time>2025-02-02T12:19:20Z</time>
      </trkpt>
      <trkpt lat="46.13201" lon="6.78407">
        <ele>2157.72</ele>
        <time>2025-02-02T12:19:25Z</time>
      </trkpt>
      <trkpt lat="46.13201" lon="6.78407">
        <ele>2157.72</ele>
        <time>2025-02-02T12:19:30Z</time>
      </trkpt>
      <trkpt lat="46.13201" lon="6.78407">
        <ele>2157.718</ele>
        <time>2025-02-02T12:19:35Z</time>
      </trkpt>
      <trkpt lat="46.13201" lon="6.78407">
        <ele>2157.719</ele>
        <time>2025-02-02T12:19:40Z</time>
      </trkpt>
      <trkpt lat="46.13201" lon="6.78407">
        <ele>2157.718</ele>
        <time>2025-02-02T12:19:45Z</time>
      </trkpt>
      <trkpt lat="46.13201" lon="6.78407">
        <ele>2157.715</ele>
        <time>2025-02-02T12:19:50Z</time>
      </trkpt>
      <trkpt lat="46.13201" lon="6.78407">
        <ele>2157.712</ele>
        <time>2025-02-02T12:19:55Z</time>
      </trkpt>
      <trkpt lat="46.13201" lon="6.78407">
        <ele>2157.709</ele>
        <time>2025-02-02T12:20:00Z</time>
      </trkpt>
      <trkpt lat="46.13201" lon="6.78407">
        <ele>2157.705</ele>
        <time>2025-02-02T12:20:05Z</time>
      </trkpt>
      <trkpt lat="46.13201" lon="6.78407">
        <ele>2157.696</ele>
        <time>2025-02-02T12:20:10Z</time>
      </trkpt>
      <trkpt lat="46.13201" lon="6.78407">
        <ele>2157.685</ele>
        <time>2025-02-02T12:20:15Z</time>
      </trkpt>
      <trkpt lat="46.13201" lon="6.78407">
        <ele>2157.679</ele>
        <time>2025-02-02T12:20:20Z</time>
      </trkpt>
      <trkpt lat="46.13201" lon="6.78407">
        <ele>2157.67</ele>
        <time>2025-02-02T12:20:25Z</time>
      </trkpt>
      <trkpt lat="46.13201" lon="6.78407">
        <ele>2157.665</ele>
        <time>2025-02-02T12:20:30Z</time>
      </trkpt>
      <trkpt lat="46.13201" lon="6.78407">
        <ele>2157.662</ele>
        <time>2025-02-02T12:20:35Z</time>
      </trkpt>
      <trkpt lat="46.13201" lon="6.78407">
        <ele>2157.662</ele>
        <time>2025-02-02T12:20:40Z</time>
      </trkpt>
      <trkpt lat="46.13201" lon="6.78407">
        <ele>2157.652</ele>
        <time>2025-02-02T12:20:45Z</time>
      </trkpt>
      <trkpt lat="46.13201" lon="6.78407">
        <ele>2157.649</ele>
        <time>2025-02-02T12:20:50Z</time>
      </trkpt>
      <trkpt lat="46.13201" lon="6.78407">
        <ele>2157.642</ele>
        <time>2025-02-02T12:20:55Z</time>
      </trkpt>
      <trkpt lat="46.13201" lon="6.78407">
        <ele>2157.635</ele>
        <time>2025-02-02T12:21:00Z</time>
      </trkpt>
      <trkpt lat="46.13201" lon="6.78407">
        <ele>2157.628</ele>
        <time>2025-02-02T12:21:05Z</time>
      </trkpt>
      <trkpt lat="46.13201" lon="6.78407">
        <ele>2157.619</ele>
        <time>2025-02-02T12:21:10Z</time>
      </trkpt>
      <trkpt lat="46.13201" lon="6.78407">
        <ele>2157.613</ele>
        <time>2025-02-02T12:21:15Z</time>
      </trkpt>
      <trkpt lat="46.13201" lon="6.78407">
        <ele>2157.602</ele>
        <time>2025-02-02T12:21:20Z</time>
      </trkpt>
      <trkpt lat="46.13201" lon="6.78407">
        <ele>2157.595</ele>
        <time>2025-02-02T12:21:25Z</time>
      </trkpt>
      <trkpt lat="46.13201" lon="6.78407">
        <ele>2157.591</ele>
        <time>2025-02-02T12:21:30Z</time>
      </trkpt>
      <trkpt lat="46.13201" lon="6.78407">
        <ele>2157.584</ele>
        <time>2025-02-02T12:21:35Z</time>
      </trkpt>
      <trkpt lat="46.13201" lon="6.78407">
        <ele>2157.576</ele>
        <time>2025-02-02T12:21:40Z</time>
      </trkpt>
      <trkpt lat="46.13201" lon="6.78407">
        <ele>2157.57</ele>
        <time>2025-02-02T12:21:45Z</time>
      </trkpt>
      <trkpt lat="46.13201" lon="6.78407">
        <ele>2157.571</ele>
        <time>2025-02-02T12:21:50Z</time>
      </trkpt>
      <trkpt lat="46.13201" lon="6.78407">
        <ele>2157.57</ele>
        <time>2025-02-02T12:21:55Z</time>
      </trkpt>
      <trkpt lat="46.13201" lon="6.78407">
        <ele>2157.571</ele>
        <time>2025-02-02T12:22:00Z</time>
      </trkpt>
      <trkpt lat="46.13201" lon="6.78407">
        <ele>2157.57</ele>
        <time>2025-02-02T12:22:05Z</time>
      </trkpt>
      <trkpt lat="46.13201" lon="6.78407">
        <ele>2157.569</ele>
        <time>2025-02-02T12:22:10Z</time>
      </trkpt>
      <trkpt lat="46.13201" lon="6.78407">
        <ele>2157.565</ele>
        <time>2025-02-02T12:22:15Z</time>
      </trkpt>
      <trkpt lat="46.13201" lon="6.78407">
        <ele>2157.564</ele>
        <time>2025-02-02T12:22:20Z</time>
      </trkpt>
      <trkpt lat="46.13201" lon="6.78407">
        <ele>2157.566</ele>
        <time>2025-02-02T12:22:25Z</time>
      </trkpt>
      <trkpt lat="46.13201" lon="6.78407">
        <ele>2157.563</ele>
        <time>2025-02-02T12:22:30Z</time>
      </trkpt>
      <trkpt lat="46.13201" lon="6.78407">
        <ele>2157.566</ele>
        <time>2025-02-02T12:22:35Z</time>
      </trkpt>
      <trkpt lat="46.13201" lon="6.78407">
        <ele>2157.568</ele>
        <time>2025-02-02T12:22:40Z</time>
      </trkpt>
      <trkpt lat="46.13201" lon="6.78407">
        <ele>2157.567</ele>
        <time>2025-02-02T12:22:45Z</time>
      </trkpt>
      <trkpt lat="46.13201" lon="6.78407">
        <ele>2157.563</ele>
        <time>2025-02-02T12:22:50Z</time>
      </trkpt>
      <trkpt lat="46.13201" lon="6.78407">
        <ele>2157.56</ele>
        <time>2025-02-02T12:22:55Z</time>
      </trkpt>
      <trkpt lat="46.13201" lon="6.78407">
        <ele>2157.566</ele>
        <time>2025-02-02T12:23:00Z</time>
      </trkpt>
      <trkpt lat="46.13201" lon="6.78407">
        <ele>2157.562</ele>
        <time>2025-02-02T12:23:05Z</time>
      </trkpt>
      <trkpt lat="46.13201" lon="6.78407">
        <ele>2157.562</ele>
        <time>2025-02-02T12:23:10Z</time>
      </trkpt>
      <trkpt lat="46.13201" lon="6.78407">
        <ele>2157.563</ele>
        <time>2025-02-02T12:23:15Z</time>
      </trkpt>
      <trkpt lat="46.13201" lon="6.78407">
        <ele>2157.563</ele>
        <time>2025-02-02T12:23:20Z</time>
      </trkpt>
      <trkpt lat="46.13201" lon="6.78407">
        <ele>2157.567</ele>
        <time>2025-02-02T12:23:25Z</time>
      </trkpt>
      <trkpt lat="46.13201" lon="6.78407">
        <ele>2157.57</ele>
        <time>2025-02-02T12:23:30Z</time>
      </trkpt>
      <trkpt lat="46.13201" lon="6.78407">
        <ele>2157.571</ele>
        <time>2025-02-02T12:23:35Z</time>
      </trkpt>
      <trkpt lat="46.13201" lon="6.78407">
        <ele>2157.572</ele>
        <time>2025-02-02T12:23:40Z</time>
      </trkpt>
      <trkpt lat="46.13201" lon="6.78407">
        <ele>2157.572</ele>
        <time>2025-02-02T12:23:45Z</time>
      </trkpt>
      <trkpt lat="46.13201" lon="6.78407">
        <ele>2157.575</ele>
        <time>2025-02-02T12:23:50Z</time>
      </trkpt>
      <trkpt lat="46.13201" lon="6.78407">
        <ele>2157.576</ele>
        <time>2025-02-02T12:23:55Z</time>
      </trkpt>
      <trkpt lat="46.13201" lon="6.78407">
        <ele>2157.576</ele>
        <time>2025-02-02T12:24:00Z</time>
      </trkpt>
      <trkpt lat="46.13201" lon="6.78407">
        <ele>2157.574</ele>
        <time>2025-02-02T12:24:05Z</time>
      </trkpt>
      <trkpt lat="46.13201" lon="6.78407">
        <ele>2157.573</ele>
        <time>2025-02-02T12:24:10Z</time>
      </trkpt>
      <trkpt lat="46.13201" lon="6.78407">
        <ele>2157.573</ele>
        <time>2025-02-02T12:24:15Z</time>
      </trkpt>
      <trkpt lat="46.13201" lon="6.78407">
        <ele>2157.569</ele>
        <time>2025-02-02T12:24:20Z</time>
      </trkpt>
      <trkpt lat="46.13201" lon="6.78407">
        <ele>2157.568</ele>
        <time>2025-02-02T12:24:25Z</time>
      </trkpt>
      <trkpt lat="46.13201" lon="6.78407">
        <ele>2157.572</ele>
        <time>2025-02-02T12:24:30Z</time>
      </trkpt>
      <trkpt lat="46.13201" lon="6.78407">
        <ele>2157.574</ele>
        <time>2025-02-02T12:24:35Z</time>
      </trkpt>
      <trkpt lat="46.13201" lon="6.78407">
        <ele>2157.576</ele>
        <time>2025-02-02T12:24:40Z</time>
      </trkpt>
      <trkpt lat="46.13201" lon="6.78407">
        <ele>2157.575</ele>
        <time>2025-02-02T12:24:45Z</time>
      </trkpt>
      <trkpt lat="46.13201" lon="6.78407">
        <ele>2157.577</ele>
        <time>2025-02-02T12:24:50Z</time>
      </trkpt>
      <trkpt lat="46.13201" lon="6.78407">
        <ele>2157.578</ele>
        <time>2025-02-02T12:24:55Z</time>
      </trkpt>
      <trkpt lat="46.13201" lon="6.78407">
        <ele>2157.581</ele>
        <time>2025-02-02T12:25:00Z</time>
      </trkpt>
      <trkpt lat="46.13201" lon="6.78407">
        <ele>2157.581</ele>
        <time>2025-02-02T12:25:05Z</time>
      </trkpt>
      <trkpt lat="46.13201" lon="6.78407">
        <ele>2157.58</ele>
        <time>2025-02-02T12:25:10Z</time>
      </trkpt>
      <trkpt lat="46.13201" lon="6.78407">
        <ele>2157.583</ele>
        <time>2025-02-02T12:25:15Z</time>
      </trkpt>
      <trkpt lat="46.13201" lon="6.78407">
        <ele>2157.586</ele>
        <time>2025-02-02T12:25:20Z</time>
      </trkpt>
      <trkpt lat="46.13201" lon="6.78407">
        <ele>2157.586</ele>
        <time>2025-02-02T12:25:25Z</time>
      </trkpt>
      <trkpt lat="46.13201" lon="6.78407">
        <ele>2157.583</ele>
        <time>2025-02-02T12:25:30Z</time>
      </trkpt>
      <trkpt lat="46.13201" lon="6.78407">
        <ele>2157.587</ele>
        <time>2025-02-02T12:25:35Z</time>
      </trkpt>
      <trkpt lat="46.13201" lon="6.78407">
        <ele>2157.59</ele>
        <time>2025-02-02T12:25:40Z</time>
      </trkpt>
      <trkpt lat="46.13201" lon="6.78407">
        <ele>2157.594</ele>
        <time>2025-02-02T12:25:45Z</time>
      </trkpt>
      <trkpt lat="46.13201" lon="6.78407">
        <ele>2157.591</ele>
        <time>2025-02-02T12:25:50Z</time>
      </trkpt>
      <trkpt lat="46.13201" lon="6.78407">
        <ele>2157.59</ele>
        <time>2025-02-02T12:25:55Z</time>
      </trkpt>
      <trkpt lat="46.13201" lon="6.78407">
        <ele>2157.59</ele>
        <time>2025-02-02T12:26:00Z</time>
      </trkpt>
      <trkpt lat="46.13201" lon="6.78407">
        <ele>2157.586</ele>
        <time>2025-02-02T12:26:05Z</time>
      </trkpt>
      <trkpt lat="46.13201" lon="6.78407">
        <ele>2157.586</ele>
        <time>2025-02-02T12:26:10Z</time>
      </trkpt>
      <trkpt lat="46.13201" lon="6.78407">
        <ele>2157.588</ele>
        <time>2025-02-02T12:26:15Z</time>
      </trkpt>
      <trkpt lat="46.13201" lon="6.78407">
        <ele>2157.586</ele>
        <time>2025-02-02T12:26:20Z</time>
      </trkpt>
      <trkpt lat="46.13201" lon="6.78407">
        <ele>2157.582</ele>
        <time>2025-02-02T12:26:25Z</time>
      </trkpt>
      <trkpt lat="46.13201" lon="6.78407">
        <ele>2157.578</ele>
        <time>2025-02-02T12:26:30Z</time>
      </trkpt>
      <trkpt lat="46.13201" lon="6.78407">
        <ele>2157.581</ele>
        <time>2025-02-02T12:26:35Z</time>
      </trkpt>
      <trkpt lat="46.13201" lon="6.78407">
        <ele>2157.579</ele>
        <time>2025-02-02T12:26:40Z</time>
      </trkpt>
      <trkpt lat="46.13201" lon="6.78407">
        <ele>2157.572</ele>
        <time>2025-02-02T12:26:45Z</time>
      </trkpt>
      <trkpt lat="46.13201" lon="6.78407">
        <ele>2157.572</ele>
        <time>2025-02-02T12:26:50Z</time>
      </trkpt>
      <trkpt lat="46.13201" lon="6.78407">
        <ele>2157.571</ele>
        <time>2025-02-02T12:26:55Z</time>
      </trkpt>
      <trkpt lat="46.13201" lon="6.78407">
        <ele>2157.569</ele>
        <time>2025-02-02T12:27:00Z</time>
      </trkpt>
      <trkpt lat="46.13201" lon="6.78407">
        <ele>2157.566</ele>
        <time>2025-02-02T12:27:05Z</time>
      </trkpt>
      <trkpt lat="46.13201" lon="6.78407">
        <ele>2157.563</ele>
        <time>2025-02-02T12:27:10Z</time>
      </trkpt>
      <trkpt lat="46.13201" lon="6.78407">
        <ele>2157.565</ele>
        <time>2025-02-02T12:27:15Z</time>
      </trkpt>
      <trkpt lat="46.13201" lon="6.78407">
        <ele>2157.562</ele>
        <time>2025-02-02T12:27:20Z</time>
      </trkpt>
      <trkpt lat="46.13201" lon="6.78407">
        <ele>2157.56</ele>
        <time>2025-02-02T12:27:25Z</time>
      </trkpt>
      <trkpt lat="46.13201" lon="6.78407">
        <ele>2157.566</ele>
        <time>2025-02-02T12:27:30Z</time>
      </trkpt>
      <trkpt lat="46.13201" lon="6.78407">
        <ele>2157.566</ele>
        <time>2025-02-02T12:27:35Z</time>
      </trkpt>
      <trkpt lat="46.13201" lon="6.78407">
        <ele>2157.57</ele>
        <time>2025-02-02T12:27:40Z</time>
      </trkpt>
      <trkpt lat="46.13201" lon="6.78407">
        <ele>2157.571</ele>
        <time>2025-02-02T12:27:45Z</time>
      </trkpt>
      <trkpt lat="46.13201" lon="6.78407">
        <ele>2157.568</ele>
        <time>2025-02-02T12:27:50Z</time>
      </trkpt>
      <trkpt lat="46.13201" lon="6.78407">
        <ele>2157.57</ele>
        <time>2025-02-02T12:27:55Z</time>
      </trkpt>
      <trkpt lat="46.13201" lon="6.78407">
        <ele>2157.575</ele>
        <time>2025-02-02T12:28:00Z</time>
      </trkpt>
      <trkpt lat="46.13201" lon="6.78407">
        <ele>2157.577</ele>
        <time>2025-02-02T12:28:05Z</time>
      </trkpt>
      <trkpt lat="46.13201" lon="6.78407">
        <ele>2157.583</ele>
        <time>2025-02-02T12:28:10Z</time>
      </trkpt>
      <trkpt lat="46.13201" lon="6.78407">
        <ele>2157.585</ele>
        <time>2025-02-02T12:28:15Z</time>
      </trkpt>
      <trkpt lat="46.13201" lon="6.78407">
        <ele>2157.588</ele>
        <time>2025-02-02T12:28:20Z</time>
      </trkpt>
      <trkpt lat="46.13201" lon="6.78407">
        <ele>2157.587</ele>
        <time>2025-02-02T12:28:25Z</time>
      </trkpt>
      <trkpt lat="46.13201" lon="6.78407">
        <ele>2157.587</ele>
        <time>2025-02-02T12:28:30Z</time>
      </trkpt>
      <trkpt lat="46.13201" lon="6.78407">
        <ele>2157.587</ele>
        <time>2025-02-02T12:28:35Z</time>
      </trkpt>
      <trkpt lat="46.13201" lon="6.78407">
        <ele>2157.592</ele>
        <time>2025-02-02T12:28:40Z</time>
      </trkpt>
      <trkpt lat="46.13201" lon="6.78407">
        <ele>2157.595</ele>
        <time>2025-02-02T12:28:45Z</time>
      </trkpt>
      <trkpt lat="46.13201" lon="6.78407">
        <ele>2157.595</ele>
        <time>2025-02-02T12:28:50Z</time>
      </trkpt>
      <trkpt lat="46.13201" lon="6.78407">
        <ele>2157.596</ele>
        <time>2025-02-02T12:28:55Z</time>
      </trkpt>
      <trkpt lat="46.13201" lon="6.78407">
        <ele>2157.599</ele>
        <time>2025-02-02T12:29:00Z</time>
      </trkpt>
      <trkpt lat="46.13201" lon="6.78407">
        <ele>2157.605</ele>
        <time>2025-02-02T12:29:05Z</time>
      </trkpt>
      <trkpt lat="46.13201" lon="6.78407">
        <ele>2157.608</ele>
        <time>2025-02-02T12:29:10Z</time>
      </trkpt>
      <trkpt lat="46.13201" lon="6.78407">
        <ele>2157.612</ele>
        <time>2025-02-02T12:29:15Z</time>
      </trkpt>
      <trkpt lat="46.13201" lon="6.78407">
        <ele>2157.616</ele>
        <time>2025-02-02T12:29:20Z</time>
      </trkpt>
      <trkpt lat="46.13201" lon="6.78407">
        <ele>2157.621</ele>
        <time>2025-02-02T12:29:25Z</time>
      </trkpt>
      <trkpt lat="46.13201" lon="6.78407">
        <ele>2157.629</ele>
        <time>2025-02-02T12:29:30Z</time>
      </trkpt>
      <trkpt lat="46.13201" lon="6.78407">
        <ele>2157.633</ele>
        <time>2025-02-02T12:29:35Z</time>
      </trkpt>
      <trkpt lat="46.13201" lon="6.78407">
        <ele>2157.634</ele>
        <time>2025-02-02T12:29:40Z</time>
      </trkpt>
      <trkpt lat="46.13201" lon="6.78407">
        <ele>2157.639</ele>
        <time>2025-02-02T12:29:45Z</time>
      </trkpt>
      <trkpt lat="46.13201" lon="6.78407">
        <ele>2157.641</ele>
        <time>2025-02-02T12:29:50Z</time>
      </trkpt>
      <trkpt lat="46.13201" lon="6.78407">
        <ele>2157.646</ele>
        <time>2025-02-02T12:29:55Z</time>
      </trkpt>
      <trkpt lat="46.13201" lon="6.78407">
        <ele>2157.652</ele>
        <time>2025-02-02T12:30:00Z</time>
      </trkpt>
      <trkpt lat="46.13201" lon="6.78407">
        <ele>2157.654</ele>
        <time>2025-02-02T12:30:05Z</time>
      </trkpt>
      <trkpt lat="46.13201" lon="6.78407">
        <ele>2157.653</ele>
        <time>2025-02-02T12:30:10Z</time>
      </trkpt>
      <trkpt lat="46.13201" lon="6.78407">
        <ele>2157.659</ele>
        <time>2025-02-02T12:30:15Z</time>
      </trkpt>
      <trkpt lat="46.13201" lon="6.78407">
        <ele>2157.663</ele>
        <time>2025-02-02T12:30:20Z</time>
      </trkpt>
      <trkpt lat="46.13201" lon="6.78407">
        <ele>2157.668</ele>
        <time>2025-02-02T12:30:25Z</time>
      </trkpt>
      <trkpt lat="46.13201" lon="6.78407">
        <ele>2157.672</ele>
        <time>2025-02-02T12:30:30Z</time>
      </trkpt>
      <trkpt lat="46.13201" lon="6.78407">
        <ele>2157.679</ele>
        <time>2025-02-02T12:30:35Z</time>
      </trkpt>
      <trkpt lat="46.13201" lon="6.78407">
        <ele>2157.688</ele>
        <time>2025-02-02T12:30:40Z</time>
      </trkpt>
      <trkpt lat="46.13201" lon="6.78407">
        <ele>2157.693</ele>
        <time>2025-02-02T12:30:45Z</time>
      </trkpt>
      <trkpt lat="46.13201" lon="6.78407">
        <ele>2157.7</ele>
        <time>2025-02-02T12:30:50Z</time>
      </trkpt>
      <trkpt lat="46.13201" lon="6.78407">
        <ele>2157.704</ele>
        <time>2025-02-02T12:30:55Z</time>
      </trkpt>
      <trkpt lat="46.13201" lon="6.78407">
        <ele>2157.706</ele>
        <time>2025-02-02T12:31:00Z</time>
      </trkpt>
      <trkpt lat="46.13201" lon="6.78407">
        <ele>2157.716</ele>
        <time>2025-02-02T12:31:05Z</time>
      </trkpt>
      <trkpt lat="46.13201" lon="6.78407">
        <ele>2157.725</ele>
        <time>2025-02-02T12:31:10Z</time>
      </trkpt>
      <trkpt lat="46.13201" lon="6.78407">
        <ele>2157.727</ele>
        <time>2025-02-02T12:31:15Z</time>
      </trkpt>
      <trkpt lat="46.13201" lon="6.78407">
        <ele>2157.735</ele>
        <time>2025-02-02T12:31:20Z</time>
      </trkpt>
      <trkpt lat="46.13201" lon="6.78407">
        <ele>2157.74</ele>
        <time>2025-02-02T12:31:25Z</time>
      </trkpt>
      <trkpt lat="46.13201" lon="6.78407">
        <ele>2157.744</ele>
        <time>2025-02-02T12:31:30Z</time>
      </trkpt>
      <trkpt lat="46.13201" lon="6.78407">
        <ele>2157.75</ele>
        <time>2025-02-02T12:31:35Z</time>
      </trkpt>
      <trkpt lat="46.13201" lon="6.78407">
        <ele>2157.753</ele>
        <time>2025-02-02T12:31:40Z</time>
      </trkpt>
      <trkpt lat="46.13201" lon="6.78407">
        <ele>2157.756</ele>
        <time>2025-02-02T12:31:45Z</time>
      </trkpt>
      <trkpt lat="46.13201" lon="6.78407">
        <ele>2157.759</ele>
        <time>2025-02-02T12:31:50Z</time>
      </trkpt>
      <trkpt lat="46.13201" lon="6.78407">
        <ele>2157.765</ele>
        <time>2025-02-02T12:31:55Z</time>
      </trkpt>
      <trkpt lat="46.13201" lon="6.78407">
        <ele>2157.771</ele>
        <time>2025-02-02T12:32:00Z</time>
      </trkpt>
      <trkpt lat="46.13201" lon="6.78407">
        <ele>2157.773</ele>
        <time>2025-02-02T12:32:05Z</time>
      </trkpt>
      <trkpt lat="46.13201" lon="6.78407">
        <ele>2157.777</ele>
        <time>2025-02-02T12:32:10Z</time>
      </trkpt>
      <trkpt lat="46.13201" lon="6.78407">
        <ele>2157.774</ele>
        <time>2025-02-02T12:32:15Z</time>
      </trkpt>
      <trkpt lat="46.13201" lon="6.78407">
        <ele>2157.775</ele>
        <time>2025-02-02T12:32:20Z</time>
      </trkpt>
      <trkpt lat="46.13201" lon="6.78407">
        <ele>2157.778</ele>
        <time>2025-02-02T12:32:25Z</time>
      </trkpt>
      <trkpt lat="46.13201" lon="6.78407">
        <ele>2157.78</ele>
        <time>2025-02-02T12:32:30Z</time>
      </trkpt>
      <trkpt lat="46.13201" lon="6.78407">
        <ele>2157.784</ele>
        <time>2025-02-02T12:32:35Z</time>
      </trkpt>
      <trkpt lat="46.13201" lon="6.78407">
        <ele>2157.786</ele>
        <time>2025-02-02T12:32:40Z</time>
      </trkpt>
      <trkpt lat="46.13201" lon="6.78407">
        <ele>2157.79</ele>
        <time>2025-02-02T12:32:45Z</time>
      </trkpt>
      <trkpt lat="46.13201" lon="6.78407">
        <ele>2157.795</ele>
        <time>2025-02-02T12:32:50Z</time>
      </trkpt>
      <trkpt lat="46.13201" lon="6.78407">
        <ele>2157.803</ele>
        <time>2025-02-02T12:32:55Z</time>
      </trkpt>
      <trkpt lat="46.13201" lon="6.78407">
        <ele>2157.811</ele>
        <time>2025-02-02T12:33:00Z</time>
      </trkpt>
      <trkpt lat="46.13201" lon="6.78407">
        <ele>2157.818</ele>
        <time>2025-02-02T12:33:05Z</time>
      </trkpt>
      <trkpt lat="46.13201" lon="6.78407">
        <ele>2157.821</ele>
        <time>2025-02-02T12:33:10Z</time>
      </trkpt>
      <trkpt lat="46.13201" lon="6.78407">
        <ele>2157.822</ele>
        <time>2025-02-02T12:33:15Z</time>
      </trkpt>
      <trkpt lat="46.13201" lon="6.78407">
        <ele>2157.827</ele>
        <time>2025-02-02T12:33:20Z</time>
      </trkpt>
      <trkpt lat="46.13201" lon="6.78407">
        <ele>2157.837</ele>
        <time>2025-02-02T12:33:25Z</time>
      </trkpt>
      <trkpt lat="46.13201" lon="6.78407">
        <ele>2157.841</ele>
        <time>2025-02-02T12:33:30Z</time>
      </trkpt>
      <trkpt lat="46.13201" lon="6.78407">
        <ele>2157.85</ele>
        <time>2025-02-02T12:33:35Z</time>
      </trkpt>
      <trkpt lat="46.13201" lon="6.78407">
        <ele>2157.855</ele>
        <time>2025-02-02T12:33:40Z</time>
      </trkpt>
      <trkpt lat="46.13201" lon="6.78407">
        <ele>2157.865</ele>
        <time>2025-02-02T12:33:45Z</time>
      </trkpt>
      <trkpt lat="46.13201" lon="6.78407">
        <ele>2157.879</ele>
        <time>2025-02-02T12:33:50Z</time>
      </trkpt>
      <trkpt lat="46.13201" lon="6.78407">
        <ele>2157.892</ele>
        <time>2025-02-02T12:33:55Z</time>
      </trkpt>
      <trkpt lat="46.13201" lon="6.78407">
        <ele>2157.906</ele>
        <time>2025-02-02T12:34:00Z</time>
      </trkpt>
      <trkpt lat="46.13201" lon="6.78407">
        <ele>2157.919</ele>
        <time>2025-02-02T12:34:05Z</time>
      </trkpt>
      <trkpt lat="46.13201" lon="6.78407">
        <ele>2157.929</ele>
        <time>2025-02-02T12:34:10Z</time>
      </trkpt>
      <trkpt lat="46.13201" lon="6.78407">
        <ele>2157.942</ele>
        <time>2025-02-02T12:34:15Z</time>
      </trkpt>
      <trkpt lat="46.13201" lon="6.78407">
        <ele>2157.945</ele>
        <time>2025-02-02T12:34:20Z</time>
      </trkpt>
      <trkpt lat="46.13201" lon="6.78407">
        <ele>2157.953</ele>
        <time>2025-02-02T12:34:25Z</time>
      </trkpt>
      <trkpt lat="46.13201" lon="6.78407">
        <ele>2157.954</ele>
        <time>2025-02-02T12:34:30Z</time>
      </trkpt>
      <trkpt lat="46.13201" lon="6.78407">
        <ele>2157.96</ele>
        <time>2025-02-02T12:34:35Z</time>
      </trkpt>
      <trkpt lat="46.13201" lon="6.78407">
        <ele>2157.96</ele>
        <time>2025-02-02T12:34:40Z</time>
      </trkpt>
      <trkpt lat="46.13201" lon="6.78407">
        <ele>2157.96</ele>
        <time>2025-02-02T12:34:45Z</time>
      </trkpt>
      <trkpt lat="46.13201" lon="6.78407">
        <ele>2157.959</ele>
        <time>2025-02-02T12:34:50Z</time>
      </trkpt>
      <trkpt lat="46.13201" lon="6.78407">
        <ele>2157.96</ele>
        <time>2025-02-02T12:34:55Z</time>
      </trkpt>
      <trkpt lat="46.13201" lon="6.78407">
        <ele>2157.961</ele>
        <time>2025-02-02T12:35:00Z</time>
      </trkpt>
      <trkpt lat="46.13201" lon="6.78407">
        <ele>2157.961</ele>
        <time>2025-02-02T12:35:05Z</time>
      </trkpt>
      <trkpt lat="46.13201" lon="6.78407">
        <ele>2157.961</ele>
        <time>2025-02-02T12:35:10Z</time>
      </trkpt>
      <trkpt lat="46.13201" lon="6.78407">
        <ele>2157.96</ele>
        <time>2025-02-02T12:35:15Z</time>
      </trkpt>
      <trkpt lat="46.13201" lon="6.78407">
        <ele>2157.96</ele>
        <time>2025-02-02T12:35:20Z</time>
      </trkpt>
      <trkpt lat="46.13201" lon="6.78407">
        <ele>2157.959</ele>
        <time>2025-02-02T12:35:25Z</time>
      </trkpt>
      <trkpt lat="46.13201" lon="6.78407">
        <ele>2157.96</ele>
        <time>2025-02-02T12:35:30Z</time>
      </trkpt>
      <trkpt lat="46.13201" lon="6.78407">
        <ele>2157.962</ele>
        <time>2025-02-02T12:35:35Z</time>
      </trkpt>
      <trkpt lat="46.13201" lon="6.78407">
        <ele>2157.965</ele>
        <time>2025-02-02T12:35:40Z</time>
      </trkpt>
      <trkpt lat="46.13201" lon="6.78407">
        <ele>2157.989</ele>
        <time>2025-02-02T12:35:45Z</time>
      </trkpt>
      <trkpt lat="46.13201" lon="6.78407">
        <ele>2157.989</ele>
        <time>2025-02-02T12:35:50Z</time>
      </trkpt>
      <trkpt lat="46.13201" lon="6.78407">
        <ele>2157.991</ele>
        <time>2025-02-02T12:35:55Z</time>
      </trkpt>
      <trkpt lat="46.13201" lon="6.78407">
        <ele>2157.991</ele>
        <time>2025-02-02T12:36:00Z</time>
      </trkpt>
      <trkpt lat="46.13201" lon="6.78407">
        <ele>2157.99</ele>
        <time>2025-02-02T12:36:05Z</time>
      </trkpt>
      <trkpt lat="46.13201" lon="6.78407">
        <ele>2158.027</ele>
        <time>2025-02-02T12:36:10Z</time>
      </trkpt>
      <trkpt lat="46.13201" lon="6.78407">
        <ele>2158.614</ele>
        <time>2025-02-02T12:36:15Z</time>
      </trkpt>
      <trkpt lat="46.13201" lon="6.78407">
        <ele>2158.628</ele>
        <time>2025-02-02T12:36:20Z</time>
      </trkpt>
      <trkpt lat="46.13201" lon="6.78407">
        <ele>2159.294</ele>
        <time>2025-02-02T12:36:25Z</time>
      </trkpt>
      <trkpt lat="46.13201" lon="6.78407">
        <ele>2159.294</ele>
        <time>2025-02-02T12:36:30Z</time>
      </trkpt>
      <trkpt lat="46.13201" lon="6.78407">
        <ele>2159.291</ele>
        <time>2025-02-02T12:36:35Z</time>
      </trkpt>
      <trkpt lat="46.13201" lon="6.78407">
        <ele>2159.29</ele>
        <time>2025-02-02T12:36:40Z</time>
      </trkpt>
      <trkpt lat="46.13201" lon="6.78407">
        <ele>2159.294</ele>
        <time>2025-02-02T12:36:45Z</time>
      </trkpt>
      <trkpt lat="46.13201" lon="6.78407">
        <ele>2159.293</ele>
        <time>2025-02-02T12:36:50Z</time>
      </trkpt>
      <trkpt lat="46.13201" lon="6.78407">
        <ele>2159.292</ele>
        <time>2025-02-02T12:36:55Z</time>
      </trkpt>
      <trkpt lat="46.13201" lon="6.78407">
        <ele>2159.293</ele>
        <time>2025-02-02T12:37:00Z</time>
      </trkpt>
      <trkpt lat="46.13201" lon="6.78407">
        <ele>2159.295</ele>
        <time>2025-02-02T12:37:05Z</time>
      </trkpt>
      <trkpt lat="46.13201" lon="6.78407">
        <ele>2159.298</ele>
        <time>2025-02-02T12:37:10Z</time>
      </trkpt>
      <trkpt lat="46.13201" lon="6.78407">
        <ele>2159.308</ele>
        <time>2025-02-02T12:37:15Z</time>
      </trkpt>
      <trkpt lat="46.13201" lon="6.78407">
        <ele>2159.311</ele>
        <time>2025-02-02T12:37:20Z</time>
      </trkpt>
      <trkpt lat="46.13201" lon="6.78407">
        <ele>2159.31</ele>
        <time>2025-02-02T12:37:25Z</time>
      </trkpt>
      <trkpt lat="46.13201" lon="6.78407">
        <ele>2159.309</ele>
        <time>2025-02-02T12:37:30Z</time>
      </trkpt>
      <trkpt lat="46.13201" lon="6.78407">
        <ele>2159.309</ele>
        <time>2025-02-02T12:37:35Z</time>
      </trkpt>
      <trkpt lat="46.13201" lon="6.78407">
        <ele>2159.309</ele>
        <time>2025-02-02T12:37:40Z</time>
      </trkpt>
      <trkpt lat="46.13201" lon="6.78407">
        <ele>2159.314</ele>
        <time>2025-02-02T12:37:45Z</time>
      </trkpt>
      <trkpt lat="46.13201" lon="6.78407">
        <ele>2159.317</ele>
        <time>2025-02-02T12:37:50Z</time>
      </trkpt>
      <trkpt lat="46.13201" lon="6.78407">
        <ele>2159.322</ele>
        <time>2025-02-02T12:37:55Z</time>
      </trkpt>
      <trkpt lat="46.13201" lon="6.78407">
        <ele>2159.327</ele>
        <time>2025-02-02T12:38:00Z</time>
      </trkpt>
      <trkpt lat="46.13201" lon="6.78407">
        <ele>2159.333</ele>
        <time>2025-02-02T12:38:05Z</time>
      </trkpt>
      <trkpt lat="46.13201" lon="6.78407">
        <ele>2159.332</ele>
        <time>2025-02-02T12:38:10Z</time>
      </trkpt>
      <trkpt lat="46.13201" lon="6.78407">
        <ele>2159.333</ele>
        <time>2025-02-02T12:38:15Z</time>
      </trkpt>
      <trkpt lat="46.13201" lon="6.78407">
        <ele>2159.51</ele>
        <time>2025-02-02T12:38:20Z</time>
      </trkpt>
      <trkpt lat="46.13201" lon="6.78412">
        <ele>2159.514</ele>
        <time>2025-02-02T12:38:25Z</time>
      </trkpt>
      <trkpt lat="46.13201" lon="6.78413">
        <ele>2159.536</ele>
        <time>2025-02-02T12:38:30Z</time>
      </trkpt>
      <trkpt lat="46.13201" lon="6.78413">
        <ele>2159.549</ele>
        <time>2025-02-02T12:38:35Z</time>
      </trkpt>
      <trkpt lat="46.13201" lon="6.78413">
        <ele>2159.555</ele>
        <time>2025-02-02T12:38:40Z</time>
      </trkpt>
      <trkpt lat="46.13201" lon="6.78413">
        <ele>2159.561</ele>
        <time>2025-02-02T12:38:45Z</time>
      </trkpt>
      <trkpt lat="46.13201" lon="6.78413">
        <ele>2159.972</ele>
        <time>2025-02-02T12:38:50Z</time>
      </trkpt>
      <trkpt lat="46.13202" lon="6.78416">
        <ele>2160.686</ele>
        <time>2025-02-02T12:38:55Z</time>
      </trkpt>
      <trkpt lat="46.13203" lon="6.78419">
        <ele>2161.413</ele>
        <time>2025-02-02T12:39:00Z</time>
      </trkpt>
      <trkpt lat="46.13204" lon="6.78424">
        <ele>2161.828</ele>
        <time>2025-02-02T12:39:05Z</time>
      </trkpt>
      <trkpt lat="46.13205" lon="6.78428">
        <ele>2162.869</ele>
        <time>2025-02-02T12:39:10Z</time>
      </trkpt>
      <trkpt lat="46.13206" lon="6.78432">
        <ele>2163.685</ele>
        <time>2025-02-02T12:39:15Z</time>
      </trkpt>
      <trkpt lat="46.13207" lon="6.78437">
        <ele>2164.153</ele>
        <time>2025-02-02T12:39:20Z</time>
      </trkpt>
      <trkpt lat="46.1321" lon="6.78442">
        <ele>2164.546</ele>
        <time>2025-02-02T12:39:25Z</time>
      </trkpt>
      <trkpt lat="46.1321" lon="6.78446">
        <ele>2164.8</ele>
        <time>2025-02-02T12:39:30Z</time>
      </trkpt>
      <trkpt lat="46.13211" lon="6.78451">
        <ele>2165.423</ele>
        <time>2025-02-02T12:39:35Z</time>
      </trkpt>
      <trkpt lat="46.13211" lon="6.78456">
        <ele>2166.495</ele>
        <time>2025-02-02T12:39:40Z</time>
      </trkpt>
      <trkpt lat="46.13212" lon="6.78461">
        <ele>2167.001</ele>
        <time>2025-02-02T12:39:45Z</time>
      </trkpt>
      <trkpt lat="46.13213" lon="6.78466">
        <ele>2167.747</ele>
        <time>2025-02-02T12:39:50Z</time>
      </trkpt>
      <trkpt lat="46.13214" lon="6.7847">
        <ele>2168.45</ele>
        <time>2025-02-02T12:39:55Z</time>
      </trkpt>
      <trkpt lat="46.13216" lon="6.78474">
        <ele>2168.68</ele>
        <time>2025-02-02T12:40:00Z</time>
      </trkpt>
      <trkpt lat="46.13217" lon="6.78478">
        <ele>2169.908</ele>
        <time>2025-02-02T12:40:05Z</time>
      </trkpt>
      <trkpt lat="46.13217" lon="6.78482">
        <ele>2170.285</ele>
        <time>2025-02-02T12:40:10Z</time>
      </trkpt>
      <trkpt lat="46.13219" lon="6.78486">
        <ele>2170.266</ele>
        <time>2025-02-02T12:40:15Z</time>
      </trkpt>
      <trkpt lat="46.1322" lon="6.7849">
        <ele>2170.662</ele>
        <time>2025-02-02T12:40:20Z</time>
      </trkpt>
      <trkpt lat="46.1322" lon="6.78494">
        <ele>2170.681</ele>
        <time>2025-02-02T12:40:25Z</time>
      </trkpt>
      <trkpt lat="46.13221" lon="6.78498">
        <ele>2171.98</ele>
        <time>2025-02-02T12:40:30Z</time>
      </trkpt>
      <trkpt lat="46.13222" lon="6.78503">
        <ele>2173.164</ele>
        <time>2025-02-02T12:40:35Z</time>
      </trkpt>
      <trkpt lat="46.13223" lon="6.78507">
        <ele>2173.955</ele>
        <time>2025-02-02T12:40:40Z</time>
      </trkpt>
      <trkpt lat="46.13224" lon="6.78511">
        <ele>2174.087</ele>
        <time>2025-02-02T12:40:45Z</time>
      </trkpt>
      <trkpt lat="46.13226" lon="6.78515">
        <ele>2174.118</ele>
        <time>2025-02-02T12:40:50Z</time>
      </trkpt>
      <trkpt lat="46.13227" lon="6.78519">
        <ele>2174.548</ele>
        <time>2025-02-02T12:40:55Z</time>
      </trkpt>
      <trkpt lat="46.1323" lon="6.78524">
        <ele>2174.975</ele>
        <time>2025-02-02T12:41:00Z</time>
      </trkpt>
      <trkpt lat="46.13232" lon="6.78528">
        <ele>2174.876</ele>
        <time>2025-02-02T12:41:05Z</time>
      </trkpt>
      <trkpt lat="46.13235" lon="6.78531">
        <ele>2174.968</ele>
        <time>2025-02-02T12:41:10Z</time>
      </trkpt>
      <trkpt lat="46.13237" lon="6.78535">
        <ele>2174.426</ele>
        <time>2025-02-02T12:41:15Z</time>
      </trkpt>
      <trkpt lat="46.1324" lon="6.78541">
        <ele>2173.741</ele>
        <time>2025-02-02T12:41:20Z</time>
      </trkpt>
      <trkpt lat="46.13245" lon="6.78549">
        <ele>2173.614</ele>
        <time>2025-02-02T12:41:25Z</time>
      </trkpt>
      <trkpt lat="46.13247" lon="6.78554">
        <ele>2173.652</ele>
        <time>2025-02-02T12:41:30Z</time>
      </trkpt>
      <trkpt lat="46.13249" lon="6.78559">
        <ele>2173.516</ele>
        <time>2025-02-02T12:41:35Z</time>
      </trkpt>
      <trkpt lat="46.1325" lon="6.78564">
        <ele>2174.222</ele>
        <time>2025-02-02T12:41:40Z</time>
      </trkpt>
      <trkpt lat="46.13251" lon="6.78568">
        <ele>2174.686</ele>
        <time>2025-02-02T12:41:45Z</time>
      </trkpt>
      <trkpt lat="46.13251" lon="6.78572">
        <ele>2175.404</ele>
        <time>2025-02-02T12:41:50Z</time>
      </trkpt>
      <trkpt lat="46.13251" lon="6.78575">
        <ele>2176.21</ele>
        <time>2025-02-02T12:41:55Z</time>
      </trkpt>
      <trkpt lat="46.13251" lon="6.78578">
        <ele>2177.438</ele>
        <time>2025-02-02T12:42:00Z</time>
      </trkpt>
      <trkpt lat="46.13253" lon="6.78581">
        <ele>2176.808</ele>
        <time>2025-02-02T12:42:05Z</time>
      </trkpt>
      <trkpt lat="46.13254" lon="6.78584">
        <ele>2176.755</ele>
        <time>2025-02-02T12:42:10Z</time>
      </trkpt>
      <trkpt lat="46.13254" lon="6.78587">
        <ele>2177.257</ele>
        <time>2025-02-02T12:42:15Z</time>
      </trkpt>
      <trkpt lat="46.13254" lon="6.78588">
        <ele>2177.728</ele>
        <time>2025-02-02T12:42:20Z</time>
      </trkpt>
      <trkpt lat="46.13255" lon="6.7859">
        <ele>2178.636</ele>
        <time>2025-02-02T12:42:25Z</time>
      </trkpt>
      <trkpt lat="46.13255" lon="6.78591">
        <ele>2179.325</ele>
        <time>2025-02-02T12:42:30Z</time>
      </trkpt>
      <trkpt lat="46.13256" lon="6.78593">
        <ele>2180.13</ele>
        <time>2025-02-02T12:42:35Z</time>
      </trkpt>
      <trkpt lat="46.13257" lon="6.78597">
        <ele>2180.504</ele>
        <time>2025-02-02T12:42:40Z</time>
      </trkpt>
      <trkpt lat="46.13258" lon="6.78601">
        <ele>2181.309</ele>
        <time>2025-02-02T12:42:45Z</time>
      </trkpt>
      <trkpt lat="46.13258" lon="6.78604">
        <ele>2181.289</ele>
        <time>2025-02-02T12:42:50Z</time>
      </trkpt>
      <trkpt lat="46.13259" lon="6.78608">
        <ele>2181.068</ele>
        <time>2025-02-02T12:42:55Z</time>
      </trkpt>
      <trkpt lat="46.1326" lon="6.78611">
        <ele>2181.019</ele>
        <time>2025-02-02T12:43:00Z</time>
      </trkpt>
      <trkpt lat="46.1326" lon="6.78611">
        <ele>2181.157</ele>
        <time>2025-02-02T12:43:05Z</time>
      </trkpt>
      <trkpt lat="46.13261" lon="6.78615">
        <ele>2181.304</ele>
        <time>2025-02-02T12:43:10Z</time>
      </trkpt>
      <trkpt lat="46.13261" lon="6.78618">
        <ele>2181.603</ele>
        <time>2025-02-02T12:43:15Z</time>
      </trkpt>
      <trkpt lat="46.13262" lon="6.78621">
        <ele>2181.108</ele>
        <time>2025-02-02T12:43:20Z</time>
      </trkpt>
      <trkpt lat="46.13263" lon="6.78624">
        <ele>2181.032</ele>
        <time>2025-02-02T12:43:25Z</time>
      </trkpt>
      <trkpt lat="46.13263" lon="6.78624">
        <ele>2180.819</ele>
        <time>2025-02-02T12:43:30Z</time>
      </trkpt>
      <trkpt lat="46.13262" lon="6.78626">
        <ele>2180.566</ele>
        <time>2025-02-02T12:43:35Z</time>
      </trkpt>
      <trkpt lat="46.13262" lon="6.78632">
        <ele>2179.479</ele>
        <time>2025-02-02T12:43:40Z</time>
      </trkpt>
      <trkpt lat="46.13261" lon="6.78641">
        <ele>2177.783</ele>
        <time>2025-02-02T12:43:45Z</time>
      </trkpt>
      <trkpt lat="46.13262" lon="6.78646">
        <ele>2177.711</ele>
        <time>2025-02-02T12:43:50Z</time>
      </trkpt>
      <trkpt lat="46.13263" lon="6.78651">
        <ele>2178.156</ele>
        <time>2025-02-02T12:43:55Z</time>
      </trkpt>
      <trkpt lat="46.13264" lon="6.78655">
        <ele>2178.866</ele>
        <time>2025-02-02T12:44:00Z</time>
      </trkpt>
      <trkpt lat="46.13265" lon="6.78659">
        <ele>2179.386</ele>
        <time>2025-02-02T12:44:05Z</time>
      </trkpt>
      <trkpt lat="46.13266" lon="6.78663">
        <ele>2180.271</ele>
        <time>2025-02-02T12:44:10Z</time>
      </trkpt>
      <trkpt lat="46.13267" lon="6.78666">
        <ele>2180.771</ele>
        <time>2025-02-02T12:44:15Z</time>
      </trkpt>
      <trkpt lat="46.13268" lon="6.78669">
        <ele>2181.318</ele>
        <time>2025-02-02T12:44:20Z</time>
      </trkpt>
      <trkpt lat="46.13266" lon="6.78671">
        <ele>2181.77</ele>
        <time>2025-02-02T12:44:25Z</time>
      </trkpt>
      <trkpt lat="46.13263" lon="6.78673">
        <ele>2182.167</ele>
        <time>2025-02-02T12:44:30Z</time>
      </trkpt>
      <trkpt lat="46.13262" lon="6.78675">
        <ele>2183.233</ele>
        <time>2025-02-02T12:44:35Z</time>
      </trkpt>
      <trkpt lat="46.13264" lon="6.78678">
        <ele>2184.683</ele>
        <time>2025-02-02T12:44:40Z</time>
      </trkpt>
      <trkpt lat="46.13266" lon="6.78681">
        <ele>2185.828</ele>
        <time>2025-02-02T12:44:45Z</time>
      </trkpt>
      <trkpt lat="46.13268" lon="6.78683">
        <ele>2187.475</ele>
        <time>2025-02-02T12:44:50Z</time>
      </trkpt>
      <trkpt lat="46.13267" lon="6.78687">
        <ele>2188.051</ele>
        <time>2025-02-02T12:44:55Z</time>
      </trkpt>
      <trkpt lat="46.13265" lon="6.78689">
        <ele>2188.041</ele>
        <time>2025-02-02T12:45:00Z</time>
      </trkpt>
      <trkpt lat="46.13264" lon="6.78692">
        <ele>2187.691</ele>
        <time>2025-02-02T12:45:05Z</time>
      </trkpt>
      <trkpt lat="46.13264" lon="6.78696">
        <ele>2188.257</ele>
        <time>2025-02-02T12:45:10Z</time>
      </trkpt>
      <trkpt lat="46.13265" lon="6.78699">
        <ele>2189.631</ele>
        <time>2025-02-02T12:45:15Z</time>
      </trkpt>
      <trkpt lat="46.13265" lon="6.78702">
        <ele>2190.997</ele>
        <time>2025-02-02T12:45:20Z</time>
      </trkpt>
      <trkpt lat="46.13265" lon="6.78705">
        <ele>2191.998</ele>
        <time>2025-02-02T12:45:25Z</time>
      </trkpt>
      <trkpt lat="46.13265" lon="6.78708">
        <ele>2193.261</ele>
        <time>2025-02-02T12:45:30Z</time>
      </trkpt>
      <trkpt lat="46.13266" lon="6.78712">
        <ele>2193.366</ele>
        <time>2025-02-02T12:45:35Z</time>
      </trkpt>
      <trkpt lat="46.13266" lon="6.78715">
        <ele>2193.707</ele>
        <time>2025-02-02T12:45:40Z</time>
      </trkpt>
      <trkpt lat="46.13267" lon="6.78719">
        <ele>2194.629</ele>
        <time>2025-02-02T12:45:45Z</time>
      </trkpt>
      <trkpt lat="46.13267" lon="6.78722">
        <ele>2194.723</ele>
        <time>2025-02-02T12:45:50Z</time>
      </trkpt>
      <trkpt lat="46.13268" lon="6.78725">
        <ele>2195.786</ele>
        <time>2025-02-02T12:45:55Z</time>
      </trkpt>
      <trkpt lat="46.13268" lon="6.78729">
        <ele>2196.495</ele>
        <time>2025-02-02T12:46:00Z</time>
      </trkpt>
      <trkpt lat="46.13269" lon="6.78732">
        <ele>2196.319</ele>
        <time>2025-02-02T12:46:05Z</time>
      </trkpt>
      <trkpt lat="46.13269" lon="6.78736">
        <ele>2196.519</ele>
        <time>2025-02-02T12:46:10Z</time>
      </trkpt>
      <trkpt lat="46.1327" lon="6.7874">
        <ele>2197.176</ele>
        <time>2025-02-02T12:46:15Z</time>
      </trkpt>
      <trkpt lat="46.1327" lon="6.78745">
        <ele>2197.455</ele>
        <time>2025-02-02T12:46:20Z</time>
      </trkpt>
      <trkpt lat="46.1327" lon="6.78749">
        <ele>2198.531</ele>
        <time>2025-02-02T12:46:25Z</time>
      </trkpt>
      <trkpt lat="46.13271" lon="6.78754">
        <ele>2199.314</ele>
        <time>2025-02-02T12:46:30Z</time>
      </trkpt>
      <trkpt lat="46.13271" lon="6.78758">
        <ele>2200.258</ele>
        <time>2025-02-02T12:46:35Z</time>
      </trkpt>
      <trkpt lat="46.13271" lon="6.78763">
        <ele>2200.587</ele>
        <time>2025-02-02T12:46:40Z</time>
      </trkpt>
      <trkpt lat="46.13272" lon="6.78768">
        <ele>2200.711</ele>
        <time>2025-02-02T12:46:45Z</time>
      </trkpt>
      <trkpt lat="46.13274" lon="6.78774">
        <ele>2201.703</ele>
        <time>2025-02-02T12:46:50Z</time>
      </trkpt>
      <trkpt lat="46.13275" lon="6.78779">
        <ele>2202.312</ele>
        <time>2025-02-02T12:46:55Z</time>
      </trkpt>
      <trkpt lat="46.13275" lon="6.78785">
        <ele>2202.341</ele>
        <time>2025-02-02T12:47:00Z</time>
      </trkpt>
      <trkpt lat="46.13276" lon="6.7879">
        <ele>2203.084</ele>
        <time>2025-02-02T12:47:05Z</time>
      </trkpt>
      <trkpt lat="46.13277" lon="6.78796">
        <ele>2203.152</ele>
        <time>2025-02-02T12:47:10Z</time>
      </trkpt>
      <trkpt lat="46.13278" lon="6.78801">
        <ele>2203.513</ele>
        <time>2025-02-02T12:47:15Z</time>
      </trkpt>
      <trkpt lat="46.13279" lon="6.78807">
        <ele>2203.505</ele>
        <time>2025-02-02T12:47:20Z</time>
      </trkpt>
      <trkpt lat="46.1328" lon="6.78812">
        <ele>2204.441</ele>
        <time>2025-02-02T12:47:25Z</time>
      </trkpt>
      <trkpt lat="46.13281" lon="6.78815">
        <ele>2204.79</ele>
        <time>2025-02-02T12:47:30Z</time>
      </trkpt>
      <trkpt lat="46.1328" lon="6.78815">
        <ele>2205.336</ele>
        <time>2025-02-02T12:47:35Z</time>
      </trkpt>
      <trkpt lat="46.1328" lon="6.78816">
        <ele>2205.091</ele>
        <time>2025-02-02T12:47:40Z</time>
      </trkpt>
      <trkpt lat="46.1328" lon="6.78816">
        <ele>2205.313</ele>
        <time>2025-02-02T12:47:45Z</time>
      </trkpt>
      <trkpt lat="46.1328" lon="6.78816">
        <ele>2205.003</ele>
        <time>2025-02-02T12:47:50Z</time>
      </trkpt>
      <trkpt lat="46.13279" lon="6.78815">
        <ele>2204.683</ele>
        <time>2025-02-02T12:47:55Z</time>
      </trkpt>
      <trkpt lat="46.13279" lon="6.78815">
        <ele>2204.674</ele>
        <time>2025-02-02T12:48:00Z</time>
      </trkpt>
      <trkpt lat="46.13279" lon="6.78815">
        <ele>2204.671</ele>
        <time>2025-02-02T12:48:05Z</time>
      </trkpt>
      <trkpt lat="46.13279" lon="6.78815">
        <ele>2204.584</ele>
        <time>2025-02-02T12:48:10Z</time>
      </trkpt>
      <trkpt lat="46.13279" lon="6.78815">
        <ele>2204.58</ele>
        <time>2025-02-02T12:48:15Z</time>
      </trkpt>
      <trkpt lat="46.13279" lon="6.78815">
        <ele>2204.916</ele>
        <time>2025-02-02T12:48:20Z</time>
      </trkpt>
      <trkpt lat="46.13279" lon="6.78815">
        <ele>2204.912</ele>
        <time>2025-02-02T12:48:25Z</time>
      </trkpt>
      <trkpt lat="46.13279" lon="6.78815">
        <ele>2204.908</ele>
        <time>2025-02-02T12:48:30Z</time>
      </trkpt>
      <trkpt lat="46.13279" lon="6.78815">
        <ele>2204.903</ele>
        <time>2025-02-02T12:48:35Z</time>
      </trkpt>
      <trkpt lat="46.13279" lon="6.78815">
        <ele>2204.902</ele>
        <time>2025-02-02T12:48:40Z</time>
      </trkpt>
      <trkpt lat="46.13279" lon="6.78815">
        <ele>2204.898</ele>
        <time>2025-02-02T12:48:45Z</time>
      </trkpt>
      <trkpt lat="46.13279" lon="6.78815">
        <ele>2204.894</ele>
        <time>2025-02-02T12:48:50Z</time>
      </trkpt>
      <trkpt lat="46.13279" lon="6.78815">
        <ele>2204.893</ele>
        <time>2025-02-02T12:48:55Z</time>
      </trkpt>
      <trkpt lat="46.13279" lon="6.78815">
        <ele>2204.806</ele>
        <time>2025-02-02T12:49:00Z</time>
      </trkpt>
      <trkpt lat="46.13279" lon="6.78815">
        <ele>2204.808</ele>
        <time>2025-02-02T12:49:05Z</time>
      </trkpt>
      <trkpt lat="46.13279" lon="6.78815">
        <ele>2204.81</ele>
        <time>2025-02-02T12:49:10Z</time>
      </trkpt>
      <trkpt lat="46.13279" lon="6.78815">
        <ele>2204.811</ele>
        <time>2025-02-02T12:49:15Z</time>
      </trkpt>
      <trkpt lat="46.13279" lon="6.78815">
        <ele>2204.81</ele>
        <time>2025-02-02T12:49:20Z</time>
      </trkpt>
      <trkpt lat="46.13279" lon="6.78815">
        <ele>2204.806</ele>
        <time>2025-02-02T12:49:25Z</time>
      </trkpt>
      <trkpt lat="46.13279" lon="6.78815">
        <ele>2204.789</ele>
        <time>2025-02-02T12:49:30Z</time>
      </trkpt>
      <trkpt lat="46.13279" lon="6.78815">
        <ele>2204.895</ele>
        <time>2025-02-02T12:49:35Z</time>
      </trkpt>
      <trkpt lat="46.13279" lon="6.78815">
        <ele>2204.506</ele>
        <time>2025-02-02T12:49:40Z</time>
      </trkpt>
      <trkpt lat="46.13279" lon="6.78815">
        <ele>2204.426</ele>
        <time>2025-02-02T12:49:45Z</time>
      </trkpt>
      <trkpt lat="46.1328" lon="6.78816">
        <ele>2204.422</ele>
        <time>2025-02-02T12:49:50Z</time>
      </trkpt>
      <trkpt lat="46.1328" lon="6.78816">
        <ele>2204.417</ele>
        <time>2025-02-02T12:49:55Z</time>
      </trkpt>
      <trkpt lat="46.1328" lon="6.78816">
        <ele>2204.466</ele>
        <time>2025-02-02T12:50:00Z</time>
      </trkpt>
      <trkpt lat="46.1328" lon="6.78824">
        <ele>2204.788</ele>
        <time>2025-02-02T12:50:05Z</time>
      </trkpt>
      <trkpt lat="46.13281" lon="6.78831">
        <ele>2204.624</ele>
        <time>2025-02-02T12:50:10Z</time>
      </trkpt>
      <trkpt lat="46.13281" lon="6.78836">
        <ele>2204.577</ele>
        <time>2025-02-02T12:50:15Z</time>
      </trkpt>
      <trkpt lat="46.13281" lon="6.78841">
        <ele>2204.299</ele>
        <time>2025-02-02T12:50:20Z</time>
      </trkpt>
      <trkpt lat="46.13281" lon="6.78847">
        <ele>2204.415</ele>
        <time>2025-02-02T12:50:25Z</time>
      </trkpt>
      <trkpt lat="46.13281" lon="6.78852">
        <ele>2204.373</ele>
        <time>2025-02-02T12:50:30Z</time>
      </trkpt>
      <trkpt lat="46.13282" lon="6.78858">
        <ele>2204.559</ele>
        <time>2025-02-02T12:50:35Z</time>
      </trkpt>
      <trkpt lat="46.13282" lon="6.78863">
        <ele>2205.126</ele>
        <time>2025-02-02T12:50:40Z</time>
      </trkpt>
      <trkpt lat="46.13283" lon="6.78868">
        <ele>2205.963</ele>
        <time>2025-02-02T12:50:45Z</time>
      </trkpt>
      <trkpt lat="46.13282" lon="6.78873">
        <ele>2206.722</ele>
        <time>2025-02-02T12:50:50Z</time>
      </trkpt>
      <trkpt lat="46.13282" lon="6.78878">
        <ele>2206.936</ele>
        <time>2025-02-02T12:50:55Z</time>
      </trkpt>
      <trkpt lat="46.13282" lon="6.78882">
        <ele>2206.979</ele>
        <time>2025-02-02T12:51:00Z</time>
      </trkpt>
      <trkpt lat="46.13281" lon="6.78886">
        <ele>2206.783</ele>
        <time>2025-02-02T12:51:05Z</time>
      </trkpt>
      <trkpt lat="46.13281" lon="6.78891">
        <ele>2207.636</ele>
        <time>2025-02-02T12:51:10Z</time>
      </trkpt>
      <trkpt lat="46.1328" lon="6.78896">
        <ele>2207.871</ele>
        <time>2025-02-02T12:51:15Z</time>
      </trkpt>
      <trkpt lat="46.1328" lon="6.78901">
        <ele>2208.334</ele>
        <time>2025-02-02T12:51:20Z</time>
      </trkpt>
      <trkpt lat="46.13279" lon="6.78905">
        <ele>2208.748</ele>
        <time>2025-02-02T12:51:25Z</time>
      </trkpt>
      <trkpt lat="46.13278" lon="6.7891">
        <ele>2208.766</ele>
        <time>2025-02-02T12:51:30Z</time>
      </trkpt>
      <trkpt lat="46.13278" lon="6.78915">
        <ele>2209.126</ele>
        <time>2025-02-02T12:51:35Z</time>
      </trkpt>
      <trkpt lat="46.13278" lon="6.78919">
        <ele>2209.684</ele>
        <time>2025-02-02T12:51:40Z</time>
      </trkpt>
      <trkpt lat="46.13278" lon="6.78924">
        <ele>2209.468</ele>
        <time>2025-02-02T12:51:45Z</time>
      </trkpt>
      <trkpt lat="46.13278" lon="6.78929">
        <ele>2209.711</ele>
        <time>2025-02-02T12:51:50Z</time>
      </trkpt>
      <trkpt lat="46.13278" lon="6.78933">
        <ele>2210.395</ele>
        <time>2025-02-02T12:51:55Z</time>
      </trkpt>
      <trkpt lat="46.13278" lon="6.78939">
        <ele>2210.962</ele>
        <time>2025-02-02T12:52:00Z</time>
      </trkpt>
      <trkpt lat="46.13278" lon="6.78944">
        <ele>2210.69</ele>
        <time>2025-02-02T12:52:05Z</time>
      </trkpt>
      <trkpt lat="46.13279" lon="6.78948">
        <ele>2211.145</ele>
        <time>2025-02-02T12:52:10Z</time>
      </trkpt>
      <trkpt lat="46.1328" lon="6.78951">
        <ele>2212.016</ele>
        <time>2025-02-02T12:52:15Z</time>
      </trkpt>
      <trkpt lat="46.13281" lon="6.78955">
        <ele>2212.751</ele>
        <time>2025-02-02T12:52:20Z</time>
      </trkpt>
      <trkpt lat="46.13283" lon="6.7896">
        <ele>2213.127</ele>
        <time>2025-02-02T12:52:25Z</time>
      </trkpt>
      <trkpt lat="46.13284" lon="6.78963">
        <ele>2214.001</ele>
        <time>2025-02-02T12:52:30Z</time>
      </trkpt>
      <trkpt lat="46.13285" lon="6.78965">
        <ele>2214.391</ele>
        <time>2025-02-02T12:52:35Z</time>
      </trkpt>
      <trkpt lat="46.13285" lon="6.78965">
        <ele>2214.478</ele>
        <time>2025-02-02T12:52:40Z</time>
      </trkpt>
      <trkpt lat="46.13285" lon="6.78965">
        <ele>2214.419</ele>
        <time>2025-02-02T12:52:45Z</time>
      </trkpt>
      <trkpt lat="46.13285" lon="6.78965">
        <ele>2214.354</ele>
        <time>2025-02-02T12:52:50Z</time>
      </trkpt>
      <trkpt lat="46.13285" lon="6.78965">
        <ele>2214.347</ele>
        <time>2025-02-02T12:52:55Z</time>
      </trkpt>
      <trkpt lat="46.13285" lon="6.78965">
        <ele>2214.43</ele>
        <time>2025-02-02T12:53:00Z</time>
      </trkpt>
      <trkpt lat="46.13285" lon="6.78965">
        <ele>2214.428</ele>
        <time>2025-02-02T12:53:05Z</time>
      </trkpt>
      <trkpt lat="46.13285" lon="6.78965">
        <ele>2214.425</ele>
        <time>2025-02-02T12:53:10Z</time>
      </trkpt>
      <trkpt lat="46.13285" lon="6.78965">
        <ele>2214.424</ele>
        <time>2025-02-02T12:53:15Z</time>
      </trkpt>
      <trkpt lat="46.13285" lon="6.78965">
        <ele>2214.427</ele>
        <time>2025-02-02T12:53:20Z</time>
      </trkpt>
      <trkpt lat="46.13285" lon="6.78965">
        <ele>2214.422</ele>
        <time>2025-02-02T12:53:25Z</time>
      </trkpt>
      <trkpt lat="46.13285" lon="6.78965">
        <ele>2214.425</ele>
        <time>2025-02-02T12:53:30Z</time>
      </trkpt>
      <trkpt lat="46.13285" lon="6.78965">
        <ele>2214.428</ele>
        <time>2025-02-02T12:53:35Z</time>
      </trkpt>
      <trkpt lat="46.13285" lon="6.78965">
        <ele>2214.418</ele>
        <time>2025-02-02T12:53:40Z</time>
      </trkpt>
      <trkpt lat="46.13285" lon="6.78965">
        <ele>2214.449</ele>
        <time>2025-02-02T12:53:45Z</time>
      </trkpt>
      <trkpt lat="46.13285" lon="6.78965">
        <ele>2214.452</ele>
        <time>2025-02-02T12:53:50Z</time>
      </trkpt>
      <trkpt lat="46.13285" lon="6.78965">
        <ele>2214.494</ele>
        <time>2025-02-02T12:53:55Z</time>
      </trkpt>
      <trkpt lat="46.13285" lon="6.78965">
        <ele>2214.36</ele>
        <time>2025-02-02T12:54:00Z</time>
      </trkpt>
      <trkpt lat="46.13285" lon="6.78965">
        <ele>2214.359</ele>
        <time>2025-02-02T12:54:05Z</time>
      </trkpt>
      <trkpt lat="46.13285" lon="6.78965">
        <ele>2214.063</ele>
        <time>2025-02-02T12:54:10Z</time>
      </trkpt>
      <trkpt lat="46.13285" lon="6.78965">
        <ele>2214.076</ele>
        <time>2025-02-02T12:54:15Z</time>
      </trkpt>
      <trkpt lat="46.13285" lon="6.78965">
        <ele>2214.022</ele>
        <time>2025-02-02T12:54:20Z</time>
      </trkpt>
      <trkpt lat="46.13285" lon="6.78965">
        <ele>2214.019</ele>
        <time>2025-02-02T12:54:25Z</time>
      </trkpt>
      <trkpt lat="46.13285" lon="6.78965">
        <ele>2214.017</ele>
        <time>2025-02-02T12:54:30Z</time>
      </trkpt>
      <trkpt lat="46.13285" lon="6.78965">
        <ele>2214.013</ele>
        <time>2025-02-02T12:54:35Z</time>
      </trkpt>
      <trkpt lat="46.13285" lon="6.78965">
        <ele>2214.008</ele>
        <time>2025-02-02T12:54:40Z</time>
      </trkpt>
      <trkpt lat="46.13285" lon="6.78965">
        <ele>2214.342</ele>
        <time>2025-02-02T12:54:45Z</time>
      </trkpt>
      <trkpt lat="46.13285" lon="6.78965">
        <ele>2213.857</ele>
        <time>2025-02-02T12:54:50Z</time>
      </trkpt>
      <trkpt lat="46.13285" lon="6.78965">
        <ele>2214.503</ele>
        <time>2025-02-02T12:54:55Z</time>
      </trkpt>
      <trkpt lat="46.13285" lon="6.78965">
        <ele>2214.503</ele>
        <time>2025-02-02T12:55:00Z</time>
      </trkpt>
      <trkpt lat="46.13285" lon="6.78965">
        <ele>2214.5</ele>
        <time>2025-02-02T12:55:05Z</time>
      </trkpt>
      <trkpt lat="46.13285" lon="6.78965">
        <ele>2214.501</ele>
        <time>2025-02-02T12:55:10Z</time>
      </trkpt>
      <trkpt lat="46.13285" lon="6.78965">
        <ele>2214.505</ele>
        <time>2025-02-02T12:55:15Z</time>
      </trkpt>
      <trkpt lat="46.13285" lon="6.78965">
        <ele>2214.504</ele>
        <time>2025-02-02T12:55:20Z</time>
      </trkpt>
      <trkpt lat="46.13285" lon="6.78965">
        <ele>2214.501</ele>
        <time>2025-02-02T12:55:25Z</time>
      </trkpt>
      <trkpt lat="46.13285" lon="6.78965">
        <ele>2214.507</ele>
        <time>2025-02-02T12:55:30Z</time>
      </trkpt>
      <trkpt lat="46.13285" lon="6.78965">
        <ele>2214.509</ele>
        <time>2025-02-02T12:55:35Z</time>
      </trkpt>
      <trkpt lat="46.13285" lon="6.78965">
        <ele>2214.507</ele>
        <time>2025-02-02T12:55:40Z</time>
      </trkpt>
      <trkpt lat="46.13285" lon="6.78965">
        <ele>2214.501</ele>
        <time>2025-02-02T12:55:45Z</time>
      </trkpt>
      <trkpt lat="46.13285" lon="6.78965">
        <ele>2214.502</ele>
        <time>2025-02-02T12:55:50Z</time>
      </trkpt>
      <trkpt lat="46.13285" lon="6.78965">
        <ele>2214.498</ele>
        <time>2025-02-02T12:55:55Z</time>
      </trkpt>
      <trkpt lat="46.13285" lon="6.78965">
        <ele>2214.495</ele>
        <time>2025-02-02T12:56:00Z</time>
      </trkpt>
      <trkpt lat="46.13285" lon="6.78965">
        <ele>2214.492</ele>
        <time>2025-02-02T12:56:05Z</time>
      </trkpt>
      <trkpt lat="46.13285" lon="6.78965">
        <ele>2214.491</ele>
        <time>2025-02-02T12:56:10Z</time>
      </trkpt>
      <trkpt lat="46.13285" lon="6.78965">
        <ele>2214.492</ele>
        <time>2025-02-02T12:56:15Z</time>
      </trkpt>
      <trkpt lat="46.13285" lon="6.78965">
        <ele>2214.492</ele>
        <time>2025-02-02T12:56:20Z</time>
      </trkpt>
      <trkpt lat="46.13285" lon="6.78965">
        <ele>2214.494</ele>
        <time>2025-02-02T12:56:25Z</time>
      </trkpt>
      <trkpt lat="46.13285" lon="6.78965">
        <ele>2214.492</ele>
        <time>2025-02-02T12:56:30Z</time>
      </trkpt>
      <trkpt lat="46.13285" lon="6.78965">
        <ele>2214.491</ele>
        <time>2025-02-02T12:56:35Z</time>
      </trkpt>
      <trkpt lat="46.13285" lon="6.78965">
        <ele>2214.489</ele>
        <time>2025-02-02T12:56:40Z</time>
      </trkpt>
      <trkpt lat="46.13285" lon="6.78965">
        <ele>2214.493</ele>
        <time>2025-02-02T12:56:45Z</time>
      </trkpt>
      <trkpt lat="46.13285" lon="6.78965">
        <ele>2214.491</ele>
        <time>2025-02-02T12:56:50Z</time>
      </trkpt>
      <trkpt lat="46.13285" lon="6.78965">
        <ele>2214.483</ele>
        <time>2025-02-02T12:56:55Z</time>
      </trkpt>
      <trkpt lat="46.13285" lon="6.78965">
        <ele>2214.484</ele>
        <time>2025-02-02T12:57:00Z</time>
      </trkpt>
      <trkpt lat="46.13285" lon="6.78965">
        <ele>2214.483</ele>
        <time>2025-02-02T12:57:05Z</time>
      </trkpt>
      <trkpt lat="46.13285" lon="6.78965">
        <ele>2214.479</ele>
        <time>2025-02-02T12:57:10Z</time>
      </trkpt>
      <trkpt lat="46.13285" lon="6.78965">
        <ele>2214.476</ele>
        <time>2025-02-02T12:57:15Z</time>
      </trkpt>
      <trkpt lat="46.13285" lon="6.78965">
        <ele>2214.529</ele>
        <time>2025-02-02T12:57:20Z</time>
      </trkpt>
      <trkpt lat="46.13285" lon="6.78965">
        <ele>2214.205</ele>
        <time>2025-02-02T12:57:25Z</time>
      </trkpt>
      <trkpt lat="46.13287" lon="6.78972">
        <ele>2213.652</ele>
        <time>2025-02-02T12:57:30Z</time>
      </trkpt>
      <trkpt lat="46.13288" lon="6.78976">
        <ele>2213.738</ele>
        <time>2025-02-02T12:57:35Z</time>
      </trkpt>
      <trkpt lat="46.13289" lon="6.78982">
        <ele>2214.568</ele>
        <time>2025-02-02T12:57:40Z</time>
      </trkpt>
      <trkpt lat="46.13289" lon="6.78988">
        <ele>2214.366</ele>
        <time>2025-02-02T12:57:45Z</time>
      </trkpt>
      <trkpt lat="46.13289" lon="6.78995">
        <ele>2215.176</ele>
        <time>2025-02-02T12:57:50Z</time>
      </trkpt>
      <trkpt lat="46.13291" lon="6.79">
        <ele>2215.259</ele>
        <time>2025-02-02T12:57:55Z</time>
      </trkpt>
      <trkpt lat="46.13292" lon="6.79006">
        <ele>2215.951</ele>
        <time>2025-02-02T12:58:00Z</time>
      </trkpt>
      <trkpt lat="46.13294" lon="6.79013">
        <ele>2216.216</ele>
        <time>2025-02-02T12:58:05Z</time>
      </trkpt>
      <trkpt lat="46.13295" lon="6.79018">
        <ele>2216.897</ele>
        <time>2025-02-02T12:58:10Z</time>
      </trkpt>
      <trkpt lat="46.13296" lon="6.79024">
        <ele>2217.298</ele>
        <time>2025-02-02T12:58:15Z</time>
      </trkpt>
      <trkpt lat="46.13297" lon="6.79029">
        <ele>2217.619</ele>
        <time>2025-02-02T12:58:20Z</time>
      </trkpt>
      <trkpt lat="46.13298" lon="6.79034">
        <ele>2218.612</ele>
        <time>2025-02-02T12:58:25Z</time>
      </trkpt>
      <trkpt lat="46.13299" lon="6.79039">
        <ele>2219.83</ele>
        <time>2025-02-02T12:58:30Z</time>
      </trkpt>
      <trkpt lat="46.13299" lon="6.79043">
        <ele>2220.818</ele>
        <time>2025-02-02T12:58:35Z</time>
      </trkpt>
      <trkpt lat="46.13299" lon="6.79047">
        <ele>2221.788</ele>
        <time>2025-02-02T12:58:40Z</time>
      </trkpt>
      <trkpt lat="46.13298" lon="6.79051">
        <ele>2222.622</ele>
        <time>2025-02-02T12:58:45Z</time>
      </trkpt>
      <trkpt lat="46.13297" lon="6.79055">
        <ele>2223.612</ele>
        <time>2025-02-02T12:58:50Z</time>
      </trkpt>
      <trkpt lat="46.13296" lon="6.79059">
        <ele>2224.899</ele>
        <time>2025-02-02T12:58:55Z</time>
      </trkpt>
      <trkpt lat="46.13296" lon="6.79063">
        <ele>2225.638</ele>
        <time>2025-02-02T12:59:00Z</time>
      </trkpt>
      <trkpt lat="46.13296" lon="6.79067">
        <ele>2226.77</ele>
        <time>2025-02-02T12:59:05Z</time>
      </trkpt>
      <trkpt lat="46.13297" lon="6.7907">
        <ele>2227.375</ele>
        <time>2025-02-02T12:59:10Z</time>
      </trkpt>
      <trkpt lat="46.13298" lon="6.79074">
        <ele>2227.011</ele>
        <time>2025-02-02T12:59:15Z</time>
      </trkpt>
      <trkpt lat="46.13299" lon="6.79077">
        <ele>2227.61</ele>
        <time>2025-02-02T12:59:20Z</time>
      </trkpt>
      <trkpt lat="46.13301" lon="6.79082">
        <ele>2229.012</ele>
        <time>2025-02-02T12:59:25Z</time>
      </trkpt>
      <trkpt lat="46.13302" lon="6.79085">
        <ele>2230.187</ele>
        <time>2025-02-02T12:59:30Z</time>
      </trkpt>
      <trkpt lat="46.13304" lon="6.79087">
        <ele>2230.967</ele>
        <time>2025-02-02T12:59:35Z</time>
      </trkpt>
      <trkpt lat="46.13307" lon="6.79086">
        <ele>2230.775</ele>
        <time>2025-02-02T12:59:40Z</time>
      </trkpt>
      <trkpt lat="46.1331" lon="6.79086">
        <ele>2231.587</ele>
        <time>2025-02-02T12:59:45Z</time>
      </trkpt>
      <trkpt lat="46.13313" lon="6.79085">
        <ele>2232.337</ele>
        <time>2025-02-02T12:59:50Z</time>
      </trkpt>
      <trkpt lat="46.13315" lon="6.79085">
        <ele>2233.17</ele>
        <time>2025-02-02T12:59:55Z</time>
      </trkpt>
      <trkpt lat="46.13317" lon="6.79085">
        <ele>2233.821</ele>
        <time>2025-02-02T13:00:00Z</time>
      </trkpt>
      <trkpt lat="46.13318" lon="6.79085">
        <ele>2233.927</ele>
        <time>2025-02-02T13:00:05Z</time>
      </trkpt>
      <trkpt lat="46.13318" lon="6.79087">
        <ele>2234.188</ele>
        <time>2025-02-02T13:00:10Z</time>
      </trkpt>
      <trkpt lat="46.1332" lon="6.79089">
        <ele>2234.662</ele>
        <time>2025-02-02T13:00:15Z</time>
      </trkpt>
      <trkpt lat="46.13322" lon="6.79092">
        <ele>2235.4</ele>
        <time>2025-02-02T13:00:20Z</time>
      </trkpt>
      <trkpt lat="46.13323" lon="6.79095">
        <ele>2236.477</ele>
        <time>2025-02-02T13:00:25Z</time>
      </trkpt>
      <trkpt lat="46.13325" lon="6.79099">
        <ele>2236.754</ele>
        <time>2025-02-02T13:00:30Z</time>
      </trkpt>
      <trkpt lat="46.13327" lon="6.79103">
        <ele>2237.385</ele>
        <time>2025-02-02T13:00:35Z</time>
      </trkpt>
      <trkpt lat="46.13328" lon="6.79106">
        <ele>2237.704</ele>
        <time>2025-02-02T13:00:40Z</time>
      </trkpt>
      <trkpt lat="46.1333" lon="6.79109">
        <ele>2238.644</ele>
        <time>2025-02-02T13:00:45Z</time>
      </trkpt>
      <trkpt lat="46.13333" lon="6.79112">
        <ele>2239.78</ele>
        <time>2025-02-02T13:00:50Z</time>
      </trkpt>
      <trkpt lat="46.13336" lon="6.79115">
        <ele>2240.987</ele>
        <time>2025-02-02T13:00:55Z</time>
      </trkpt>
      <trkpt lat="46.13337" lon="6.79117">
        <ele>2240.967</ele>
        <time>2025-02-02T13:01:00Z</time>
      </trkpt>
      <trkpt lat="46.1334" lon="6.7912">
        <ele>2241.069</ele>
        <time>2025-02-02T13:01:05Z</time>
      </trkpt>
      <trkpt lat="46.13342" lon="6.79124">
        <ele>2241.96</ele>
        <time>2025-02-02T13:01:10Z</time>
      </trkpt>
      <trkpt lat="46.13344" lon="6.79128">
        <ele>2243.153</ele>
        <time>2025-02-02T13:01:15Z</time>
      </trkpt>
      <trkpt lat="46.13346" lon="6.79131">
        <ele>2243.927</ele>
        <time>2025-02-02T13:01:20Z</time>
      </trkpt>
      <trkpt lat="46.13347" lon="6.79134">
        <ele>2244.295</ele>
        <time>2025-02-02T13:01:25Z</time>
      </trkpt>
      <trkpt lat="46.1335" lon="6.79137">
        <ele>2245.678</ele>
        <time>2025-02-02T13:01:30Z</time>
      </trkpt>
      <trkpt lat="46.13352" lon="6.79141">
        <ele>2245.736</ele>
        <time>2025-02-02T13:01:35Z</time>
      </trkpt>
      <trkpt lat="46.13354" lon="6.79143">
        <ele>2246.484</ele>
        <time>2025-02-02T13:01:40Z</time>
      </trkpt>
      <trkpt lat="46.13357" lon="6.79146">
        <ele>2247.139</ele>
        <time>2025-02-02T13:01:45Z</time>
      </trkpt>
      <trkpt lat="46.13359" lon="6.79149">
        <ele>2248.266</ele>
        <time>2025-02-02T13:01:50Z</time>
      </trkpt>
      <trkpt lat="46.13361" lon="6.79153">
        <ele>2248.671</ele>
        <time>2025-02-02T13:01:55Z</time>
      </trkpt>
      <trkpt lat="46.13363" lon="6.79156">
        <ele>2248.961</ele>
        <time>2025-02-02T13:02:00Z</time>
      </trkpt>
      <trkpt lat="46.13364" lon="6.7916">
        <ele>2250.054</ele>
        <time>2025-02-02T13:02:05Z</time>
      </trkpt>
      <trkpt lat="46.13366" lon="6.79164">
        <ele>2250.537</ele>
        <time>2025-02-02T13:02:10Z</time>
      </trkpt>
      <trkpt lat="46.13367" lon="6.79167">
        <ele>2251.148</ele>
        <time>2025-02-02T13:02:15Z</time>
      </trkpt>
      <trkpt lat="46.13369" lon="6.79171">
        <ele>2251.882</ele>
        <time>2025-02-02T13:02:20Z</time>
      </trkpt>
      <trkpt lat="46.1337" lon="6.79173">
        <ele>2252.837</ele>
        <time>2025-02-02T13:02:25Z</time>
      </trkpt>
      <trkpt lat="46.13371" lon="6.79175">
        <ele>2253.759</ele>
        <time>2025-02-02T13:02:30Z</time>
      </trkpt>
      <trkpt lat="46.13372" lon="6.79178">
        <ele>2253.482</ele>
        <time>2025-02-02T13:02:35Z</time>
      </trkpt>
      <trkpt lat="46.13373" lon="6.79182">
        <ele>2254.721</ele>
        <time>2025-02-02T13:02:40Z</time>
      </trkpt>
      <trkpt lat="46.13375" lon="6.79185">
        <ele>2255.322</ele>
        <time>2025-02-02T13:02:45Z</time>
      </trkpt>
      <trkpt lat="46.13376" lon="6.79188">
        <ele>2256.175</ele>
        <time>2025-02-02T13:02:50Z</time>
      </trkpt>
      <trkpt lat="46.13378" lon="6.79189">
        <ele>2256.577</ele>
        <time>2025-02-02T13:02:55Z</time>
      </trkpt>
      <trkpt lat="46.13379" lon="6.79192">
        <ele>2257.205</ele>
        <time>2025-02-02T13:03:00Z</time>
      </trkpt>
      <trkpt lat="46.13381" lon="6.79193">
        <ele>2257.385</ele>
        <time>2025-02-02T13:03:05Z</time>
      </trkpt>
      <trkpt lat="46.13382" lon="6.79195">
        <ele>2258.294</ele>
        <time>2025-02-02T13:03:10Z</time>
      </trkpt>
      <trkpt lat="46.13383" lon="6.79197">
        <ele>2258.765</ele>
        <time>2025-02-02T13:03:15Z</time>
      </trkpt>
      <trkpt lat="46.13383" lon="6.79197">
        <ele>2258.734</ele>
        <time>2025-02-02T13:03:20Z</time>
      </trkpt>
      <trkpt lat="46.13384" lon="6.79199">
        <ele>2258.995</ele>
        <time>2025-02-02T13:03:25Z</time>
      </trkpt>
      <trkpt lat="46.13384" lon="6.79199">
        <ele>2258.998</ele>
        <time>2025-02-02T13:03:30Z</time>
      </trkpt>
      <trkpt lat="46.13384" lon="6.792">
        <ele>2259.171</ele>
        <time>2025-02-02T13:03:35Z</time>
      </trkpt>
      <trkpt lat="46.13386" lon="6.79203">
        <ele>2259.713</ele>
        <time>2025-02-02T13:03:40Z</time>
      </trkpt>
      <trkpt lat="46.13387" lon="6.79209">
        <ele>2260.91</ele>
        <time>2025-02-02T13:03:45Z</time>
      </trkpt>
      <trkpt lat="46.13388" lon="6.79214">
        <ele>2261.653</ele>
        <time>2025-02-02T13:03:50Z</time>
      </trkpt>
      <trkpt lat="46.1339" lon="6.79219">
        <ele>2262.452</ele>
        <time>2025-02-02T13:03:55Z</time>
      </trkpt>
      <trkpt lat="46.13391" lon="6.79223">
        <ele>2263.016</ele>
        <time>2025-02-02T13:04:00Z</time>
      </trkpt>
      <trkpt lat="46.13393" lon="6.79226">
        <ele>2263.124</ele>
        <time>2025-02-02T13:04:05Z</time>
      </trkpt>
      <trkpt lat="46.13394" lon="6.7923">
        <ele>2263.547</ele>
        <time>2025-02-02T13:04:10Z</time>
      </trkpt>
      <trkpt lat="46.13396" lon="6.79235">
        <ele>2264.653</ele>
        <time>2025-02-02T13:04:15Z</time>
      </trkpt>
      <trkpt lat="46.13397" lon="6.79239">
        <ele>2265.622</ele>
        <time>2025-02-02T13:04:20Z</time>
      </trkpt>
      <trkpt lat="46.13399" lon="6.79241">
        <ele>2265.316</ele>
        <time>2025-02-02T13:04:25Z</time>
      </trkpt>
      <trkpt lat="46.13401" lon="6.79245">
        <ele>2266.439</ele>
        <time>2025-02-02T13:04:30Z</time>
      </trkpt>
      <trkpt lat="46.13403" lon="6.79247">
        <ele>2267.553</ele>
        <time>2025-02-02T13:04:35Z</time>
      </trkpt>
      <trkpt lat="46.13404" lon="6.7925">
        <ele>2268.491</ele>
        <time>2025-02-02T13:04:40Z</time>
      </trkpt>
      <trkpt lat="46.13406" lon="6.79254">
        <ele>2269.321</ele>
        <time>2025-02-02T13:04:45Z</time>
      </trkpt>
      <trkpt lat="46.13407" lon="6.79257">
        <ele>2269.686</ele>
        <time>2025-02-02T13:04:50Z</time>
      </trkpt>
      <trkpt lat="46.13409" lon="6.7926">
        <ele>2269.991</ele>
        <time>2025-02-02T13:04:55Z</time>
      </trkpt>
      <trkpt lat="46.1341" lon="6.79264">
        <ele>2270.456</ele>
        <time>2025-02-02T13:05:00Z</time>
      </trkpt>
      <trkpt lat="46.13411" lon="6.79269">
        <ele>2271.38</ele>
        <time>2025-02-02T13:05:05Z</time>
      </trkpt>
      <trkpt lat="46.13412" lon="6.79272">
        <ele>2271.579</ele>
        <time>2025-02-02T13:05:10Z</time>
      </trkpt>
      <trkpt lat="46.13414" lon="6.79275">
        <ele>2271.959</ele>
        <time>2025-02-02T13:05:15Z</time>
      </trkpt>
      <trkpt lat="46.13416" lon="6.79277">
        <ele>2273.179</ele>
        <time>2025-02-02T13:05:20Z</time>
      </trkpt>
      <trkpt lat="46.13418" lon="6.79279">
        <ele>2275.008</ele>
        <time>2025-02-02T13:05:25Z</time>
      </trkpt>
      <trkpt lat="46.1342" lon="6.79281">
        <ele>2274.733</ele>
        <time>2025-02-02T13:05:30Z</time>
      </trkpt>
      <trkpt lat="46.13422" lon="6.79284">
        <ele>2275.307</ele>
        <time>2025-02-02T13:05:35Z</time>
      </trkpt>
      <trkpt lat="46.13423" lon="6.79288">
        <ele>2276.889</ele>
        <time>2025-02-02T13:05:40Z</time>
      </trkpt>
      <trkpt lat="46.13424" lon="6.79292">
        <ele>2277.005</ele>
        <time>2025-02-02T13:05:45Z</time>
      </trkpt>
      <trkpt lat="46.13426" lon="6.79295">
        <ele>2276.905</ele>
        <time>2025-02-02T13:05:50Z</time>
      </trkpt>
      <trkpt lat="46.13427" lon="6.79298">
        <ele>2277.875</ele>
        <time>2025-02-02T13:05:55Z</time>
      </trkpt>
      <trkpt lat="46.13428" lon="6.79301">
        <ele>2279.089</ele>
        <time>2025-02-02T13:06:00Z</time>
      </trkpt>
      <trkpt lat="46.13429" lon="6.79304">
        <ele>2280.245</ele>
        <time>2025-02-02T13:06:05Z</time>
      </trkpt>
      <trkpt lat="46.13431" lon="6.79306">
        <ele>2280.653</ele>
        <time>2025-02-02T13:06:10Z</time>
      </trkpt>
      <trkpt lat="46.13434" lon="6.79307">
        <ele>2281.482</ele>
        <time>2025-02-02T13:06:15Z</time>
      </trkpt>
      <trkpt lat="46.13436" lon="6.79309">
        <ele>2282.743</ele>
        <time>2025-02-02T13:06:20Z</time>
      </trkpt>
      <trkpt lat="46.13437" lon="6.79313">
        <ele>2283.6</ele>
        <time>2025-02-02T13:06:25Z</time>
      </trkpt>
      <trkpt lat="46.13438" lon="6.79317">
        <ele>2283.869</ele>
        <time>2025-02-02T13:06:30Z</time>
      </trkpt>
      <trkpt lat="46.1344" lon="6.7932">
        <ele>2283.815</ele>
        <time>2025-02-02T13:06:35Z</time>
      </trkpt>
      <trkpt lat="46.13442" lon="6.79324">
        <ele>2283.949</ele>
        <time>2025-02-02T13:06:40Z</time>
      </trkpt>
      <trkpt lat="46.13445" lon="6.79327">
        <ele>2284.327</ele>
        <time>2025-02-02T13:06:45Z</time>
      </trkpt>
      <trkpt lat="46.13447" lon="6.7933">
        <ele>2285.905</ele>
        <time>2025-02-02T13:06:50Z</time>
      </trkpt>
      <trkpt lat="46.1345" lon="6.79332">
        <ele>2285.962</ele>
        <time>2025-02-02T13:06:55Z</time>
      </trkpt>
      <trkpt lat="46.13453" lon="6.79335">
        <ele>2286.644</ele>
        <time>2025-02-02T13:07:00Z</time>
      </trkpt>
      <trkpt lat="46.13454" lon="6.79338">
        <ele>2286.49</ele>
        <time>2025-02-02T13:07:05Z</time>
      </trkpt>
      <trkpt lat="46.13457" lon="6.79342">
        <ele>2286.88</ele>
        <time>2025-02-02T13:07:10Z</time>
      </trkpt>
      <trkpt lat="46.13459" lon="6.79346">
        <ele>2287.292</ele>
        <time>2025-02-02T13:07:15Z</time>
      </trkpt>
      <trkpt lat="46.13461" lon="6.7935">
        <ele>2288.255</ele>
        <time>2025-02-02T13:07:20Z</time>
      </trkpt>
      <trkpt lat="46.13463" lon="6.79354">
        <ele>2288.29</ele>
        <time>2025-02-02T13:07:25Z</time>
      </trkpt>
      <trkpt lat="46.13466" lon="6.79358">
        <ele>2288.424</ele>
        <time>2025-02-02T13:07:30Z</time>
      </trkpt>
      <trkpt lat="46.13467" lon="6.79364">
        <ele>2289.28</ele>
        <time>2025-02-02T13:07:35Z</time>
      </trkpt>
      <trkpt lat="46.1347" lon="6.79368">
        <ele>2289.94</ele>
        <time>2025-02-02T13:07:40Z</time>
      </trkpt>
      <trkpt lat="46.13472" lon="6.79371">
        <ele>2291.144</ele>
        <time>2025-02-02T13:07:45Z</time>
      </trkpt>
      <trkpt lat="46.13474" lon="6.79374">
        <ele>2292.213</ele>
        <time>2025-02-02T13:07:50Z</time>
      </trkpt>
      <trkpt lat="46.13476" lon="6.79377">
        <ele>2292.849</ele>
        <time>2025-02-02T13:07:55Z</time>
      </trkpt>
      <trkpt lat="46.13478" lon="6.7938">
        <ele>2294.315</ele>
        <time>2025-02-02T13:08:00Z</time>
      </trkpt>
      <trkpt lat="46.1348" lon="6.79384">
        <ele>2294.889</ele>
        <time>2025-02-02T13:08:05Z</time>
      </trkpt>
      <trkpt lat="46.13482" lon="6.79388">
        <ele>2296.178</ele>
        <time>2025-02-02T13:08:10Z</time>
      </trkpt>
      <trkpt lat="46.13483" lon="6.79392">
        <ele>2296.83</ele>
        <time>2025-02-02T13:08:15Z</time>
      </trkpt>
      <trkpt lat="46.13483" lon="6.79396">
        <ele>2296.908</ele>
        <time>2025-02-02T13:08:20Z</time>
      </trkpt>
      <trkpt lat="46.13483" lon="6.79401">
        <ele>2298.157</ele>
        <time>2025-02-02T13:08:25Z</time>
      </trkpt>
      <trkpt lat="46.13483" lon="6.79405">
        <ele>2298.903</ele>
        <time>2025-02-02T13:08:30Z</time>
      </trkpt>
      <trkpt lat="46.13483" lon="6.79411">
        <ele>2299.478</ele>
        <time>2025-02-02T13:08:35Z</time>
      </trkpt>
      <trkpt lat="46.13485" lon="6.79415">
        <ele>2300.174</ele>
        <time>2025-02-02T13:08:40Z</time>
      </trkpt>
      <trkpt lat="46.13486" lon="6.79418">
        <ele>2300.712</ele>
        <time>2025-02-02T13:08:45Z</time>
      </trkpt>
      <trkpt lat="46.13488" lon="6.7942">
        <ele>2300.539</ele>
        <time>2025-02-02T13:08:50Z</time>
      </trkpt>
      <trkpt lat="46.1349" lon="6.79423">
        <ele>2301.431</ele>
        <time>2025-02-02T13:08:55Z</time>
      </trkpt>
      <trkpt lat="46.13493" lon="6.79426">
        <ele>2301.882</ele>
        <time>2025-02-02T13:09:00Z</time>
      </trkpt>
      <trkpt lat="46.13494" lon="6.79428">
        <ele>2302.11</ele>
        <time>2025-02-02T13:09:05Z</time>
      </trkpt>
      <trkpt lat="46.13496" lon="6.79431">
        <ele>2302.877</ele>
        <time>2025-02-02T13:09:10Z</time>
      </trkpt>
      <trkpt lat="46.13497" lon="6.79433">
        <ele>2304.232</ele>
        <time>2025-02-02T13:09:15Z</time>
      </trkpt>
      <trkpt lat="46.13499" lon="6.79434">
        <ele>2304.993</ele>
        <time>2025-02-02T13:09:20Z</time>
      </trkpt>
      <trkpt lat="46.13501" lon="6.79437">
        <ele>2306.271</ele>
        <time>2025-02-02T13:09:25Z</time>
      </trkpt>
      <trkpt lat="46.13502" lon="6.79439">
        <ele>2307.04</ele>
        <time>2025-02-02T13:09:30Z</time>
      </trkpt>
      <trkpt lat="46.13503" lon="6.79441">
        <ele>2307.969</ele>
        <time>2025-02-02T13:09:35Z</time>
      </trkpt>
      <trkpt lat="46.13504" lon="6.79443">
        <ele>2308.868</ele>
        <time>2025-02-02T13:09:40Z</time>
      </trkpt>
      <trkpt lat="46.13503" lon="6.79446">
        <ele>2309.807</ele>
        <time>2025-02-02T13:09:45Z</time>
      </trkpt>
      <trkpt lat="46.13502" lon="6.79449">
        <ele>2310.597</ele>
        <time>2025-02-02T13:09:50Z</time>
      </trkpt>
      <trkpt lat="46.135" lon="6.79451">
        <ele>2311.337</ele>
        <time>2025-02-02T13:09:55Z</time>
      </trkpt>
      <trkpt lat="46.13499" lon="6.79454">
        <ele>2312.816</ele>
        <time>2025-02-02T13:10:00Z</time>
      </trkpt>
      <trkpt lat="46.13498" lon="6.79457">
        <ele>2313.239</ele>
        <time>2025-02-02T13:10:05Z</time>
      </trkpt>
      <trkpt lat="46.13497" lon="6.7946">
        <ele>2313.851</ele>
        <time>2025-02-02T13:10:10Z</time>
      </trkpt>
      <trkpt lat="46.13496" lon="6.79463">
        <ele>2315.216</ele>
        <time>2025-02-02T13:10:15Z</time>
      </trkpt>
      <trkpt lat="46.13495" lon="6.79467">
        <ele>2316.298</ele>
        <time>2025-02-02T13:10:20Z</time>
      </trkpt>
      <trkpt lat="46.13495" lon="6.7947">
        <ele>2316.426</ele>
        <time>2025-02-02T13:10:25Z</time>
      </trkpt>
      <trkpt lat="46.13494" lon="6.79473">
        <ele>2316.58</ele>
        <time>2025-02-02T13:10:30Z</time>
      </trkpt>
      <trkpt lat="46.13493" lon="6.79476">
        <ele>2316.881</ele>
        <time>2025-02-02T13:10:35Z</time>
      </trkpt>
      <trkpt lat="46.13493" lon="6.79479">
        <ele>2317.465</ele>
        <time>2025-02-02T13:10:40Z</time>
      </trkpt>
      <trkpt lat="46.13492" lon="6.79483">
        <ele>2318.191</ele>
        <time>2025-02-02T13:10:45Z</time>
      </trkpt>
      <trkpt lat="46.13492" lon="6.79487">
        <ele>2318.959</ele>
        <time>2025-02-02T13:10:50Z</time>
      </trkpt>
      <trkpt lat="46.13491" lon="6.7949">
        <ele>2320.653</ele>
        <time>2025-02-02T13:10:55Z</time>
      </trkpt>
      <trkpt lat="46.13492" lon="6.79493">
        <ele>2321.322</ele>
        <time>2025-02-02T13:11:00Z</time>
      </trkpt>
      <trkpt lat="46.13492" lon="6.79496">
        <ele>2322.129</ele>
        <time>2025-02-02T13:11:05Z</time>
      </trkpt>
      <trkpt lat="46.13492" lon="6.79499">
        <ele>2323.17</ele>
        <time>2025-02-02T13:11:10Z</time>
      </trkpt>
      <trkpt lat="46.13493" lon="6.79502">
        <ele>2323.761</ele>
        <time>2025-02-02T13:11:15Z</time>
      </trkpt>
      <trkpt lat="46.13493" lon="6.79506">
        <ele>2324.199</ele>
        <time>2025-02-02T13:11:20Z</time>
      </trkpt>
      <trkpt lat="46.13493" lon="6.79509">
        <ele>2324.852</ele>
        <time>2025-02-02T13:11:25Z</time>
      </trkpt>
      <trkpt lat="46.13494" lon="6.79511">
        <ele>2326.012</ele>
        <time>2025-02-02T13:11:30Z</time>
      </trkpt>
      <trkpt lat="46.13494" lon="6.79515">
        <ele>2326.379</ele>
        <time>2025-02-02T13:11:35Z</time>
      </trkpt>
      <trkpt lat="46.13494" lon="6.79518">
        <ele>2326.813</ele>
        <time>2025-02-02T13:11:40Z</time>
      </trkpt>
      <trkpt lat="46.13495" lon="6.79522">
        <ele>2327.425</ele>
        <time>2025-02-02T13:11:45Z</time>
      </trkpt>
      <trkpt lat="46.13496" lon="6.79526">
        <ele>2327.526</ele>
        <time>2025-02-02T13:11:50Z</time>
      </trkpt>
      <trkpt lat="46.13496" lon="6.7953">
        <ele>2328.176</ele>
        <time>2025-02-02T13:11:55Z</time>
      </trkpt>
      <trkpt lat="46.13496" lon="6.79534">
        <ele>2329.145</ele>
        <time>2025-02-02T13:12:00Z</time>
      </trkpt>
      <trkpt lat="46.13497" lon="6.79539">
        <ele>2329.832</ele>
        <time>2025-02-02T13:12:05Z</time>
      </trkpt>
      <trkpt lat="46.13497" lon="6.79543">
        <ele>2330.298</ele>
        <time>2025-02-02T13:12:10Z</time>
      </trkpt>
      <trkpt lat="46.13498" lon="6.79547">
        <ele>2331.197</ele>
        <time>2025-02-02T13:12:15Z</time>
      </trkpt>
      <trkpt lat="46.13498" lon="6.79551">
        <ele>2331.492</ele>
        <time>2025-02-02T13:12:20Z</time>
      </trkpt>
      <trkpt lat="46.13499" lon="6.79555">
        <ele>2332.148</ele>
        <time>2025-02-02T13:12:25Z</time>
      </trkpt>
      <trkpt lat="46.13499" lon="6.79559">
        <ele>2333.579</ele>
        <time>2025-02-02T13:12:30Z</time>
      </trkpt>
      <trkpt lat="46.13499" lon="6.79563">
        <ele>2334.515</ele>
        <time>2025-02-02T13:12:35Z</time>
      </trkpt>
      <trkpt lat="46.13499" lon="6.79567">
        <ele>2334.73</ele>
        <time>2025-02-02T13:12:40Z</time>
      </trkpt>
      <trkpt lat="46.13499" lon="6.79571">
        <ele>2335.492</ele>
        <time>2025-02-02T13:12:45Z</time>
      </trkpt>
      <trkpt lat="46.13499" lon="6.79575">
        <ele>2335.897</ele>
        <time>2025-02-02T13:12:50Z</time>
      </trkpt>
      <trkpt lat="46.13499" lon="6.79579">
        <ele>2336.819</ele>
        <time>2025-02-02T13:12:55Z</time>
      </trkpt>
      <trkpt lat="46.13499" lon="6.79583">
        <ele>2337.102</ele>
        <time>2025-02-02T13:13:00Z</time>
      </trkpt>
      <trkpt lat="46.135" lon="6.79588">
        <ele>2337.614</ele>
        <time>2025-02-02T13:13:05Z</time>
      </trkpt>
      <trkpt lat="46.135" lon="6.79592">
        <ele>2338.189</ele>
        <time>2025-02-02T13:13:10Z</time>
      </trkpt>
      <trkpt lat="46.135" lon="6.79597">
        <ele>2339.012</ele>
        <time>2025-02-02T13:13:15Z</time>
      </trkpt>
      <trkpt lat="46.135" lon="6.79603">
        <ele>2338.99</ele>
        <time>2025-02-02T13:13:20Z</time>
      </trkpt>
      <trkpt lat="46.135" lon="6.79608">
        <ele>2339.496</ele>
        <time>2025-02-02T13:13:25Z</time>
      </trkpt>
      <trkpt lat="46.135" lon="6.79613">
        <ele>2340.029</ele>
        <time>2025-02-02T13:13:30Z</time>
      </trkpt>
      <trkpt lat="46.135" lon="6.79618">
        <ele>2340.252</ele>
        <time>2025-02-02T13:13:35Z</time>
      </trkpt>
      <trkpt lat="46.135" lon="6.79623">
        <ele>2340.037</ele>
        <time>2025-02-02T13:13:40Z</time>
      </trkpt>
      <trkpt lat="46.135" lon="6.79628">
        <ele>2341.001</ele>
        <time>2025-02-02T13:13:45Z</time>
      </trkpt>
      <trkpt lat="46.13501" lon="6.79632">
        <ele>2341.44</ele>
        <time>2025-02-02T13:13:50Z</time>
      </trkpt>
      <trkpt lat="46.135" lon="6.79637">
        <ele>2341.794</ele>
        <time>2025-02-02T13:13:55Z</time>
      </trkpt>
      <trkpt lat="46.135" lon="6.79641">
        <ele>2342.729</ele>
        <time>2025-02-02T13:14:00Z</time>
      </trkpt>
      <trkpt lat="46.135" lon="6.79645">
        <ele>2343.484</ele>
        <time>2025-02-02T13:14:05Z</time>
      </trkpt>
      <trkpt lat="46.135" lon="6.79649">
        <ele>2343.823</ele>
        <time>2025-02-02T13:14:10Z</time>
      </trkpt>
      <trkpt lat="46.13502" lon="6.79654">
        <ele>2344.283</ele>
        <time>2025-02-02T13:14:15Z</time>
      </trkpt>
      <trkpt lat="46.13504" lon="6.79658">
        <ele>2343.973</ele>
        <time>2025-02-02T13:14:20Z</time>
      </trkpt>
      <trkpt lat="46.13505" lon="6.79661">
        <ele>2344.967</ele>
        <time>2025-02-02T13:14:25Z</time>
      </trkpt>
      <trkpt lat="46.13507" lon="6.79666">
        <ele>2345.269</ele>
        <time>2025-02-02T13:14:30Z</time>
      </trkpt>
      <trkpt lat="46.13508" lon="6.7967">
        <ele>2346.029</ele>
        <time>2025-02-02T13:14:35Z</time>
      </trkpt>
      <trkpt lat="46.13509" lon="6.79675">
        <ele>2346.71</ele>
        <time>2025-02-02T13:14:40Z</time>
      </trkpt>
      <trkpt lat="46.1351" lon="6.79679">
        <ele>2347.943</ele>
        <time>2025-02-02T13:14:45Z</time>
      </trkpt>
      <trkpt lat="46.13511" lon="6.79683">
        <ele>2348.196</ele>
        <time>2025-02-02T13:14:50Z</time>
      </trkpt>
      <trkpt lat="46.13512" lon="6.79688">
        <ele>2348.613</ele>
        <time>2025-02-02T13:14:55Z</time>
      </trkpt>
      <trkpt lat="46.13513" lon="6.79693">
        <ele>2348.687</ele>
        <time>2025-02-02T13:15:00Z</time>
      </trkpt>
      <trkpt lat="46.13514" lon="6.79698">
        <ele>2349.709</ele>
        <time>2025-02-02T13:15:05Z</time>
      </trkpt>
      <trkpt lat="46.13514" lon="6.79703">
        <ele>2350.514</ele>
        <time>2025-02-02T13:15:10Z</time>
      </trkpt>
      <trkpt lat="46.13514" lon="6.79709">
        <ele>2351.333</ele>
        <time>2025-02-02T13:15:15Z</time>
      </trkpt>
      <trkpt lat="46.13514" lon="6.79714">
        <ele>2351.578</ele>
        <time>2025-02-02T13:15:20Z</time>
      </trkpt>
      <trkpt lat="46.13514" lon="6.79719">
        <ele>2352.087</ele>
        <time>2025-02-02T13:15:25Z</time>
      </trkpt>
      <trkpt lat="46.13515" lon="6.79724">
        <ele>2352.597</ele>
        <time>2025-02-02T13:15:30Z</time>
      </trkpt>
      <trkpt lat="46.13515" lon="6.79728">
        <ele>2353.413</ele>
        <time>2025-02-02T13:15:35Z</time>
      </trkpt>
      <trkpt lat="46.13516" lon="6.79731">
        <ele>2353.332</ele>
        <time>2025-02-02T13:15:40Z</time>
      </trkpt>
      <trkpt lat="46.13518" lon="6.79734">
        <ele>2354.353</ele>
        <time>2025-02-02T13:15:45Z</time>
      </trkpt>
      <trkpt lat="46.13519" lon="6.79737">
        <ele>2355.269</ele>
        <time>2025-02-02T13:15:50Z</time>
      </trkpt>
      <trkpt lat="46.1352" lon="6.7974">
        <ele>2355.788</ele>
        <time>2025-02-02T13:15:55Z</time>
      </trkpt>
      <trkpt lat="46.13521" lon="6.79743">
        <ele>2357.01</ele>
        <time>2025-02-02T13:16:00Z</time>
      </trkpt>
      <trkpt lat="46.13522" lon="6.79745">
        <ele>2357.194</ele>
        <time>2025-02-02T13:16:05Z</time>
      </trkpt>
      <trkpt lat="46.13522" lon="6.79749">
        <ele>2358.074</ele>
        <time>2025-02-02T13:16:10Z</time>
      </trkpt>
      <trkpt lat="46.13523" lon="6.79751">
        <ele>2358.811</ele>
        <time>2025-02-02T13:16:15Z</time>
      </trkpt>
      <trkpt lat="46.13523" lon="6.79754">
        <ele>2359.708</ele>
        <time>2025-02-02T13:16:20Z</time>
      </trkpt>
      <trkpt lat="46.13523" lon="6.79757">
        <ele>2360.225</ele>
        <time>2025-02-02T13:16:25Z</time>
      </trkpt>
      <trkpt lat="46.13523" lon="6.7976">
        <ele>2361.594</ele>
        <time>2025-02-02T13:16:30Z</time>
      </trkpt>
      <trkpt lat="46.13523" lon="6.79763">
        <ele>2362.08</ele>
        <time>2025-02-02T13:16:35Z</time>
      </trkpt>
      <trkpt lat="46.13523" lon="6.79765">
        <ele>2362.376</ele>
        <time>2025-02-02T13:16:40Z</time>
      </trkpt>
      <trkpt lat="46.13524" lon="6.79769">
        <ele>2362.941</ele>
        <time>2025-02-02T13:16:45Z</time>
      </trkpt>
      <trkpt lat="46.13524" lon="6.79773">
        <ele>2363.216</ele>
        <time>2025-02-02T13:16:50Z</time>
      </trkpt>
      <trkpt lat="46.13525" lon="6.79776">
        <ele>2364.179</ele>
        <time>2025-02-02T13:16:55Z</time>
      </trkpt>
      <trkpt lat="46.13526" lon="6.79778">
        <ele>2364.87</ele>
        <time>2025-02-02T13:17:00Z</time>
      </trkpt>
      <trkpt lat="46.13527" lon="6.79781">
        <ele>2365.54</ele>
        <time>2025-02-02T13:17:05Z</time>
      </trkpt>
      <trkpt lat="46.13527" lon="6.79783">
        <ele>2366.361</ele>
        <time>2025-02-02T13:17:10Z</time>
      </trkpt>
      <trkpt lat="46.13529" lon="6.79785">
        <ele>2367.098</ele>
        <time>2025-02-02T13:17:15Z</time>
      </trkpt>
      <trkpt lat="46.1353" lon="6.79787">
        <ele>2367.974</ele>
        <time>2025-02-02T13:17:20Z</time>
      </trkpt>
      <trkpt lat="46.13531" lon="6.79789">
        <ele>2369.09</ele>
        <time>2025-02-02T13:17:25Z</time>
      </trkpt>
      <trkpt lat="46.13533" lon="6.79791">
        <ele>2368.685</ele>
        <time>2025-02-02T13:17:30Z</time>
      </trkpt>
      <trkpt lat="46.13535" lon="6.79793">
        <ele>2369.195</ele>
        <time>2025-02-02T13:17:35Z</time>
      </trkpt>
      <trkpt lat="46.13537" lon="6.79795">
        <ele>2369.578</ele>
        <time>2025-02-02T13:17:40Z</time>
      </trkpt>
      <trkpt lat="46.13539" lon="6.79798">
        <ele>2370.786</ele>
        <time>2025-02-02T13:17:45Z</time>
      </trkpt>
      <trkpt lat="46.13541" lon="6.798">
        <ele>2372.508</ele>
        <time>2025-02-02T13:17:50Z</time>
      </trkpt>
      <trkpt lat="46.13543" lon="6.79802">
        <ele>2374.487</ele>
        <time>2025-02-02T13:17:55Z</time>
      </trkpt>
      <trkpt lat="46.13544" lon="6.79805">
        <ele>2375.862</ele>
        <time>2025-02-02T13:18:00Z</time>
      </trkpt>
      <trkpt lat="46.13544" lon="6.79809">
        <ele>2376.293</ele>
        <time>2025-02-02T13:18:05Z</time>
      </trkpt>
      <trkpt lat="46.13543" lon="6.79811">
        <ele>2377.9</ele>
        <time>2025-02-02T13:18:10Z</time>
      </trkpt>
      <trkpt lat="46.13544" lon="6.79815">
        <ele>2378.906</ele>
        <time>2025-02-02T13:18:15Z</time>
      </trkpt>
      <trkpt lat="46.13546" lon="6.79816">
        <ele>2379.222</ele>
        <time>2025-02-02T13:18:20Z</time>
      </trkpt>
      <trkpt lat="46.13548" lon="6.79818">
        <ele>2380.256</ele>
        <time>2025-02-02T13:18:25Z</time>
      </trkpt>
      <trkpt lat="46.13549" lon="6.7982">
        <ele>2380.992</ele>
        <time>2025-02-02T13:18:30Z</time>
      </trkpt>
      <trkpt lat="46.13551" lon="6.79822">
        <ele>2381.48</ele>
        <time>2025-02-02T13:18:35Z</time>
      </trkpt>
      <trkpt lat="46.13552" lon="6.79825">
        <ele>2382.235</ele>
        <time>2025-02-02T13:18:40Z</time>
      </trkpt>
      <trkpt lat="46.13553" lon="6.79828">
        <ele>2382.943</ele>
        <time>2025-02-02T13:18:45Z</time>
      </trkpt>
      <trkpt lat="46.13553" lon="6.79831">
        <ele>2384.09</ele>
        <time>2025-02-02T13:18:50Z</time>
      </trkpt>
      <trkpt lat="46.13552" lon="6.79834">
        <ele>2384.911</ele>
        <time>2025-02-02T13:18:55Z</time>
      </trkpt>
      <trkpt lat="46.13552" lon="6.79837">
        <ele>2384.997</ele>
        <time>2025-02-02T13:19:00Z</time>
      </trkpt>
      <trkpt lat="46.13551" lon="6.7984">
        <ele>2385.467</ele>
        <time>2025-02-02T13:19:05Z</time>
      </trkpt>
      <trkpt lat="46.13551" lon="6.79843">
        <ele>2386.296</ele>
        <time>2025-02-02T13:19:10Z</time>
      </trkpt>
      <trkpt lat="46.13551" lon="6.79846">
        <ele>2387.04</ele>
        <time>2025-02-02T13:19:15Z</time>
      </trkpt>
      <trkpt lat="46.13551" lon="6.79849">
        <ele>2387.666</ele>
        <time>2025-02-02T13:19:20Z</time>
      </trkpt>
      <trkpt lat="46.13551" lon="6.79852">
        <ele>2388.891</ele>
        <time>2025-02-02T13:19:25Z</time>
      </trkpt>
      <trkpt lat="46.13551" lon="6.79855">
        <ele>2389.131</ele>
        <time>2025-02-02T13:19:30Z</time>
      </trkpt>
      <trkpt lat="46.13551" lon="6.79859">
        <ele>2389.977</ele>
        <time>2025-02-02T13:19:35Z</time>
      </trkpt>
      <trkpt lat="46.13551" lon="6.79863">
        <ele>2389.997</ele>
        <time>2025-02-02T13:19:40Z</time>
      </trkpt>
      <trkpt lat="46.13551" lon="6.79866">
        <ele>2390.881</ele>
        <time>2025-02-02T13:19:45Z</time>
      </trkpt>
      <trkpt lat="46.13551" lon="6.7987">
        <ele>2391.382</ele>
        <time>2025-02-02T13:19:50Z</time>
      </trkpt>
      <trkpt lat="46.13551" lon="6.79874">
        <ele>2392.239</ele>
        <time>2025-02-02T13:19:55Z</time>
      </trkpt>
      <trkpt lat="46.1355" lon="6.79877">
        <ele>2392.408</ele>
        <time>2025-02-02T13:20:00Z</time>
      </trkpt>
      <trkpt lat="46.1355" lon="6.79881">
        <ele>2392.944</ele>
        <time>2025-02-02T13:20:05Z</time>
      </trkpt>
      <trkpt lat="46.1355" lon="6.79885">
        <ele>2393.465</ele>
        <time>2025-02-02T13:20:10Z</time>
      </trkpt>
      <trkpt lat="46.1355" lon="6.79889">
        <ele>2394.198</ele>
        <time>2025-02-02T13:20:15Z</time>
      </trkpt>
      <trkpt lat="46.13551" lon="6.79893">
        <ele>2394.933</ele>
        <time>2025-02-02T13:20:20Z</time>
      </trkpt>
      <trkpt lat="46.13551" lon="6.79897">
        <ele>2396.013</ele>
        <time>2025-02-02T13:20:25Z</time>
      </trkpt>
      <trkpt lat="46.13551" lon="6.799">
        <ele>2396.091</ele>
        <time>2025-02-02T13:20:30Z</time>
      </trkpt>
      <trkpt lat="46.13552" lon="6.79905">
        <ele>2397.192</ele>
        <time>2025-02-02T13:20:35Z</time>
      </trkpt>
      <trkpt lat="46.13553" lon="6.79909">
        <ele>2397.835</ele>
        <time>2025-02-02T13:20:40Z</time>
      </trkpt>
      <trkpt lat="46.13553" lon="6.79912">
        <ele>2398.557</ele>
        <time>2025-02-02T13:20:45Z</time>
      </trkpt>
      <trkpt lat="46.13554" lon="6.79917">
        <ele>2399.402</ele>
        <time>2025-02-02T13:20:50Z</time>
      </trkpt>
      <trkpt lat="46.13555" lon="6.79921">
        <ele>2400.103</ele>
        <time>2025-02-02T13:20:55Z</time>
      </trkpt>
      <trkpt lat="46.13556" lon="6.79924">
        <ele>2400.759</ele>
        <time>2025-02-02T13:21:00Z</time>
      </trkpt>
      <trkpt lat="46.13557" lon="6.79928">
        <ele>2402.037</ele>
        <time>2025-02-02T13:21:05Z</time>
      </trkpt>
      <trkpt lat="46.13557" lon="6.79932">
        <ele>2403.24</ele>
        <time>2025-02-02T13:21:10Z</time>
      </trkpt>
      <trkpt lat="46.13556" lon="6.79937">
        <ele>2404.097</ele>
        <time>2025-02-02T13:21:15Z</time>
      </trkpt>
      <trkpt lat="46.13556" lon="6.79942">
        <ele>2404.088</ele>
        <time>2025-02-02T13:21:20Z</time>
      </trkpt>
      <trkpt lat="46.13556" lon="6.79946">
        <ele>2404.719</ele>
        <time>2025-02-02T13:21:25Z</time>
      </trkpt>
      <trkpt lat="46.13555" lon="6.79951">
        <ele>2405.451</ele>
        <time>2025-02-02T13:21:30Z</time>
      </trkpt>
      <trkpt lat="46.13555" lon="6.79956">
        <ele>2405.816</ele>
        <time>2025-02-02T13:21:35Z</time>
      </trkpt>
      <trkpt lat="46.13555" lon="6.79958">
        <ele>2406.303</ele>
        <time>2025-02-02T13:21:40Z</time>
      </trkpt>
      <trkpt lat="46.13555" lon="6.79958">
        <ele>2406.296</ele>
        <time>2025-02-02T13:21:45Z</time>
      </trkpt>
      <trkpt lat="46.13555" lon="6.79958">
        <ele>2406.291</ele>
        <time>2025-02-02T13:21:50Z</time>
      </trkpt>
      <trkpt lat="46.13554" lon="6.7996">
        <ele>2406.59</ele>
        <time>2025-02-02T13:21:55Z</time>
      </trkpt>
      <trkpt lat="46.13554" lon="6.79965">
        <ele>2407.057</ele>
        <time>2025-02-02T13:22:00Z</time>
      </trkpt>
      <trkpt lat="46.13553" lon="6.79969">
        <ele>2407.104</ele>
        <time>2025-02-02T13:22:05Z</time>
      </trkpt>
      <trkpt lat="46.13553" lon="6.79974">
        <ele>2407.718</ele>
        <time>2025-02-02T13:22:10Z</time>
      </trkpt>
      <trkpt lat="46.13553" lon="6.79979">
        <ele>2407.798</ele>
        <time>2025-02-02T13:22:15Z</time>
      </trkpt>
      <trkpt lat="46.13552" lon="6.79983">
        <ele>2408.458</ele>
        <time>2025-02-02T13:22:20Z</time>
      </trkpt>
      <trkpt lat="46.13552" lon="6.79988">
        <ele>2408.925</ele>
        <time>2025-02-02T13:22:25Z</time>
      </trkpt>
      <trkpt lat="46.13552" lon="6.79994">
        <ele>2409.272</ele>
        <time>2025-02-02T13:22:30Z</time>
      </trkpt>
      <trkpt lat="46.13551" lon="6.79999">
        <ele>2409.902</ele>
        <time>2025-02-02T13:22:35Z</time>
      </trkpt>
      <trkpt lat="46.13551" lon="6.79999">
        <ele>2409.614</ele>
        <time>2025-02-02T13:22:40Z</time>
      </trkpt>
      <trkpt lat="46.1355" lon="6.80001">
        <ele>2409.942</ele>
        <time>2025-02-02T13:22:45Z</time>
      </trkpt>
      <trkpt lat="46.1355" lon="6.80006">
        <ele>2410.215</ele>
        <time>2025-02-02T13:22:50Z</time>
      </trkpt>
      <trkpt lat="46.13551" lon="6.8001">
        <ele>2409.874</ele>
        <time>2025-02-02T13:22:55Z</time>
      </trkpt>
      <trkpt lat="46.13551" lon="6.80011">
        <ele>2410.303</ele>
        <time>2025-02-02T13:23:00Z</time>
      </trkpt>
      <trkpt lat="46.13551" lon="6.80012">
        <ele>2410.097</ele>
        <time>2025-02-02T13:23:05Z</time>
      </trkpt>
      <trkpt lat="46.13551" lon="6.80013">
        <ele>2410.097</ele>
        <time>2025-02-02T13:23:10Z</time>
      </trkpt>
      <trkpt lat="46.13551" lon="6.80014">
        <ele>2410.043</ele>
        <time>2025-02-02T13:23:15Z</time>
      </trkpt>
      <trkpt lat="46.13551" lon="6.80014">
        <ele>2410.032</ele>
        <time>2025-02-02T13:23:20Z</time>
      </trkpt>
      <trkpt lat="46.13551" lon="6.80014">
        <ele>2410.026</ele>
        <time>2025-02-02T13:23:25Z</time>
      </trkpt>
      <trkpt lat="46.13551" lon="6.80014">
        <ele>2410.019</ele>
        <time>2025-02-02T13:23:30Z</time>
      </trkpt>
      <trkpt lat="46.13551" lon="6.80014">
        <ele>2410.019</ele>
        <time>2025-02-02T13:23:35Z</time>
      </trkpt>
      <trkpt lat="46.13551" lon="6.80015">
        <ele>2409.846</ele>
        <time>2025-02-02T13:23:40Z</time>
      </trkpt>
      <trkpt lat="46.13554" lon="6.80019">
        <ele>2409.968</ele>
        <time>2025-02-02T13:23:45Z</time>
      </trkpt>
      <trkpt lat="46.13555" lon="6.80024">
        <ele>2410.429</ele>
        <time>2025-02-02T13:23:50Z</time>
      </trkpt>
      <trkpt lat="46.13557" lon="6.80028">
        <ele>2410.46</ele>
        <time>2025-02-02T13:23:55Z</time>
      </trkpt>
      <trkpt lat="46.13557" lon="6.80031">
        <ele>2410.387</ele>
        <time>2025-02-02T13:24:00Z</time>
      </trkpt>
      <trkpt lat="46.13557" lon="6.80032">
        <ele>2410.384</ele>
        <time>2025-02-02T13:24:05Z</time>
      </trkpt>
      <trkpt lat="46.13557" lon="6.80032">
        <ele>2410.375</ele>
        <time>2025-02-02T13:24:10Z</time>
      </trkpt>
      <trkpt lat="46.13557" lon="6.80032">
        <ele>2410.544</ele>
        <time>2025-02-02T13:24:15Z</time>
      </trkpt>
      <trkpt lat="46.13557" lon="6.80032">
        <ele>2410.551</ele>
        <time>2025-02-02T13:24:20Z</time>
      </trkpt>
      <trkpt lat="46.13557" lon="6.80032">
        <ele>2410.55</ele>
        <time>2025-02-02T13:24:25Z</time>
      </trkpt>
      <trkpt lat="46.13557" lon="6.80032">
        <ele>2410.544</ele>
        <time>2025-02-02T13:24:30Z</time>
      </trkpt>
      <trkpt lat="46.13557" lon="6.80032">
        <ele>2410.725</ele>
        <time>2025-02-02T13:24:35Z</time>
      </trkpt>
      <trkpt lat="46.13557" lon="6.80032">
        <ele>2411.047</ele>
        <time>2025-02-02T13:24:40Z</time>
      </trkpt>
      <trkpt lat="46.13557" lon="6.80032">
        <ele>2410.716</ele>
        <time>2025-02-02T13:24:45Z</time>
      </trkpt>
      <trkpt lat="46.13557" lon="6.80032">
        <ele>2410.64</ele>
        <time>2025-02-02T13:24:50Z</time>
      </trkpt>
      <trkpt lat="46.13557" lon="6.80032">
        <ele>2410.687</ele>
        <time>2025-02-02T13:24:55Z</time>
      </trkpt>
      <trkpt lat="46.13557" lon="6.80032">
        <ele>2410.685</ele>
        <time>2025-02-02T13:25:00Z</time>
      </trkpt>
      <trkpt lat="46.13557" lon="6.80032">
        <ele>2410.684</ele>
        <time>2025-02-02T13:25:05Z</time>
      </trkpt>
      <trkpt lat="46.13557" lon="6.80032">
        <ele>2410.688</ele>
        <time>2025-02-02T13:25:10Z</time>
      </trkpt>
      <trkpt lat="46.13557" lon="6.80032">
        <ele>2410.701</ele>
        <time>2025-02-02T13:25:15Z</time>
      </trkpt>
      <trkpt lat="46.13557" lon="6.80032">
        <ele>2410.698</ele>
        <time>2025-02-02T13:25:20Z</time>
      </trkpt>
      <trkpt lat="46.13557" lon="6.80032">
        <ele>2410.693</ele>
        <time>2025-02-02T13:25:25Z</time>
      </trkpt>
      <trkpt lat="46.13557" lon="6.80032">
        <ele>2410.694</ele>
        <time>2025-02-02T13:25:30Z</time>
      </trkpt>
      <trkpt lat="46.13557" lon="6.80032">
        <ele>2410.695</ele>
        <time>2025-02-02T13:25:35Z</time>
      </trkpt>
      <trkpt lat="46.13557" lon="6.80032">
        <ele>2410.693</ele>
        <time>2025-02-02T13:25:40Z</time>
      </trkpt>
      <trkpt lat="46.13557" lon="6.80032">
        <ele>2410.693</ele>
        <time>2025-02-02T13:25:45Z</time>
      </trkpt>
      <trkpt lat="46.13557" lon="6.80032">
        <ele>2410.693</ele>
        <time>2025-02-02T13:25:50Z</time>
      </trkpt>
      <trkpt lat="46.13557" lon="6.80032">
        <ele>2410.694</ele>
        <time>2025-02-02T13:25:55Z</time>
      </trkpt>
      <trkpt lat="46.13557" lon="6.80032">
        <ele>2410.695</ele>
        <time>2025-02-02T13:26:00Z</time>
      </trkpt>
      <trkpt lat="46.13557" lon="6.80032">
        <ele>2410.693</ele>
        <time>2025-02-02T13:26:05Z</time>
      </trkpt>
      <trkpt lat="46.13557" lon="6.80032">
        <ele>2410.69</ele>
        <time>2025-02-02T13:26:10Z</time>
      </trkpt>
      <trkpt lat="46.13557" lon="6.80032">
        <ele>2410.687</ele>
        <time>2025-02-02T13:26:15Z</time>
      </trkpt>
      <trkpt lat="46.13557" lon="6.80032">
        <ele>2410.725</ele>
        <time>2025-02-02T13:26:20Z</time>
      </trkpt>
      <trkpt lat="46.13557" lon="6.80032">
        <ele>2410.814</ele>
        <time>2025-02-02T13:26:25Z</time>
      </trkpt>
      <trkpt lat="46.13557" lon="6.80032">
        <ele>2410.861</ele>
        <time>2025-02-02T13:26:30Z</time>
      </trkpt>
      <trkpt lat="46.13557" lon="6.80032">
        <ele>2410.862</ele>
        <time>2025-02-02T13:26:35Z</time>
      </trkpt>
      <trkpt lat="46.13557" lon="6.80032">
        <ele>2410.862</ele>
        <time>2025-02-02T13:26:40Z</time>
      </trkpt>
      <trkpt lat="46.13557" lon="6.80032">
        <ele>2410.863</ele>
        <time>2025-02-02T13:26:45Z</time>
      </trkpt>
      <trkpt lat="46.13557" lon="6.80032">
        <ele>2410.942</ele>
        <time>2025-02-02T13:26:50Z</time>
      </trkpt>
      <trkpt lat="46.13557" lon="6.80032">
        <ele>2410.941</ele>
        <time>2025-02-02T13:26:55Z</time>
      </trkpt>
      <trkpt lat="46.13557" lon="6.80032">
        <ele>2410.932</ele>
        <time>2025-02-02T13:27:00Z</time>
      </trkpt>
      <trkpt lat="46.13557" lon="6.80032">
        <ele>2410.775</ele>
        <time>2025-02-02T13:27:05Z</time>
      </trkpt>
      <trkpt lat="46.13557" lon="6.80032">
        <ele>2410.427</ele>
        <time>2025-02-02T13:27:10Z</time>
      </trkpt>
      <trkpt lat="46.13557" lon="6.80032">
        <ele>2410.429</ele>
        <time>2025-02-02T13:27:15Z</time>
      </trkpt>
      <trkpt lat="46.13557" lon="6.80032">
        <ele>2410.431</ele>
        <time>2025-02-02T13:27:20Z</time>
      </trkpt>
      <trkpt lat="46.13557" lon="6.80032">
        <ele>2410.429</ele>
        <time>2025-02-02T13:27:25Z</time>
      </trkpt>
      <trkpt lat="46.13557" lon="6.80032">
        <ele>2410.429</ele>
        <time>2025-02-02T13:27:30Z</time>
      </trkpt>
      <trkpt lat="46.13557" lon="6.80032">
        <ele>2410.428</ele>
        <time>2025-02-02T13:27:35Z</time>
      </trkpt>
      <trkpt lat="46.13557" lon="6.80032">
        <ele>2410.428</ele>
        <time>2025-02-02T13:27:40Z</time>
      </trkpt>
      <trkpt lat="46.13557" lon="6.80032">
        <ele>2410.529</ele>
        <time>2025-02-02T13:27:45Z</time>
      </trkpt>
      <trkpt lat="46.13557" lon="6.80032">
        <ele>2409.502</ele>
        <time>2025-02-02T13:27:50Z</time>
      </trkpt>
      <trkpt lat="46.13557" lon="6.80032">
        <ele>2409.69</ele>
        <time>2025-02-02T13:27:55Z</time>
      </trkpt>
      <trkpt lat="46.13557" lon="6.80032">
        <ele>2409.4</ele>
        <time>2025-02-02T13:28:00Z</time>
      </trkpt>
      <trkpt lat="46.13557" lon="6.80032">
        <ele>2409.075</ele>
        <time>2025-02-02T13:28:05Z</time>
      </trkpt>
      <trkpt lat="46.13557" lon="6.80032">
        <ele>2409.081</ele>
        <time>2025-02-02T13:28:10Z</time>
      </trkpt>
      <trkpt lat="46.13557" lon="6.80032">
        <ele>2409.089</ele>
        <time>2025-02-02T13:28:15Z</time>
      </trkpt>
      <trkpt lat="46.13557" lon="6.80032">
        <ele>2409.102</ele>
        <time>2025-02-02T13:28:20Z</time>
      </trkpt>
      <trkpt lat="46.13557" lon="6.80032">
        <ele>2409.873</ele>
        <time>2025-02-02T13:28:25Z</time>
      </trkpt>
      <trkpt lat="46.13557" lon="6.80032">
        <ele>2410.163</ele>
        <time>2025-02-02T13:28:30Z</time>
      </trkpt>
      <trkpt lat="46.13557" lon="6.80032">
        <ele>2410.168</ele>
        <time>2025-02-02T13:28:35Z</time>
      </trkpt>
      <trkpt lat="46.13557" lon="6.80032">
        <ele>2410.343</ele>
        <time>2025-02-02T13:28:40Z</time>
      </trkpt>
      <trkpt lat="46.13557" lon="6.80032">
        <ele>2410.348</ele>
        <time>2025-02-02T13:28:45Z</time>
      </trkpt>
      <trkpt lat="46.13557" lon="6.80032">
        <ele>2410.348</ele>
        <time>2025-02-02T13:28:50Z</time>
      </trkpt>
      <trkpt lat="46.13557" lon="6.80032">
        <ele>2410.352</ele>
        <time>2025-02-02T13:28:55Z</time>
      </trkpt>
      <trkpt lat="46.13557" lon="6.80032">
        <ele>2410.362</ele>
        <time>2025-02-02T13:29:00Z</time>
      </trkpt>
      <trkpt lat="46.13557" lon="6.80032">
        <ele>2410.368</ele>
        <time>2025-02-02T13:29:05Z</time>
      </trkpt>
      <trkpt lat="46.13557" lon="6.80032">
        <ele>2410.366</ele>
        <time>2025-02-02T13:29:10Z</time>
      </trkpt>
      <trkpt lat="46.13557" lon="6.80032">
        <ele>2410.372</ele>
        <time>2025-02-02T13:29:15Z</time>
      </trkpt>
      <trkpt lat="46.13557" lon="6.80032">
        <ele>2410.377</ele>
        <time>2025-02-02T13:29:20Z</time>
      </trkpt>
      <trkpt lat="46.13557" lon="6.80032">
        <ele>2410.372</ele>
        <time>2025-02-02T13:29:25Z</time>
      </trkpt>
      <trkpt lat="46.13557" lon="6.80032">
        <ele>2410.175</ele>
        <time>2025-02-02T13:29:30Z</time>
      </trkpt>
      <trkpt lat="46.13557" lon="6.80032">
        <ele>2410.388</ele>
        <time>2025-02-02T13:29:35Z</time>
      </trkpt>
      <trkpt lat="46.13557" lon="6.80032">
        <ele>2410.423</ele>
        <time>2025-02-02T13:29:40Z</time>
      </trkpt>
      <trkpt lat="46.13557" lon="6.80032">
        <ele>2410.406</ele>
        <time>2025-02-02T13:29:45Z</time>
      </trkpt>
      <trkpt lat="46.13557" lon="6.80032">
        <ele>2410.385</ele>
        <time>2025-02-02T13:29:50Z</time>
      </trkpt>
      <trkpt lat="46.13557" lon="6.80032">
        <ele>2410.413</ele>
        <time>2025-02-02T13:29:55Z</time>
      </trkpt>
      <trkpt lat="46.13557" lon="6.80032">
        <ele>2409.615</ele>
        <time>2025-02-02T13:30:00Z</time>
      </trkpt>
      <trkpt lat="46.13557" lon="6.80032">
        <ele>2409.144</ele>
        <time>2025-02-02T13:30:05Z</time>
      </trkpt>
      <trkpt lat="46.13557" lon="6.80032">
        <ele>2409.077</ele>
        <time>2025-02-02T13:30:10Z</time>
      </trkpt>
      <trkpt lat="46.13557" lon="6.80032">
        <ele>2409.092</ele>
        <time>2025-02-02T13:30:15Z</time>
      </trkpt>
      <trkpt lat="46.13557" lon="6.80032">
        <ele>2409.088</ele>
        <time>2025-02-02T13:30:20Z</time>
      </trkpt>
      <trkpt lat="46.13557" lon="6.80032">
        <ele>2409.084</ele>
        <time>2025-02-02T13:30:25Z</time>
      </trkpt>
      <trkpt lat="46.13557" lon="6.80032">
        <ele>2409.077</ele>
        <time>2025-02-02T13:30:30Z</time>
      </trkpt>
      <trkpt lat="46.13557" lon="6.80032">
        <ele>2409.066</ele>
        <time>2025-02-02T13:30:35Z</time>
      </trkpt>
      <trkpt lat="46.13557" lon="6.80032">
        <ele>2409.048</ele>
        <time>2025-02-02T13:30:40Z</time>
      </trkpt>
      <trkpt lat="46.13557" lon="6.80032">
        <ele>2409.025</ele>
        <time>2025-02-02T13:30:45Z</time>
      </trkpt>
      <trkpt lat="46.13557" lon="6.80032">
        <ele>2408.603</ele>
        <time>2025-02-02T13:30:50Z</time>
      </trkpt>
      <trkpt lat="46.13557" lon="6.80032">
        <ele>2408.464</ele>
        <time>2025-02-02T13:30:55Z</time>
      </trkpt>
      <trkpt lat="46.13557" lon="6.80032">
        <ele>2408.475</ele>
        <time>2025-02-02T13:31:00Z</time>
      </trkpt>
      <trkpt lat="46.13557" lon="6.80032">
        <ele>2408.473</ele>
        <time>2025-02-02T13:31:05Z</time>
      </trkpt>
      <trkpt lat="46.13557" lon="6.80032">
        <ele>2408.378</ele>
        <time>2025-02-02T13:31:10Z</time>
      </trkpt>
      <trkpt lat="46.13557" lon="6.80032">
        <ele>2408.398</ele>
        <time>2025-02-02T13:31:15Z</time>
      </trkpt>
      <trkpt lat="46.13557" lon="6.80032">
        <ele>2408.399</ele>
        <time>2025-02-02T13:31:20Z</time>
      </trkpt>
      <trkpt lat="46.13557" lon="6.80032">
        <ele>2408.334</ele>
        <time>2025-02-02T13:31:25Z</time>
      </trkpt>
      <trkpt lat="46.13557" lon="6.80032">
        <ele>2408.324</ele>
        <time>2025-02-02T13:31:30Z</time>
      </trkpt>
      <trkpt lat="46.13557" lon="6.80032">
        <ele>2408.322</ele>
        <time>2025-02-02T13:31:35Z</time>
      </trkpt>
      <trkpt lat="46.13557" lon="6.80032">
        <ele>2408.415</ele>
        <time>2025-02-02T13:31:40Z</time>
      </trkpt>
      <trkpt lat="46.13557" lon="6.80032">
        <ele>2408.423</ele>
        <time>2025-02-02T13:31:45Z</time>
      </trkpt>
      <trkpt lat="46.13557" lon="6.80032">
        <ele>2408.407</ele>
        <time>2025-02-02T13:31:50Z</time>
      </trkpt>
      <trkpt lat="46.13557" lon="6.80032">
        <ele>2408.403</ele>
        <time>2025-02-02T13:31:55Z</time>
      </trkpt>
      <trkpt lat="46.13557" lon="6.80032">
        <ele>2408.099</ele>
        <time>2025-02-02T13:32:00Z</time>
      </trkpt>
      <trkpt lat="46.13557" lon="6.80032">
        <ele>2408.268</ele>
        <time>2025-02-02T13:32:05Z</time>
      </trkpt>
      <trkpt lat="46.13557" lon="6.80032">
        <ele>2408.309</ele>
        <time>2025-02-02T13:32:10Z</time>
      </trkpt>
      <trkpt lat="46.13557" lon="6.80032">
        <ele>2408.318</ele>
        <time>2025-02-02T13:32:15Z</time>
      </trkpt>
      <trkpt lat="46.13557" lon="6.80032">
        <ele>2408.323</ele>
        <time>2025-02-02T13:32:20Z</time>
      </trkpt>
      <trkpt lat="46.13557" lon="6.80032">
        <ele>2408.322</ele>
        <time>2025-02-02T13:32:25Z</time>
      </trkpt>
      <trkpt lat="46.13557" lon="6.80032">
        <ele>2408.321</ele>
        <time>2025-02-02T13:32:30Z</time>
      </trkpt>
      <trkpt lat="46.13557" lon="6.80032">
        <ele>2408.317</ele>
        <time>2025-02-02T13:32:35Z</time>
      </trkpt>
      <trkpt lat="46.13557" lon="6.80032">
        <ele>2408.32</ele>
        <time>2025-02-02T13:32:40Z</time>
      </trkpt>
      <trkpt lat="46.13557" lon="6.80032">
        <ele>2408.316</ele>
        <time>2025-02-02T13:32:45Z</time>
      </trkpt>
      <trkpt lat="46.13557" lon="6.80032">
        <ele>2408.311</ele>
        <time>2025-02-02T13:32:50Z</time>
      </trkpt>
      <trkpt lat="46.13557" lon="6.80032">
        <ele>2408.308</ele>
        <time>2025-02-02T13:32:55Z</time>
      </trkpt>
      <trkpt lat="46.13557" lon="6.80032">
        <ele>2408.305</ele>
        <time>2025-02-02T13:33:00Z</time>
      </trkpt>
      <trkpt lat="46.13557" lon="6.80032">
        <ele>2408.312</ele>
        <time>2025-02-02T13:33:05Z</time>
      </trkpt>
      <trkpt lat="46.13557" lon="6.80032">
        <ele>2408.43</ele>
        <time>2025-02-02T13:33:10Z</time>
      </trkpt>
      <trkpt lat="46.13557" lon="6.80032">
        <ele>2408.425</ele>
        <time>2025-02-02T13:33:15Z</time>
      </trkpt>
      <trkpt lat="46.13557" lon="6.80032">
        <ele>2408.47</ele>
        <time>2025-02-02T13:33:20Z</time>
      </trkpt>
      <trkpt lat="46.13557" lon="6.80032">
        <ele>2408.348</ele>
        <time>2025-02-02T13:33:25Z</time>
      </trkpt>
      <trkpt lat="46.13557" lon="6.80032">
        <ele>2407.95</ele>
        <time>2025-02-02T13:33:30Z</time>
      </trkpt>
      <trkpt lat="46.13557" lon="6.80032">
        <ele>2407.779</ele>
        <time>2025-02-02T13:33:35Z</time>
      </trkpt>
      <trkpt lat="46.13557" lon="6.80032">
        <ele>2407.783</ele>
        <time>2025-02-02T13:33:40Z</time>
      </trkpt>
      <trkpt lat="46.13557" lon="6.80032">
        <ele>2407.787</ele>
        <time>2025-02-02T13:33:45Z</time>
      </trkpt>
      <trkpt lat="46.13557" lon="6.80032">
        <ele>2407.786</ele>
        <time>2025-02-02T13:33:50Z</time>
      </trkpt>
      <trkpt lat="46.13557" lon="6.80032">
        <ele>2407.692</ele>
        <time>2025-02-02T13:33:55Z</time>
      </trkpt>
      <trkpt lat="46.13557" lon="6.80032">
        <ele>2407.172</ele>
        <time>2025-02-02T13:34:00Z</time>
      </trkpt>
      <trkpt lat="46.13557" lon="6.80032">
        <ele>2407.359</ele>
        <time>2025-02-02T13:34:05Z</time>
      </trkpt>
      <trkpt lat="46.13557" lon="6.80032">
        <ele>2407.361</ele>
        <time>2025-02-02T13:34:10Z</time>
      </trkpt>
      <trkpt lat="46.13557" lon="6.80032">
        <ele>2407.356</ele>
        <time>2025-02-02T13:34:15Z</time>
      </trkpt>
      <trkpt lat="46.13557" lon="6.80032">
        <ele>2407.207</ele>
        <time>2025-02-02T13:34:20Z</time>
      </trkpt>
      <trkpt lat="46.13557" lon="6.80032">
        <ele>2407.21</ele>
        <time>2025-02-02T13:34:25Z</time>
      </trkpt>
      <trkpt lat="46.13557" lon="6.80032">
        <ele>2407.206</ele>
        <time>2025-02-02T13:34:30Z</time>
      </trkpt>
      <trkpt lat="46.13557" lon="6.80032">
        <ele>2407.198</ele>
        <time>2025-02-02T13:34:35Z</time>
      </trkpt>
      <trkpt lat="46.13557" lon="6.80032">
        <ele>2407.206</ele>
        <time>2025-02-02T13:34:40Z</time>
      </trkpt>
      <trkpt lat="46.13557" lon="6.80032">
        <ele>2407.205</ele>
        <time>2025-02-02T13:34:45Z</time>
      </trkpt>
      <trkpt lat="46.13557" lon="6.80032">
        <ele>2407.196</ele>
        <time>2025-02-02T13:34:50Z</time>
      </trkpt>
      <trkpt lat="46.13557" lon="6.80032">
        <ele>2407.056</ele>
        <time>2025-02-02T13:34:55Z</time>
      </trkpt>
      <trkpt lat="46.13557" lon="6.80032">
        <ele>2407.093</ele>
        <time>2025-02-02T13:35:00Z</time>
      </trkpt>
      <trkpt lat="46.13557" lon="6.80032">
        <ele>2406.715</ele>
        <time>2025-02-02T13:35:05Z</time>
      </trkpt>
      <trkpt lat="46.13557" lon="6.80032">
        <ele>2406.712</ele>
        <time>2025-02-02T13:35:10Z</time>
      </trkpt>
      <trkpt lat="46.13557" lon="6.80032">
        <ele>2406.457</ele>
        <time>2025-02-02T13:35:15Z</time>
      </trkpt>
      <trkpt lat="46.13557" lon="6.80032">
        <ele>2406.204</ele>
        <time>2025-02-02T13:35:20Z</time>
      </trkpt>
      <trkpt lat="46.13557" lon="6.80032">
        <ele>2406.452</ele>
        <time>2025-02-02T13:35:25Z</time>
      </trkpt>
      <trkpt lat="46.13557" lon="6.80032">
        <ele>2406.458</ele>
        <time>2025-02-02T13:35:30Z</time>
      </trkpt>
      <trkpt lat="46.13557" lon="6.80032">
        <ele>2406.371</ele>
        <time>2025-02-02T13:35:35Z</time>
      </trkpt>
      <trkpt lat="46.13557" lon="6.80032">
        <ele>2406.285</ele>
        <time>2025-02-02T13:35:40Z</time>
      </trkpt>
      <trkpt lat="46.13557" lon="6.80032">
        <ele>2406.245</ele>
        <time>2025-02-02T13:35:45Z</time>
      </trkpt>
      <trkpt lat="46.13557" lon="6.80032">
        <ele>2406.245</ele>
        <time>2025-02-02T13:35:50Z</time>
      </trkpt>
      <trkpt lat="46.13557" lon="6.80032">
        <ele>2406.241</ele>
        <time>2025-02-02T13:35:55Z</time>
      </trkpt>
      <trkpt lat="46.13557" lon="6.80032">
        <ele>2406.423</ele>
        <time>2025-02-02T13:36:00Z</time>
      </trkpt>
      <trkpt lat="46.13557" lon="6.80032">
        <ele>2406.665</ele>
        <time>2025-02-02T13:36:05Z</time>
      </trkpt>
      <trkpt lat="46.13557" lon="6.80032">
        <ele>2406.656</ele>
        <time>2025-02-02T13:36:10Z</time>
      </trkpt>
      <trkpt lat="46.13557" lon="6.80032">
        <ele>2406.399</ele>
        <time>2025-02-02T13:36:15Z</time>
      </trkpt>
      <trkpt lat="46.13557" lon="6.80032">
        <ele>2406.794</ele>
        <time>2025-02-02T13:36:20Z</time>
      </trkpt>
      <trkpt lat="46.13557" lon="6.80032">
        <ele>2406.72</ele>
        <time>2025-02-02T13:36:25Z</time>
      </trkpt>
      <trkpt lat="46.13557" lon="6.80032">
        <ele>2406.887</ele>
        <time>2025-02-02T13:36:30Z</time>
      </trkpt>
      <trkpt lat="46.13557" lon="6.80032">
        <ele>2406.894</ele>
        <time>2025-02-02T13:36:35Z</time>
      </trkpt>
      <trkpt lat="46.13557" lon="6.80032">
        <ele>2406.899</ele>
        <time>2025-02-02T13:36:40Z</time>
      </trkpt>
      <trkpt lat="46.13557" lon="6.80032">
        <ele>2406.911</ele>
        <time>2025-02-02T13:36:45Z</time>
      </trkpt>
      <trkpt lat="46.13557" lon="6.80032">
        <ele>2406.875</ele>
        <time>2025-02-02T13:36:50Z</time>
      </trkpt>
      <trkpt lat="46.13557" lon="6.80032">
        <ele>2406.949</ele>
        <time>2025-02-02T13:36:55Z</time>
      </trkpt>
      <trkpt lat="46.13557" lon="6.80032">
        <ele>2406.977</ele>
        <time>2025-02-02T13:37:00Z</time>
      </trkpt>
      <trkpt lat="46.13557" lon="6.80032">
        <ele>2406.989</ele>
        <time>2025-02-02T13:37:05Z</time>
      </trkpt>
      <trkpt lat="46.13557" lon="6.80032">
        <ele>2407.004</ele>
        <time>2025-02-02T13:37:10Z</time>
      </trkpt>
      <trkpt lat="46.13557" lon="6.80032">
        <ele>2407.027</ele>
        <time>2025-02-02T13:37:15Z</time>
      </trkpt>
      <trkpt lat="46.13557" lon="6.80032">
        <ele>2407.04</ele>
        <time>2025-02-02T13:37:20Z</time>
      </trkpt>
      <trkpt lat="46.13557" lon="6.80032">
        <ele>2407.045</ele>
        <time>2025-02-02T13:37:25Z</time>
      </trkpt>
      <trkpt lat="46.13557" lon="6.80032">
        <ele>2407.047</ele>
        <time>2025-02-02T13:37:30Z</time>
      </trkpt>
      <trkpt lat="46.13557" lon="6.80032">
        <ele>2407.25</ele>
        <time>2025-02-02T13:37:35Z</time>
      </trkpt>
      <trkpt lat="46.13557" lon="6.80032">
        <ele>2407.254</ele>
        <time>2025-02-02T13:37:40Z</time>
      </trkpt>
      <trkpt lat="46.13557" lon="6.80032">
        <ele>2407.255</ele>
        <time>2025-02-02T13:37:45Z</time>
      </trkpt>
      <trkpt lat="46.13557" lon="6.80032">
        <ele>2407.256</ele>
        <time>2025-02-02T13:37:50Z</time>
      </trkpt>
      <trkpt lat="46.13557" lon="6.80032">
        <ele>2407.1</ele>
        <time>2025-02-02T13:37:55Z</time>
      </trkpt>
      <trkpt lat="46.13557" lon="6.80032">
        <ele>2407.105</ele>
        <time>2025-02-02T13:38:00Z</time>
      </trkpt>
      <trkpt lat="46.13557" lon="6.80032">
        <ele>2407.103</ele>
        <time>2025-02-02T13:38:05Z</time>
      </trkpt>
      <trkpt lat="46.13557" lon="6.80032">
        <ele>2407.107</ele>
        <time>2025-02-02T13:38:10Z</time>
      </trkpt>
      <trkpt lat="46.13557" lon="6.80032">
        <ele>2407.101</ele>
        <time>2025-02-02T13:38:15Z</time>
      </trkpt>
      <trkpt lat="46.13557" lon="6.80032">
        <ele>2407.101</ele>
        <time>2025-02-02T13:38:20Z</time>
      </trkpt>
      <trkpt lat="46.13557" lon="6.80032">
        <ele>2407.097</ele>
        <time>2025-02-02T13:38:25Z</time>
      </trkpt>
      <trkpt lat="46.13557" lon="6.80032">
        <ele>2407.096</ele>
        <time>2025-02-02T13:38:30Z</time>
      </trkpt>
      <trkpt lat="46.13557" lon="6.80032">
        <ele>2407.096</ele>
        <time>2025-02-02T13:38:35Z</time>
      </trkpt>
      <trkpt lat="46.13557" lon="6.80032">
        <ele>2407.099</ele>
        <time>2025-02-02T13:38:40Z</time>
      </trkpt>
      <trkpt lat="46.13557" lon="6.80032">
        <ele>2407.102</ele>
        <time>2025-02-02T13:38:45Z</time>
      </trkpt>
      <trkpt lat="46.13557" lon="6.80032">
        <ele>2407.105</ele>
        <time>2025-02-02T13:38:50Z</time>
      </trkpt>
      <trkpt lat="46.13557" lon="6.80032">
        <ele>2407.109</ele>
        <time>2025-02-02T13:38:55Z</time>
      </trkpt>
      <trkpt lat="46.13557" lon="6.80032">
        <ele>2407.193</ele>
        <time>2025-02-02T13:39:00Z</time>
      </trkpt>
      <trkpt lat="46.13557" lon="6.80032">
        <ele>2407.509</ele>
        <time>2025-02-02T13:39:05Z</time>
      </trkpt>
      <trkpt lat="46.13557" lon="6.80032">
        <ele>2407.509</ele>
        <time>2025-02-02T13:39:10Z</time>
      </trkpt>
      <trkpt lat="46.13557" lon="6.80032">
        <ele>2407.508</ele>
        <time>2025-02-02T13:39:15Z</time>
      </trkpt>
      <trkpt lat="46.13557" lon="6.80032">
        <ele>2407.513</ele>
        <time>2025-02-02T13:39:20Z</time>
      </trkpt>
      <trkpt lat="46.13557" lon="6.80032">
        <ele>2407.518</ele>
        <time>2025-02-02T13:39:25Z</time>
      </trkpt>
      <trkpt lat="46.13557" lon="6.80032">
        <ele>2407.518</ele>
        <time>2025-02-02T13:39:30Z</time>
      </trkpt>
      <trkpt lat="46.13557" lon="6.80032">
        <ele>2407.515</ele>
        <time>2025-02-02T13:39:35Z</time>
      </trkpt>
      <trkpt lat="46.13557" lon="6.80032">
        <ele>2407.515</ele>
        <time>2025-02-02T13:39:40Z</time>
      </trkpt>
      <trkpt lat="46.13557" lon="6.80032">
        <ele>2407.361</ele>
        <time>2025-02-02T13:39:45Z</time>
      </trkpt>
      <trkpt lat="46.13557" lon="6.80032">
        <ele>2407.063</ele>
        <time>2025-02-02T13:39:50Z</time>
      </trkpt>
      <trkpt lat="46.13557" lon="6.80032">
        <ele>2407.064</ele>
        <time>2025-02-02T13:39:55Z</time>
      </trkpt>
      <trkpt lat="46.13557" lon="6.80032">
        <ele>2407.064</ele>
        <time>2025-02-02T13:40:00Z</time>
      </trkpt>
      <trkpt lat="46.13557" lon="6.80032">
        <ele>2407.066</ele>
        <time>2025-02-02T13:40:05Z</time>
      </trkpt>
      <trkpt lat="46.13557" lon="6.80032">
        <ele>2407.068</ele>
        <time>2025-02-02T13:40:10Z</time>
      </trkpt>
      <trkpt lat="46.13557" lon="6.80032">
        <ele>2407.075</ele>
        <time>2025-02-02T13:40:15Z</time>
      </trkpt>
      <trkpt lat="46.13557" lon="6.80032">
        <ele>2407.077</ele>
        <time>2025-02-02T13:40:20Z</time>
      </trkpt>
      <trkpt lat="46.13557" lon="6.80032">
        <ele>2407.121</ele>
        <time>2025-02-02T13:40:25Z</time>
      </trkpt>
      <trkpt lat="46.13557" lon="6.80032">
        <ele>2407.119</ele>
        <time>2025-02-02T13:40:30Z</time>
      </trkpt>
      <trkpt lat="46.13557" lon="6.80032">
        <ele>2406.812</ele>
        <time>2025-02-02T13:40:35Z</time>
      </trkpt>
      <trkpt lat="46.13557" lon="6.80032">
        <ele>2406.55</ele>
        <time>2025-02-02T13:40:40Z</time>
      </trkpt>
      <trkpt lat="46.13557" lon="6.80032">
        <ele>2405.821</ele>
        <time>2025-02-02T13:40:45Z</time>
      </trkpt>
      <trkpt lat="46.13557" lon="6.80032">
        <ele>2406.08</ele>
        <time>2025-02-02T13:40:50Z</time>
      </trkpt>
      <trkpt lat="46.13557" lon="6.80032">
        <ele>2406.103</ele>
        <time>2025-02-02T13:40:55Z</time>
      </trkpt>
      <trkpt lat="46.13557" lon="6.80032">
        <ele>2406.122</ele>
        <time>2025-02-02T13:41:00Z</time>
      </trkpt>
      <trkpt lat="46.13557" lon="6.80032">
        <ele>2406.134</ele>
        <time>2025-02-02T13:41:05Z</time>
      </trkpt>
      <trkpt lat="46.13557" lon="6.80032">
        <ele>2406.14</ele>
        <time>2025-02-02T13:41:10Z</time>
      </trkpt>
      <trkpt lat="46.13557" lon="6.80032">
        <ele>2406.279</ele>
        <time>2025-02-02T13:41:15Z</time>
      </trkpt>
      <trkpt lat="46.13557" lon="6.80032">
        <ele>2406.345</ele>
        <time>2025-02-02T13:41:20Z</time>
      </trkpt>
      <trkpt lat="46.13557" lon="6.80032">
        <ele>2406.115</ele>
        <time>2025-02-02T13:41:25Z</time>
      </trkpt>
      <trkpt lat="46.13557" lon="6.80032">
        <ele>2405.944</ele>
        <time>2025-02-02T13:41:30Z</time>
      </trkpt>
      <trkpt lat="46.13557" lon="6.80032">
        <ele>2406.257</ele>
        <time>2025-02-02T13:41:35Z</time>
      </trkpt>
      <trkpt lat="46.13557" lon="6.80032">
        <ele>2406.267</ele>
        <time>2025-02-02T13:41:40Z</time>
      </trkpt>
      <trkpt lat="46.13557" lon="6.80032">
        <ele>2406.416</ele>
        <time>2025-02-02T13:41:45Z</time>
      </trkpt>
      <trkpt lat="46.13557" lon="6.80032">
        <ele>2406.53</ele>
        <time>2025-02-02T13:41:50Z</time>
      </trkpt>
      <trkpt lat="46.13557" lon="6.80032">
        <ele>2406.535</ele>
        <time>2025-02-02T13:41:55Z</time>
      </trkpt>
      <trkpt lat="46.13557" lon="6.80032">
        <ele>2406.539</ele>
        <time>2025-02-02T13:42:00Z</time>
      </trkpt>
      <trkpt lat="46.13557" lon="6.80032">
        <ele>2406.538</ele>
        <time>2025-02-02T13:42:05Z</time>
      </trkpt>
      <trkpt lat="46.13557" lon="6.80032">
        <ele>2406.384</ele>
        <time>2025-02-02T13:42:10Z</time>
      </trkpt>
      <trkpt lat="46.13557" lon="6.80032">
        <ele>2406.328</ele>
        <time>2025-02-02T13:42:15Z</time>
      </trkpt>
      <trkpt lat="46.13557" lon="6.80032">
        <ele>2406.859</ele>
        <time>2025-02-02T13:42:20Z</time>
      </trkpt>
      <trkpt lat="46.13557" lon="6.80032">
        <ele>2406.361</ele>
        <time>2025-02-02T13:42:25Z</time>
      </trkpt>
      <trkpt lat="46.13557" lon="6.80032">
        <ele>2406.369</ele>
        <time>2025-02-02T13:42:30Z</time>
      </trkpt>
      <trkpt lat="46.13557" lon="6.80032">
        <ele>2406.372</ele>
        <time>2025-02-02T13:42:35Z</time>
      </trkpt>
      <trkpt lat="46.13557" lon="6.80032">
        <ele>2406.377</ele>
        <time>2025-02-02T13:42:40Z</time>
      </trkpt>
      <trkpt lat="46.13557" lon="6.80032">
        <ele>2406.381</ele>
        <time>2025-02-02T13:42:45Z</time>
      </trkpt>
      <trkpt lat="46.13557" lon="6.80032">
        <ele>2406.409</ele>
        <time>2025-02-02T13:42:50Z</time>
      </trkpt>
      <trkpt lat="46.13557" lon="6.80032">
        <ele>2406.424</ele>
        <time>2025-02-02T13:42:55Z</time>
      </trkpt>
      <trkpt lat="46.13557" lon="6.80032">
        <ele>2406.759</ele>
        <time>2025-02-02T13:43:00Z</time>
      </trkpt>
      <trkpt lat="46.13557" lon="6.80032">
        <ele>2408.434</ele>
        <time>2025-02-02T13:43:05Z</time>
      </trkpt>
      <trkpt lat="46.13557" lon="6.80032">
        <ele>2407.889</ele>
        <time>2025-02-02T13:43:10Z</time>
      </trkpt>
      <trkpt lat="46.13557" lon="6.80032">
        <ele>2407.882</ele>
        <time>2025-02-02T13:43:15Z</time>
      </trkpt>
      <trkpt lat="46.13557" lon="6.80032">
        <ele>2407.882</ele>
        <time>2025-02-02T13:43:20Z</time>
      </trkpt>
      <trkpt lat="46.13557" lon="6.80032">
        <ele>2407.876</ele>
        <time>2025-02-02T13:43:25Z</time>
      </trkpt>
      <trkpt lat="46.13557" lon="6.80032">
        <ele>2407.872</ele>
        <time>2025-02-02T13:43:30Z</time>
      </trkpt>
      <trkpt lat="46.13557" lon="6.80032">
        <ele>2407.874</ele>
        <time>2025-02-02T13:43:35Z</time>
      </trkpt>
      <trkpt lat="46.13557" lon="6.80032">
        <ele>2407.872</ele>
        <time>2025-02-02T13:43:40Z</time>
      </trkpt>
      <trkpt lat="46.13557" lon="6.80032">
        <ele>2407.872</ele>
        <time>2025-02-02T13:43:45Z</time>
      </trkpt>
      <trkpt lat="46.13557" lon="6.80032">
        <ele>2407.87</ele>
        <time>2025-02-02T13:43:50Z</time>
      </trkpt>
      <trkpt lat="46.13557" lon="6.80032">
        <ele>2407.796</ele>
        <time>2025-02-02T13:43:55Z</time>
      </trkpt>
      <trkpt lat="46.13557" lon="6.80032">
        <ele>2407.684</ele>
        <time>2025-02-02T13:44:00Z</time>
      </trkpt>
      <trkpt lat="46.13557" lon="6.80032">
        <ele>2407.691</ele>
        <time>2025-02-02T13:44:05Z</time>
      </trkpt>
      <trkpt lat="46.13557" lon="6.80032">
        <ele>2407.704</ele>
        <time>2025-02-02T13:44:10Z</time>
      </trkpt>
      <trkpt lat="46.13557" lon="6.80032">
        <ele>2407.723</ele>
        <time>2025-02-02T13:44:15Z</time>
      </trkpt>
      <trkpt lat="46.13557" lon="6.80032">
        <ele>2407.736</ele>
        <time>2025-02-02T13:44:20Z</time>
      </trkpt>
      <trkpt lat="46.13557" lon="6.80032">
        <ele>2407.746</ele>
        <time>2025-02-02T13:44:25Z</time>
      </trkpt>
      <trkpt lat="46.13557" lon="6.80032">
        <ele>2407.762</ele>
        <time>2025-02-02T13:44:30Z</time>
      </trkpt>
      <trkpt lat="46.13557" lon="6.80032">
        <ele>2407.775</ele>
        <time>2025-02-02T13:44:35Z</time>
      </trkpt>
      <trkpt lat="46.13557" lon="6.80032">
        <ele>2407.784</ele>
        <time>2025-02-02T13:44:40Z</time>
      </trkpt>
      <trkpt lat="46.13557" lon="6.80032">
        <ele>2407.794</ele>
        <time>2025-02-02T13:44:45Z</time>
      </trkpt>
      <trkpt lat="46.13557" lon="6.80032">
        <ele>2407.803</ele>
        <time>2025-02-02T13:44:50Z</time>
      </trkpt>
      <trkpt lat="46.13557" lon="6.80032">
        <ele>2408.043</ele>
        <time>2025-02-02T13:44:55Z</time>
      </trkpt>
      <trkpt lat="46.13557" lon="6.80032">
        <ele>2408.054</ele>
        <time>2025-02-02T13:45:00Z</time>
      </trkpt>
      <trkpt lat="46.13557" lon="6.80032">
        <ele>2408.057</ele>
        <time>2025-02-02T13:45:05Z</time>
      </trkpt>
      <trkpt lat="46.13557" lon="6.80032">
        <ele>2408.388</ele>
        <time>2025-02-02T13:45:10Z</time>
      </trkpt>
      <trkpt lat="46.13557" lon="6.80032">
        <ele>2408.628</ele>
        <time>2025-02-02T13:45:15Z</time>
      </trkpt>
      <trkpt lat="46.13557" lon="6.80032">
        <ele>2408.467</ele>
        <time>2025-02-02T13:45:20Z</time>
      </trkpt>
      <trkpt lat="46.13557" lon="6.80032">
        <ele>2408.468</ele>
        <time>2025-02-02T13:45:25Z</time>
      </trkpt>
      <trkpt lat="46.13557" lon="6.80032">
        <ele>2408.468</ele>
        <time>2025-02-02T13:45:30Z</time>
      </trkpt>
      <trkpt lat="46.13557" lon="6.80032">
        <ele>2408.475</ele>
        <time>2025-02-02T13:45:35Z</time>
      </trkpt>
      <trkpt lat="46.13557" lon="6.80032">
        <ele>2408.471</ele>
        <time>2025-02-02T13:45:40Z</time>
      </trkpt>
      <trkpt lat="46.13557" lon="6.80032">
        <ele>2408.465</ele>
        <time>2025-02-02T13:45:45Z</time>
      </trkpt>
      <trkpt lat="46.13557" lon="6.80032">
        <ele>2408.462</ele>
        <time>2025-02-02T13:45:50Z</time>
      </trkpt>
      <trkpt lat="46.13557" lon="6.80032">
        <ele>2408.464</ele>
        <time>2025-02-02T13:45:55Z</time>
      </trkpt>
      <trkpt lat="46.13557" lon="6.80032">
        <ele>2408.369</ele>
        <time>2025-02-02T13:46:00Z</time>
      </trkpt>
      <trkpt lat="46.13557" lon="6.80032">
        <ele>2408.59</ele>
        <time>2025-02-02T13:46:05Z</time>
      </trkpt>
      <trkpt lat="46.13557" lon="6.80032">
        <ele>2408.605</ele>
        <time>2025-02-02T13:46:10Z</time>
      </trkpt>
      <trkpt lat="46.13557" lon="6.80032">
        <ele>2409.007</ele>
        <time>2025-02-02T13:46:15Z</time>
      </trkpt>
      <trkpt lat="46.13557" lon="6.80032">
        <ele>2408.999</ele>
        <time>2025-02-02T13:46:20Z</time>
      </trkpt>
      <trkpt lat="46.13557" lon="6.80032">
        <ele>2408.994</ele>
        <time>2025-02-02T13:46:25Z</time>
      </trkpt>
      <trkpt lat="46.13557" lon="6.80032">
        <ele>2408.991</ele>
        <time>2025-02-02T13:46:30Z</time>
      </trkpt>
      <trkpt lat="46.13557" lon="6.80032">
        <ele>2408.992</ele>
        <time>2025-02-02T13:46:35Z</time>
      </trkpt>
      <trkpt lat="46.13557" lon="6.80032">
        <ele>2408.992</ele>
        <time>2025-02-02T13:46:40Z</time>
      </trkpt>
      <trkpt lat="46.13557" lon="6.80032">
        <ele>2408.99</ele>
        <time>2025-02-02T13:46:45Z</time>
      </trkpt>
      <trkpt lat="46.13557" lon="6.80032">
        <ele>2408.991</ele>
        <time>2025-02-02T13:46:50Z</time>
      </trkpt>
      <trkpt lat="46.13557" lon="6.80032">
        <ele>2408.991</ele>
        <time>2025-02-02T13:46:55Z</time>
      </trkpt>
      <trkpt lat="46.13557" lon="6.80032">
        <ele>2408.984</ele>
        <time>2025-02-02T13:47:00Z</time>
      </trkpt>
      <trkpt lat="46.13557" lon="6.80032">
        <ele>2408.819</ele>
        <time>2025-02-02T13:47:05Z</time>
      </trkpt>
      <trkpt lat="46.13557" lon="6.80032">
        <ele>2408.823</ele>
        <time>2025-02-02T13:47:10Z</time>
      </trkpt>
      <trkpt lat="46.13557" lon="6.80032">
        <ele>2408.826</ele>
        <time>2025-02-02T13:47:15Z</time>
      </trkpt>
      <trkpt lat="46.13557" lon="6.80032">
        <ele>2408.831</ele>
        <time>2025-02-02T13:47:20Z</time>
      </trkpt>
      <trkpt lat="46.13557" lon="6.80032">
        <ele>2408.83</ele>
        <time>2025-02-02T13:47:25Z</time>
      </trkpt>
      <trkpt lat="46.13557" lon="6.80032">
        <ele>2408.837</ele>
        <time>2025-02-02T13:47:30Z</time>
      </trkpt>
      <trkpt lat="46.13557" lon="6.80032">
        <ele>2408.838</ele>
        <time>2025-02-02T13:47:35Z</time>
      </trkpt>
      <trkpt lat="46.13557" lon="6.80032">
        <ele>2409.099</ele>
        <time>2025-02-02T13:47:40Z</time>
      </trkpt>
      <trkpt lat="46.13557" lon="6.80032">
        <ele>2410.032</ele>
        <time>2025-02-02T13:47:45Z</time>
      </trkpt>
      <trkpt lat="46.13557" lon="6.80032">
        <ele>2410.215</ele>
        <time>2025-02-02T13:47:50Z</time>
      </trkpt>
      <trkpt lat="46.13556" lon="6.80032">
        <ele>2410.133</ele>
        <time>2025-02-02T13:47:55Z</time>
      </trkpt>
      <trkpt lat="46.13556" lon="6.80031">
        <ele>2410.146</ele>
        <time>2025-02-02T13:48:00Z</time>
      </trkpt>
      <trkpt lat="46.13556" lon="6.80031">
        <ele>2410.03</ele>
        <time>2025-02-02T13:48:05Z</time>
      </trkpt>
      <trkpt lat="46.13554" lon="6.80022">
        <ele>2409.808</ele>
        <time>2025-02-02T13:48:10Z</time>
      </trkpt>
      <trkpt lat="46.13551" lon="6.80001">
        <ele>2408.191</ele>
        <time>2025-02-02T13:48:15Z</time>
      </trkpt>
      <trkpt lat="46.13553" lon="6.79973">
        <ele>2406.591</ele>
        <time>2025-02-02T13:48:20Z</time>
      </trkpt>
      <trkpt lat="46.13558" lon="6.7995">
        <ele>2402.87</ele>
        <time>2025-02-02T13:48:25Z</time>
      </trkpt>
      <trkpt lat="46.13563" lon="6.79933">
        <ele>2402.008</ele>
        <time>2025-02-02T13:48:30Z</time>
      </trkpt>
      <trkpt lat="46.13561" lon="6.79911">
        <ele>2398.553</ele>
        <time>2025-02-02T13:48:35Z</time>
      </trkpt>
      <trkpt lat="46.13558" lon="6.79888">
        <ele>2395.009</ele>
        <time>2025-02-02T13:48:40Z</time>
      </trkpt>
      <trkpt lat="46.13547" lon="6.79875">
        <ele>2392.765</ele>
        <time>2025-02-02T13:48:45Z</time>
      </trkpt>
      <trkpt lat="46.13545" lon="6.79859">
        <ele>2389.652</ele>
        <time>2025-02-02T13:48:50Z</time>
      </trkpt>
      <trkpt lat="46.13553" lon="6.79844">
        <ele>2387.369</ele>
        <time>2025-02-02T13:48:55Z</time>
      </trkpt>
      <trkpt lat="46.13558" lon="6.79824">
        <ele>2383.679</ele>
        <time>2025-02-02T13:49:00Z</time>
      </trkpt>
      <trkpt lat="46.13545" lon="6.79816">
        <ele>2380.694</ele>
        <time>2025-02-02T13:49:05Z</time>
      </trkpt>
      <trkpt lat="46.13541" lon="6.79795">
        <ele>2373.784</ele>
        <time>2025-02-02T13:49:10Z</time>
      </trkpt>
      <trkpt lat="46.13534" lon="6.79772">
        <ele>2369.073</ele>
        <time>2025-02-02T13:49:15Z</time>
      </trkpt>
      <trkpt lat="46.13527" lon="6.79748">
        <ele>2368.629</ele>
        <time>2025-02-02T13:49:20Z</time>
      </trkpt>
      <trkpt lat="46.1352" lon="6.79725">
        <ele>2365.198</ele>
        <time>2025-02-02T13:49:25Z</time>
      </trkpt>
      <trkpt lat="46.13512" lon="6.79706">
        <ele>2360.803</ele>
        <time>2025-02-02T13:49:30Z</time>
      </trkpt>
      <trkpt lat="46.13508" lon="6.79688">
        <ele>2358.207</ele>
        <time>2025-02-02T13:49:35Z</time>
      </trkpt>
      <trkpt lat="46.13506" lon="6.79686">
        <ele>2357.21</ele>
        <time>2025-02-02T13:49:40Z</time>
      </trkpt>
      <trkpt lat="46.13506" lon="6.79686">
        <ele>2356.658</ele>
        <time>2025-02-02T13:49:45Z</time>
      </trkpt>
      <trkpt lat="46.13506" lon="6.79686">
        <ele>2354.588</ele>
        <time>2025-02-02T13:49:50Z</time>
      </trkpt>
      <trkpt lat="46.13506" lon="6.79686">
        <ele>2354.978</ele>
        <time>2025-02-02T13:49:55Z</time>
      </trkpt>
      <trkpt lat="46.13506" lon="6.79686">
        <ele>2355.144</ele>
        <time>2025-02-02T13:50:00Z</time>
      </trkpt>
      <trkpt lat="46.13506" lon="6.79686">
        <ele>2355.969</ele>
        <time>2025-02-02T13:50:05Z</time>
      </trkpt>
      <trkpt lat="46.13506" lon="6.79686">
        <ele>2354.331</ele>
        <time>2025-02-02T13:50:10Z</time>
      </trkpt>
      <trkpt lat="46.13506" lon="6.79686">
        <ele>2353.034</ele>
        <time>2025-02-02T13:50:15Z</time>
      </trkpt>
      <trkpt lat="46.13506" lon="6.79686">
        <ele>2354.009</ele>
        <time>2025-02-02T13:50:20Z</time>
      </trkpt>
      <trkpt lat="46.13506" lon="6.79686">
        <ele>2354.211</ele>
        <time>2025-02-02T13:50:25Z</time>
      </trkpt>
      <trkpt lat="46.13506" lon="6.79686">
        <ele>2352.867</ele>
        <time>2025-02-02T13:50:30Z</time>
      </trkpt>
      <trkpt lat="46.13506" lon="6.79686">
        <ele>2353.037</ele>
        <time>2025-02-02T13:50:35Z</time>
      </trkpt>
      <trkpt lat="46.13506" lon="6.79686">
        <ele>2352.263</ele>
        <time>2025-02-02T13:50:40Z</time>
      </trkpt>
      <trkpt lat="46.13506" lon="6.79686">
        <ele>2349.84</ele>
        <time>2025-02-02T13:50:45Z</time>
      </trkpt>
      <trkpt lat="46.13506" lon="6.79686">
        <ele>2348.643</ele>
        <time>2025-02-02T13:50:50Z</time>
      </trkpt>
      <trkpt lat="46.13506" lon="6.79686">
        <ele>2349.937</ele>
        <time>2025-02-02T13:50:55Z</time>
      </trkpt>
      <trkpt lat="46.13506" lon="6.79686">
        <ele>2349.67</ele>
        <time>2025-02-02T13:51:00Z</time>
      </trkpt>
      <trkpt lat="46.13506" lon="6.79686">
        <ele>2349.727</ele>
        <time>2025-02-02T13:51:05Z</time>
      </trkpt>
      <trkpt lat="46.13506" lon="6.79686">
        <ele>2349.67</ele>
        <time>2025-02-02T13:51:10Z</time>
      </trkpt>
      <trkpt lat="46.13506" lon="6.79686">
        <ele>2349.076</ele>
        <time>2025-02-02T13:51:15Z</time>
      </trkpt>
      <trkpt lat="46.13506" lon="6.79686">
        <ele>2347.889</ele>
        <time>2025-02-02T13:51:20Z</time>
      </trkpt>
      <trkpt lat="46.13506" lon="6.79686">
        <ele>2348.006</ele>
        <time>2025-02-02T13:51:25Z</time>
      </trkpt>
      <trkpt lat="46.13506" lon="6.79686">
        <ele>2348.107</ele>
        <time>2025-02-02T13:51:30Z</time>
      </trkpt>
      <trkpt lat="46.13506" lon="6.79686">
        <ele>2348.515</ele>
        <time>2025-02-02T13:51:35Z</time>
      </trkpt>
      <trkpt lat="46.13506" lon="6.79686">
        <ele>2348.956</ele>
        <time>2025-02-02T13:51:40Z</time>
      </trkpt>
      <trkpt lat="46.13506" lon="6.79686">
        <ele>2348.436</ele>
        <time>2025-02-02T13:51:45Z</time>
      </trkpt>
      <trkpt lat="46.13506" lon="6.79686">
        <ele>2347.379</ele>
        <time>2025-02-02T13:51:50Z</time>
      </trkpt>
      <trkpt lat="46.13506" lon="6.79686">
        <ele>2348.468</ele>
        <time>2025-02-02T13:51:55Z</time>
      </trkpt>
      <trkpt lat="46.13506" lon="6.79686">
        <ele>2348.528</ele>
        <time>2025-02-02T13:52:00Z</time>
      </trkpt>
      <trkpt lat="46.13506" lon="6.79686">
        <ele>2349.564</ele>
        <time>2025-02-02T13:52:05Z</time>
      </trkpt>
      <trkpt lat="46.13506" lon="6.79686">
        <ele>2351.746</ele>
        <time>2025-02-02T13:52:10Z</time>
      </trkpt>
      <trkpt lat="46.13506" lon="6.79686">
        <ele>2349.028</ele>
        <time>2025-02-02T13:52:15Z</time>
      </trkpt>
      <trkpt lat="46.13506" lon="6.79686">
        <ele>2350.413</ele>
        <time>2025-02-02T13:52:20Z</time>
      </trkpt>
      <trkpt lat="46.13506" lon="6.79686">
        <ele>2349.781</ele>
        <time>2025-02-02T13:52:25Z</time>
      </trkpt>
      <trkpt lat="46.13506" lon="6.79686">
        <ele>2348.965</ele>
        <time>2025-02-02T13:52:30Z</time>
      </trkpt>
      <trkpt lat="46.13506" lon="6.79686">
        <ele>2349.014</ele>
        <time>2025-02-02T13:52:35Z</time>
      </trkpt>
      <trkpt lat="46.13506" lon="6.79686">
        <ele>2348.994</ele>
        <time>2025-02-02T13:52:40Z</time>
      </trkpt>
      <trkpt lat="46.13506" lon="6.79686">
        <ele>2348.142</ele>
        <time>2025-02-02T13:52:45Z</time>
      </trkpt>
      <trkpt lat="46.13506" lon="6.79686">
        <ele>2348.622</ele>
        <time>2025-02-02T13:52:50Z</time>
      </trkpt>
      <trkpt lat="46.13506" lon="6.79686">
        <ele>2349.073</ele>
        <time>2025-02-02T13:52:55Z</time>
      </trkpt>
      <trkpt lat="46.13506" lon="6.79686">
        <ele>2349.21</ele>
        <time>2025-02-02T13:53:00Z</time>
      </trkpt>
      <trkpt lat="46.13506" lon="6.79686">
        <ele>2349.209</ele>
        <time>2025-02-02T13:53:05Z</time>
      </trkpt>
      <trkpt lat="46.13506" lon="6.79686">
        <ele>2349.195</ele>
        <time>2025-02-02T13:53:10Z</time>
      </trkpt>
      <trkpt lat="46.13506" lon="6.79686">
        <ele>2349.495</ele>
        <time>2025-02-02T13:53:15Z</time>
      </trkpt>
      <trkpt lat="46.13506" lon="6.79686">
        <ele>2349.488</ele>
        <time>2025-02-02T13:53:20Z</time>
      </trkpt>
      <trkpt lat="46.13506" lon="6.79686">
        <ele>2349.279</ele>
        <time>2025-02-02T13:53:25Z</time>
      </trkpt>
      <trkpt lat="46.13506" lon="6.79686">
        <ele>2350.204</ele>
        <time>2025-02-02T13:53:30Z</time>
      </trkpt>
      <trkpt lat="46.13506" lon="6.79686">
        <ele>2350.95</ele>
        <time>2025-02-02T13:53:35Z</time>
      </trkpt>
      <trkpt lat="46.13506" lon="6.79686">
        <ele>2350.829</ele>
        <time>2025-02-02T13:53:40Z</time>
      </trkpt>
      <trkpt lat="46.13506" lon="6.79686">
        <ele>2350.834</ele>
        <time>2025-02-02T13:53:45Z</time>
      </trkpt>
      <trkpt lat="46.13506" lon="6.79686">
        <ele>2350.836</ele>
        <time>2025-02-02T13:53:50Z</time>
      </trkpt>
      <trkpt lat="46.13506" lon="6.79686">
        <ele>2350.83</ele>
        <time>2025-02-02T13:53:55Z</time>
      </trkpt>
      <trkpt lat="46.13506" lon="6.79686">
        <ele>2350.837</ele>
        <time>2025-02-02T13:54:00Z</time>
      </trkpt>
      <trkpt lat="46.13506" lon="6.79686">
        <ele>2350.013</ele>
        <time>2025-02-02T13:54:05Z</time>
      </trkpt>
      <trkpt lat="46.13506" lon="6.79686">
        <ele>2350.485</ele>
        <time>2025-02-02T13:54:10Z</time>
      </trkpt>
      <trkpt lat="46.13506" lon="6.79686">
        <ele>2350.081</ele>
        <time>2025-02-02T13:54:15Z</time>
      </trkpt>
      <trkpt lat="46.13506" lon="6.79686">
        <ele>2350.074</ele>
        <time>2025-02-02T13:54:20Z</time>
      </trkpt>
      <trkpt lat="46.13506" lon="6.79686">
        <ele>2349.779</ele>
        <time>2025-02-02T13:54:25Z</time>
      </trkpt>
      <trkpt lat="46.13506" lon="6.79686">
        <ele>2349.781</ele>
        <time>2025-02-02T13:54:30Z</time>
      </trkpt>
      <trkpt lat="46.13506" lon="6.79686">
        <ele>2348.531</ele>
        <time>2025-02-02T13:54:35Z</time>
      </trkpt>
      <trkpt lat="46.13506" lon="6.79686">
        <ele>2348.526</ele>
        <time>2025-02-02T13:54:40Z</time>
      </trkpt>
      <trkpt lat="46.13506" lon="6.79686">
        <ele>2348.521</ele>
        <time>2025-02-02T13:54:45Z</time>
      </trkpt>
      <trkpt lat="46.13506" lon="6.79686">
        <ele>2348.516</ele>
        <time>2025-02-02T13:54:50Z</time>
      </trkpt>
      <trkpt lat="46.13506" lon="6.79686">
        <ele>2348.507</ele>
        <time>2025-02-02T13:54:55Z</time>
      </trkpt>
      <trkpt lat="46.13506" lon="6.79686">
        <ele>2348.5</ele>
        <time>2025-02-02T13:55:00Z</time>
      </trkpt>
      <trkpt lat="46.13506" lon="6.79686">
        <ele>2348.495</ele>
        <time>2025-02-02T13:55:05Z</time>
      </trkpt>
      <trkpt lat="46.13506" lon="6.79686">
        <ele>2348.485</ele>
        <time>2025-02-02T13:55:10Z</time>
      </trkpt>
      <trkpt lat="46.13506" lon="6.79686">
        <ele>2348.478</ele>
        <time>2025-02-02T13:55:15Z</time>
      </trkpt>
      <trkpt lat="46.13506" lon="6.79686">
        <ele>2348.468</ele>
        <time>2025-02-02T13:55:20Z</time>
      </trkpt>
      <trkpt lat="46.13506" lon="6.79686">
        <ele>2348.461</ele>
        <time>2025-02-02T13:55:25Z</time>
      </trkpt>
      <trkpt lat="46.13506" lon="6.79686">
        <ele>2348.483</ele>
        <time>2025-02-02T13:55:30Z</time>
      </trkpt>
      <trkpt lat="46.13506" lon="6.79686">
        <ele>2349.852</ele>
        <time>2025-02-02T13:55:35Z</time>
      </trkpt>
      <trkpt lat="46.13506" lon="6.79686">
        <ele>2349.864</ele>
        <time>2025-02-02T13:55:40Z</time>
      </trkpt>
      <trkpt lat="46.13506" lon="6.79686">
        <ele>2349.413</ele>
        <time>2025-02-02T13:55:45Z</time>
      </trkpt>
      <trkpt lat="46.13506" lon="6.79686">
        <ele>2348.855</ele>
        <time>2025-02-02T13:55:50Z</time>
      </trkpt>
      <trkpt lat="46.13506" lon="6.79686">
        <ele>2349.122</ele>
        <time>2025-02-02T13:55:55Z</time>
      </trkpt>
      <trkpt lat="46.13506" lon="6.79686">
        <ele>2345.513</ele>
        <time>2025-02-02T13:56:00Z</time>
      </trkpt>
      <trkpt lat="46.13505" lon="6.79668">
        <ele>2344.67</ele>
        <time>2025-02-02T13:56:05Z</time>
      </trkpt>
      <trkpt lat="46.13506" lon="6.79668">
        <ele>2344.626</ele>
        <time>2025-02-02T13:56:10Z</time>
      </trkpt>
      <trkpt lat="46.13505" lon="6.79664">
        <ele>2343.391</ele>
        <time>2025-02-02T13:56:15Z</time>
      </trkpt>
      <trkpt lat="46.13502" lon="6.79638">
        <ele>2342.124</ele>
        <time>2025-02-02T13:56:20Z</time>
      </trkpt>
      <trkpt lat="46.13498" lon="6.79611">
        <ele>2341.154</ele>
        <time>2025-02-02T13:56:25Z</time>
      </trkpt>
      <trkpt lat="46.13497" lon="6.79587">
        <ele>2339.913</ele>
        <time>2025-02-02T13:56:30Z</time>
      </trkpt>
      <trkpt lat="46.13503" lon="6.79567">
        <ele>2336.619</ele>
        <time>2025-02-02T13:56:35Z</time>
      </trkpt>
      <trkpt lat="46.13501" lon="6.79537">
        <ele>2333.419</ele>
        <time>2025-02-02T13:56:40Z</time>
      </trkpt>
      <trkpt lat="46.13498" lon="6.79524">
        <ele>2331.755</ele>
        <time>2025-02-02T13:56:45Z</time>
      </trkpt>
      <trkpt lat="46.13495" lon="6.79511">
        <ele>2326.355</ele>
        <time>2025-02-02T13:56:50Z</time>
      </trkpt>
      <trkpt lat="46.13495" lon="6.79509">
        <ele>2326.016</ele>
        <time>2025-02-02T13:56:55Z</time>
      </trkpt>
      <trkpt lat="46.13482" lon="6.7951">
        <ele>2324.638</ele>
        <time>2025-02-02T13:57:00Z</time>
      </trkpt>
      <trkpt lat="46.13473" lon="6.79501">
        <ele>2319.203</ele>
        <time>2025-02-02T13:57:05Z</time>
      </trkpt>
      <trkpt lat="46.13475" lon="6.7948">
        <ele>2314.066</ele>
        <time>2025-02-02T13:57:10Z</time>
      </trkpt>
      <trkpt lat="46.13474" lon="6.79454">
        <ele>2306.591</ele>
        <time>2025-02-02T13:57:15Z</time>
      </trkpt>
      <trkpt lat="46.13472" lon="6.79427">
        <ele>2303.955</ele>
        <time>2025-02-02T13:57:20Z</time>
      </trkpt>
      <trkpt lat="46.13464" lon="6.79397">
        <ele>2297.216</ele>
        <time>2025-02-02T13:57:25Z</time>
      </trkpt>
      <trkpt lat="46.13453" lon="6.7936">
        <ele>2291.847</ele>
        <time>2025-02-02T13:57:30Z</time>
      </trkpt>
      <trkpt lat="46.13449" lon="6.79337">
        <ele>2290.084</ele>
        <time>2025-02-02T13:57:35Z</time>
      </trkpt>
      <trkpt lat="46.1344" lon="6.79318">
        <ele>2285.622</ele>
        <time>2025-02-02T13:57:40Z</time>
      </trkpt>
      <trkpt lat="46.1344" lon="6.79318">
        <ele>2284.714</ele>
        <time>2025-02-02T13:57:45Z</time>
      </trkpt>
      <trkpt lat="46.1344" lon="6.79318">
        <ele>2285.982</ele>
        <time>2025-02-02T13:57:50Z</time>
      </trkpt>
      <trkpt lat="46.1344" lon="6.79318">
        <ele>2284.044</ele>
        <time>2025-02-02T13:57:55Z</time>
      </trkpt>
      <trkpt lat="46.1344" lon="6.79318">
        <ele>2284.995</ele>
        <time>2025-02-02T13:58:00Z</time>
      </trkpt>
      <trkpt lat="46.1344" lon="6.79318">
        <ele>2283.665</ele>
        <time>2025-02-02T13:58:05Z</time>
      </trkpt>
      <trkpt lat="46.1344" lon="6.79318">
        <ele>2286.792</ele>
        <time>2025-02-02T13:58:10Z</time>
      </trkpt>
      <trkpt lat="46.1344" lon="6.79318">
        <ele>2287.635</ele>
        <time>2025-02-02T13:58:15Z</time>
      </trkpt>
      <trkpt lat="46.1344" lon="6.79318">
        <ele>2287.603</ele>
        <time>2025-02-02T13:58:20Z</time>
      </trkpt>
      <trkpt lat="46.1344" lon="6.79318">
        <ele>2286.787</ele>
        <time>2025-02-02T13:58:25Z</time>
      </trkpt>
      <trkpt lat="46.1344" lon="6.79318">
        <ele>2286.784</ele>
        <time>2025-02-02T13:58:30Z</time>
      </trkpt>
      <trkpt lat="46.1344" lon="6.79318">
        <ele>2286.713</ele>
        <time>2025-02-02T13:58:35Z</time>
      </trkpt>
      <trkpt lat="46.1344" lon="6.79318">
        <ele>2288.116</ele>
        <time>2025-02-02T13:58:40Z</time>
      </trkpt>
      <trkpt lat="46.1344" lon="6.79318">
        <ele>2286.827</ele>
        <time>2025-02-02T13:58:45Z</time>
      </trkpt>
      <trkpt lat="46.1344" lon="6.79318">
        <ele>2286.61</ele>
        <time>2025-02-02T13:58:50Z</time>
      </trkpt>
      <trkpt lat="46.1344" lon="6.79318">
        <ele>2285.192</ele>
        <time>2025-02-02T13:58:55Z</time>
      </trkpt>
      <trkpt lat="46.1344" lon="6.79318">
        <ele>2286.585</ele>
        <time>2025-02-02T13:59:00Z</time>
      </trkpt>
      <trkpt lat="46.1344" lon="6.79318">
        <ele>2285.444</ele>
        <time>2025-02-02T13:59:05Z</time>
      </trkpt>
      <trkpt lat="46.13439" lon="6.79304">
        <ele>2285.082</ele>
        <time>2025-02-02T13:59:10Z</time>
      </trkpt>
      <trkpt lat="46.13431" lon="6.7929">
        <ele>2282.947</ele>
        <time>2025-02-02T13:59:15Z</time>
      </trkpt>
      <trkpt lat="46.13417" lon="6.79272">
        <ele>2275.087</ele>
        <time>2025-02-02T13:59:20Z</time>
      </trkpt>
      <trkpt lat="46.13402" lon="6.7925">
        <ele>2270.141</ele>
        <time>2025-02-02T13:59:25Z</time>
      </trkpt>
      <trkpt lat="46.13389" lon="6.79226">
        <ele>2261.282</ele>
        <time>2025-02-02T13:59:30Z</time>
      </trkpt>
      <trkpt lat="46.13379" lon="6.79201">
        <ele>2259.245</ele>
        <time>2025-02-02T13:59:35Z</time>
      </trkpt>
      <trkpt lat="46.13366" lon="6.79174">
        <ele>2255.173</ele>
        <time>2025-02-02T13:59:40Z</time>
      </trkpt>
      <trkpt lat="46.13355" lon="6.79149">
        <ele>2250.565</ele>
        <time>2025-02-02T13:59:45Z</time>
      </trkpt>
      <trkpt lat="46.13347" lon="6.79135">
        <ele>2246.456</ele>
        <time>2025-02-02T13:59:50Z</time>
      </trkpt>
      <trkpt lat="46.13342" lon="6.79131">
        <ele>2245.106</ele>
        <time>2025-02-02T13:59:55Z</time>
      </trkpt>
      <trkpt lat="46.13342" lon="6.79131">
        <ele>2245.31</ele>
        <time>2025-02-02T14:00:00Z</time>
      </trkpt>
      <trkpt lat="46.13342" lon="6.79131">
        <ele>2244.425</ele>
        <time>2025-02-02T14:00:05Z</time>
      </trkpt>
      <trkpt lat="46.13336" lon="6.79127">
        <ele>2245.551</ele>
        <time>2025-02-02T14:00:10Z</time>
      </trkpt>
      <trkpt lat="46.13323" lon="6.79112">
        <ele>2242.913</ele>
        <time>2025-02-02T14:00:15Z</time>
      </trkpt>
      <trkpt lat="46.13312" lon="6.79123">
        <ele>2242.159</ele>
        <time>2025-02-02T14:00:20Z</time>
      </trkpt>
      <trkpt lat="46.13307" lon="6.79137">
        <ele>2237.188</ele>
        <time>2025-02-02T14:00:25Z</time>
      </trkpt>
      <trkpt lat="46.13298" lon="6.79119">
        <ele>2232.833</ele>
        <time>2025-02-02T14:00:30Z</time>
      </trkpt>
      <trkpt lat="46.13298" lon="6.79114">
        <ele>2233.852</ele>
        <time>2025-02-02T14:00:35Z</time>
      </trkpt>
      <trkpt lat="46.13298" lon="6.79114">
        <ele>2233.448</ele>
        <time>2025-02-02T14:00:40Z</time>
      </trkpt>
      <trkpt lat="46.13298" lon="6.79114">
        <ele>2233.243</ele>
        <time>2025-02-02T14:00:45Z</time>
      </trkpt>
      <trkpt lat="46.13298" lon="6.79114">
        <ele>2231.064</ele>
        <time>2025-02-02T14:00:50Z</time>
      </trkpt>
      <trkpt lat="46.13298" lon="6.79114">
        <ele>2230.852</ele>
        <time>2025-02-02T14:00:55Z</time>
      </trkpt>
      <trkpt lat="46.13298" lon="6.79114">
        <ele>2229.668</ele>
        <time>2025-02-02T14:01:00Z</time>
      </trkpt>
      <trkpt lat="46.13298" lon="6.79114">
        <ele>2229.034</ele>
        <time>2025-02-02T14:01:05Z</time>
      </trkpt>
      <trkpt lat="46.13298" lon="6.79114">
        <ele>2229.06</ele>
        <time>2025-02-02T14:01:10Z</time>
      </trkpt>
      <trkpt lat="46.13299" lon="6.79108">
        <ele>2229.384</ele>
        <time>2025-02-02T14:01:15Z</time>
      </trkpt>
      <trkpt lat="46.13299" lon="6.79108">
        <ele>2229.699</ele>
        <time>2025-02-02T14:01:20Z</time>
      </trkpt>
      <trkpt lat="46.13299" lon="6.79108">
        <ele>2229.701</ele>
        <time>2025-02-02T14:01:25Z</time>
      </trkpt>
      <trkpt lat="46.13297" lon="6.79098">
        <ele>2228.976</ele>
        <time>2025-02-02T14:01:30Z</time>
      </trkpt>
      <trkpt lat="46.13294" lon="6.79082">
        <ele>2228.864</ele>
        <time>2025-02-02T14:01:35Z</time>
      </trkpt>
      <trkpt lat="46.13294" lon="6.79071">
        <ele>2227.641</ele>
        <time>2025-02-02T14:01:40Z</time>
      </trkpt>
      <trkpt lat="46.13293" lon="6.79064">
        <ele>2225.616</ele>
        <time>2025-02-02T14:01:45Z</time>
      </trkpt>
      <trkpt lat="46.13294" lon="6.79051">
        <ele>2223.656</ele>
        <time>2025-02-02T14:01:50Z</time>
      </trkpt>
      <trkpt lat="46.1329" lon="6.79008">
        <ele>2218.254</ele>
        <time>2025-02-02T14:01:55Z</time>
      </trkpt>
      <trkpt lat="46.13286" lon="6.7898">
        <ele>2215.552</ele>
        <time>2025-02-02T14:02:00Z</time>
      </trkpt>
      <trkpt lat="46.13285" lon="6.7898">
        <ele>2215.101</ele>
        <time>2025-02-02T14:02:05Z</time>
      </trkpt>
      <trkpt lat="46.13285" lon="6.7898">
        <ele>2214.539</ele>
        <time>2025-02-02T14:02:10Z</time>
      </trkpt>
      <trkpt lat="46.13285" lon="6.7898">
        <ele>2213.311</ele>
        <time>2025-02-02T14:02:15Z</time>
      </trkpt>
      <trkpt lat="46.13285" lon="6.7898">
        <ele>2213.836</ele>
        <time>2025-02-02T14:02:20Z</time>
      </trkpt>
      <trkpt lat="46.13285" lon="6.7898">
        <ele>2213.908</ele>
        <time>2025-02-02T14:02:25Z</time>
      </trkpt>
      <trkpt lat="46.13285" lon="6.7898">
        <ele>2213.33</ele>
        <time>2025-02-02T14:02:30Z</time>
      </trkpt>
      <trkpt lat="46.13286" lon="6.78979">
        <ele>2213.736</ele>
        <time>2025-02-02T14:02:35Z</time>
      </trkpt>
      <trkpt lat="46.13287" lon="6.78973">
        <ele>2214.495</ele>
        <time>2025-02-02T14:02:40Z</time>
      </trkpt>
      <trkpt lat="46.1328" lon="6.78947">
        <ele>2212.485</ele>
        <time>2025-02-02T14:02:45Z</time>
      </trkpt>
      <trkpt lat="46.13282" lon="6.78893">
        <ele>2213.889</ele>
        <time>2025-02-02T14:02:50Z</time>
      </trkpt>
      <trkpt lat="46.1328" lon="6.78838">
        <ele>2213.11</ele>
        <time>2025-02-02T14:02:55Z</time>
      </trkpt>
      <trkpt lat="46.13268" lon="6.78787">
        <ele>2208.261</ele>
        <time>2025-02-02T14:03:00Z</time>
      </trkpt>
      <trkpt lat="46.13265" lon="6.78742">
        <ele>2206.123</ele>
        <time>2025-02-02T14:03:05Z</time>
      </trkpt>
      <trkpt lat="46.13264" lon="6.78732">
        <ele>2202.894</ele>
        <time>2025-02-02T14:03:10Z</time>
      </trkpt>
      <trkpt lat="46.13265" lon="6.78729">
        <ele>2199.031</ele>
        <time>2025-02-02T14:03:15Z</time>
      </trkpt>
      <trkpt lat="46.13266" lon="6.78729">
        <ele>2199.055</ele>
        <time>2025-02-02T14:03:20Z</time>
      </trkpt>
      <trkpt lat="46.1327" lon="6.78727">
        <ele>2198.599</ele>
        <time>2025-02-02T14:03:25Z</time>
      </trkpt>
      <trkpt lat="46.13273" lon="6.78727">
        <ele>2198.784</ele>
        <time>2025-02-02T14:03:30Z</time>
      </trkpt>
      <trkpt lat="46.13273" lon="6.78727">
        <ele>2199.061</ele>
        <time>2025-02-02T14:03:35Z</time>
      </trkpt>
      <trkpt lat="46.13273" lon="6.78727">
        <ele>2199.435</ele>
        <time>2025-02-02T14:03:40Z</time>
      </trkpt>
      <trkpt lat="46.13273" lon="6.78724">
        <ele>2197.755</ele>
        <time>2025-02-02T14:03:45Z</time>
      </trkpt>
      <trkpt lat="46.13273" lon="6.7871">
        <ele>2195.054</ele>
        <time>2025-02-02T14:03:50Z</time>
      </trkpt>
      <trkpt lat="46.13272" lon="6.78695">
        <ele>2189.965</ele>
        <time>2025-02-02T14:03:55Z</time>
      </trkpt>
      <trkpt lat="46.13273" lon="6.78681">
        <ele>2186.138</ele>
        <time>2025-02-02T14:04:00Z</time>
      </trkpt>
      <trkpt lat="46.13273" lon="6.78681">
        <ele>2186.605</ele>
        <time>2025-02-02T14:04:05Z</time>
      </trkpt>
      <trkpt lat="46.13269" lon="6.78681">
        <ele>2187.959</ele>
        <time>2025-02-02T14:04:10Z</time>
      </trkpt>
      <trkpt lat="46.13268" lon="6.78679">
        <ele>2187.073</ele>
        <time>2025-02-02T14:04:15Z</time>
      </trkpt>
      <trkpt lat="46.13267" lon="6.78661">
        <ele>2180.441</ele>
        <time>2025-02-02T14:04:20Z</time>
      </trkpt>
      <trkpt lat="46.13265" lon="6.78659">
        <ele>2179.505</ele>
        <time>2025-02-02T14:04:25Z</time>
      </trkpt>
      <trkpt lat="46.13265" lon="6.78658">
        <ele>2178.788</ele>
        <time>2025-02-02T14:04:30Z</time>
      </trkpt>
      <trkpt lat="46.13265" lon="6.78658">
        <ele>2179.226</ele>
        <time>2025-02-02T14:04:35Z</time>
      </trkpt>
      <trkpt lat="46.13265" lon="6.78658">
        <ele>2179.219</ele>
        <time>2025-02-02T14:04:40Z</time>
      </trkpt>
      <trkpt lat="46.13254" lon="6.78656">
        <ele>2174.791</ele>
        <time>2025-02-02T14:04:45Z</time>
      </trkpt>
      <trkpt lat="46.13249" lon="6.7864">
        <ele>2168.909</ele>
        <time>2025-02-02T14:04:50Z</time>
      </trkpt>
      <trkpt lat="46.13241" lon="6.78608">
        <ele>2160.919</ele>
        <time>2025-02-02T14:04:55Z</time>
      </trkpt>
      <trkpt lat="46.1323" lon="6.78586">
        <ele>2155.417</ele>
        <time>2025-02-02T14:05:00Z</time>
      </trkpt>
      <trkpt lat="46.13228" lon="6.7858">
        <ele>2153.4</ele>
        <time>2025-02-02T14:05:05Z</time>
      </trkpt>
      <trkpt lat="46.1322" lon="6.78575">
        <ele>2148.961</ele>
        <time>2025-02-02T14:05:10Z</time>
      </trkpt>
      <trkpt lat="46.13193" lon="6.78577">
        <ele>2143.473</ele>
        <time>2025-02-02T14:05:15Z</time>
      </trkpt>
      <trkpt lat="46.1319" lon="6.7857">
        <ele>2142.04</ele>
        <time>2025-02-02T14:05:20Z</time>
      </trkpt>
      <trkpt lat="46.13191" lon="6.7857">
        <ele>2142.893</ele>
        <time>2025-02-02T14:05:25Z</time>
      </trkpt>
      <trkpt lat="46.13191" lon="6.78569">
        <ele>2142.207</ele>
        <time>2025-02-02T14:05:30Z</time>
      </trkpt>
      <trkpt lat="46.13188" lon="6.78562">
        <ele>2142.768</ele>
        <time>2025-02-02T14:05:35Z</time>
      </trkpt>
      <trkpt lat="46.1318" lon="6.78544">
        <ele>2141.598</ele>
        <time>2025-02-02T14:05:40Z</time>
      </trkpt>
      <trkpt lat="46.13171" lon="6.7855">
        <ele>2140.206</ele>
        <time>2025-02-02T14:05:45Z</time>
      </trkpt>
      <trkpt lat="46.1316" lon="6.78553">
        <ele>2136.064</ele>
        <time>2025-02-02T14:05:50Z</time>
      </trkpt>
      <trkpt lat="46.13154" lon="6.78528">
        <ele>2133.981</ele>
        <time>2025-02-02T14:05:55Z</time>
      </trkpt>
      <trkpt lat="46.13138" lon="6.78497">
        <ele>2130.23</ele>
        <time>2025-02-02T14:06:00Z</time>
      </trkpt>
      <trkpt lat="46.13133" lon="6.78487">
        <ele>2128.918</ele>
        <time>2025-02-02T14:06:05Z</time>
      </trkpt>
      <trkpt lat="46.13131" lon="6.78488">
        <ele>2129.825</ele>
        <time>2025-02-02T14:06:10Z</time>
      </trkpt>
      <trkpt lat="46.13131" lon="6.78487">
        <ele>2129.482</ele>
        <time>2025-02-02T14:06:15Z</time>
      </trkpt>
      <trkpt lat="46.13124" lon="6.78473">
        <ele>2125.874</ele>
        <time>2025-02-02T14:06:20Z</time>
      </trkpt>
      <trkpt lat="46.13114" lon="6.78447">
        <ele>2122.021</ele>
        <time>2025-02-02T14:06:25Z</time>
      </trkpt>
      <trkpt lat="46.13105" lon="6.78418">
        <ele>2120.099</ele>
        <time>2025-02-02T14:06:30Z</time>
      </trkpt>
      <trkpt lat="46.13104" lon="6.7841">
        <ele>2117.803</ele>
        <time>2025-02-02T14:06:35Z</time>
      </trkpt>
      <trkpt lat="46.13104" lon="6.78409">
        <ele>2117.301</ele>
        <time>2025-02-02T14:06:40Z</time>
      </trkpt>
      <trkpt lat="46.13095" lon="6.78374">
        <ele>2109.095</ele>
        <time>2025-02-02T14:06:45Z</time>
      </trkpt>
      <trkpt lat="46.13083" lon="6.78339">
        <ele>2105.094</ele>
        <time>2025-02-02T14:06:50Z</time>
      </trkpt>
      <trkpt lat="46.13076" lon="6.78306">
        <ele>2101.719</ele>
        <time>2025-02-02T14:06:55Z</time>
      </trkpt>
      <trkpt lat="46.13068" lon="6.78279">
        <ele>2097.857</ele>
        <time>2025-02-02T14:07:00Z</time>
      </trkpt>
      <trkpt lat="46.13063" lon="6.78255">
        <ele>2098.237</ele>
        <time>2025-02-02T14:07:05Z</time>
      </trkpt>
      <trkpt lat="46.13058" lon="6.78228">
        <ele>2091.005</ele>
        <time>2025-02-02T14:07:10Z</time>
      </trkpt>
      <trkpt lat="46.13058" lon="6.78204">
        <ele>2088.18</ele>
        <time>2025-02-02T14:07:15Z</time>
      </trkpt>
      <trkpt lat="46.13063" lon="6.78172">
        <ele>2086.405</ele>
        <time>2025-02-02T14:07:20Z</time>
      </trkpt>
      <trkpt lat="46.13065" lon="6.78157">
        <ele>2086.195</ele>
        <time>2025-02-02T14:07:25Z</time>
      </trkpt>
      <trkpt lat="46.13065" lon="6.78154">
        <ele>2086.332</ele>
        <time>2025-02-02T14:07:30Z</time>
      </trkpt>
      <trkpt lat="46.13065" lon="6.78154">
        <ele>2086.735</ele>
        <time>2025-02-02T14:07:35Z</time>
      </trkpt>
      <trkpt lat="46.13065" lon="6.78154">
        <ele>2089.288</ele>
        <time>2025-02-02T14:07:40Z</time>
      </trkpt>
      <trkpt lat="46.13065" lon="6.78154">
        <ele>2090.355</ele>
        <time>2025-02-02T14:07:45Z</time>
      </trkpt>
      <trkpt lat="46.13065" lon="6.78154">
        <ele>2090.813</ele>
        <time>2025-02-02T14:07:50Z</time>
      </trkpt>
      <trkpt lat="46.13065" lon="6.78154">
        <ele>2089.397</ele>
        <time>2025-02-02T14:07:55Z</time>
      </trkpt>
      <trkpt lat="46.13065" lon="6.78154">
        <ele>2087.821</ele>
        <time>2025-02-02T14:08:00Z</time>
      </trkpt>
      <trkpt lat="46.13065" lon="6.78154">
        <ele>2087.482</ele>
        <time>2025-02-02T14:08:05Z</time>
      </trkpt>
      <trkpt lat="46.13065" lon="6.78154">
        <ele>2086.998</ele>
        <time>2025-02-02T14:08:10Z</time>
      </trkpt>
      <trkpt lat="46.13065" lon="6.78154">
        <ele>2087.516</ele>
        <time>2025-02-02T14:08:15Z</time>
      </trkpt>
      <trkpt lat="46.13065" lon="6.78154">
        <ele>2089.26</ele>
        <time>2025-02-02T14:08:20Z</time>
      </trkpt>
      <trkpt lat="46.13065" lon="6.78154">
        <ele>2086.841</ele>
        <time>2025-02-02T14:08:25Z</time>
      </trkpt>
      <trkpt lat="46.13065" lon="6.78154">
        <ele>2088.864</ele>
        <time>2025-02-02T14:08:30Z</time>
      </trkpt>
      <trkpt lat="46.13063" lon="6.78147">
        <ele>2087.245</ele>
        <time>2025-02-02T14:08:35Z</time>
      </trkpt>
      <trkpt lat="46.13066" lon="6.78127">
        <ele>2087.035</ele>
        <time>2025-02-02T14:08:40Z</time>
      </trkpt>
      <trkpt lat="46.13073" lon="6.78105">
        <ele>2081.997</ele>
        <time>2025-02-02T14:08:45Z</time>
      </trkpt>
      <trkpt lat="46.13074" lon="6.78067">
        <ele>2076.6</ele>
        <time>2025-02-02T14:08:50Z</time>
      </trkpt>
      <trkpt lat="46.13073" lon="6.78035">
        <ele>2073.007</ele>
        <time>2025-02-02T14:08:55Z</time>
      </trkpt>
      <trkpt lat="46.13077" lon="6.78009">
        <ele>2076.256</ele>
        <time>2025-02-02T14:09:00Z</time>
      </trkpt>
      <trkpt lat="46.13079" lon="6.77984">
        <ele>2072.409</ele>
        <time>2025-02-02T14:09:05Z</time>
      </trkpt>
      <trkpt lat="46.13077" lon="6.77952">
        <ele>2069.34</ele>
        <time>2025-02-02T14:09:10Z</time>
      </trkpt>
      <trkpt lat="46.1307" lon="6.77925">
        <ele>2066.691</ele>
        <time>2025-02-02T14:09:15Z</time>
      </trkpt>
      <trkpt lat="46.13063" lon="6.77902">
        <ele>2064.292</ele>
        <time>2025-02-02T14:09:20Z</time>
      </trkpt>
      <trkpt lat="46.13059" lon="6.77879">
        <ele>2061.825</ele>
        <time>2025-02-02T14:09:25Z</time>
      </trkpt>
      <trkpt lat="46.13056" lon="6.77859">
        <ele>2060.272</ele>
        <time>2025-02-02T14:09:30Z</time>
      </trkpt>
      <trkpt lat="46.13051" lon="6.77834">
        <ele>2058.538</ele>
        <time>2025-02-02T14:09:35Z</time>
      </trkpt>
      <trkpt lat="46.13047" lon="6.77809">
        <ele>2057.164</ele>
        <time>2025-02-02T14:09:40Z</time>
      </trkpt>
      <trkpt lat="46.13042" lon="6.77783">
        <ele>2058.2</ele>
        <time>2025-02-02T14:09:45Z</time>
      </trkpt>
      <trkpt lat="46.13041" lon="6.77769">
        <ele>2056.368</ele>
        <time>2025-02-02T14:09:50Z</time>
      </trkpt>
      <trkpt lat="46.13042" lon="6.77768">
        <ele>2054.684</ele>
        <time>2025-02-02T14:09:55Z</time>
      </trkpt>
      <trkpt lat="46.13043" lon="6.7777">
        <ele>2054.503</ele>
        <time>2025-02-02T14:10:00Z</time>
      </trkpt>
      <trkpt lat="46.13044" lon="6.7777">
        <ele>2054.17</ele>
        <time>2025-02-02T14:10:05Z</time>
      </trkpt>
      <trkpt lat="46.13045" lon="6.7777">
        <ele>2054.313</ele>
        <time>2025-02-02T14:10:10Z</time>
      </trkpt>
      <trkpt lat="46.13047" lon="6.77767">
        <ele>2057.567</ele>
        <time>2025-02-02T14:10:15Z</time>
      </trkpt>
      <trkpt lat="46.1305" lon="6.77754">
        <ele>2059.913</ele>
        <time>2025-02-02T14:10:20Z</time>
      </trkpt>
      <trkpt lat="46.13052" lon="6.7775">
        <ele>2057.098</ele>
        <time>2025-02-02T14:10:25Z</time>
      </trkpt>
      <trkpt lat="46.13053" lon="6.7775">
        <ele>2057.561</ele>
        <time>2025-02-02T14:10:30Z</time>
      </trkpt>
      <trkpt lat="46.13054" lon="6.7775">
        <ele>2057.91</ele>
        <time>2025-02-02T14:10:35Z</time>
      </trkpt>
      <trkpt lat="46.13054" lon="6.7775">
        <ele>2057.902</ele>
        <time>2025-02-02T14:10:40Z</time>
      </trkpt>
      <trkpt lat="46.13054" lon="6.7775">
        <ele>2057.874</ele>
        <time>2025-02-02T14:10:45Z</time>
      </trkpt>
      <trkpt lat="46.13056" lon="6.77747">
        <ele>2055.687</ele>
        <time>2025-02-02T14:10:50Z</time>
      </trkpt>
      <trkpt lat="46.13075" lon="6.7773">
        <ele>2050.817</ele>
        <time>2025-02-02T14:10:55Z</time>
      </trkpt>
      <trkpt lat="46.13087" lon="6.77713">
        <ele>2045.796</ele>
        <time>2025-02-02T14:11:00Z</time>
      </trkpt>
      <trkpt lat="46.1308" lon="6.77689">
        <ele>2036.932</ele>
        <time>2025-02-02T14:11:05Z</time>
      </trkpt>
      <trkpt lat="46.1308" lon="6.77666">
        <ele>2033.005</ele>
        <time>2025-02-02T14:11:10Z</time>
      </trkpt>
      <trkpt lat="46.13074" lon="6.77643">
        <ele>2026.689</ele>
        <time>2025-02-02T14:11:15Z</time>
      </trkpt>
      <trkpt lat="46.13067" lon="6.77614">
        <ele>2015.525</ele>
        <time>2025-02-02T14:11:20Z</time>
      </trkpt>
      <trkpt lat="46.13059" lon="6.77598">
        <ele>2006.374</ele>
        <time>2025-02-02T14:11:25Z</time>
      </trkpt>
      <trkpt lat="46.13058" lon="6.77598">
        <ele>2005.962</ele>
        <time>2025-02-02T14:11:30Z</time>
      </trkpt>
      <trkpt lat="46.13057" lon="6.77599">
        <ele>2005.011</ele>
        <time>2025-02-02T14:11:35Z</time>
      </trkpt>
      <trkpt lat="46.13057" lon="6.77599">
        <ele>2005.658</ele>
        <time>2025-02-02T14:11:40Z</time>
      </trkpt>
      <trkpt lat="46.13057" lon="6.77599">
        <ele>2007.33</ele>
        <time>2025-02-02T14:11:45Z</time>
      </trkpt>
      <trkpt lat="46.13057" lon="6.77599">
        <ele>2010.023</ele>
        <time>2025-02-02T14:11:50Z</time>
      </trkpt>
      <trkpt lat="46.13057" lon="6.77599">
        <ele>2010.835</ele>
        <time>2025-02-02T14:11:55Z</time>
      </trkpt>
      <trkpt lat="46.13057" lon="6.77599">
        <ele>2012.599</ele>
        <time>2025-02-02T14:12:00Z</time>
      </trkpt>
      <trkpt lat="46.13057" lon="6.77599">
        <ele>2011.193</ele>
        <time>2025-02-02T14:12:05Z</time>
      </trkpt>
      <trkpt lat="46.13057" lon="6.77599">
        <ele>2010.738</ele>
        <time>2025-02-02T14:12:10Z</time>
      </trkpt>
      <trkpt lat="46.13057" lon="6.77599">
        <ele>2011.914</ele>
        <time>2025-02-02T14:12:15Z</time>
      </trkpt>
      <trkpt lat="46.1306" lon="6.77597">
        <ele>2010.681</ele>
        <time>2025-02-02T14:12:20Z</time>
      </trkpt>
      <trkpt lat="46.13044" lon="6.7759">
        <ele>2002.222</ele>
        <time>2025-02-02T14:12:25Z</time>
      </trkpt>
      <trkpt lat="46.1304" lon="6.77574">
        <ele>1998.782</ele>
        <time>2025-02-02T14:12:30Z</time>
      </trkpt>
      <trkpt lat="46.13045" lon="6.77563">
        <ele>1995.187</ele>
        <time>2025-02-02T14:12:35Z</time>
      </trkpt>
      <trkpt lat="46.13048" lon="6.77556">
        <ele>1992.476</ele>
        <time>2025-02-02T14:12:40Z</time>
      </trkpt>
      <trkpt lat="46.13059" lon="6.77545">
        <ele>1986.846</ele>
        <time>2025-02-02T14:12:45Z</time>
      </trkpt>
      <trkpt lat="46.13061" lon="6.77523">
        <ele>1979.313</ele>
        <time>2025-02-02T14:12:50Z</time>
      </trkpt>
      <trkpt lat="46.13047" lon="6.77497">
        <ele>1971.621</ele>
        <time>2025-02-02T14:12:55Z</time>
      </trkpt>
      <trkpt lat="46.13042" lon="6.77459">
        <ele>1962.393</ele>
        <time>2025-02-02T14:13:00Z</time>
      </trkpt>
      <trkpt lat="46.13038" lon="6.77421">
        <ele>1953.722</ele>
        <time>2025-02-02T14:13:05Z</time>
      </trkpt>
      <trkpt lat="46.13031" lon="6.77389">
        <ele>1947.427</ele>
        <time>2025-02-02T14:13:10Z</time>
      </trkpt>
      <trkpt lat="46.13022" lon="6.77362">
        <ele>1939.832</ele>
        <time>2025-02-02T14:13:15Z</time>
      </trkpt>
      <trkpt lat="46.13019" lon="6.77329">
        <ele>1924.311</ele>
        <time>2025-02-02T14:13:20Z</time>
      </trkpt>
      <trkpt lat="46.13" lon="6.77309">
        <ele>1921.197</ele>
        <time>2025-02-02T14:13:25Z</time>
      </trkpt>
      <trkpt lat="46.12985" lon="6.77304">
        <ele>1919.432</ele>
        <time>2025-02-02T14:13:30Z</time>
      </trkpt>
      <trkpt lat="46.12985" lon="6.77305">
        <ele>1918.617</ele>
        <time>2025-02-02T14:13:35Z</time>
      </trkpt>
      <trkpt lat="46.12985" lon="6.77305">
        <ele>1918.818</ele>
        <time>2025-02-02T14:13:40Z</time>
      </trkpt>
      <trkpt lat="46.12985" lon="6.77305">
        <ele>1917.571</ele>
        <time>2025-02-02T14:13:45Z</time>
      </trkpt>
      <trkpt lat="46.12985" lon="6.77305">
        <ele>1918.087</ele>
        <time>2025-02-02T14:13:50Z</time>
      </trkpt>
      <trkpt lat="46.12985" lon="6.77305">
        <ele>1918.7</ele>
        <time>2025-02-02T14:13:55Z</time>
      </trkpt>
      <trkpt lat="46.12985" lon="6.77305">
        <ele>1919.522</ele>
        <time>2025-02-02T14:14:00Z</time>
      </trkpt>
      <trkpt lat="46.12985" lon="6.77305">
        <ele>1917.209</ele>
        <time>2025-02-02T14:14:05Z</time>
      </trkpt>
      <trkpt lat="46.12985" lon="6.77305">
        <ele>1918.71</ele>
        <time>2025-02-02T14:14:10Z</time>
      </trkpt>
      <trkpt lat="46.12985" lon="6.77305">
        <ele>1916.553</ele>
        <time>2025-02-02T14:14:15Z</time>
      </trkpt>
      <trkpt lat="46.12984" lon="6.77304">
        <ele>1913.819</ele>
        <time>2025-02-02T14:14:20Z</time>
      </trkpt>
      <trkpt lat="46.12983" lon="6.77303">
        <ele>1913.546</ele>
        <time>2025-02-02T14:14:25Z</time>
      </trkpt>
      <trkpt lat="46.12983" lon="6.77302">
        <ele>1913.592</ele>
        <time>2025-02-02T14:14:30Z</time>
      </trkpt>
      <trkpt lat="46.12983" lon="6.77302">
        <ele>1913.603</ele>
        <time>2025-02-02T14:14:35Z</time>
      </trkpt>
      <trkpt lat="46.12983" lon="6.77302">
        <ele>1913.716</ele>
        <time>2025-02-02T14:14:40Z</time>
      </trkpt>
      <trkpt lat="46.12983" lon="6.77302">
        <ele>1913.701</ele>
        <time>2025-02-02T14:14:45Z</time>
      </trkpt>
      <trkpt lat="46.12982" lon="6.77302">
        <ele>1913.477</ele>
        <time>2025-02-02T14:14:50Z</time>
      </trkpt>
      <trkpt lat="46.12971" lon="6.77287">
        <ele>1908.515</ele>
        <time>2025-02-02T14:14:55Z</time>
      </trkpt>
      <trkpt lat="46.12973" lon="6.77254">
        <ele>1898.78</ele>
        <time>2025-02-02T14:15:00Z</time>
      </trkpt>
      <trkpt lat="46.12974" lon="6.77221">
        <ele>1891.75</ele>
        <time>2025-02-02T14:15:05Z</time>
      </trkpt>
      <trkpt lat="46.12973" lon="6.77184">
        <ele>1888.845</ele>
        <time>2025-02-02T14:15:10Z</time>
      </trkpt>
      <trkpt lat="46.12972" lon="6.77153">
        <ele>1879.184</ele>
        <time>2025-02-02T14:15:15Z</time>
      </trkpt>
      <trkpt lat="46.12957" lon="6.77139">
        <ele>1872.447</ele>
        <time>2025-02-02T14:15:20Z</time>
      </trkpt>
      <trkpt lat="46.12941" lon="6.7712">
        <ele>1865.147</ele>
        <time>2025-02-02T14:15:25Z</time>
      </trkpt>
      <trkpt lat="46.12926" lon="6.77084">
        <ele>1860.218</ele>
        <time>2025-02-02T14:15:30Z</time>
      </trkpt>
      <trkpt lat="46.12913" lon="6.77058">
        <ele>1855.143</ele>
        <time>2025-02-02T14:15:35Z</time>
      </trkpt>
      <trkpt lat="46.12904" lon="6.77014">
        <ele>1848.523</ele>
        <time>2025-02-02T14:15:40Z</time>
      </trkpt>
      <trkpt lat="46.1289" lon="6.76983">
        <ele>1848.638</ele>
        <time>2025-02-02T14:15:45Z</time>
      </trkpt>
      <trkpt lat="46.12887" lon="6.76982">
        <ele>1846.718</ele>
        <time>2025-02-02T14:15:50Z</time>
      </trkpt>
      <trkpt lat="46.12887" lon="6.76982">
        <ele>1844.338</ele>
        <time>2025-02-02T14:15:55Z</time>
      </trkpt>
      <trkpt lat="46.12887" lon="6.76982">
        <ele>1844.547</ele>
        <time>2025-02-02T14:16:00Z</time>
      </trkpt>
      <trkpt lat="46.12887" lon="6.76982">
        <ele>1842.928</ele>
        <time>2025-02-02T14:16:05Z</time>
      </trkpt>
      <trkpt lat="46.12887" lon="6.76982">
        <ele>1842.842</ele>
        <time>2025-02-02T14:16:10Z</time>
      </trkpt>
      <trkpt lat="46.12887" lon="6.76982">
        <ele>1842.353</ele>
        <time>2025-02-02T14:16:15Z</time>
      </trkpt>
      <trkpt lat="46.12887" lon="6.76982">
        <ele>1842.345</ele>
        <time>2025-02-02T14:16:20Z</time>
      </trkpt>
      <trkpt lat="46.12887" lon="6.76982">
        <ele>1838.671</ele>
        <time>2025-02-02T14:16:25Z</time>
      </trkpt>
      <trkpt lat="46.12887" lon="6.76982">
        <ele>1842.722</ele>
        <time>2025-02-02T14:16:30Z</time>
      </trkpt>
      <trkpt lat="46.12887" lon="6.76982">
        <ele>1843.528</ele>
        <time>2025-02-02T14:16:35Z</time>
      </trkpt>
      <trkpt lat="46.12887" lon="6.76982">
        <ele>1842.085</ele>
        <time>2025-02-02T14:16:40Z</time>
      </trkpt>
      <trkpt lat="46.12887" lon="6.76982">
        <ele>1842.355</ele>
        <time>2025-02-02T14:16:45Z</time>
      </trkpt>
      <trkpt lat="46.12887" lon="6.76982">
        <ele>1840.911</ele>
        <time>2025-02-02T14:16:50Z</time>
      </trkpt>
      <trkpt lat="46.12885" lon="6.7698">
        <ele>1840.73</ele>
        <time>2025-02-02T14:16:55Z</time>
      </trkpt>
      <trkpt lat="46.12882" lon="6.76943">
        <ele>1836.573</ele>
        <time>2025-02-02T14:17:00Z</time>
      </trkpt>
      <trkpt lat="46.12871" lon="6.76916">
        <ele>1830</ele>
        <time>2025-02-02T14:17:05Z</time>
      </trkpt>
      <trkpt lat="46.12869" lon="6.76893">
        <ele>1823.227</ele>
        <time>2025-02-02T14:17:10Z</time>
      </trkpt>
      <trkpt lat="46.12876" lon="6.7689">
        <ele>1822.541</ele>
        <time>2025-02-02T14:17:15Z</time>
      </trkpt>
      <trkpt lat="46.12876" lon="6.7689">
        <ele>1821.788</ele>
        <time>2025-02-02T14:17:20Z</time>
      </trkpt>
      <trkpt lat="46.12876" lon="6.7689">
        <ele>1820.643</ele>
        <time>2025-02-02T14:17:25Z</time>
      </trkpt>
      <trkpt lat="46.12889" lon="6.76885">
        <ele>1818.646</ele>
        <time>2025-02-02T14:17:30Z</time>
      </trkpt>
      <trkpt lat="46.12897" lon="6.76867">
        <ele>1816.967</ele>
        <time>2025-02-02T14:17:35Z</time>
      </trkpt>
      <trkpt lat="46.12894" lon="6.7684">
        <ele>1810.774</ele>
        <time>2025-02-02T14:17:40Z</time>
      </trkpt>
      <trkpt lat="46.12881" lon="6.76799">
        <ele>1802.727</ele>
        <time>2025-02-02T14:17:45Z</time>
      </trkpt>
      <trkpt lat="46.1287" lon="6.76765">
        <ele>1797.692</ele>
        <time>2025-02-02T14:17:50Z</time>
      </trkpt>
      <trkpt lat="46.12857" lon="6.76745">
        <ele>1800.37</ele>
        <time>2025-02-02T14:17:55Z</time>
      </trkpt>
      <trkpt lat="46.12838" lon="6.76718">
        <ele>1796.031</ele>
        <time>2025-02-02T14:18:00Z</time>
      </trkpt>
      <trkpt lat="46.1282" lon="6.76705">
        <ele>1798.576</ele>
        <time>2025-02-02T14:18:05Z</time>
      </trkpt>
      <trkpt lat="46.1281" lon="6.76696">
        <ele>1798.869</ele>
        <time>2025-02-02T14:18:10Z</time>
      </trkpt>
      <trkpt lat="46.12811" lon="6.76696">
        <ele>1797.418</ele>
        <time>2025-02-02T14:18:15Z</time>
      </trkpt>
      <trkpt lat="46.1279" lon="6.76692">
        <ele>1789.736</ele>
        <time>2025-02-02T14:18:20Z</time>
      </trkpt>
      <trkpt lat="46.12772" lon="6.76661">
        <ele>1786.567</ele>
        <time>2025-02-02T14:18:25Z</time>
      </trkpt>
      <trkpt lat="46.12751" lon="6.76635">
        <ele>1777.564</ele>
        <time>2025-02-02T14:18:30Z</time>
      </trkpt>
      <trkpt lat="46.12735" lon="6.76611">
        <ele>1767.083</ele>
        <time>2025-02-02T14:18:35Z</time>
      </trkpt>
      <trkpt lat="46.12712" lon="6.76594">
        <ele>1760.429</ele>
        <time>2025-02-02T14:18:40Z</time>
      </trkpt>
      <trkpt lat="46.12694" lon="6.76569">
        <ele>1754.811</ele>
        <time>2025-02-02T14:18:45Z</time>
      </trkpt>
      <trkpt lat="46.12686" lon="6.76565">
        <ele>1751.789</ele>
        <time>2025-02-02T14:18:50Z</time>
      </trkpt>
      <trkpt lat="46.12685" lon="6.76565">
        <ele>1747.656</ele>
        <time>2025-02-02T14:18:55Z</time>
      </trkpt>
      <trkpt lat="46.12685" lon="6.76565">
        <ele>1746.41</ele>
        <time>2025-02-02T14:19:00Z</time>
      </trkpt>
      <trkpt lat="46.12685" lon="6.76565">
        <ele>1747.339</ele>
        <time>2025-02-02T14:19:05Z</time>
      </trkpt>
      <trkpt lat="46.12685" lon="6.76565">
        <ele>1748.676</ele>
        <time>2025-02-02T14:19:10Z</time>
      </trkpt>
      <trkpt lat="46.12685" lon="6.76565">
        <ele>1746.455</ele>
        <time>2025-02-02T14:19:15Z</time>
      </trkpt>
      <trkpt lat="46.12685" lon="6.76565">
        <ele>1746.856</ele>
        <time>2025-02-02T14:19:20Z</time>
      </trkpt>
      <trkpt lat="46.12689" lon="6.76561">
        <ele>1742.618</ele>
        <time>2025-02-02T14:19:25Z</time>
      </trkpt>
      <trkpt lat="46.12708" lon="6.76539">
        <ele>1738.339</ele>
        <time>2025-02-02T14:19:30Z</time>
      </trkpt>
      <trkpt lat="46.12717" lon="6.76516">
        <ele>1731.517</ele>
        <time>2025-02-02T14:19:35Z</time>
      </trkpt>
      <trkpt lat="46.12717" lon="6.76515">
        <ele>1731.371</ele>
        <time>2025-02-02T14:19:40Z</time>
      </trkpt>
      <trkpt lat="46.12717" lon="6.76515">
        <ele>1731.914</ele>
        <time>2025-02-02T14:19:45Z</time>
      </trkpt>
      <trkpt lat="46.12717" lon="6.76515">
        <ele>1730.669</ele>
        <time>2025-02-02T14:19:50Z</time>
      </trkpt>
      <trkpt lat="46.12717" lon="6.76515">
        <ele>1730.832</ele>
        <time>2025-02-02T14:19:55Z</time>
      </trkpt>
      <trkpt lat="46.12717" lon="6.76515">
        <ele>1731.868</ele>
        <time>2025-02-02T14:20:00Z</time>
      </trkpt>
      <trkpt lat="46.12717" lon="6.76515">
        <ele>1731.439</ele>
        <time>2025-02-02T14:20:05Z</time>
      </trkpt>
      <trkpt lat="46.12717" lon="6.76515">
        <ele>1731.685</ele>
        <time>2025-02-02T14:20:10Z</time>
      </trkpt>
      <trkpt lat="46.12717" lon="6.76515">
        <ele>1731.963</ele>
        <time>2025-02-02T14:20:15Z</time>
      </trkpt>
      <trkpt lat="46.12717" lon="6.76515">
        <ele>1732.335</ele>
        <time>2025-02-02T14:20:20Z</time>
      </trkpt>
      <trkpt lat="46.12716" lon="6.76514">
        <ele>1731.663</ele>
        <time>2025-02-02T14:20:25Z</time>
      </trkpt>
      <trkpt lat="46.12709" lon="6.76505">
        <ele>1731.538</ele>
        <time>2025-02-02T14:20:30Z</time>
      </trkpt>
      <trkpt lat="46.12694" lon="6.76473">
        <ele>1721.007</ele>
        <time>2025-02-02T14:20:35Z</time>
      </trkpt>
      <trkpt lat="46.12681" lon="6.76446">
        <ele>1713.589</ele>
        <time>2025-02-02T14:20:40Z</time>
      </trkpt>
      <trkpt lat="46.12664" lon="6.76417">
        <ele>1708.484</ele>
        <time>2025-02-02T14:20:45Z</time>
      </trkpt>
      <trkpt lat="46.12644" lon="6.76387">
        <ele>1705.839</ele>
        <time>2025-02-02T14:20:50Z</time>
      </trkpt>
      <trkpt lat="46.12627" lon="6.76366">
        <ele>1699.809</ele>
        <time>2025-02-02T14:20:55Z</time>
      </trkpt>
      <trkpt lat="46.12617" lon="6.76358">
        <ele>1700.704</ele>
        <time>2025-02-02T14:21:00Z</time>
      </trkpt>
      <trkpt lat="46.12612" lon="6.76356">
        <ele>1700.424</ele>
        <time>2025-02-02T14:21:05Z</time>
      </trkpt>
      <trkpt lat="46.12612" lon="6.76356">
        <ele>1697.4</ele>
        <time>2025-02-02T14:21:10Z</time>
      </trkpt>
      <trkpt lat="46.12613" lon="6.76354">
        <ele>1696.844</ele>
        <time>2025-02-02T14:21:15Z</time>
      </trkpt>
      <trkpt lat="46.12613" lon="6.76353">
        <ele>1693.891</ele>
        <time>2025-02-02T14:21:20Z</time>
      </trkpt>
      <trkpt lat="46.12611" lon="6.76351">
        <ele>1694.133</ele>
        <time>2025-02-02T14:21:25Z</time>
      </trkpt>
      <trkpt lat="46.12602" lon="6.76345">
        <ele>1695.536</ele>
        <time>2025-02-02T14:21:30Z</time>
      </trkpt>
      <trkpt lat="46.12594" lon="6.76339">
        <ele>1692.973</ele>
        <time>2025-02-02T14:21:35Z</time>
      </trkpt>
      <trkpt lat="46.1259" lon="6.76337">
        <ele>1692.834</ele>
        <time>2025-02-02T14:21:40Z</time>
      </trkpt>
      <trkpt lat="46.12583" lon="6.76333">
        <ele>1693.856</ele>
        <time>2025-02-02T14:21:45Z</time>
      </trkpt>
      <trkpt lat="46.1257" lon="6.76321">
        <ele>1689.184</ele>
        <time>2025-02-02T14:21:50Z</time>
      </trkpt>
      <trkpt lat="46.12557" lon="6.76308">
        <ele>1688.723</ele>
        <time>2025-02-02T14:21:55Z</time>
      </trkpt>
      <trkpt lat="46.12542" lon="6.76292">
        <ele>1684.637</ele>
        <time>2025-02-02T14:22:00Z</time>
      </trkpt>
      <trkpt lat="46.12528" lon="6.76268">
        <ele>1677.798</ele>
        <time>2025-02-02T14:22:05Z</time>
      </trkpt>
      <trkpt lat="46.12517" lon="6.76234">
        <ele>1669.57</ele>
        <time>2025-02-02T14:22:10Z</time>
      </trkpt>
      <trkpt lat="46.12492" lon="6.76214">
        <ele>1667.252</ele>
        <time>2025-02-02T14:22:15Z</time>
      </trkpt>
      <trkpt lat="46.12481" lon="6.76181">
        <ele>1657.409</ele>
        <time>2025-02-02T14:22:20Z</time>
      </trkpt>
      <trkpt lat="46.12464" lon="6.76154">
        <ele>1652.264</ele>
        <time>2025-02-02T14:22:25Z</time>
      </trkpt>
      <trkpt lat="46.12461" lon="6.76126">
        <ele>1644.575</ele>
        <time>2025-02-02T14:22:30Z</time>
      </trkpt>
      <trkpt lat="46.12469" lon="6.76119">
        <ele>1644.339</ele>
        <time>2025-02-02T14:22:35Z</time>
      </trkpt>
      <trkpt lat="46.12471" lon="6.76118">
        <ele>1643.158</ele>
        <time>2025-02-02T14:22:40Z</time>
      </trkpt>
      <trkpt lat="46.12471" lon="6.76118">
        <ele>1643.533</ele>
        <time>2025-02-02T14:22:45Z</time>
      </trkpt>
      <trkpt lat="46.12471" lon="6.76118">
        <ele>1642.579</ele>
        <time>2025-02-02T14:22:50Z</time>
      </trkpt>
      <trkpt lat="46.12471" lon="6.76118">
        <ele>1642.806</ele>
        <time>2025-02-02T14:22:55Z</time>
      </trkpt>
      <trkpt lat="46.12471" lon="6.76118">
        <ele>1642.831</ele>
        <time>2025-02-02T14:23:00Z</time>
      </trkpt>
      <trkpt lat="46.12471" lon="6.76118">
        <ele>1642.861</ele>
        <time>2025-02-02T14:23:05Z</time>
      </trkpt>
      <trkpt lat="46.12471" lon="6.76118">
        <ele>1642.177</ele>
        <time>2025-02-02T14:23:10Z</time>
      </trkpt>
      <trkpt lat="46.12471" lon="6.76118">
        <ele>1641.652</ele>
        <time>2025-02-02T14:23:15Z</time>
      </trkpt>
      <trkpt lat="46.12471" lon="6.76118">
        <ele>1641.652</ele>
        <time>2025-02-02T14:23:20Z</time>
      </trkpt>
      <trkpt lat="46.12471" lon="6.76118">
        <ele>1641.652</ele>
        <time>2025-02-02T14:23:25Z</time>
      </trkpt>
      <trkpt lat="46.12471" lon="6.76118">
        <ele>1641.655</ele>
        <time>2025-02-02T14:23:30Z</time>
      </trkpt>
      <trkpt lat="46.12471" lon="6.76118">
        <ele>1641.621</ele>
        <time>2025-02-02T14:23:35Z</time>
      </trkpt>
      <trkpt lat="46.12471" lon="6.76118">
        <ele>1641.662</ele>
        <time>2025-02-02T14:23:40Z</time>
      </trkpt>
      <trkpt lat="46.12471" lon="6.76118">
        <ele>1641.662</ele>
        <time>2025-02-02T14:23:45Z</time>
      </trkpt>
      <trkpt lat="46.12483" lon="6.76109">
        <ele>1638.444</ele>
        <time>2025-02-02T14:23:50Z</time>
      </trkpt>
      <trkpt lat="46.12479" lon="6.76083">
        <ele>1634.033</ele>
        <time>2025-02-02T14:23:55Z</time>
      </trkpt>
      <trkpt lat="46.12479" lon="6.76074">
        <ele>1630.312</ele>
        <time>2025-02-02T14:24:00Z</time>
      </trkpt>
      <trkpt lat="46.12475" lon="6.76065">
        <ele>1626.738</ele>
        <time>2025-02-02T14:24:05Z</time>
      </trkpt>
      <trkpt lat="46.12482" lon="6.76037">
        <ele>1621.869</ele>
        <time>2025-02-02T14:24:10Z</time>
      </trkpt>
      <trkpt lat="46.12483" lon="6.75999">
        <ele>1620.458</ele>
        <time>2025-02-02T14:24:15Z</time>
      </trkpt>
      <trkpt lat="46.12475" lon="6.75982">
        <ele>1617.4</ele>
        <time>2025-02-02T14:24:20Z</time>
      </trkpt>
      <trkpt lat="46.12476" lon="6.75981">
        <ele>1611.758</ele>
        <time>2025-02-02T14:24:25Z</time>
      </trkpt>
      <trkpt lat="46.12475" lon="6.75978">
        <ele>1610.272</ele>
        <time>2025-02-02T14:24:30Z</time>
      </trkpt>
      <trkpt lat="46.12476" lon="6.75977">
        <ele>1610.401</ele>
        <time>2025-02-02T14:24:35Z</time>
      </trkpt>
      <trkpt lat="46.12475" lon="6.75977">
        <ele>1610.058</ele>
        <time>2025-02-02T14:24:40Z</time>
      </trkpt>
      <trkpt lat="46.12484" lon="6.75968">
        <ele>1608.59</ele>
        <time>2025-02-02T14:24:45Z</time>
      </trkpt>
      <trkpt lat="46.12485" lon="6.75936">
        <ele>1601.974</ele>
        <time>2025-02-02T14:24:50Z</time>
      </trkpt>
      <trkpt lat="46.12483" lon="6.75907">
        <ele>1592.774</ele>
        <time>2025-02-02T14:24:55Z</time>
      </trkpt>
      <trkpt lat="46.12481" lon="6.75875">
        <ele>1583.576</ele>
        <time>2025-02-02T14:25:00Z</time>
      </trkpt>
      <trkpt lat="46.12483" lon="6.7584">
        <ele>1574.684</ele>
        <time>2025-02-02T14:25:05Z</time>
      </trkpt>
      <trkpt lat="46.12481" lon="6.75817">
        <ele>1574.687</ele>
        <time>2025-02-02T14:25:10Z</time>
      </trkpt>
      <trkpt lat="46.1247" lon="6.75813">
        <ele>1569.989</ele>
        <time>2025-02-02T14:25:15Z</time>
      </trkpt>
      <trkpt lat="46.1247" lon="6.75813">
        <ele>1568.384</ele>
        <time>2025-02-02T14:25:20Z</time>
      </trkpt>
      <trkpt lat="46.1247" lon="6.75813">
        <ele>1567.332</ele>
        <time>2025-02-02T14:25:25Z</time>
      </trkpt>
      <trkpt lat="46.1247" lon="6.75813">
        <ele>1567.163</ele>
        <time>2025-02-02T14:25:30Z</time>
      </trkpt>
      <trkpt lat="46.1247" lon="6.75813">
        <ele>1567.146</ele>
        <time>2025-02-02T14:25:35Z</time>
      </trkpt>
      <trkpt lat="46.1247" lon="6.75813">
        <ele>1567.125</ele>
        <time>2025-02-02T14:25:40Z</time>
      </trkpt>
      <trkpt lat="46.1247" lon="6.75813">
        <ele>1566.835</ele>
        <time>2025-02-02T14:25:45Z</time>
      </trkpt>
      <trkpt lat="46.1247" lon="6.75813">
        <ele>1566.89</ele>
        <time>2025-02-02T14:25:50Z</time>
      </trkpt>
      <trkpt lat="46.1247" lon="6.75813">
        <ele>1566.881</ele>
        <time>2025-02-02T14:25:55Z</time>
      </trkpt>
      <trkpt lat="46.1247" lon="6.75813">
        <ele>1566.79</ele>
        <time>2025-02-02T14:26:00Z</time>
      </trkpt>
      <trkpt lat="46.1247" lon="6.75813">
        <ele>1565.42</ele>
        <time>2025-02-02T14:26:05Z</time>
      </trkpt>
      <trkpt lat="46.1247" lon="6.75813">
        <ele>1563.185</ele>
        <time>2025-02-02T14:26:10Z</time>
      </trkpt>
      <trkpt lat="46.1247" lon="6.75813">
        <ele>1561.894</ele>
        <time>2025-02-02T14:26:15Z</time>
      </trkpt>
      <trkpt lat="46.1247" lon="6.75813">
        <ele>1561.407</ele>
        <time>2025-02-02T14:26:20Z</time>
      </trkpt>
      <trkpt lat="46.1247" lon="6.75813">
        <ele>1561.417</ele>
        <time>2025-02-02T14:26:25Z</time>
      </trkpt>
      <trkpt lat="46.12469" lon="6.7581">
        <ele>1561.376</ele>
        <time>2025-02-02T14:26:30Z</time>
      </trkpt>
      <trkpt lat="46.12469" lon="6.7581">
        <ele>1561.36</ele>
        <time>2025-02-02T14:26:35Z</time>
      </trkpt>
      <trkpt lat="46.12469" lon="6.7581">
        <ele>1561.329</ele>
        <time>2025-02-02T14:26:40Z</time>
      </trkpt>
      <trkpt lat="46.12468" lon="6.7581">
        <ele>1558.064</ele>
        <time>2025-02-02T14:26:45Z</time>
      </trkpt>
      <trkpt lat="46.12458" lon="6.75781">
        <ele>1550.825</ele>
        <time>2025-02-02T14:26:50Z</time>
      </trkpt>
      <trkpt lat="46.12444" lon="6.75755">
        <ele>1547.233</ele>
        <time>2025-02-02T14:26:55Z</time>
      </trkpt>
      <trkpt lat="46.12428" lon="6.75741">
        <ele>1544.124</ele>
        <time>2025-02-02T14:27:00Z</time>
      </trkpt>
      <trkpt lat="46.12408" lon="6.75732">
        <ele>1541.057</ele>
        <time>2025-02-02T14:27:05Z</time>
      </trkpt>
      <trkpt lat="46.12391" lon="6.75723">
        <ele>1538.338</ele>
        <time>2025-02-02T14:27:10Z</time>
      </trkpt>
      <trkpt lat="46.1239" lon="6.75691">
        <ele>1530.594</ele>
        <time>2025-02-02T14:27:15Z</time>
      </trkpt>
      <trkpt lat="46.12384" lon="6.75671">
        <ele>1526.742</ele>
        <time>2025-02-02T14:27:20Z</time>
      </trkpt>
      <trkpt lat="46.124" lon="6.75654">
        <ele>1525.371</ele>
        <time>2025-02-02T14:27:25Z</time>
      </trkpt>
      <trkpt lat="46.12421" lon="6.75628">
        <ele>1524.5</ele>
        <time>2025-02-02T14:27:30Z</time>
      </trkpt>
      <trkpt lat="46.12422" lon="6.75623">
        <ele>1524.265</ele>
        <time>2025-02-02T14:27:35Z</time>
      </trkpt>
      <trkpt lat="46.12422" lon="6.75622">
        <ele>1524.177</ele>
        <time>2025-02-02T14:27:40Z</time>
      </trkpt>
      <trkpt lat="46.12423" lon="6.75623">
        <ele>1523.948</ele>
        <time>2025-02-02T14:27:45Z</time>
      </trkpt>
      <trkpt lat="46.12423" lon="6.75619">
        <ele>1524.223</ele>
        <time>2025-02-02T14:27:50Z</time>
      </trkpt>
      <trkpt lat="46.12422" lon="6.75617">
        <ele>1524.883</ele>
        <time>2025-02-02T14:27:55Z</time>
      </trkpt>
      <trkpt lat="46.12421" lon="6.75608">
        <ele>1525.674</ele>
        <time>2025-02-02T14:28:00Z</time>
      </trkpt>
      <trkpt lat="46.12421" lon="6.75607">
        <ele>1526.727</ele>
        <time>2025-02-02T14:28:05Z</time>
      </trkpt>
      <trkpt lat="46.12421" lon="6.75606">
        <ele>1528.178</ele>
        <time>2025-02-02T14:28:10Z</time>
      </trkpt>
      <trkpt lat="46.1242" lon="6.75602">
        <ele>1525.966</ele>
        <time>2025-02-02T14:28:15Z</time>
      </trkpt>
      <trkpt lat="46.1242" lon="6.75602">
        <ele>1525.586</ele>
        <time>2025-02-02T14:28:20Z</time>
      </trkpt>
      <trkpt lat="46.12419" lon="6.756">
        <ele>1525.381</ele>
        <time>2025-02-02T14:28:25Z</time>
      </trkpt>
      <trkpt lat="46.12418" lon="6.75595">
        <ele>1524.233</ele>
        <time>2025-02-02T14:28:30Z</time>
      </trkpt>
      <trkpt lat="46.12418" lon="6.75592">
        <ele>1523.597</ele>
        <time>2025-02-02T14:28:35Z</time>
      </trkpt>
      <trkpt lat="46.12417" lon="6.75588">
        <ele>1526.726</ele>
        <time>2025-02-02T14:28:40Z</time>
      </trkpt>
      <trkpt lat="46.12414" lon="6.75583">
        <ele>1529.311</ele>
        <time>2025-02-02T14:28:45Z</time>
      </trkpt>
      <trkpt lat="46.12415" lon="6.75574">
        <ele>1531.414</ele>
        <time>2025-02-02T14:28:50Z</time>
      </trkpt>
      <trkpt lat="46.12413" lon="6.75561">
        <ele>1533.066</ele>
        <time>2025-02-02T14:28:55Z</time>
      </trkpt>
      <trkpt lat="46.12411" lon="6.75542">
        <ele>1532.436</ele>
        <time>2025-02-02T14:29:00Z</time>
      </trkpt>
      <trkpt lat="46.12409" lon="6.7552">
        <ele>1530.601</ele>
        <time>2025-02-02T14:29:05Z</time>
      </trkpt>
      <trkpt lat="46.12407" lon="6.75502">
        <ele>1528.305</ele>
        <time>2025-02-02T14:29:10Z</time>
      </trkpt>
      <trkpt lat="46.12404" lon="6.75485">
        <ele>1528.363</ele>
        <time>2025-02-02T14:29:15Z</time>
      </trkpt>
      <trkpt lat="46.12399" lon="6.75472">
        <ele>1526.817</ele>
        <time>2025-02-02T14:29:20Z</time>
      </trkpt>
      <trkpt lat="46.12385" lon="6.75455">
        <ele>1527.794</ele>
        <time>2025-02-02T14:29:25Z</time>
      </trkpt>
      <trkpt lat="46.12373" lon="6.7544">
        <ele>1527.709</ele>
        <time>2025-02-02T14:29:30Z</time>
      </trkpt>
      <trkpt lat="46.12362" lon="6.75426">
        <ele>1527.157</ele>
        <time>2025-02-02T14:29:35Z</time>
      </trkpt>
      <trkpt lat="46.12351" lon="6.75409">
        <ele>1526.462</ele>
        <time>2025-02-02T14:29:40Z</time>
      </trkpt>
      <trkpt lat="46.12343" lon="6.75386">
        <ele>1525.404</ele>
        <time>2025-02-02T14:29:45Z</time>
      </trkpt>
      <trkpt lat="46.12335" lon="6.75365">
        <ele>1524.491</ele>
        <time>2025-02-02T14:29:50Z</time>
      </trkpt>
      <trkpt lat="46.12331" lon="6.75358">
        <ele>1523.817</ele>
        <time>2025-02-02T14:29:55Z</time>
      </trkpt>
      <trkpt lat="46.1233" lon="6.7536">
        <ele>1523.46</ele>
        <time>2025-02-02T14:30:00Z</time>
      </trkpt>
      <trkpt lat="46.12329" lon="6.7536">
        <ele>1523.366</ele>
        <time>2025-02-02T14:30:05Z</time>
      </trkpt>
      <trkpt lat="46.12317" lon="6.75358">
        <ele>1521.663</ele>
        <time>2025-02-02T14:30:10Z</time>
      </trkpt>
      <trkpt lat="46.12315" lon="6.75359">
        <ele>1520.606</ele>
        <time>2025-02-02T14:30:15Z</time>
      </trkpt>
      <trkpt lat="46.12315" lon="6.75359">
        <ele>1521.063</ele>
        <time>2025-02-02T14:30:20Z</time>
      </trkpt>
      <trkpt lat="46.12315" lon="6.75359">
        <ele>1521.522</ele>
        <time>2025-02-02T14:30:25Z</time>
      </trkpt>
      <trkpt lat="46.12315" lon="6.75359">
        <ele>1523.225</ele>
        <time>2025-02-02T14:30:30Z</time>
      </trkpt>
      <trkpt lat="46.12315" lon="6.75359">
        <ele>1523.495</ele>
        <time>2025-02-02T14:30:35Z</time>
      </trkpt>
      <trkpt lat="46.12315" lon="6.75359">
        <ele>1523.595</ele>
        <time>2025-02-02T14:30:40Z</time>
      </trkpt>
      <trkpt lat="46.12315" lon="6.75359">
        <ele>1522.596</ele>
        <time>2025-02-02T14:30:45Z</time>
      </trkpt>
      <trkpt lat="46.12315" lon="6.75359">
        <ele>1522.415</ele>
        <time>2025-02-02T14:30:50Z</time>
      </trkpt>
      <trkpt lat="46.12315" lon="6.75359">
        <ele>1522.611</ele>
        <time>2025-02-02T14:30:55Z</time>
      </trkpt>
      <trkpt lat="46.12315" lon="6.75359">
        <ele>1522.474</ele>
        <time>2025-02-02T14:31:00Z</time>
      </trkpt>
      <trkpt lat="46.12315" lon="6.75359">
        <ele>1522.467</ele>
        <time>2025-02-02T14:31:05Z</time>
      </trkpt>
      <trkpt lat="46.12315" lon="6.75359">
        <ele>1522.47</ele>
        <time>2025-02-02T14:31:10Z</time>
      </trkpt>
      <trkpt lat="46.12315" lon="6.75359">
        <ele>1522.449</ele>
        <time>2025-02-02T14:31:15Z</time>
      </trkpt>
      <trkpt lat="46.12315" lon="6.75359">
        <ele>1522.435</ele>
        <time>2025-02-02T14:31:20Z</time>
      </trkpt>
      <trkpt lat="46.12315" lon="6.75359">
        <ele>1522.415</ele>
        <time>2025-02-02T14:31:25Z</time>
      </trkpt>
      <trkpt lat="46.12315" lon="6.75359">
        <ele>1522.414</ele>
        <time>2025-02-02T14:31:30Z</time>
      </trkpt>
      <trkpt lat="46.12315" lon="6.75359">
        <ele>1522.437</ele>
        <time>2025-02-02T14:31:35Z</time>
      </trkpt>
      <trkpt lat="46.12315" lon="6.75359">
        <ele>1522.432</ele>
        <time>2025-02-02T14:31:40Z</time>
      </trkpt>
      <trkpt lat="46.12315" lon="6.75359">
        <ele>1522.434</ele>
        <time>2025-02-02T14:31:45Z</time>
      </trkpt>
      <trkpt lat="46.12315" lon="6.75359">
        <ele>1522.439</ele>
        <time>2025-02-02T14:31:50Z</time>
      </trkpt>
      <trkpt lat="46.12315" lon="6.75359">
        <ele>1522.441</ele>
        <time>2025-02-02T14:31:55Z</time>
      </trkpt>
      <trkpt lat="46.12315" lon="6.75359">
        <ele>1524.264</ele>
        <time>2025-02-02T14:32:00Z</time>
      </trkpt>
      <trkpt lat="46.12315" lon="6.75359">
        <ele>1526.889</ele>
        <time>2025-02-02T14:32:05Z</time>
      </trkpt>
      <trkpt lat="46.12315" lon="6.75359">
        <ele>1527.894</ele>
        <time>2025-02-02T14:32:10Z</time>
      </trkpt>
      <trkpt lat="46.12315" lon="6.75359">
        <ele>1523.54</ele>
        <time>2025-02-02T14:32:15Z</time>
      </trkpt>
      <trkpt lat="46.12315" lon="6.75359">
        <ele>1523.79</ele>
        <time>2025-02-02T14:32:20Z</time>
      </trkpt>
      <trkpt lat="46.12315" lon="6.75359">
        <ele>1523.794</ele>
        <time>2025-02-02T14:32:25Z</time>
      </trkpt>
      <trkpt lat="46.12315" lon="6.75359">
        <ele>1523.027</ele>
        <time>2025-02-02T14:32:30Z</time>
      </trkpt>
      <trkpt lat="46.12315" lon="6.75359">
        <ele>1523.056</ele>
        <time>2025-02-02T14:32:35Z</time>
      </trkpt>
      <trkpt lat="46.12315" lon="6.75359">
        <ele>1523.044</ele>
        <time>2025-02-02T14:32:40Z</time>
      </trkpt>
      <trkpt lat="46.12315" lon="6.75359">
        <ele>1523.067</ele>
        <time>2025-02-02T14:32:45Z</time>
      </trkpt>
      <trkpt lat="46.12315" lon="6.75359">
        <ele>1523.074</ele>
        <time>2025-02-02T14:32:50Z</time>
      </trkpt>
      <trkpt lat="46.12315" lon="6.75359">
        <ele>1523.08</ele>
        <time>2025-02-02T14:32:55Z</time>
      </trkpt>
      <trkpt lat="46.12315" lon="6.75359">
        <ele>1522.952</ele>
        <time>2025-02-02T14:33:00Z</time>
      </trkpt>
      <trkpt lat="46.12315" lon="6.75359">
        <ele>1522.947</ele>
        <time>2025-02-02T14:33:05Z</time>
      </trkpt>
      <trkpt lat="46.12315" lon="6.75359">
        <ele>1522.956</ele>
        <time>2025-02-02T14:33:10Z</time>
      </trkpt>
      <trkpt lat="46.12315" lon="6.75359">
        <ele>1522.964</ele>
        <time>2025-02-02T14:33:15Z</time>
      </trkpt>
      <trkpt lat="46.12315" lon="6.75359">
        <ele>1523.026</ele>
        <time>2025-02-02T14:33:20Z</time>
      </trkpt>
      <trkpt lat="46.12315" lon="6.75359">
        <ele>1523.037</ele>
        <time>2025-02-02T14:33:25Z</time>
      </trkpt>
      <trkpt lat="46.12315" lon="6.75359">
        <ele>1523.049</ele>
        <time>2025-02-02T14:33:30Z</time>
      </trkpt>
      <trkpt lat="46.12315" lon="6.75359">
        <ele>1523.054</ele>
        <time>2025-02-02T14:33:35Z</time>
      </trkpt>
      <trkpt lat="46.12315" lon="6.75359">
        <ele>1523.057</ele>
        <time>2025-02-02T14:33:40Z</time>
      </trkpt>
      <trkpt lat="46.12315" lon="6.75359">
        <ele>1523.053</ele>
        <time>2025-02-02T14:33:45Z</time>
      </trkpt>
      <trkpt lat="46.12315" lon="6.75359">
        <ele>1523.056</ele>
        <time>2025-02-02T14:33:50Z</time>
      </trkpt>
      <trkpt lat="46.12315" lon="6.75359">
        <ele>1523.057</ele>
        <time>2025-02-02T14:33:55Z</time>
      </trkpt>
      <trkpt lat="46.12315" lon="6.75359">
        <ele>1523.057</ele>
        <time>2025-02-02T14:34:00Z</time>
      </trkpt>
      <trkpt lat="46.12315" lon="6.75359">
        <ele>1523.055</ele>
        <time>2025-02-02T14:34:05Z</time>
      </trkpt>
      <trkpt lat="46.12315" lon="6.75359">
        <ele>1523.053</ele>
        <time>2025-02-02T14:34:10Z</time>
      </trkpt>
      <trkpt lat="46.12315" lon="6.75359">
        <ele>1523.058</ele>
        <time>2025-02-02T14:34:15Z</time>
      </trkpt>
      <trkpt lat="46.12315" lon="6.75359">
        <ele>1523.068</ele>
        <time>2025-02-02T14:34:20Z</time>
      </trkpt>
      <trkpt lat="46.12315" lon="6.75359">
        <ele>1523.074</ele>
        <time>2025-02-02T14:34:25Z</time>
      </trkpt>
      <trkpt lat="46.12315" lon="6.75359">
        <ele>1523.077</ele>
        <time>2025-02-02T14:34:30Z</time>
      </trkpt>
      <trkpt lat="46.12315" lon="6.75359">
        <ele>1523.086</ele>
        <time>2025-02-02T14:34:35Z</time>
      </trkpt>
      <trkpt lat="46.12315" lon="6.75359">
        <ele>1523.189</ele>
        <time>2025-02-02T14:34:40Z</time>
      </trkpt>
      <trkpt lat="46.12315" lon="6.75359">
        <ele>1523.225</ele>
        <time>2025-02-02T14:34:45Z</time>
      </trkpt>
      <trkpt lat="46.12315" lon="6.75359">
        <ele>1523.238</ele>
        <time>2025-02-02T14:34:50Z</time>
      </trkpt>
      <trkpt lat="46.12315" lon="6.75359">
        <ele>1523.239</ele>
        <time>2025-02-02T14:34:55Z</time>
      </trkpt>
      <trkpt lat="46.12315" lon="6.75359">
        <ele>1523.239</ele>
        <time>2025-02-02T14:35:00Z</time>
      </trkpt>
      <trkpt lat="46.12315" lon="6.75359">
        <ele>1523.24</ele>
        <time>2025-02-02T14:35:05Z</time>
      </trkpt>
      <trkpt lat="46.12315" lon="6.75359">
        <ele>1523.224</ele>
        <time>2025-02-02T14:35:10Z</time>
      </trkpt>
      <trkpt lat="46.12315" lon="6.75359">
        <ele>1523.205</ele>
        <time>2025-02-02T14:35:15Z</time>
      </trkpt>
      <trkpt lat="46.12315" lon="6.75359">
        <ele>1523.188</ele>
        <time>2025-02-02T14:35:20Z</time>
      </trkpt>
      <trkpt lat="46.12315" lon="6.75359">
        <ele>1523.177</ele>
        <time>2025-02-02T14:35:25Z</time>
      </trkpt>
      <trkpt lat="46.12315" lon="6.75359">
        <ele>1523.16</ele>
        <time>2025-02-02T14:35:30Z</time>
      </trkpt>
      <trkpt lat="46.12315" lon="6.75359">
        <ele>1523.192</ele>
        <time>2025-02-02T14:35:35Z</time>
      </trkpt>
      <trkpt lat="46.12315" lon="6.75359">
        <ele>1523.177</ele>
        <time>2025-02-02T14:35:40Z</time>
      </trkpt>
      <trkpt lat="46.12315" lon="6.75359">
        <ele>1523.172</ele>
        <time>2025-02-02T14:35:45Z</time>
      </trkpt>
      <trkpt lat="46.12315" lon="6.75359">
        <ele>1523.185</ele>
        <time>2025-02-02T14:35:50Z</time>
      </trkpt>
      <trkpt lat="46.12315" lon="6.75359">
        <ele>1523.194</ele>
        <time>2025-02-02T14:35:55Z</time>
      </trkpt>
      <trkpt lat="46.12315" lon="6.75359">
        <ele>1523.201</ele>
        <time>2025-02-02T14:36:00Z</time>
      </trkpt>
      <trkpt lat="46.12315" lon="6.75359">
        <ele>1523.194</ele>
        <time>2025-02-02T14:36:05Z</time>
      </trkpt>
      <trkpt lat="46.12315" lon="6.75359">
        <ele>1523.199</ele>
        <time>2025-02-02T14:36:10Z</time>
      </trkpt>
      <trkpt lat="46.12315" lon="6.75359">
        <ele>1523.184</ele>
        <time>2025-02-02T14:36:15Z</time>
      </trkpt>
      <trkpt lat="46.12315" lon="6.75359">
        <ele>1523.182</ele>
        <time>2025-02-02T14:36:20Z</time>
      </trkpt>
      <trkpt lat="46.12315" lon="6.75359">
        <ele>1523.192</ele>
        <time>2025-02-02T14:36:25Z</time>
      </trkpt>
      <trkpt lat="46.12315" lon="6.75359">
        <ele>1523.194</ele>
        <time>2025-02-02T14:36:30Z</time>
      </trkpt>
      <trkpt lat="46.12315" lon="6.75359">
        <ele>1523.246</ele>
        <time>2025-02-02T14:36:35Z</time>
      </trkpt>
      <trkpt lat="46.12315" lon="6.75359">
        <ele>1523.242</ele>
        <time>2025-02-02T14:36:40Z</time>
      </trkpt>
      <trkpt lat="46.12315" lon="6.75359">
        <ele>1523.26</ele>
        <time>2025-02-02T14:36:45Z</time>
      </trkpt>
      <trkpt lat="46.12315" lon="6.75359">
        <ele>1523.257</ele>
        <time>2025-02-02T14:36:50Z</time>
      </trkpt>
      <trkpt lat="46.12316" lon="6.75354">
        <ele>1523.26</ele>
        <time>2025-02-02T14:36:55Z</time>
      </trkpt>
      <trkpt lat="46.12316" lon="6.75354">
        <ele>1523.238</ele>
        <time>2025-02-02T14:37:00Z</time>
      </trkpt>
      <trkpt lat="46.12316" lon="6.75354">
        <ele>1523.211</ele>
        <time>2025-02-02T14:37:05Z</time>
      </trkpt>
      <trkpt lat="46.12316" lon="6.75354">
        <ele>1523.214</ele>
        <time>2025-02-02T14:37:10Z</time>
      </trkpt>
      <trkpt lat="46.12316" lon="6.75354">
        <ele>1522.838</ele>
        <time>2025-02-02T14:37:15Z</time>
      </trkpt>
      <trkpt lat="46.1231" lon="6.75344">
        <ele>1521.459</ele>
        <time>2025-02-02T14:37:20Z</time>
      </trkpt>
      <trkpt lat="46.12291" lon="6.75331">
        <ele>1519.284</ele>
        <time>2025-02-02T14:37:25Z</time>
      </trkpt>
      <trkpt lat="46.12272" lon="6.75326">
        <ele>1519.068</ele>
        <time>2025-02-02T14:37:30Z</time>
      </trkpt>
      <trkpt lat="46.12262" lon="6.75315">
        <ele>1517.239</ele>
        <time>2025-02-02T14:37:35Z</time>
      </trkpt>
      <trkpt lat="46.12259" lon="6.75309">
        <ele>1516.447</ele>
        <time>2025-02-02T14:37:40Z</time>
      </trkpt>
      <trkpt lat="46.12249" lon="6.75273">
        <ele>1513.671</ele>
        <time>2025-02-02T14:37:45Z</time>
      </trkpt>
      <trkpt lat="46.12233" lon="6.7525">
        <ele>1508.594</ele>
        <time>2025-02-02T14:37:50Z</time>
      </trkpt>
      <trkpt lat="46.1223" lon="6.75241">
        <ele>1511.055</ele>
        <time>2025-02-02T14:37:55Z</time>
      </trkpt>
      <trkpt lat="46.12226" lon="6.75234">
        <ele>1511.116</ele>
        <time>2025-02-02T14:38:00Z</time>
      </trkpt>
      <trkpt lat="46.12224" lon="6.75234">
        <ele>1511.556</ele>
        <time>2025-02-02T14:38:05Z</time>
      </trkpt>
      <trkpt lat="46.12224" lon="6.75234">
        <ele>1510.78</ele>
        <time>2025-02-02T14:38:10Z</time>
      </trkpt>
      <trkpt lat="46.12224" lon="6.75234">
        <ele>1508.953</ele>
        <time>2025-02-02T14:38:15Z</time>
      </trkpt>
      <trkpt lat="46.12224" lon="6.75234">
        <ele>1508.443</ele>
        <time>2025-02-02T14:38:20Z</time>
      </trkpt>
      <trkpt lat="46.12224" lon="6.75234">
        <ele>1509.359</ele>
        <time>2025-02-02T14:38:25Z</time>
      </trkpt>
      <trkpt lat="46.12224" lon="6.75234">
        <ele>1508.593</ele>
        <time>2025-02-02T14:38:30Z</time>
      </trkpt>
      <trkpt lat="46.12224" lon="6.75234">
        <ele>1508.369</ele>
        <time>2025-02-02T14:38:35Z</time>
      </trkpt>
      <trkpt lat="46.12224" lon="6.75234">
        <ele>1507.391</ele>
        <time>2025-02-02T14:38:40Z</time>
      </trkpt>
      <trkpt lat="46.12224" lon="6.75234">
        <ele>1508.028</ele>
        <time>2025-02-02T14:38:45Z</time>
      </trkpt>
      <trkpt lat="46.12224" lon="6.75234">
        <ele>1506.419</ele>
        <time>2025-02-02T14:38:50Z</time>
      </trkpt>
      <trkpt lat="46.12224" lon="6.75234">
        <ele>1505.989</ele>
        <time>2025-02-02T14:38:55Z</time>
      </trkpt>
      <trkpt lat="46.12226" lon="6.75217">
        <ele>1505.494</ele>
        <time>2025-02-02T14:39:00Z</time>
      </trkpt>
      <trkpt lat="46.12225" lon="6.75217">
        <ele>1505.493</ele>
        <time>2025-02-02T14:39:05Z</time>
      </trkpt>
      <trkpt lat="46.12226" lon="6.75194">
        <ele>1500.281</ele>
        <time>2025-02-02T14:39:10Z</time>
      </trkpt>
      <trkpt lat="46.12219" lon="6.75154">
        <ele>1499.354</ele>
        <time>2025-02-02T14:39:15Z</time>
      </trkpt>
      <trkpt lat="46.12217" lon="6.75122">
        <ele>1501.223</ele>
        <time>2025-02-02T14:39:20Z</time>
      </trkpt>
      <trkpt lat="46.12218" lon="6.75114">
        <ele>1501.717</ele>
        <time>2025-02-02T14:39:25Z</time>
      </trkpt>
      <trkpt lat="46.12218" lon="6.75114">
        <ele>1502.6</ele>
        <time>2025-02-02T14:39:30Z</time>
      </trkpt>
      <trkpt lat="46.12218" lon="6.75114">
        <ele>1503.291</ele>
        <time>2025-02-02T14:39:35Z</time>
      </trkpt>
      <trkpt lat="46.12218" lon="6.75114">
        <ele>1503.938</ele>
        <time>2025-02-02T14:39:40Z</time>
      </trkpt>
      <trkpt lat="46.12218" lon="6.75114">
        <ele>1505.166</ele>
        <time>2025-02-02T14:39:45Z</time>
      </trkpt>
      <trkpt lat="46.12218" lon="6.75114">
        <ele>1505.008</ele>
        <time>2025-02-02T14:39:50Z</time>
      </trkpt>
      <trkpt lat="46.12218" lon="6.75114">
        <ele>1505.01</ele>
        <time>2025-02-02T14:39:55Z</time>
      </trkpt>
      <trkpt lat="46.12219" lon="6.75104">
        <ele>1507.527</ele>
        <time>2025-02-02T14:40:00Z</time>
      </trkpt>
      <trkpt lat="46.12223" lon="6.75086">
        <ele>1505.782</ele>
        <time>2025-02-02T14:40:05Z</time>
      </trkpt>
      <trkpt lat="46.12215" lon="6.75066">
        <ele>1499.768</ele>
        <time>2025-02-02T14:40:10Z</time>
      </trkpt>
      <trkpt lat="46.12204" lon="6.7505">
        <ele>1496.585</ele>
        <time>2025-02-02T14:40:15Z</time>
      </trkpt>
      <trkpt lat="46.12198" lon="6.75039">
        <ele>1486.736</ele>
        <time>2025-02-02T14:40:20Z</time>
      </trkpt>
      <trkpt lat="46.12192" lon="6.75009">
        <ele>1483.911</ele>
        <time>2025-02-02T14:40:25Z</time>
      </trkpt>
      <trkpt lat="46.12183" lon="6.74986">
        <ele>1475.736</ele>
        <time>2025-02-02T14:40:30Z</time>
      </trkpt>
      <trkpt lat="46.12173" lon="6.74965">
        <ele>1473.877</ele>
        <time>2025-02-02T14:40:35Z</time>
      </trkpt>
      <trkpt lat="46.12159" lon="6.74962">
        <ele>1467.854</ele>
        <time>2025-02-02T14:40:40Z</time>
      </trkpt>
      <trkpt lat="46.12156" lon="6.74942">
        <ele>1463.354</ele>
        <time>2025-02-02T14:40:45Z</time>
      </trkpt>
      <trkpt lat="46.12139" lon="6.74918">
        <ele>1450.695</ele>
        <time>2025-02-02T14:40:50Z</time>
      </trkpt>
      <trkpt lat="46.12137" lon="6.74892">
        <ele>1448.296</ele>
        <time>2025-02-02T14:40:55Z</time>
      </trkpt>
      <trkpt lat="46.12137" lon="6.74891">
        <ele>1447.553</ele>
        <time>2025-02-02T14:41:00Z</time>
      </trkpt>
      <trkpt lat="46.12137" lon="6.74891">
        <ele>1447.625</ele>
        <time>2025-02-02T14:41:05Z</time>
      </trkpt>
      <trkpt lat="46.12137" lon="6.74892">
        <ele>1447.488</ele>
        <time>2025-02-02T14:41:10Z</time>
      </trkpt>
      <trkpt lat="46.12128" lon="6.74871">
        <ele>1445.156</ele>
        <time>2025-02-02T14:41:15Z</time>
      </trkpt>
      <trkpt lat="46.12121" lon="6.74842">
        <ele>1442.382</ele>
        <time>2025-02-02T14:41:20Z</time>
      </trkpt>
      <trkpt lat="46.12107" lon="6.74824">
        <ele>1435.424</ele>
        <time>2025-02-02T14:41:25Z</time>
      </trkpt>
      <trkpt lat="46.1211" lon="6.74792">
        <ele>1433.566</ele>
        <time>2025-02-02T14:41:30Z</time>
      </trkpt>
      <trkpt lat="46.12114" lon="6.7478">
        <ele>1429.773</ele>
        <time>2025-02-02T14:41:35Z</time>
      </trkpt>
      <trkpt lat="46.12115" lon="6.7478">
        <ele>1427.83</ele>
        <time>2025-02-02T14:41:40Z</time>
      </trkpt>
      <trkpt lat="46.12115" lon="6.7478">
        <ele>1428.826</ele>
        <time>2025-02-02T14:41:45Z</time>
      </trkpt>
      <trkpt lat="46.12115" lon="6.7478">
        <ele>1427.072</ele>
        <time>2025-02-02T14:41:50Z</time>
      </trkpt>
      <trkpt lat="46.12115" lon="6.7478">
        <ele>1428.543</ele>
        <time>2025-02-02T14:41:55Z</time>
      </trkpt>
      <trkpt lat="46.12115" lon="6.7478">
        <ele>1428.312</ele>
        <time>2025-02-02T14:42:00Z</time>
      </trkpt>
      <trkpt lat="46.12115" lon="6.7478">
        <ele>1428.245</ele>
        <time>2025-02-02T14:42:05Z</time>
      </trkpt>
      <trkpt lat="46.12115" lon="6.7478">
        <ele>1427.765</ele>
        <time>2025-02-02T14:42:10Z</time>
      </trkpt>
      <trkpt lat="46.12115" lon="6.7478">
        <ele>1427.804</ele>
        <time>2025-02-02T14:42:15Z</time>
      </trkpt>
      <trkpt lat="46.12115" lon="6.7478">
        <ele>1427.782</ele>
        <time>2025-02-02T14:42:20Z</time>
      </trkpt>
      <trkpt lat="46.12115" lon="6.7478">
        <ele>1429.043</ele>
        <time>2025-02-02T14:42:25Z</time>
      </trkpt>
      <trkpt lat="46.12115" lon="6.7478">
        <ele>1431.821</ele>
        <time>2025-02-02T14:42:30Z</time>
      </trkpt>
      <trkpt lat="46.12115" lon="6.7478">
        <ele>1431.895</ele>
        <time>2025-02-02T14:42:35Z</time>
      </trkpt>
      <trkpt lat="46.12115" lon="6.7478">
        <ele>1430.954</ele>
        <time>2025-02-02T14:42:40Z</time>
      </trkpt>
      <trkpt lat="46.12108" lon="6.74766">
        <ele>1427.229</ele>
        <time>2025-02-02T14:42:45Z</time>
      </trkpt>
      <trkpt lat="46.12091" lon="6.74748">
        <ele>1417.395</ele>
        <time>2025-02-02T14:42:50Z</time>
      </trkpt>
      <trkpt lat="46.1208" lon="6.74736">
        <ele>1407.911</ele>
        <time>2025-02-02T14:42:55Z</time>
      </trkpt>
      <trkpt lat="46.12062" lon="6.7472">
        <ele>1403.547</ele>
        <time>2025-02-02T14:43:00Z</time>
      </trkpt>
      <trkpt lat="46.12049" lon="6.74699">
        <ele>1394.857</ele>
        <time>2025-02-02T14:43:05Z</time>
      </trkpt>
      <trkpt lat="46.12038" lon="6.74685">
        <ele>1395.389</ele>
        <time>2025-02-02T14:43:10Z</time>
      </trkpt>
      <trkpt lat="46.12037" lon="6.74685">
        <ele>1395.806</ele>
        <time>2025-02-02T14:43:15Z</time>
      </trkpt>
      <trkpt lat="46.12037" lon="6.74683">
        <ele>1393.693</ele>
        <time>2025-02-02T14:43:20Z</time>
      </trkpt>
      <trkpt lat="46.12033" lon="6.74676">
        <ele>1387.644</ele>
        <time>2025-02-02T14:43:25Z</time>
      </trkpt>
      <trkpt lat="46.12028" lon="6.74663">
        <ele>1383.735</ele>
        <time>2025-02-02T14:43:30Z</time>
      </trkpt>
      <trkpt lat="46.12021" lon="6.74637">
        <ele>1377.723</ele>
        <time>2025-02-02T14:43:35Z</time>
      </trkpt>
      <trkpt lat="46.12008" lon="6.74616">
        <ele>1374.082</ele>
        <time>2025-02-02T14:43:40Z</time>
      </trkpt>
      <trkpt lat="46.12005" lon="6.74586">
        <ele>1371.941</ele>
        <time>2025-02-02T14:43:45Z</time>
      </trkpt>
      <trkpt lat="46.1201" lon="6.74575">
        <ele>1371.316</ele>
        <time>2025-02-02T14:43:50Z</time>
      </trkpt>
      <trkpt lat="46.12011" lon="6.74573">
        <ele>1371.127</ele>
        <time>2025-02-02T14:43:55Z</time>
      </trkpt>
      <trkpt lat="46.12011" lon="6.74573">
        <ele>1371.11</ele>
        <time>2025-02-02T14:44:00Z</time>
      </trkpt>
      <trkpt lat="46.12011" lon="6.74573">
        <ele>1371.689</ele>
        <time>2025-02-02T14:44:05Z</time>
      </trkpt>
      <trkpt lat="46.12008" lon="6.74543">
        <ele>1365.539</ele>
        <time>2025-02-02T14:44:10Z</time>
      </trkpt>
      <trkpt lat="46.11987" lon="6.74519">
        <ele>1360.125</ele>
        <time>2025-02-02T14:44:15Z</time>
      </trkpt>
      <trkpt lat="46.11968" lon="6.74496">
        <ele>1357.03</ele>
        <time>2025-02-02T14:44:20Z</time>
      </trkpt>
      <trkpt lat="46.11951" lon="6.74474">
        <ele>1354.63</ele>
        <time>2025-02-02T14:44:25Z</time>
      </trkpt>
      <trkpt lat="46.11953" lon="6.7447">
        <ele>1352.754</ele>
        <time>2025-02-02T14:44:30Z</time>
      </trkpt>
      <trkpt lat="46.11953" lon="6.74464">
        <ele>1351.338</ele>
        <time>2025-02-02T14:44:35Z</time>
      </trkpt>
      <trkpt lat="46.11954" lon="6.74463">
        <ele>1352.587</ele>
        <time>2025-02-02T14:44:40Z</time>
      </trkpt>
      <trkpt lat="46.11954" lon="6.74463">
        <ele>1352.811</ele>
        <time>2025-02-02T14:44:45Z</time>
      </trkpt>
      <trkpt lat="46.11956" lon="6.74459">
        <ele>1350.97</ele>
        <time>2025-02-02T14:44:50Z</time>
      </trkpt>
      <trkpt lat="46.11959" lon="6.74452">
        <ele>1350.854</ele>
        <time>2025-02-02T14:44:55Z</time>
      </trkpt>
      <trkpt lat="46.11959" lon="6.74452">
        <ele>1350.44</ele>
        <time>2025-02-02T14:45:00Z</time>
      </trkpt>
      <trkpt lat="46.11959" lon="6.74452">
        <ele>1349.884</ele>
        <time>2025-02-02T14:45:05Z</time>
      </trkpt>
      <trkpt lat="46.11959" lon="6.74452">
        <ele>1349.35</ele>
        <time>2025-02-02T14:45:10Z</time>
      </trkpt>
      <trkpt lat="46.11959" lon="6.74452">
        <ele>1349.029</ele>
        <time>2025-02-02T14:45:15Z</time>
      </trkpt>
      <trkpt lat="46.11959" lon="6.74452">
        <ele>1349.028</ele>
        <time>2025-02-02T14:45:20Z</time>
      </trkpt>
      <trkpt lat="46.11959" lon="6.74452">
        <ele>1349.037</ele>
        <time>2025-02-02T14:45:25Z</time>
      </trkpt>
      <trkpt lat="46.11959" lon="6.74452">
        <ele>1347.934</ele>
        <time>2025-02-02T14:45:30Z</time>
      </trkpt>
      <trkpt lat="46.11959" lon="6.74452">
        <ele>1348.704</ele>
        <time>2025-02-02T14:45:35Z</time>
      </trkpt>
      <trkpt lat="46.11959" lon="6.74452">
        <ele>1347.238</ele>
        <time>2025-02-02T14:45:40Z</time>
      </trkpt>
      <trkpt lat="46.11959" lon="6.74452">
        <ele>1350.04</ele>
        <time>2025-02-02T14:45:45Z</time>
      </trkpt>
      <trkpt lat="46.11959" lon="6.74451">
        <ele>1351.003</ele>
        <time>2025-02-02T14:45:50Z</time>
      </trkpt>
      <trkpt lat="46.11966" lon="6.74446">
        <ele>1349.142</ele>
        <time>2025-02-02T14:45:55Z</time>
      </trkpt>
      <trkpt lat="46.11966" lon="6.74427">
        <ele>1346.292</ele>
        <time>2025-02-02T14:46:00Z</time>
      </trkpt>
      <trkpt lat="46.11955" lon="6.74417">
        <ele>1342.824</ele>
        <time>2025-02-02T14:46:05Z</time>
      </trkpt>
      <trkpt lat="46.11944" lon="6.74403">
        <ele>1338.61</ele>
        <time>2025-02-02T14:46:10Z</time>
      </trkpt>
      <trkpt lat="46.11937" lon="6.74382">
        <ele>1335.855</ele>
        <time>2025-02-02T14:46:15Z</time>
      </trkpt>
      <trkpt lat="46.11927" lon="6.74378">
        <ele>1335.946</ele>
        <time>2025-02-02T14:46:20Z</time>
      </trkpt>
      <trkpt lat="46.11927" lon="6.74379">
        <ele>1335.129</ele>
        <time>2025-02-02T14:46:25Z</time>
      </trkpt>
      <trkpt lat="46.11927" lon="6.7437">
        <ele>1331.241</ele>
        <time>2025-02-02T14:46:30Z</time>
      </trkpt>
      <trkpt lat="46.11943" lon="6.74359">
        <ele>1330.6</ele>
        <time>2025-02-02T14:46:35Z</time>
      </trkpt>
      <trkpt lat="46.11945" lon="6.74343">
        <ele>1328.506</ele>
        <time>2025-02-02T14:46:40Z</time>
      </trkpt>
      <trkpt lat="46.11935" lon="6.74327">
        <ele>1322.957</ele>
        <time>2025-02-02T14:46:45Z</time>
      </trkpt>
      <trkpt lat="46.11936" lon="6.74326">
        <ele>1322.476</ele>
        <time>2025-02-02T14:46:50Z</time>
      </trkpt>
      <trkpt lat="46.11938" lon="6.74321">
        <ele>1321.415</ele>
        <time>2025-02-02T14:46:55Z</time>
      </trkpt>
      <trkpt lat="46.11934" lon="6.74301">
        <ele>1318.236</ele>
        <time>2025-02-02T14:47:00Z</time>
      </trkpt>
      <trkpt lat="46.11936" lon="6.74276">
        <ele>1314.784</ele>
        <time>2025-02-02T14:47:05Z</time>
      </trkpt>
      <trkpt lat="46.11933" lon="6.74254">
        <ele>1310.83</ele>
        <time>2025-02-02T14:47:10Z</time>
      </trkpt>
      <trkpt lat="46.11931" lon="6.74241">
        <ele>1307.366</ele>
        <time>2025-02-02T14:47:15Z</time>
      </trkpt>
      <trkpt lat="46.11928" lon="6.74228">
        <ele>1305.659</ele>
        <time>2025-02-02T14:47:20Z</time>
      </trkpt>
      <trkpt lat="46.11927" lon="6.74225">
        <ele>1306.497</ele>
        <time>2025-02-02T14:47:25Z</time>
      </trkpt>
      <trkpt lat="46.11926" lon="6.74224">
        <ele>1307.077</ele>
        <time>2025-02-02T14:47:30Z</time>
      </trkpt>
      <trkpt lat="46.11925" lon="6.74224">
        <ele>1306.878</ele>
        <time>2025-02-02T14:47:35Z</time>
      </trkpt>
      <trkpt lat="46.11925" lon="6.74223">
        <ele>1305.432</ele>
        <time>2025-02-02T14:47:40Z</time>
      </trkpt>
      <trkpt lat="46.11925" lon="6.74223">
        <ele>1305.559</ele>
        <time>2025-02-02T14:47:45Z</time>
      </trkpt>
      <trkpt lat="46.11925" lon="6.74223">
        <ele>1305.468</ele>
        <time>2025-02-02T14:47:50Z</time>
      </trkpt>
      <trkpt lat="46.11929" lon="6.74211">
        <ele>1304.406</ele>
        <time>2025-02-02T14:47:55Z</time>
      </trkpt>
      <trkpt lat="46.11935" lon="6.74204">
        <ele>1303.991</ele>
        <time>2025-02-02T14:48:00Z</time>
      </trkpt>
      <trkpt lat="46.11936" lon="6.74203">
        <ele>1304.806</ele>
        <time>2025-02-02T14:48:05Z</time>
      </trkpt>
      <trkpt lat="46.11935" lon="6.74199">
        <ele>1304.726</ele>
        <time>2025-02-02T14:48:10Z</time>
      </trkpt>
      <trkpt lat="46.1193" lon="6.74187">
        <ele>1303.912</ele>
        <time>2025-02-02T14:48:15Z</time>
      </trkpt>
      <trkpt lat="46.11929" lon="6.74178">
        <ele>1305.991</ele>
        <time>2025-02-02T14:48:20Z</time>
      </trkpt>
      <trkpt lat="46.11929" lon="6.74175">
        <ele>1305.409</ele>
        <time>2025-02-02T14:48:25Z</time>
      </trkpt>
      <trkpt lat="46.11929" lon="6.74173">
        <ele>1305.009</ele>
        <time>2025-02-02T14:48:30Z</time>
      </trkpt>
      <trkpt lat="46.11929" lon="6.74173">
        <ele>1304.924</ele>
        <time>2025-02-02T14:48:35Z</time>
      </trkpt>
      <trkpt lat="46.11929" lon="6.74173">
        <ele>1305.606</ele>
        <time>2025-02-02T14:48:40Z</time>
      </trkpt>
      <trkpt lat="46.11929" lon="6.74173">
        <ele>1305.245</ele>
        <time>2025-02-02T14:48:45Z</time>
      </trkpt>
      <trkpt lat="46.11929" lon="6.74173">
        <ele>1305.018</ele>
        <time>2025-02-02T14:48:50Z</time>
      </trkpt>
      <trkpt lat="46.11929" lon="6.74173">
        <ele>1304.961</ele>
        <time>2025-02-02T14:48:55Z</time>
      </trkpt>
      <trkpt lat="46.11929" lon="6.74173">
        <ele>1304.935</ele>
        <time>2025-02-02T14:49:00Z</time>
      </trkpt>
      <trkpt lat="46.11929" lon="6.74173">
        <ele>1304.911</ele>
        <time>2025-02-02T14:49:05Z</time>
      </trkpt>
      <trkpt lat="46.11929" lon="6.74173">
        <ele>1304.921</ele>
        <time>2025-02-02T14:49:10Z</time>
      </trkpt>
      <trkpt lat="46.11929" lon="6.74173">
        <ele>1304.905</ele>
        <time>2025-02-02T14:49:15Z</time>
      </trkpt>
      <trkpt lat="46.11927" lon="6.74171">
        <ele>1304.821</ele>
        <time>2025-02-02T14:49:20Z</time>
      </trkpt>
      <trkpt lat="46.11922" lon="6.7415">
        <ele>1300.58</ele>
        <time>2025-02-02T14:49:25Z</time>
      </trkpt>
      <trkpt lat="46.11911" lon="6.74122">
        <ele>1292.706</ele>
        <time>2025-02-02T14:49:30Z</time>
      </trkpt>
      <trkpt lat="46.11899" lon="6.74125">
        <ele>1289.322</ele>
        <time>2025-02-02T14:49:35Z</time>
      </trkpt>
      <trkpt lat="46.11897" lon="6.74124">
        <ele>1289.477</ele>
        <time>2025-02-02T14:49:40Z</time>
      </trkpt>
      <trkpt lat="46.11882" lon="6.74122">
        <ele>1287.121</ele>
        <time>2025-02-02T14:49:45Z</time>
      </trkpt>
      <trkpt lat="46.1188" lon="6.74116">
        <ele>1287.361</ele>
        <time>2025-02-02T14:49:50Z</time>
      </trkpt>
      <trkpt lat="46.1188" lon="6.74116">
        <ele>1287.318</ele>
        <time>2025-02-02T14:49:55Z</time>
      </trkpt>
      <trkpt lat="46.1188" lon="6.74116">
        <ele>1284.231</ele>
        <time>2025-02-02T14:50:00Z</time>
      </trkpt>
      <trkpt lat="46.1188" lon="6.74116">
        <ele>1282.624</ele>
        <time>2025-02-02T14:50:05Z</time>
      </trkpt>
      <trkpt lat="46.1188" lon="6.74116">
        <ele>1282.251</ele>
        <time>2025-02-02T14:50:10Z</time>
      </trkpt>
      <trkpt lat="46.11875" lon="6.74108">
        <ele>1282.08</ele>
        <time>2025-02-02T14:50:15Z</time>
      </trkpt>
      <trkpt lat="46.1188" lon="6.74087">
        <ele>1280.355</ele>
        <time>2025-02-02T14:50:20Z</time>
      </trkpt>
      <trkpt lat="46.11878" lon="6.74067">
        <ele>1277.878</ele>
        <time>2025-02-02T14:50:25Z</time>
      </trkpt>
      <trkpt lat="46.11878" lon="6.74054">
        <ele>1276.64</ele>
        <time>2025-02-02T14:50:30Z</time>
      </trkpt>
      <trkpt lat="46.11863" lon="6.74044">
        <ele>1272.804</ele>
        <time>2025-02-02T14:50:35Z</time>
      </trkpt>
      <trkpt lat="46.11858" lon="6.74044">
        <ele>1270.731</ele>
        <time>2025-02-02T14:50:40Z</time>
      </trkpt>
      <trkpt lat="46.11862" lon="6.74033">
        <ele>1266.718</ele>
        <time>2025-02-02T14:50:45Z</time>
      </trkpt>
      <trkpt lat="46.11865" lon="6.74025">
        <ele>1264.099</ele>
        <time>2025-02-02T14:50:50Z</time>
      </trkpt>
      <trkpt lat="46.11871" lon="6.7401">
        <ele>1263.97</ele>
        <time>2025-02-02T14:50:55Z</time>
      </trkpt>
      <trkpt lat="46.11861" lon="6.7402">
        <ele>1260.622</ele>
        <time>2025-02-02T14:51:00Z</time>
      </trkpt>
      <trkpt lat="46.11849" lon="6.74032">
        <ele>1260.392</ele>
        <time>2025-02-02T14:51:05Z</time>
      </trkpt>
      <trkpt lat="46.11846" lon="6.74042">
        <ele>1259.255</ele>
        <time>2025-02-02T14:51:10Z</time>
      </trkpt>
      <trkpt lat="46.11846" lon="6.74042">
        <ele>1257.612</ele>
        <time>2025-02-02T14:51:15Z</time>
      </trkpt>
      <trkpt lat="46.11846" lon="6.74042">
        <ele>1257.703</ele>
        <time>2025-02-02T14:51:20Z</time>
      </trkpt>
      <trkpt lat="46.11845" lon="6.74044">
        <ele>1257.508</ele>
        <time>2025-02-02T14:51:25Z</time>
      </trkpt>
      <trkpt lat="46.11839" lon="6.74051">
        <ele>1255.342</ele>
        <time>2025-02-02T14:51:30Z</time>
      </trkpt>
      <trkpt lat="46.11835" lon="6.74055">
        <ele>1255.443</ele>
        <time>2025-02-02T14:51:35Z</time>
      </trkpt>
      <trkpt lat="46.11834" lon="6.74055">
        <ele>1256.607</ele>
        <time>2025-02-02T14:51:40Z</time>
      </trkpt>
      <trkpt lat="46.11833" lon="6.74056">
        <ele>1257.632</ele>
        <time>2025-02-02T14:51:45Z</time>
      </trkpt>
      <trkpt lat="46.11833" lon="6.74056">
        <ele>1257.54</ele>
        <time>2025-02-02T14:51:50Z</time>
      </trkpt>
      <trkpt lat="46.11833" lon="6.74056">
        <ele>1257.606</ele>
        <time>2025-02-02T14:51:55Z</time>
      </trkpt>
      <trkpt lat="46.11833" lon="6.74056">
        <ele>1257.73</ele>
        <time>2025-02-02T14:52:00Z</time>
      </trkpt>
      <trkpt lat="46.11833" lon="6.74056">
        <ele>1257.782</ele>
        <time>2025-02-02T14:52:05Z</time>
      </trkpt>
      <trkpt lat="46.11833" lon="6.74057">
        <ele>1257.812</ele>
        <time>2025-02-02T14:52:10Z</time>
      </trkpt>
      <trkpt lat="46.11833" lon="6.74057">
        <ele>1257.804</ele>
        <time>2025-02-02T14:52:15Z</time>
      </trkpt>
      <trkpt lat="46.11833" lon="6.74057">
        <ele>1257.812</ele>
        <time>2025-02-02T14:52:20Z</time>
      </trkpt>
      <trkpt lat="46.11823" lon="6.74064">
        <ele>1258.03</ele>
        <time>2025-02-02T14:52:25Z</time>
      </trkpt>
      <trkpt lat="46.11808" lon="6.74067">
        <ele>1256.277</ele>
        <time>2025-02-02T14:52:30Z</time>
      </trkpt>
      <trkpt lat="46.11793" lon="6.7408">
        <ele>1254.994</ele>
        <time>2025-02-02T14:52:35Z</time>
      </trkpt>
      <trkpt lat="46.11778" lon="6.74096">
        <ele>1257.066</ele>
        <time>2025-02-02T14:52:40Z</time>
      </trkpt>
      <trkpt lat="46.11768" lon="6.74101">
        <ele>1253.716</ele>
        <time>2025-02-02T14:52:45Z</time>
      </trkpt>
      <trkpt lat="46.11767" lon="6.741">
        <ele>1253.077</ele>
        <time>2025-02-02T14:52:50Z</time>
      </trkpt>
      <trkpt lat="46.11766" lon="6.741">
        <ele>1252.771</ele>
        <time>2025-02-02T14:52:55Z</time>
      </trkpt>
      <trkpt lat="46.11763" lon="6.74098">
        <ele>1252.472</ele>
        <time>2025-02-02T14:53:00Z</time>
      </trkpt>
      <trkpt lat="46.11762" lon="6.74102">
        <ele>1250.644</ele>
        <time>2025-02-02T14:53:05Z</time>
      </trkpt>
      <trkpt lat="46.11762" lon="6.74102">
        <ele>1252.42</ele>
        <time>2025-02-02T14:53:10Z</time>
      </trkpt>
      <trkpt lat="46.11762" lon="6.74102">
        <ele>1252.166</ele>
        <time>2025-02-02T14:53:15Z</time>
      </trkpt>
      <trkpt lat="46.11762" lon="6.74102">
        <ele>1252.192</ele>
        <time>2025-02-02T14:53:20Z</time>
      </trkpt>
      <trkpt lat="46.11762" lon="6.74102">
        <ele>1252.364</ele>
        <time>2025-02-02T14:53:25Z</time>
      </trkpt>
      <trkpt lat="46.11762" lon="6.74102">
        <ele>1252.327</ele>
        <time>2025-02-02T14:53:30Z</time>
      </trkpt>
      <trkpt lat="46.11762" lon="6.74102">
        <ele>1248.996</ele>
        <time>2025-02-02T14:53:35Z</time>
      </trkpt>
      <trkpt lat="46.11762" lon="6.74102">
        <ele>1247.93</ele>
        <time>2025-02-02T14:53:40Z</time>
      </trkpt>
      <trkpt lat="46.11762" lon="6.74102">
        <ele>1249.568</ele>
        <time>2025-02-02T14:53:45Z</time>
      </trkpt>
      <trkpt lat="46.11762" lon="6.74102">
        <ele>1247.563</ele>
        <time>2025-02-02T14:53:50Z</time>
      </trkpt>
      <trkpt lat="46.11762" lon="6.74102">
        <ele>1250.211</ele>
        <time>2025-02-02T14:53:55Z</time>
      </trkpt>
      <trkpt lat="46.11762" lon="6.74102">
        <ele>1251.536</ele>
        <time>2025-02-02T14:54:00Z</time>
      </trkpt>
      <trkpt lat="46.11762" lon="6.74102">
        <ele>1248.31</ele>
        <time>2025-02-02T14:54:05Z</time>
      </trkpt>
      <trkpt lat="46.11762" lon="6.74102">
        <ele>1248.21</ele>
        <time>2025-02-02T14:54:10Z</time>
      </trkpt>
      <trkpt lat="46.11762" lon="6.74102">
        <ele>1248.206</ele>
        <time>2025-02-02T14:54:15Z</time>
      </trkpt>
      <trkpt lat="46.11762" lon="6.74102">
        <ele>1248.204</ele>
        <time>2025-02-02T14:54:20Z</time>
      </trkpt>
      <trkpt lat="46.11762" lon="6.74102">
        <ele>1248.202</ele>
        <time>2025-02-02T14:54:25Z</time>
      </trkpt>
      <trkpt lat="46.11762" lon="6.74102">
        <ele>1248.203</ele>
        <time>2025-02-02T14:54:30Z</time>
      </trkpt>
      <trkpt lat="46.11762" lon="6.74102">
        <ele>1248.208</ele>
        <time>2025-02-02T14:54:35Z</time>
      </trkpt>
      <trkpt lat="46.11762" lon="6.74102">
        <ele>1248.227</ele>
        <time>2025-02-02T14:54:40Z</time>
      </trkpt>
      <trkpt lat="46.11762" lon="6.74102">
        <ele>1248.381</ele>
        <time>2025-02-02T14:54:45Z</time>
      </trkpt>
      <trkpt lat="46.11762" lon="6.74102">
        <ele>1248.384</ele>
        <time>2025-02-02T14:54:50Z</time>
      </trkpt>
      <trkpt lat="46.11762" lon="6.74102">
        <ele>1248.383</ele>
        <time>2025-02-02T14:54:55Z</time>
      </trkpt>
      <trkpt lat="46.11762" lon="6.74102">
        <ele>1248.379</ele>
        <time>2025-02-02T14:55:00Z</time>
      </trkpt>
      <trkpt lat="46.11762" lon="6.74102">
        <ele>1248.355</ele>
        <time>2025-02-02T14:55:05Z</time>
      </trkpt>
      <trkpt lat="46.1175" lon="6.74095">
        <ele>1248.312</ele>
        <time>2025-02-02T14:55:10Z</time>
      </trkpt>
      <trkpt lat="46.11747" lon="6.74099">
        <ele>1242.082</ele>
        <time>2025-02-02T14:55:15Z</time>
      </trkpt>
      <trkpt lat="46.1174" lon="6.74107">
        <ele>1238.91</ele>
        <time>2025-02-02T14:55:20Z</time>
      </trkpt>
      <trkpt lat="46.11736" lon="6.74114">
        <ele>1237.693</ele>
        <time>2025-02-02T14:55:25Z</time>
      </trkpt>
      <trkpt lat="46.11732" lon="6.74121">
        <ele>1236.123</ele>
        <time>2025-02-02T14:55:30Z</time>
      </trkpt>
      <trkpt lat="46.11727" lon="6.74126">
        <ele>1236.763</ele>
        <time>2025-02-02T14:55:35Z</time>
      </trkpt>
      <trkpt lat="46.11721" lon="6.74131">
        <ele>1237.141</ele>
        <time>2025-02-02T14:55:40Z</time>
      </trkpt>
      <trkpt lat="46.11719" lon="6.74136">
        <ele>1235.061</ele>
        <time>2025-02-02T14:55:45Z</time>
      </trkpt>
      <trkpt lat="46.11715" lon="6.74143">
        <ele>1233.544</ele>
        <time>2025-02-02T14:55:50Z</time>
      </trkpt>
      <trkpt lat="46.11713" lon="6.7415">
        <ele>1233.608</ele>
        <time>2025-02-02T14:55:55Z</time>
      </trkpt>
      <trkpt lat="46.11709" lon="6.74155">
        <ele>1233.287</ele>
        <time>2025-02-02T14:56:00Z</time>
      </trkpt>
      <trkpt lat="46.11705" lon="6.7416">
        <ele>1234.034</ele>
        <time>2025-02-02T14:56:05Z</time>
      </trkpt>
      <trkpt lat="46.11702" lon="6.74165">
        <ele>1233.749</ele>
        <time>2025-02-02T14:56:10Z</time>
      </trkpt>
      <trkpt lat="46.11699" lon="6.7417">
        <ele>1232.811</ele>
        <time>2025-02-02T14:56:15Z</time>
      </trkpt>
      <trkpt lat="46.11697" lon="6.74177">
        <ele>1232.859</ele>
        <time>2025-02-02T14:56:20Z</time>
      </trkpt>
      <trkpt lat="46.11696" lon="6.74182">
        <ele>1233.132</ele>
        <time>2025-02-02T14:56:25Z</time>
      </trkpt>
      <trkpt lat="46.11695" lon="6.74188">
        <ele>1231.798</ele>
        <time>2025-02-02T14:56:30Z</time>
      </trkpt>
      <trkpt lat="46.11694" lon="6.74196">
        <ele>1230.617</ele>
        <time>2025-02-02T14:56:35Z</time>
      </trkpt>
      <trkpt lat="46.11693" lon="6.74202">
        <ele>1229.287</ele>
        <time>2025-02-02T14:56:40Z</time>
      </trkpt>
      <trkpt lat="46.11693" lon="6.74202">
        <ele>1229.328</ele>
        <time>2025-02-02T14:56:45Z</time>
      </trkpt>
      <trkpt lat="46.11693" lon="6.74203">
        <ele>1230.224</ele>
        <time>2025-02-02T14:56:50Z</time>
      </trkpt>
      <trkpt lat="46.11692" lon="6.74203">
        <ele>1230.618</ele>
        <time>2025-02-02T14:56:55Z</time>
      </trkpt>
      <trkpt lat="46.11692" lon="6.74207">
        <ele>1229.675</ele>
        <time>2025-02-02T14:57:00Z</time>
      </trkpt>
      <trkpt lat="46.11687" lon="6.7423">
        <ele>1226.414</ele>
        <time>2025-02-02T14:57:05Z</time>
      </trkpt>
      <trkpt lat="46.11666" lon="6.74224">
        <ele>1230.32</ele>
        <time>2025-02-02T14:57:10Z</time>
      </trkpt>
      <trkpt lat="46.11654" lon="6.74208">
        <ele>1226.727</ele>
        <time>2025-02-02T14:57:15Z</time>
      </trkpt>
      <trkpt lat="46.11642" lon="6.74202">
        <ele>1226.408</ele>
        <time>2025-02-02T14:57:20Z</time>
      </trkpt>
      <trkpt lat="46.11626" lon="6.74202">
        <ele>1223.773</ele>
        <time>2025-02-02T14:57:25Z</time>
      </trkpt>
      <trkpt lat="46.11608" lon="6.74211">
        <ele>1219.859</ele>
        <time>2025-02-02T14:57:30Z</time>
      </trkpt>
      <trkpt lat="46.11596" lon="6.74238">
        <ele>1214.88</ele>
        <time>2025-02-02T14:57:35Z</time>
      </trkpt>
      <trkpt lat="46.11585" lon="6.74259">
        <ele>1212.259</ele>
        <time>2025-02-02T14:57:40Z</time>
      </trkpt>
      <trkpt lat="46.11575" lon="6.74275">
        <ele>1211.933</ele>
        <time>2025-02-02T14:57:45Z</time>
      </trkpt>
      <trkpt lat="46.11567" lon="6.74281">
        <ele>1210.772</ele>
        <time>2025-02-02T14:57:50Z</time>
      </trkpt>
      <trkpt lat="46.11567" lon="6.74281">
        <ele>1210.999</ele>
        <time>2025-02-02T14:57:55Z</time>
      </trkpt>
      <trkpt lat="46.11567" lon="6.74281">
        <ele>1211.687</ele>
        <time>2025-02-02T14:58:00Z</time>
      </trkpt>
      <trkpt lat="46.11567" lon="6.74281">
        <ele>1211.77</ele>
        <time>2025-02-02T14:58:05Z</time>
      </trkpt>
      <trkpt lat="46.11567" lon="6.74281">
        <ele>1211.889</ele>
        <time>2025-02-02T14:58:10Z</time>
      </trkpt>
      <trkpt lat="46.11567" lon="6.74281">
        <ele>1211.889</ele>
        <time>2025-02-02T14:58:15Z</time>
      </trkpt>
      <trkpt lat="46.11567" lon="6.74281">
        <ele>1211.977</ele>
        <time>2025-02-02T14:58:20Z</time>
      </trkpt>
      <trkpt lat="46.11567" lon="6.74281">
        <ele>1211.968</ele>
        <time>2025-02-02T14:58:25Z</time>
      </trkpt>
      <trkpt lat="46.11565" lon="6.74281">
        <ele>1209.013</ele>
        <time>2025-02-02T14:58:30Z</time>
      </trkpt>
      <trkpt lat="46.11552" lon="6.74281">
        <ele>1212.579</ele>
        <time>2025-02-02T14:58:35Z</time>
      </trkpt>
      <trkpt lat="46.11543" lon="6.74281">
        <ele>1213.303</ele>
        <time>2025-02-02T14:58:40Z</time>
      </trkpt>
      <trkpt lat="46.11538" lon="6.74278">
        <ele>1218.2</ele>
        <time>2025-02-02T14:58:45Z</time>
      </trkpt>
      <trkpt lat="46.11536" lon="6.74275">
        <ele>1218.412</ele>
        <time>2025-02-02T14:58:50Z</time>
      </trkpt>
      <trkpt lat="46.11535" lon="6.74275">
        <ele>1217.213</ele>
        <time>2025-02-02T14:58:55Z</time>
      </trkpt>
      <trkpt lat="46.11534" lon="6.74275">
        <ele>1217.802</ele>
        <time>2025-02-02T14:59:00Z</time>
      </trkpt>
      <trkpt lat="46.11528" lon="6.74275">
        <ele>1212.424</ele>
        <time>2025-02-02T14:59:05Z</time>
      </trkpt>
      <trkpt lat="46.11524" lon="6.74275">
        <ele>1212.306</ele>
        <time>2025-02-02T14:59:10Z</time>
      </trkpt>
      <trkpt lat="46.11517" lon="6.74275">
        <ele>1212.635</ele>
        <time>2025-02-02T14:59:15Z</time>
      </trkpt>
      <trkpt lat="46.11509" lon="6.74277">
        <ele>1213.493</ele>
        <time>2025-02-02T14:59:20Z</time>
      </trkpt>
      <trkpt lat="46.11502" lon="6.74276">
        <ele>1211.657</ele>
        <time>2025-02-02T14:59:25Z</time>
      </trkpt>
      <trkpt lat="46.11496" lon="6.74274">
        <ele>1214.072</ele>
        <time>2025-02-02T14:59:30Z</time>
      </trkpt>
      <trkpt lat="46.11489" lon="6.74274">
        <ele>1213.081</ele>
        <time>2025-02-02T14:59:35Z</time>
      </trkpt>
      <trkpt lat="46.11483" lon="6.74274">
        <ele>1211.769</ele>
        <time>2025-02-02T14:59:40Z</time>
      </trkpt>
      <trkpt lat="46.11478" lon="6.74275">
        <ele>1208.832</ele>
        <time>2025-02-02T14:59:45Z</time>
      </trkpt>
      <trkpt lat="46.11473" lon="6.74278">
        <ele>1208.485</ele>
        <time>2025-02-02T14:59:50Z</time>
      </trkpt>
      <trkpt lat="46.11471" lon="6.74283">
        <ele>1208.865</ele>
        <time>2025-02-02T14:59:55Z</time>
      </trkpt>
      <trkpt lat="46.11471" lon="6.74285">
        <ele>1208.852</ele>
        <time>2025-02-02T15:00:00Z</time>
      </trkpt>
      <trkpt lat="46.11471" lon="6.74287">
        <ele>1206.455</ele>
        <time>2025-02-02T15:00:05Z</time>
      </trkpt>
      <trkpt lat="46.11473" lon="6.74289">
        <ele>1205.466</ele>
        <time>2025-02-02T15:00:10Z</time>
      </trkpt>
      <trkpt lat="46.11473" lon="6.74297">
        <ele>1200.822</ele>
        <time>2025-02-02T15:00:15Z</time>
      </trkpt>
      <trkpt lat="46.11475" lon="6.74303">
        <ele>1200.879</ele>
        <time>2025-02-02T15:00:20Z</time>
      </trkpt>
      <trkpt lat="46.11477" lon="6.74308">
        <ele>1200.056</ele>
        <time>2025-02-02T15:00:25Z</time>
      </trkpt>
      <trkpt lat="46.11478" lon="6.74315">
        <ele>1197.68</ele>
        <time>2025-02-02T15:00:30Z</time>
      </trkpt>
      <trkpt lat="46.1148" lon="6.74321">
        <ele>1196.536</ele>
        <time>2025-02-02T15:00:35Z</time>
      </trkpt>
      <trkpt lat="46.1148" lon="6.7433">
        <ele>1194.017</ele>
        <time>2025-02-02T15:00:40Z</time>
      </trkpt>
      <trkpt lat="46.11482" lon="6.74339">
        <ele>1192.357</ele>
        <time>2025-02-02T15:00:45Z</time>
      </trkpt>
      <trkpt lat="46.11485" lon="6.74346">
        <ele>1189.224</ele>
        <time>2025-02-02T15:00:50Z</time>
      </trkpt>
      <trkpt lat="46.11486" lon="6.74354">
        <ele>1191.124</ele>
        <time>2025-02-02T15:00:55Z</time>
      </trkpt>
      <trkpt lat="46.11486" lon="6.74361">
        <ele>1190.764</ele>
        <time>2025-02-02T15:01:00Z</time>
      </trkpt>
      <trkpt lat="46.11487" lon="6.74369">
        <ele>1188.878</ele>
        <time>2025-02-02T15:01:05Z</time>
      </trkpt>
      <trkpt lat="46.11489" lon="6.74375">
        <ele>1186.235</ele>
        <time>2025-02-02T15:01:10Z</time>
      </trkpt>
      <trkpt lat="46.11491" lon="6.74382">
        <ele>1184.876</ele>
        <time>2025-02-02T15:01:15Z</time>
      </trkpt>
      <trkpt lat="46.11494" lon="6.74387">
        <ele>1184.25</ele>
        <time>2025-02-02T15:01:20Z</time>
      </trkpt>
      <trkpt lat="46.11496" lon="6.74393">
        <ele>1184.294</ele>
        <time>2025-02-02T15:01:25Z</time>
      </trkpt>
      <trkpt lat="46.11496" lon="6.744">
        <ele>1186.16</ele>
        <time>2025-02-02T15:01:30Z</time>
      </trkpt>
      <trkpt lat="46.11497" lon="6.74408">
        <ele>1186.758</ele>
        <time>2025-02-02T15:01:35Z</time>
      </trkpt>
      <trkpt lat="46.11499" lon="6.74415">
        <ele>1186.501</ele>
        <time>2025-02-02T15:01:40Z</time>
      </trkpt>
      <trkpt lat="46.11502" lon="6.74419">
        <ele>1183.327</ele>
        <time>2025-02-02T15:01:45Z</time>
      </trkpt>
      <trkpt lat="46.11505" lon="6.74423">
        <ele>1182.592</ele>
        <time>2025-02-02T15:01:50Z</time>
      </trkpt>
      <trkpt lat="46.11509" lon="6.74427">
        <ele>1184.401</ele>
        <time>2025-02-02T15:01:55Z</time>
      </trkpt>
      <trkpt lat="46.1151" lon="6.74432">
        <ele>1182.918</ele>
        <time>2025-02-02T15:02:00Z</time>
      </trkpt>
      <trkpt lat="46.11511" lon="6.7444">
        <ele>1183.051</ele>
        <time>2025-02-02T15:02:05Z</time>
      </trkpt>
      <trkpt lat="46.1151" lon="6.74448">
        <ele>1183.613</ele>
        <time>2025-02-02T15:02:10Z</time>
      </trkpt>
      <trkpt lat="46.1151" lon="6.74455">
        <ele>1182.368</ele>
        <time>2025-02-02T15:02:15Z</time>
      </trkpt>
      <trkpt lat="46.1151" lon="6.74462">
        <ele>1182.85</ele>
        <time>2025-02-02T15:02:20Z</time>
      </trkpt>
      <trkpt lat="46.1151" lon="6.74469">
        <ele>1180.839</ele>
        <time>2025-02-02T15:02:25Z</time>
      </trkpt>
      <trkpt lat="46.11511" lon="6.74474">
        <ele>1178.562</ele>
        <time>2025-02-02T15:02:30Z</time>
      </trkpt>
      <trkpt lat="46.11511" lon="6.74482">
        <ele>1179.793</ele>
        <time>2025-02-02T15:02:35Z</time>
      </trkpt>
      <trkpt lat="46.11514" lon="6.74489">
        <ele>1178.169</ele>
        <time>2025-02-02T15:02:40Z</time>
      </trkpt>
      <trkpt lat="46.11516" lon="6.74495">
        <ele>1176.818</ele>
        <time>2025-02-02T15:02:45Z</time>
      </trkpt>
      <trkpt lat="46.11519" lon="6.74501">
        <ele>1173.099</ele>
        <time>2025-02-02T15:02:50Z</time>
      </trkpt>
      <trkpt lat="46.11522" lon="6.74507">
        <ele>1171.946</ele>
        <time>2025-02-02T15:02:55Z</time>
      </trkpt>
      <trkpt lat="46.11526" lon="6.74513">
        <ele>1171.898</ele>
        <time>2025-02-02T15:03:00Z</time>
      </trkpt>
      <trkpt lat="46.11528" lon="6.74518">
        <ele>1171.642</ele>
        <time>2025-02-02T15:03:05Z</time>
      </trkpt>
      <trkpt lat="46.1153" lon="6.74522">
        <ele>1172.073</ele>
        <time>2025-02-02T15:03:10Z</time>
      </trkpt>
      <trkpt lat="46.11532" lon="6.74527">
        <ele>1172.46</ele>
        <time>2025-02-02T15:03:15Z</time>
      </trkpt>
      <trkpt lat="46.11532" lon="6.74534">
        <ele>1173.225</ele>
        <time>2025-02-02T15:03:20Z</time>
      </trkpt>
      <trkpt lat="46.11531" lon="6.74542">
        <ele>1172.224</ele>
        <time>2025-02-02T15:03:25Z</time>
      </trkpt>
      <trkpt lat="46.1153" lon="6.74551">
        <ele>1172.278</ele>
        <time>2025-02-02T15:03:30Z</time>
      </trkpt>
      <trkpt lat="46.11532" lon="6.74557">
        <ele>1169.868</ele>
        <time>2025-02-02T15:03:35Z</time>
      </trkpt>
      <trkpt lat="46.11536" lon="6.74561">
        <ele>1168.848</ele>
        <time>2025-02-02T15:03:40Z</time>
      </trkpt>
      <trkpt lat="46.1154" lon="6.74564">
        <ele>1170.695</ele>
        <time>2025-02-02T15:03:45Z</time>
      </trkpt>
      <trkpt lat="46.11544" lon="6.74564">
        <ele>1172.076</ele>
        <time>2025-02-02T15:03:50Z</time>
      </trkpt>
      <trkpt lat="46.11549" lon="6.74565">
        <ele>1171.701</ele>
        <time>2025-02-02T15:03:55Z</time>
      </trkpt>
      <trkpt lat="46.11552" lon="6.74569">
        <ele>1167.643</ele>
        <time>2025-02-02T15:04:00Z</time>
      </trkpt>
      <trkpt lat="46.11557" lon="6.74573">
        <ele>1166.635</ele>
        <time>2025-02-02T15:04:05Z</time>
      </trkpt>
      <trkpt lat="46.11559" lon="6.7458">
        <ele>1165.398</ele>
        <time>2025-02-02T15:04:10Z</time>
      </trkpt>
      <trkpt lat="46.1156" lon="6.74587">
        <ele>1166.088</ele>
        <time>2025-02-02T15:04:15Z</time>
      </trkpt>
      <trkpt lat="46.1156" lon="6.74592">
        <ele>1165.702</ele>
        <time>2025-02-02T15:04:20Z</time>
      </trkpt>
      <trkpt lat="46.1156" lon="6.74598">
        <ele>1165.621</ele>
        <time>2025-02-02T15:04:25Z</time>
      </trkpt>
      <trkpt lat="46.11559" lon="6.74605">
        <ele>1167.399</ele>
        <time>2025-02-02T15:04:30Z</time>
      </trkpt>
      <trkpt lat="46.11558" lon="6.7461">
        <ele>1167.98</ele>
        <time>2025-02-02T15:04:35Z</time>
      </trkpt>
      <trkpt lat="46.11558" lon="6.74618">
        <ele>1166.729</ele>
        <time>2025-02-02T15:04:40Z</time>
      </trkpt>
      <trkpt lat="46.11558" lon="6.74625">
        <ele>1168.038</ele>
        <time>2025-02-02T15:04:45Z</time>
      </trkpt>
      <trkpt lat="46.11557" lon="6.7463">
        <ele>1166.915</ele>
        <time>2025-02-02T15:04:50Z</time>
      </trkpt>
      <trkpt lat="46.11558" lon="6.74638">
        <ele>1164.149</ele>
        <time>2025-02-02T15:04:55Z</time>
      </trkpt>
      <trkpt lat="46.11558" lon="6.74645">
        <ele>1162.969</ele>
        <time>2025-02-02T15:05:00Z</time>
      </trkpt>
      <trkpt lat="46.11558" lon="6.74653">
        <ele>1164.818</ele>
        <time>2025-02-02T15:05:05Z</time>
      </trkpt>
      <trkpt lat="46.11557" lon="6.74661">
        <ele>1165.563</ele>
        <time>2025-02-02T15:05:10Z</time>
      </trkpt>
      <trkpt lat="46.11558" lon="6.74668">
        <ele>1164.102</ele>
        <time>2025-02-02T15:05:15Z</time>
      </trkpt>
      <trkpt lat="46.11561" lon="6.74673">
        <ele>1163.006</ele>
        <time>2025-02-02T15:05:20Z</time>
      </trkpt>
      <trkpt lat="46.11562" lon="6.74681">
        <ele>1163.019</ele>
        <time>2025-02-02T15:05:25Z</time>
      </trkpt>
      <trkpt lat="46.11565" lon="6.74688">
        <ele>1160.129</ele>
        <time>2025-02-02T15:05:30Z</time>
      </trkpt>
      <trkpt lat="46.11564" lon="6.74697">
        <ele>1160.064</ele>
        <time>2025-02-02T15:05:35Z</time>
      </trkpt>
      <trkpt lat="46.11564" lon="6.74703">
        <ele>1163.157</ele>
        <time>2025-02-02T15:05:40Z</time>
      </trkpt>
      <trkpt lat="46.11563" lon="6.7471">
        <ele>1163.191</ele>
        <time>2025-02-02T15:05:45Z</time>
      </trkpt>
      <trkpt lat="46.11563" lon="6.74718">
        <ele>1160.023</ele>
        <time>2025-02-02T15:05:50Z</time>
      </trkpt>
      <trkpt lat="46.11563" lon="6.74725">
        <ele>1158.593</ele>
        <time>2025-02-02T15:05:55Z</time>
      </trkpt>
      <trkpt lat="46.11563" lon="6.74728">
        <ele>1157.783</ele>
        <time>2025-02-02T15:06:00Z</time>
      </trkpt>
      <trkpt lat="46.11563" lon="6.74728">
        <ele>1157.843</ele>
        <time>2025-02-02T15:06:05Z</time>
      </trkpt>
      <trkpt lat="46.11563" lon="6.74728">
        <ele>1158.784</ele>
        <time>2025-02-02T15:06:10Z</time>
      </trkpt>
      <trkpt lat="46.11563" lon="6.74728">
        <ele>1159.538</ele>
        <time>2025-02-02T15:06:15Z</time>
      </trkpt>
      <trkpt lat="46.11563" lon="6.74728">
        <ele>1159.59</ele>
        <time>2025-02-02T15:06:20Z</time>
      </trkpt>
      <trkpt lat="46.11563" lon="6.74728">
        <ele>1159.273</ele>
        <time>2025-02-02T15:06:25Z</time>
      </trkpt>
      <trkpt lat="46.11563" lon="6.74728">
        <ele>1159.297</ele>
        <time>2025-02-02T15:06:30Z</time>
      </trkpt>
      <trkpt lat="46.11563" lon="6.74728">
        <ele>1158.221</ele>
        <time>2025-02-02T15:06:35Z</time>
      </trkpt>
      <trkpt lat="46.11563" lon="6.74728">
        <ele>1158.029</ele>
        <time>2025-02-02T15:06:40Z</time>
      </trkpt>
      <trkpt lat="46.11563" lon="6.74728">
        <ele>1156.936</ele>
        <time>2025-02-02T15:06:45Z</time>
      </trkpt>
      <trkpt lat="46.1156" lon="6.74738">
        <ele>1155.327</ele>
        <time>2025-02-02T15:06:50Z</time>
      </trkpt>
      <trkpt lat="46.11558" lon="6.74742">
        <ele>1153.505</ele>
        <time>2025-02-02T15:06:55Z</time>
      </trkpt>
      <trkpt lat="46.11551" lon="6.74759">
        <ele>1151.547</ele>
        <time>2025-02-02T15:07:00Z</time>
      </trkpt>
      <trkpt lat="46.11544" lon="6.74777">
        <ele>1152.789</ele>
        <time>2025-02-02T15:07:05Z</time>
      </trkpt>
      <trkpt lat="46.11536" lon="6.74786">
        <ele>1151.224</ele>
        <time>2025-02-02T15:07:10Z</time>
      </trkpt>
      <trkpt lat="46.11526" lon="6.74791">
        <ele>1151.469</ele>
        <time>2025-02-02T15:07:15Z</time>
      </trkpt>
      <trkpt lat="46.11522" lon="6.7479">
        <ele>1153.461</ele>
        <time>2025-02-02T15:07:20Z</time>
      </trkpt>
      <trkpt lat="46.11522" lon="6.74789">
        <ele>1154.713</ele>
        <time>2025-02-02T15:07:25Z</time>
      </trkpt>
      <trkpt lat="46.11522" lon="6.74789">
        <ele>1155.874</ele>
        <time>2025-02-02T15:07:30Z</time>
      </trkpt>
      <trkpt lat="46.11522" lon="6.74789">
        <ele>1155.975</ele>
        <time>2025-02-02T15:07:35Z</time>
      </trkpt>
      <trkpt lat="46.11522" lon="6.74789">
        <ele>1155.967</ele>
        <time>2025-02-02T15:07:40Z</time>
      </trkpt>
      <trkpt lat="46.11522" lon="6.74789">
        <ele>1155.98</ele>
        <time>2025-02-02T15:07:45Z</time>
      </trkpt>
      <trkpt lat="46.11522" lon="6.74789">
        <ele>1156.004</ele>
        <time>2025-02-02T15:07:50Z</time>
      </trkpt>
      <trkpt lat="46.11522" lon="6.74789">
        <ele>1156.018</ele>
        <time>2025-02-02T15:07:55Z</time>
      </trkpt>
      <trkpt lat="46.11522" lon="6.74789">
        <ele>1156.031</ele>
        <time>2025-02-02T15:08:00Z</time>
      </trkpt>
      <trkpt lat="46.11522" lon="6.74789">
        <ele>1156.048</ele>
        <time>2025-02-02T15:08:05Z</time>
      </trkpt>
      <trkpt lat="46.11522" lon="6.74789">
        <ele>1156.055</ele>
        <time>2025-02-02T15:08:10Z</time>
      </trkpt>
      <trkpt lat="46.11522" lon="6.74789">
        <ele>1156.047</ele>
        <time>2025-02-02T15:08:15Z</time>
      </trkpt>
      <trkpt lat="46.11514" lon="6.74788">
        <ele>1153.678</ele>
        <time>2025-02-02T15:08:20Z</time>
      </trkpt>
      <trkpt lat="46.1151" lon="6.74791">
        <ele>1150.265</ele>
        <time>2025-02-02T15:08:25Z</time>
      </trkpt>
      <trkpt lat="46.11506" lon="6.74792">
        <ele>1149.825</ele>
        <time>2025-02-02T15:08:30Z</time>
      </trkpt>
      <trkpt lat="46.11501" lon="6.74795">
        <ele>1151.104</ele>
        <time>2025-02-02T15:08:35Z</time>
      </trkpt>
      <trkpt lat="46.11494" lon="6.74798">
        <ele>1154.059</ele>
        <time>2025-02-02T15:08:40Z</time>
      </trkpt>
      <trkpt lat="46.1149" lon="6.74801">
        <ele>1158.584</ele>
        <time>2025-02-02T15:08:45Z</time>
      </trkpt>
      <trkpt lat="46.11487" lon="6.74804">
        <ele>1154.168</ele>
        <time>2025-02-02T15:08:50Z</time>
      </trkpt>
      <trkpt lat="46.11484" lon="6.74808">
        <ele>1152.121</ele>
        <time>2025-02-02T15:08:55Z</time>
      </trkpt>
      <trkpt lat="46.1148" lon="6.74812">
        <ele>1151.256</ele>
        <time>2025-02-02T15:09:00Z</time>
      </trkpt>
      <trkpt lat="46.11476" lon="6.74814">
        <ele>1149.662</ele>
        <time>2025-02-02T15:09:05Z</time>
      </trkpt>
      <trkpt lat="46.11471" lon="6.74815">
        <ele>1149.23</ele>
        <time>2025-02-02T15:09:10Z</time>
      </trkpt>
      <trkpt lat="46.11467" lon="6.74815">
        <ele>1146.167</ele>
        <time>2025-02-02T15:09:15Z</time>
      </trkpt>
      <trkpt lat="46.11462" lon="6.74814">
        <ele>1143.912</ele>
        <time>2025-02-02T15:09:20Z</time>
      </trkpt>
      <trkpt lat="46.11457" lon="6.74815">
        <ele>1142.46</ele>
        <time>2025-02-02T15:09:25Z</time>
      </trkpt>
      <trkpt lat="46.11452" lon="6.74815">
        <ele>1142.643</ele>
        <time>2025-02-02T15:09:30Z</time>
      </trkpt>
      <trkpt lat="46.11448" lon="6.74818">
        <ele>1138.912</ele>
        <time>2025-02-02T15:09:35Z</time>
      </trkpt>
      <trkpt lat="46.11444" lon="6.74822">
        <ele>1137.596</ele>
        <time>2025-02-02T15:09:40Z</time>
      </trkpt>
      <trkpt lat="46.1144" lon="6.74826">
        <ele>1137.078</ele>
        <time>2025-02-02T15:09:45Z</time>
      </trkpt>
      <trkpt lat="46.11436" lon="6.7483">
        <ele>1137.139</ele>
        <time>2025-02-02T15:09:50Z</time>
      </trkpt>
      <trkpt lat="46.11435" lon="6.74834">
        <ele>1135.007</ele>
        <time>2025-02-02T15:09:55Z</time>
      </trkpt>
      <trkpt lat="46.11432" lon="6.74839">
        <ele>1133.311</ele>
        <time>2025-02-02T15:10:00Z</time>
      </trkpt>
      <trkpt lat="46.11426" lon="6.74845">
        <ele>1135.428</ele>
        <time>2025-02-02T15:10:05Z</time>
      </trkpt>
      <trkpt lat="46.11421" lon="6.74851">
        <ele>1135.486</ele>
        <time>2025-02-02T15:10:10Z</time>
      </trkpt>
      <trkpt lat="46.11418" lon="6.74857">
        <ele>1136.088</ele>
        <time>2025-02-02T15:10:15Z</time>
      </trkpt>
      <trkpt lat="46.11415" lon="6.74863">
        <ele>1136.315</ele>
        <time>2025-02-02T15:10:20Z</time>
      </trkpt>
      <trkpt lat="46.11412" lon="6.74868">
        <ele>1138.077</ele>
        <time>2025-02-02T15:10:25Z</time>
      </trkpt>
      <trkpt lat="46.1141" lon="6.74875">
        <ele>1137.84</ele>
        <time>2025-02-02T15:10:30Z</time>
      </trkpt>
      <trkpt lat="46.11408" lon="6.74881">
        <ele>1136.781</ele>
        <time>2025-02-02T15:10:35Z</time>
      </trkpt>
      <trkpt lat="46.11405" lon="6.74888">
        <ele>1134.207</ele>
        <time>2025-02-02T15:10:40Z</time>
      </trkpt>
      <trkpt lat="46.11403" lon="6.74895">
        <ele>1132.196</ele>
        <time>2025-02-02T15:10:45Z</time>
      </trkpt>
      <trkpt lat="46.11402" lon="6.74901">
        <ele>1134.601</ele>
        <time>2025-02-02T15:10:50Z</time>
      </trkpt>
      <trkpt lat="46.11401" lon="6.74906">
        <ele>1134.722</ele>
        <time>2025-02-02T15:10:55Z</time>
      </trkpt>
      <trkpt lat="46.11398" lon="6.74913">
        <ele>1134.1</ele>
        <time>2025-02-02T15:11:00Z</time>
      </trkpt>
      <trkpt lat="46.11396" lon="6.74919">
        <ele>1130.384</ele>
        <time>2025-02-02T15:11:05Z</time>
      </trkpt>
      <trkpt lat="46.11394" lon="6.74924">
        <ele>1130.211</ele>
        <time>2025-02-02T15:11:10Z</time>
      </trkpt>
      <trkpt lat="46.11391" lon="6.74929">
        <ele>1127.717</ele>
        <time>2025-02-02T15:11:15Z</time>
      </trkpt>
      <trkpt lat="46.11391" lon="6.74929">
        <ele>1127.472</ele>
        <time>2025-02-02T15:11:20Z</time>
      </trkpt>
      <trkpt lat="46.11391" lon="6.74929">
        <ele>1127.492</ele>
        <time>2025-02-02T15:11:25Z</time>
      </trkpt>
      <trkpt lat="46.11391" lon="6.74929">
        <ele>1127.112</ele>
        <time>2025-02-02T15:11:30Z</time>
      </trkpt>
      <trkpt lat="46.11391" lon="6.74929">
        <ele>1127.079</ele>
        <time>2025-02-02T15:11:35Z</time>
      </trkpt>
      <trkpt lat="46.11391" lon="6.74929">
        <ele>1127.599</ele>
        <time>2025-02-02T15:11:40Z</time>
      </trkpt>
      <trkpt lat="46.11391" lon="6.74929">
        <ele>1127.594</ele>
        <time>2025-02-02T15:11:45Z</time>
      </trkpt>
      <trkpt lat="46.11391" lon="6.74929">
        <ele>1127.603</ele>
        <time>2025-02-02T15:11:50Z</time>
      </trkpt>
      <trkpt lat="46.11391" lon="6.74929">
        <ele>1127.602</ele>
        <time>2025-02-02T15:11:55Z</time>
      </trkpt>
      <trkpt lat="46.11391" lon="6.74929">
        <ele>1127.921</ele>
        <time>2025-02-02T15:12:00Z</time>
      </trkpt>
      <trkpt lat="46.11387" lon="6.74937">
        <ele>1126.365</ele>
        <time>2025-02-02T15:12:05Z</time>
      </trkpt>
      <trkpt lat="46.11382" lon="6.74957">
        <ele>1127.528</ele>
        <time>2025-02-02T15:12:10Z</time>
      </trkpt>
      <trkpt lat="46.11362" lon="6.74968">
        <ele>1123.451</ele>
        <time>2025-02-02T15:12:15Z</time>
      </trkpt>
      <trkpt lat="46.11337" lon="6.74964">
        <ele>1120.413</ele>
        <time>2025-02-02T15:12:20Z</time>
      </trkpt>
      <trkpt lat="46.11324" lon="6.74968">
        <ele>1117.118</ele>
        <time>2025-02-02T15:12:25Z</time>
      </trkpt>
      <trkpt lat="46.11307" lon="6.74967">
        <ele>1115.05</ele>
        <time>2025-02-02T15:12:30Z</time>
      </trkpt>
      <trkpt lat="46.11287" lon="6.74963">
        <ele>1112.973</ele>
        <time>2025-02-02T15:12:35Z</time>
      </trkpt>
      <trkpt lat="46.11277" lon="6.74991">
        <ele>1111.605</ele>
        <time>2025-02-02T15:12:40Z</time>
      </trkpt>
      <trkpt lat="46.11269" lon="6.75013">
        <ele>1108.218</ele>
        <time>2025-02-02T15:12:45Z</time>
      </trkpt>
      <trkpt lat="46.11261" lon="6.75016">
        <ele>1109.052</ele>
        <time>2025-02-02T15:12:50Z</time>
      </trkpt>
    </trkseg>
  </trk>
</gpx>